<?xml version="1.0" encoding="UTF-8" standalone="no" ?>
<gpx xmlns="http://www.topografix.com/GPX/1/1" xmlns:xsi="http://www.w3.org/2001/XMLSchema-instance" xsi:schemaLocation="http://www.topografix.com/GPX/1/1 http://www.topografix.com/GPX/1/1/gpx.xsd" version="1.1" creator="VisuGPX - https://www.visugpx.com">
  <metadata>
    <name>La basse vallée du Lunain version 30 km</name>
    <desc><![CDATA[Reprise d'une rando du topo guide seine et marne en rajoutant un complément d'une dizaine de km

]]></desc>
  </metadata>
  <trk>
    <name><![CDATA[SityTrail - La basse vallée du Lunain version 30 km]]></name>
    <desc><![CDATA[Reprise d'une rando du topo guide seine et marne en rajoutant un complément d'une dizaine de km

]]></desc>
    <trkseg>
      <trkpt lat="48.33146" lon="2.77829">
        <ele>55</ele>
        <time>2023-08-09T06:41:07.414+00:00</time>
      </trkpt>
      <trkpt lat="48.33146" lon="2.77829">
        <ele>55</ele>
        <time>2023-08-09T06:41:07.414+00:00</time>
      </trkpt>
      <trkpt lat="48.33135" lon="2.77844">
        <ele>55</ele>
        <time>2023-08-09T06:45:25.110+00:00</time>
      </trkpt>
      <trkpt lat="48.33136" lon="2.77849">
        <ele>53</ele>
        <time>2023-08-09T06:45:29.112+00:00</time>
      </trkpt>
      <trkpt lat="48.33138" lon="2.77854">
        <ele>53</ele>
        <time>2023-08-09T06:45:33.115+00:00</time>
      </trkpt>
      <trkpt lat="48.33139" lon="2.77859">
        <ele>53</ele>
        <time>2023-08-09T06:45:38.119+00:00</time>
      </trkpt>
      <trkpt lat="48.33141" lon="2.77869">
        <ele>53</ele>
        <time>2023-08-09T06:45:43.111+00:00</time>
      </trkpt>
      <trkpt lat="48.33143" lon="2.77875">
        <ele>51</ele>
        <time>2023-08-09T06:45:47.118+00:00</time>
      </trkpt>
      <trkpt lat="48.33145" lon="2.77884">
        <ele>51</ele>
        <time>2023-08-09T06:45:52.121+00:00</time>
      </trkpt>
      <trkpt lat="48.33148" lon="2.77893">
        <ele>51</ele>
        <time>2023-08-09T06:45:57.113+00:00</time>
      </trkpt>
      <trkpt lat="48.33149" lon="2.77899">
        <ele>51</ele>
        <time>2023-08-09T06:46:01.122+00:00</time>
      </trkpt>
      <trkpt lat="48.33152" lon="2.77907">
        <ele>50</ele>
        <time>2023-08-09T06:46:06.114+00:00</time>
      </trkpt>
      <trkpt lat="48.33153" lon="2.77914">
        <ele>51</ele>
        <time>2023-08-09T06:46:10.115+00:00</time>
      </trkpt>
      <trkpt lat="48.33155" lon="2.7792">
        <ele>51</ele>
        <time>2023-08-09T06:46:15.115+00:00</time>
      </trkpt>
      <trkpt lat="48.33157" lon="2.77928">
        <ele>51</ele>
        <time>2023-08-09T06:46:20.125+00:00</time>
      </trkpt>
      <trkpt lat="48.33159" lon="2.77935">
        <ele>52</ele>
        <time>2023-08-09T06:46:24.110+00:00</time>
      </trkpt>
      <trkpt lat="48.33162" lon="2.77942">
        <ele>52</ele>
        <time>2023-08-09T06:46:29.106+00:00</time>
      </trkpt>
      <trkpt lat="48.33164" lon="2.77949">
        <ele>52</ele>
        <time>2023-08-09T06:46:33.119+00:00</time>
      </trkpt>
      <trkpt lat="48.33165" lon="2.77956">
        <ele>52</ele>
        <time>2023-08-09T06:46:37.120+00:00</time>
      </trkpt>
      <trkpt lat="48.33168" lon="2.77963">
        <ele>53</ele>
        <time>2023-08-09T06:46:42.104+00:00</time>
      </trkpt>
      <trkpt lat="48.3317" lon="2.77972">
        <ele>53</ele>
        <time>2023-08-09T06:46:47.115+00:00</time>
      </trkpt>
      <trkpt lat="48.3317" lon="2.77978">
        <ele>53</ele>
        <time>2023-08-09T06:46:52.109+00:00</time>
      </trkpt>
      <trkpt lat="48.33169" lon="2.7798">
        <ele>53</ele>
        <time>2023-08-09T06:46:57.112+00:00</time>
      </trkpt>
      <trkpt lat="48.33168" lon="2.77987">
        <ele>54</ele>
        <time>2023-08-09T06:47:02.108+00:00</time>
      </trkpt>
      <trkpt lat="48.33164" lon="2.77992">
        <ele>54</ele>
        <time>2023-08-09T06:47:06.108+00:00</time>
      </trkpt>
      <trkpt lat="48.3316" lon="2.77995">
        <ele>54</ele>
        <time>2023-08-09T06:47:10.102+00:00</time>
      </trkpt>
      <trkpt lat="48.33154" lon="2.77998">
        <ele>54</ele>
        <time>2023-08-09T06:47:15.124+00:00</time>
      </trkpt>
      <trkpt lat="48.3315" lon="2.77999">
        <ele>55</ele>
        <time>2023-08-09T06:47:19.135+00:00</time>
      </trkpt>
      <trkpt lat="48.33146" lon="2.78001">
        <ele>55</ele>
        <time>2023-08-09T06:47:23.127+00:00</time>
      </trkpt>
      <trkpt lat="48.33141" lon="2.78007">
        <ele>55</ele>
        <time>2023-08-09T06:47:28.134+00:00</time>
      </trkpt>
      <trkpt lat="48.33135" lon="2.7801">
        <ele>55</ele>
        <time>2023-08-09T06:47:33.127+00:00</time>
      </trkpt>
      <trkpt lat="48.3313" lon="2.78012">
        <ele>55</ele>
        <time>2023-08-09T06:47:38.145+00:00</time>
      </trkpt>
      <trkpt lat="48.33126" lon="2.78012">
        <ele>55</ele>
        <time>2023-08-09T06:47:43.137+00:00</time>
      </trkpt>
      <trkpt lat="48.33122" lon="2.78012">
        <ele>53</ele>
        <time>2023-08-09T06:47:48.142+00:00</time>
      </trkpt>
      <trkpt lat="48.33116" lon="2.78013">
        <ele>53</ele>
        <time>2023-08-09T06:47:53.139+00:00</time>
      </trkpt>
      <trkpt lat="48.33111" lon="2.78014">
        <ele>53</ele>
        <time>2023-08-09T06:47:58.143+00:00</time>
      </trkpt>
      <trkpt lat="48.33105" lon="2.78015">
        <ele>53</ele>
        <time>2023-08-09T06:48:03.130+00:00</time>
      </trkpt>
      <trkpt lat="48.331" lon="2.78015">
        <ele>53</ele>
        <time>2023-08-09T06:48:07.133+00:00</time>
      </trkpt>
      <trkpt lat="48.33093" lon="2.78013">
        <ele>52</ele>
        <time>2023-08-09T06:48:12.126+00:00</time>
      </trkpt>
      <trkpt lat="48.33089" lon="2.78014">
        <ele>53</ele>
        <time>2023-08-09T06:48:16.135+00:00</time>
      </trkpt>
      <trkpt lat="48.33083" lon="2.78015">
        <ele>53</ele>
        <time>2023-08-09T06:48:21.138+00:00</time>
      </trkpt>
      <trkpt lat="48.33076" lon="2.78014">
        <ele>53</ele>
        <time>2023-08-09T06:48:26.144+00:00</time>
      </trkpt>
      <trkpt lat="48.3307" lon="2.78014">
        <ele>53</ele>
        <time>2023-08-09T06:48:31.133+00:00</time>
      </trkpt>
      <trkpt lat="48.33065" lon="2.78014">
        <ele>53</ele>
        <time>2023-08-09T06:48:35.126+00:00</time>
      </trkpt>
      <trkpt lat="48.3306" lon="2.78015">
        <ele>53</ele>
        <time>2023-08-09T06:48:39.137+00:00</time>
      </trkpt>
      <trkpt lat="48.33053" lon="2.78016">
        <ele>53</ele>
        <time>2023-08-09T06:48:44.124+00:00</time>
      </trkpt>
      <trkpt lat="48.33051" lon="2.78016">
        <ele>53</ele>
        <time>2023-08-09T06:48:48.133+00:00</time>
      </trkpt>
      <trkpt lat="48.33052" lon="2.78014">
        <ele>53</ele>
        <time>2023-08-09T06:48:53.120+00:00</time>
      </trkpt>
      <trkpt lat="48.33052" lon="2.78013">
        <ele>52</ele>
        <time>2023-08-09T06:48:57.115+00:00</time>
      </trkpt>
      <trkpt lat="48.33051" lon="2.78016">
        <ele>53</ele>
        <time>2023-08-09T06:49:02.126+00:00</time>
      </trkpt>
      <trkpt lat="48.33045" lon="2.78016">
        <ele>53</ele>
        <time>2023-08-09T06:49:07.113+00:00</time>
      </trkpt>
      <trkpt lat="48.33039" lon="2.78017">
        <ele>53</ele>
        <time>2023-08-09T06:49:11.120+00:00</time>
      </trkpt>
      <trkpt lat="48.33034" lon="2.78018">
        <ele>53</ele>
        <time>2023-08-09T06:49:15.127+00:00</time>
      </trkpt>
      <trkpt lat="48.33028" lon="2.78019">
        <ele>53</ele>
        <time>2023-08-09T06:49:20.106+00:00</time>
      </trkpt>
      <trkpt lat="48.33022" lon="2.7802">
        <ele>53</ele>
        <time>2023-08-09T06:49:25.109+00:00</time>
      </trkpt>
      <trkpt lat="48.33017" lon="2.7802">
        <ele>53</ele>
        <time>2023-08-09T06:49:29.109+00:00</time>
      </trkpt>
      <trkpt lat="48.33011" lon="2.78019">
        <ele>52</ele>
        <time>2023-08-09T06:49:34.110+00:00</time>
      </trkpt>
      <trkpt lat="48.33006" lon="2.7802">
        <ele>52</ele>
        <time>2023-08-09T06:49:38.114+00:00</time>
      </trkpt>
      <trkpt lat="48.33" lon="2.7802">
        <ele>52</ele>
        <time>2023-08-09T06:49:43.131+00:00</time>
      </trkpt>
      <trkpt lat="48.32997" lon="2.78016">
        <ele>52</ele>
        <time>2023-08-09T06:49:47.139+00:00</time>
      </trkpt>
      <trkpt lat="48.32992" lon="2.78014">
        <ele>52</ele>
        <time>2023-08-09T06:49:52.125+00:00</time>
      </trkpt>
      <trkpt lat="48.32989" lon="2.78014">
        <ele>52</ele>
        <time>2023-08-09T06:49:57.108+00:00</time>
      </trkpt>
      <trkpt lat="48.32985" lon="2.78019">
        <ele>54</ele>
        <time>2023-08-09T06:50:01.127+00:00</time>
      </trkpt>
      <trkpt lat="48.32981" lon="2.78022">
        <ele>54</ele>
        <time>2023-08-09T06:50:05.119+00:00</time>
      </trkpt>
      <trkpt lat="48.32983" lon="2.78006">
        <ele>53</ele>
        <time>2023-08-09T06:51:43.125+00:00</time>
      </trkpt>
      <trkpt lat="48.32978" lon="2.78004">
        <ele>53</ele>
        <time>2023-08-09T06:51:48.097+00:00</time>
      </trkpt>
      <trkpt lat="48.32974" lon="2.78">
        <ele>53</ele>
        <time>2023-08-09T06:51:52.103+00:00</time>
      </trkpt>
      <trkpt lat="48.3297" lon="2.77996">
        <ele>53</ele>
        <time>2023-08-09T06:51:56.114+00:00</time>
      </trkpt>
      <trkpt lat="48.32966" lon="2.77992">
        <ele>53</ele>
        <time>2023-08-09T06:52:01.121+00:00</time>
      </trkpt>
      <trkpt lat="48.32965" lon="2.77994">
        <ele>53</ele>
        <time>2023-08-09T06:52:06.110+00:00</time>
      </trkpt>
      <trkpt lat="48.32964" lon="2.77994">
        <ele>53</ele>
        <time>2023-08-09T06:52:10.099+00:00</time>
      </trkpt>
      <trkpt lat="48.32958" lon="2.77994">
        <ele>53</ele>
        <time>2023-08-09T06:52:15.117+00:00</time>
      </trkpt>
      <trkpt lat="48.32952" lon="2.77994">
        <ele>53</ele>
        <time>2023-08-09T06:52:20.114+00:00</time>
      </trkpt>
      <trkpt lat="48.3294" lon="2.77987">
        <ele>53</ele>
        <time>2023-08-09T06:52:45.122+00:00</time>
      </trkpt>
      <trkpt lat="48.32939" lon="2.77986">
        <ele>52</ele>
        <time>2023-08-09T06:52:50.110+00:00</time>
      </trkpt>
      <trkpt lat="48.32938" lon="2.77986">
        <ele>53</ele>
        <time>2023-08-09T06:52:54.126+00:00</time>
      </trkpt>
      <trkpt lat="48.32932" lon="2.77986">
        <ele>53</ele>
        <time>2023-08-09T06:52:59.111+00:00</time>
      </trkpt>
      <trkpt lat="48.32927" lon="2.77987">
        <ele>53</ele>
        <time>2023-08-09T06:53:03.109+00:00</time>
      </trkpt>
      <trkpt lat="48.32921" lon="2.77987">
        <ele>53</ele>
        <time>2023-08-09T06:53:07.102+00:00</time>
      </trkpt>
      <trkpt lat="48.32915" lon="2.77987">
        <ele>53</ele>
        <time>2023-08-09T06:53:12.118+00:00</time>
      </trkpt>
      <trkpt lat="48.32909" lon="2.77989">
        <ele>53</ele>
        <time>2023-08-09T06:53:17.126+00:00</time>
      </trkpt>
      <trkpt lat="48.32905" lon="2.77993">
        <ele>53</ele>
        <time>2023-08-09T06:53:21.120+00:00</time>
      </trkpt>
      <trkpt lat="48.32899" lon="2.77995">
        <ele>53</ele>
        <time>2023-08-09T06:53:26.105+00:00</time>
      </trkpt>
      <trkpt lat="48.32894" lon="2.77994">
        <ele>53</ele>
        <time>2023-08-09T06:53:30.115+00:00</time>
      </trkpt>
      <trkpt lat="48.3289" lon="2.77993">
        <ele>53</ele>
        <time>2023-08-09T06:53:35.105+00:00</time>
      </trkpt>
      <trkpt lat="48.32885" lon="2.7799">
        <ele>53</ele>
        <time>2023-08-09T06:53:39.119+00:00</time>
      </trkpt>
      <trkpt lat="48.32872" lon="2.77988">
        <ele>53</ele>
        <time>2023-08-09T06:54:02.106+00:00</time>
      </trkpt>
      <trkpt lat="48.32872" lon="2.77987">
        <ele>53</ele>
        <time>2023-08-09T06:54:07.100+00:00</time>
      </trkpt>
      <trkpt lat="48.32871" lon="2.77987">
        <ele>53</ele>
        <time>2023-08-09T06:54:11.110+00:00</time>
      </trkpt>
      <trkpt lat="48.32871" lon="2.77988">
        <ele>53</ele>
        <time>2023-08-09T06:54:15.110+00:00</time>
      </trkpt>
      <trkpt lat="48.32868" lon="2.77987">
        <ele>53</ele>
        <time>2023-08-09T06:54:19.128+00:00</time>
      </trkpt>
      <trkpt lat="48.32864" lon="2.77973">
        <ele>53</ele>
        <time>2023-08-09T06:54:37.106+00:00</time>
      </trkpt>
      <trkpt lat="48.32865" lon="2.77972">
        <ele>53</ele>
        <time>2023-08-09T06:54:42.110+00:00</time>
      </trkpt>
      <trkpt lat="48.32865" lon="2.7797">
        <ele>53</ele>
        <time>2023-08-09T06:54:46.105+00:00</time>
      </trkpt>
      <trkpt lat="48.32865" lon="2.77962">
        <ele>53</ele>
        <time>2023-08-09T06:54:51.103+00:00</time>
      </trkpt>
      <trkpt lat="48.32865" lon="2.77956">
        <ele>53</ele>
        <time>2023-08-09T06:54:55.124+00:00</time>
      </trkpt>
      <trkpt lat="48.32865" lon="2.77948">
        <ele>53</ele>
        <time>2023-08-09T06:55:00.137+00:00</time>
      </trkpt>
      <trkpt lat="48.32865" lon="2.7794">
        <ele>53</ele>
        <time>2023-08-09T06:55:04.137+00:00</time>
      </trkpt>
      <trkpt lat="48.32865" lon="2.7793">
        <ele>53</ele>
        <time>2023-08-09T06:55:09.124+00:00</time>
      </trkpt>
      <trkpt lat="48.32864" lon="2.77921">
        <ele>53</ele>
        <time>2023-08-09T06:55:14.147+00:00</time>
      </trkpt>
      <trkpt lat="48.32858" lon="2.77919">
        <ele>53</ele>
        <time>2023-08-09T06:55:19.136+00:00</time>
      </trkpt>
      <trkpt lat="48.32851" lon="2.7792">
        <ele>53</ele>
        <time>2023-08-09T06:55:24.126+00:00</time>
      </trkpt>
      <trkpt lat="48.32847" lon="2.7792">
        <ele>53</ele>
        <time>2023-08-09T06:55:28.127+00:00</time>
      </trkpt>
      <trkpt lat="48.32842" lon="2.77921">
        <ele>53</ele>
        <time>2023-08-09T06:55:32.124+00:00</time>
      </trkpt>
      <trkpt lat="48.32836" lon="2.77923">
        <ele>53</ele>
        <time>2023-08-09T06:55:37.120+00:00</time>
      </trkpt>
      <trkpt lat="48.32832" lon="2.77924">
        <ele>53</ele>
        <time>2023-08-09T06:55:41.145+00:00</time>
      </trkpt>
      <trkpt lat="48.32828" lon="2.77925">
        <ele>53</ele>
        <time>2023-08-09T06:55:45.130+00:00</time>
      </trkpt>
      <trkpt lat="48.32822" lon="2.77926">
        <ele>53</ele>
        <time>2023-08-09T06:55:50.118+00:00</time>
      </trkpt>
      <trkpt lat="48.32818" lon="2.77927">
        <ele>52</ele>
        <time>2023-08-09T06:55:54.129+00:00</time>
      </trkpt>
      <trkpt lat="48.32813" lon="2.77928">
        <ele>52</ele>
        <time>2023-08-09T06:55:58.112+00:00</time>
      </trkpt>
      <trkpt lat="48.32807" lon="2.77928">
        <ele>52</ele>
        <time>2023-08-09T06:56:03.128+00:00</time>
      </trkpt>
      <trkpt lat="48.32802" lon="2.77929">
        <ele>52</ele>
        <time>2023-08-09T06:56:07.126+00:00</time>
      </trkpt>
      <trkpt lat="48.32796" lon="2.77931">
        <ele>53</ele>
        <time>2023-08-09T06:56:12.128+00:00</time>
      </trkpt>
      <trkpt lat="48.32791" lon="2.77932">
        <ele>53</ele>
        <time>2023-08-09T06:56:17.138+00:00</time>
      </trkpt>
      <trkpt lat="48.32785" lon="2.77933">
        <ele>53</ele>
        <time>2023-08-09T06:56:22.129+00:00</time>
      </trkpt>
      <trkpt lat="48.32781" lon="2.77934">
        <ele>53</ele>
        <time>2023-08-09T06:56:26.129+00:00</time>
      </trkpt>
      <trkpt lat="48.32775" lon="2.77936">
        <ele>53</ele>
        <time>2023-08-09T06:56:31.150+00:00</time>
      </trkpt>
      <trkpt lat="48.3277" lon="2.77938">
        <ele>53</ele>
        <time>2023-08-09T06:56:36.139+00:00</time>
      </trkpt>
      <trkpt lat="48.32764" lon="2.77941">
        <ele>53</ele>
        <time>2023-08-09T06:56:41.124+00:00</time>
      </trkpt>
      <trkpt lat="48.32759" lon="2.7794">
        <ele>52</ele>
        <time>2023-08-09T06:56:45.148+00:00</time>
      </trkpt>
      <trkpt lat="48.32755" lon="2.77941">
        <ele>52</ele>
        <time>2023-08-09T06:56:50.126+00:00</time>
      </trkpt>
      <trkpt lat="48.3275" lon="2.77942">
        <ele>52</ele>
        <time>2023-08-09T06:56:55.135+00:00</time>
      </trkpt>
      <trkpt lat="48.32745" lon="2.77943">
        <ele>52</ele>
        <time>2023-08-09T06:56:59.153+00:00</time>
      </trkpt>
      <trkpt lat="48.32744" lon="2.77941">
        <ele>52</ele>
        <time>2023-08-09T06:57:04.105+00:00</time>
      </trkpt>
      <trkpt lat="48.32743" lon="2.77942">
        <ele>52</ele>
        <time>2023-08-09T06:57:24.115+00:00</time>
      </trkpt>
      <trkpt lat="48.3274" lon="2.77942">
        <ele>52</ele>
        <time>2023-08-09T06:57:28.111+00:00</time>
      </trkpt>
      <trkpt lat="48.32733" lon="2.77944">
        <ele>52</ele>
        <time>2023-08-09T06:57:33.098+00:00</time>
      </trkpt>
      <trkpt lat="48.32729" lon="2.77946">
        <ele>52</ele>
        <time>2023-08-09T06:57:37.108+00:00</time>
      </trkpt>
      <trkpt lat="48.32724" lon="2.77947">
        <ele>52</ele>
        <time>2023-08-09T06:57:41.138+00:00</time>
      </trkpt>
      <trkpt lat="48.32716" lon="2.77946">
        <ele>52</ele>
        <time>2023-08-09T06:57:46.108+00:00</time>
      </trkpt>
      <trkpt lat="48.32711" lon="2.77947">
        <ele>52</ele>
        <time>2023-08-09T06:57:50.133+00:00</time>
      </trkpt>
      <trkpt lat="48.32706" lon="2.77948">
        <ele>51</ele>
        <time>2023-08-09T06:57:54.136+00:00</time>
      </trkpt>
      <trkpt lat="48.32701" lon="2.77949">
        <ele>51</ele>
        <time>2023-08-09T06:57:58.134+00:00</time>
      </trkpt>
      <trkpt lat="48.32697" lon="2.77949">
        <ele>51</ele>
        <time>2023-08-09T06:58:03.133+00:00</time>
      </trkpt>
      <trkpt lat="48.32699" lon="2.77943">
        <ele>51</ele>
        <time>2023-08-09T06:58:08.126+00:00</time>
      </trkpt>
      <trkpt lat="48.32698" lon="2.77935">
        <ele>51</ele>
        <time>2023-08-09T06:58:13.135+00:00</time>
      </trkpt>
      <trkpt lat="48.32696" lon="2.77933">
        <ele>51</ele>
        <time>2023-08-09T06:58:18.115+00:00</time>
      </trkpt>
      <trkpt lat="48.32695" lon="2.77936">
        <ele>51</ele>
        <time>2023-08-09T06:59:18.135+00:00</time>
      </trkpt>
      <trkpt lat="48.32697" lon="2.77942">
        <ele>51</ele>
        <time>2023-08-09T06:59:23.142+00:00</time>
      </trkpt>
      <trkpt lat="48.32696" lon="2.77949">
        <ele>51</ele>
        <time>2023-08-09T06:59:28.153+00:00</time>
      </trkpt>
      <trkpt lat="48.32691" lon="2.77952">
        <ele>51</ele>
        <time>2023-08-09T06:59:32.151+00:00</time>
      </trkpt>
      <trkpt lat="48.32687" lon="2.77955">
        <ele>51</ele>
        <time>2023-08-09T06:59:36.160+00:00</time>
      </trkpt>
      <trkpt lat="48.32681" lon="2.77954">
        <ele>51</ele>
        <time>2023-08-09T06:59:41.126+00:00</time>
      </trkpt>
      <trkpt lat="48.32676" lon="2.77954">
        <ele>52</ele>
        <time>2023-08-09T06:59:45.140+00:00</time>
      </trkpt>
      <trkpt lat="48.3267" lon="2.77955">
        <ele>52</ele>
        <time>2023-08-09T06:59:50.121+00:00</time>
      </trkpt>
      <trkpt lat="48.32665" lon="2.77956">
        <ele>52</ele>
        <time>2023-08-09T06:59:54.155+00:00</time>
      </trkpt>
      <trkpt lat="48.32659" lon="2.77957">
        <ele>52</ele>
        <time>2023-08-09T06:59:59.134+00:00</time>
      </trkpt>
      <trkpt lat="48.32656" lon="2.77953">
        <ele>52</ele>
        <time>2023-08-09T07:00:03.141+00:00</time>
      </trkpt>
      <trkpt lat="48.32655" lon="2.7795">
        <ele>52</ele>
        <time>2023-08-09T07:00:08.137+00:00</time>
      </trkpt>
      <trkpt lat="48.32655" lon="2.77948">
        <ele>52</ele>
        <time>2023-08-09T07:00:13.148+00:00</time>
      </trkpt>
      <trkpt lat="48.32655" lon="2.77941">
        <ele>52</ele>
        <time>2023-08-09T07:00:17.147+00:00</time>
      </trkpt>
      <trkpt lat="48.32654" lon="2.77931">
        <ele>52</ele>
        <time>2023-08-09T07:00:22.152+00:00</time>
      </trkpt>
      <trkpt lat="48.32652" lon="2.77924">
        <ele>52</ele>
        <time>2023-08-09T07:00:26.153+00:00</time>
      </trkpt>
      <trkpt lat="48.32649" lon="2.7792">
        <ele>52</ele>
        <time>2023-08-09T07:00:30.168+00:00</time>
      </trkpt>
      <trkpt lat="48.32646" lon="2.77915">
        <ele>52</ele>
        <time>2023-08-09T07:00:35.134+00:00</time>
      </trkpt>
      <trkpt lat="48.32642" lon="2.77908">
        <ele>52</ele>
        <time>2023-08-09T07:00:40.124+00:00</time>
      </trkpt>
      <trkpt lat="48.32639" lon="2.77901">
        <ele>51</ele>
        <time>2023-08-09T07:00:44.113+00:00</time>
      </trkpt>
      <trkpt lat="48.32636" lon="2.77892">
        <ele>51</ele>
        <time>2023-08-09T07:00:51.100+00:00</time>
      </trkpt>
      <trkpt lat="48.32634" lon="2.77885">
        <ele>51</ele>
        <time>2023-08-09T07:00:56.130+00:00</time>
      </trkpt>
      <trkpt lat="48.32634" lon="2.77883">
        <ele>51</ele>
        <time>2023-08-09T07:02:53.131+00:00</time>
      </trkpt>
      <trkpt lat="48.32634" lon="2.77889">
        <ele>51</ele>
        <time>2023-08-09T07:02:58.129+00:00</time>
      </trkpt>
      <trkpt lat="48.32636" lon="2.77898">
        <ele>51</ele>
        <time>2023-08-09T07:03:03.153+00:00</time>
      </trkpt>
      <trkpt lat="48.32638" lon="2.77904">
        <ele>52</ele>
        <time>2023-08-09T07:03:08.143+00:00</time>
      </trkpt>
      <trkpt lat="48.32641" lon="2.7791">
        <ele>52</ele>
        <time>2023-08-09T07:03:13.126+00:00</time>
      </trkpt>
      <trkpt lat="48.32644" lon="2.77915">
        <ele>52</ele>
        <time>2023-08-09T07:03:17.154+00:00</time>
      </trkpt>
      <trkpt lat="48.32647" lon="2.77923">
        <ele>52</ele>
        <time>2023-08-09T07:03:22.155+00:00</time>
      </trkpt>
      <trkpt lat="48.32651" lon="2.7793">
        <ele>52</ele>
        <time>2023-08-09T07:03:26.162+00:00</time>
      </trkpt>
      <trkpt lat="48.32653" lon="2.77939">
        <ele>52</ele>
        <time>2023-08-09T07:03:31.132+00:00</time>
      </trkpt>
      <trkpt lat="48.32652" lon="2.77946">
        <ele>52</ele>
        <time>2023-08-09T07:03:35.146+00:00</time>
      </trkpt>
      <trkpt lat="48.32652" lon="2.77948">
        <ele>52</ele>
        <time>2023-08-09T07:03:39.149+00:00</time>
      </trkpt>
      <trkpt lat="48.32648" lon="2.77949">
        <ele>52</ele>
        <time>2023-08-09T07:03:44.140+00:00</time>
      </trkpt>
      <trkpt lat="48.32643" lon="2.77948">
        <ele>52</ele>
        <time>2023-08-09T07:03:49.135+00:00</time>
      </trkpt>
      <trkpt lat="48.32639" lon="2.77948">
        <ele>52</ele>
        <time>2023-08-09T07:03:54.116+00:00</time>
      </trkpt>
      <trkpt lat="48.32635" lon="2.77948">
        <ele>52</ele>
        <time>2023-08-09T07:03:59.118+00:00</time>
      </trkpt>
      <trkpt lat="48.32634" lon="2.77948">
        <ele>52</ele>
        <time>2023-08-09T07:04:03.147+00:00</time>
      </trkpt>
      <trkpt lat="48.32632" lon="2.77948">
        <ele>52</ele>
        <time>2023-08-09T07:04:08.138+00:00</time>
      </trkpt>
      <trkpt lat="48.32629" lon="2.7795">
        <ele>52</ele>
        <time>2023-08-09T07:04:13.151+00:00</time>
      </trkpt>
      <trkpt lat="48.32628" lon="2.7795">
        <ele>52</ele>
        <time>2023-08-09T07:04:23.123+00:00</time>
      </trkpt>
      <trkpt lat="48.32629" lon="2.77951">
        <ele>52</ele>
        <time>2023-08-09T07:04:28.146+00:00</time>
      </trkpt>
      <trkpt lat="48.32633" lon="2.7795">
        <ele>52</ele>
        <time>2023-08-09T07:04:33.121+00:00</time>
      </trkpt>
      <trkpt lat="48.32637" lon="2.7795">
        <ele>52</ele>
        <time>2023-08-09T07:04:37.135+00:00</time>
      </trkpt>
      <trkpt lat="48.32641" lon="2.77951">
        <ele>52</ele>
        <time>2023-08-09T07:04:42.126+00:00</time>
      </trkpt>
      <trkpt lat="48.32646" lon="2.7795">
        <ele>52</ele>
        <time>2023-08-09T07:04:46.139+00:00</time>
      </trkpt>
      <trkpt lat="48.3265" lon="2.77953">
        <ele>52</ele>
        <time>2023-08-09T07:04:51.132+00:00</time>
      </trkpt>
      <trkpt lat="48.32654" lon="2.77959">
        <ele>52</ele>
        <time>2023-08-09T07:04:55.144+00:00</time>
      </trkpt>
      <trkpt lat="48.3266" lon="2.77961">
        <ele>52</ele>
        <time>2023-08-09T07:05:00.105+00:00</time>
      </trkpt>
      <trkpt lat="48.32663" lon="2.77959">
        <ele>52</ele>
        <time>2023-08-09T07:05:04.116+00:00</time>
      </trkpt>
      <trkpt lat="48.32667" lon="2.77957">
        <ele>52</ele>
        <time>2023-08-09T07:05:08.107+00:00</time>
      </trkpt>
      <trkpt lat="48.32671" lon="2.77956">
        <ele>52</ele>
        <time>2023-08-09T07:05:12.114+00:00</time>
      </trkpt>
      <trkpt lat="48.32677" lon="2.77954">
        <ele>52</ele>
        <time>2023-08-09T07:05:17.129+00:00</time>
      </trkpt>
      <trkpt lat="48.32683" lon="2.77954">
        <ele>51</ele>
        <time>2023-08-09T07:05:21.123+00:00</time>
      </trkpt>
      <trkpt lat="48.32686" lon="2.77955">
        <ele>51</ele>
        <time>2023-08-09T07:05:25.150+00:00</time>
      </trkpt>
      <trkpt lat="48.32693" lon="2.77955">
        <ele>51</ele>
        <time>2023-08-09T07:05:30.156+00:00</time>
      </trkpt>
      <trkpt lat="48.32701" lon="2.77955">
        <ele>51</ele>
        <time>2023-08-09T07:05:35.117+00:00</time>
      </trkpt>
      <trkpt lat="48.32706" lon="2.77953">
        <ele>51</ele>
        <time>2023-08-09T07:05:39.129+00:00</time>
      </trkpt>
      <trkpt lat="48.32712" lon="2.77954">
        <ele>52</ele>
        <time>2023-08-09T07:05:43.159+00:00</time>
      </trkpt>
      <trkpt lat="48.32719" lon="2.77953">
        <ele>52</ele>
        <time>2023-08-09T07:05:48.118+00:00</time>
      </trkpt>
      <trkpt lat="48.32723" lon="2.77951">
        <ele>52</ele>
        <time>2023-08-09T07:05:52.160+00:00</time>
      </trkpt>
      <trkpt lat="48.32731" lon="2.77949">
        <ele>52</ele>
        <time>2023-08-09T07:05:57.125+00:00</time>
      </trkpt>
      <trkpt lat="48.32736" lon="2.77948">
        <ele>52</ele>
        <time>2023-08-09T07:06:01.140+00:00</time>
      </trkpt>
      <trkpt lat="48.32742" lon="2.77946">
        <ele>52</ele>
        <time>2023-08-09T07:06:06.142+00:00</time>
      </trkpt>
      <trkpt lat="48.32748" lon="2.77943">
        <ele>52</ele>
        <time>2023-08-09T07:06:11.116+00:00</time>
      </trkpt>
      <trkpt lat="48.32753" lon="2.77943">
        <ele>52</ele>
        <time>2023-08-09T07:06:15.133+00:00</time>
      </trkpt>
      <trkpt lat="48.32759" lon="2.77943">
        <ele>52</ele>
        <time>2023-08-09T07:06:19.151+00:00</time>
      </trkpt>
      <trkpt lat="48.32765" lon="2.77942">
        <ele>53</ele>
        <time>2023-08-09T07:06:24.161+00:00</time>
      </trkpt>
      <trkpt lat="48.3277" lon="2.7794">
        <ele>53</ele>
        <time>2023-08-09T07:06:29.148+00:00</time>
      </trkpt>
      <trkpt lat="48.32777" lon="2.77938">
        <ele>53</ele>
        <time>2023-08-09T07:06:34.156+00:00</time>
      </trkpt>
      <trkpt lat="48.32782" lon="2.77937">
        <ele>53</ele>
        <time>2023-08-09T07:06:39.137+00:00</time>
      </trkpt>
      <trkpt lat="48.32787" lon="2.77935">
        <ele>53</ele>
        <time>2023-08-09T07:06:43.141+00:00</time>
      </trkpt>
      <trkpt lat="48.32792" lon="2.77934">
        <ele>53</ele>
        <time>2023-08-09T07:06:47.166+00:00</time>
      </trkpt>
      <trkpt lat="48.32799" lon="2.77932">
        <ele>53</ele>
        <time>2023-08-09T07:06:52.156+00:00</time>
      </trkpt>
      <trkpt lat="48.32805" lon="2.77932">
        <ele>53</ele>
        <time>2023-08-09T07:06:57.144+00:00</time>
      </trkpt>
      <trkpt lat="48.32812" lon="2.77929">
        <ele>52</ele>
        <time>2023-08-09T07:07:02.148+00:00</time>
      </trkpt>
      <trkpt lat="48.32817" lon="2.77928">
        <ele>52</ele>
        <time>2023-08-09T07:07:06.145+00:00</time>
      </trkpt>
      <trkpt lat="48.32824" lon="2.77927">
        <ele>53</ele>
        <time>2023-08-09T07:07:11.168+00:00</time>
      </trkpt>
      <trkpt lat="48.32833" lon="2.77926">
        <ele>53</ele>
        <time>2023-08-09T07:07:16.131+00:00</time>
      </trkpt>
      <trkpt lat="48.32837" lon="2.77925">
        <ele>53</ele>
        <time>2023-08-09T07:07:20.148+00:00</time>
      </trkpt>
      <trkpt lat="48.32844" lon="2.77925">
        <ele>53</ele>
        <time>2023-08-09T07:07:24.160+00:00</time>
      </trkpt>
      <trkpt lat="48.32858" lon="2.7792">
        <ele>53</ele>
        <time>2023-08-09T07:07:53.103+00:00</time>
      </trkpt>
      <trkpt lat="48.32865" lon="2.7792">
        <ele>53</ele>
        <time>2023-08-09T07:07:58.107+00:00</time>
      </trkpt>
      <trkpt lat="48.32868" lon="2.7792">
        <ele>53</ele>
        <time>2023-08-09T07:08:03.122+00:00</time>
      </trkpt>
      <trkpt lat="48.32873" lon="2.77918">
        <ele>53</ele>
        <time>2023-08-09T07:08:07.110+00:00</time>
      </trkpt>
      <trkpt lat="48.32879" lon="2.77918">
        <ele>54</ele>
        <time>2023-08-09T07:08:12.106+00:00</time>
      </trkpt>
      <trkpt lat="48.32878" lon="2.7792">
        <ele>54</ele>
        <time>2023-08-09T07:08:16.114+00:00</time>
      </trkpt>
      <trkpt lat="48.32877" lon="2.77919">
        <ele>54</ele>
        <time>2023-08-09T07:08:21.114+00:00</time>
      </trkpt>
      <trkpt lat="48.32882" lon="2.77919">
        <ele>54</ele>
        <time>2023-08-09T07:08:26.118+00:00</time>
      </trkpt>
      <trkpt lat="48.32887" lon="2.77918">
        <ele>54</ele>
        <time>2023-08-09T07:08:31.119+00:00</time>
      </trkpt>
      <trkpt lat="48.32896" lon="2.77917">
        <ele>54</ele>
        <time>2023-08-09T07:08:36.119+00:00</time>
      </trkpt>
      <trkpt lat="48.329" lon="2.77915">
        <ele>54</ele>
        <time>2023-08-09T07:08:40.114+00:00</time>
      </trkpt>
      <trkpt lat="48.32908" lon="2.77916">
        <ele>53</ele>
        <time>2023-08-09T07:08:45.124+00:00</time>
      </trkpt>
      <trkpt lat="48.32913" lon="2.77914">
        <ele>53</ele>
        <time>2023-08-09T07:08:50.108+00:00</time>
      </trkpt>
      <trkpt lat="48.32917" lon="2.77913">
        <ele>53</ele>
        <time>2023-08-09T07:08:54.118+00:00</time>
      </trkpt>
      <trkpt lat="48.32922" lon="2.77912">
        <ele>53</ele>
        <time>2023-08-09T07:08:58.117+00:00</time>
      </trkpt>
      <trkpt lat="48.3293" lon="2.77911">
        <ele>53</ele>
        <time>2023-08-09T07:09:03.112+00:00</time>
      </trkpt>
      <trkpt lat="48.32936" lon="2.77909">
        <ele>52</ele>
        <time>2023-08-09T07:09:08.109+00:00</time>
      </trkpt>
      <trkpt lat="48.32941" lon="2.77908">
        <ele>52</ele>
        <time>2023-08-09T07:09:12.112+00:00</time>
      </trkpt>
      <trkpt lat="48.32947" lon="2.77907">
        <ele>52</ele>
        <time>2023-08-09T07:09:17.124+00:00</time>
      </trkpt>
      <trkpt lat="48.32953" lon="2.77905">
        <ele>52</ele>
        <time>2023-08-09T07:09:21.128+00:00</time>
      </trkpt>
      <trkpt lat="48.32961" lon="2.77904">
        <ele>51</ele>
        <time>2023-08-09T07:09:26.128+00:00</time>
      </trkpt>
      <trkpt lat="48.32965" lon="2.77903">
        <ele>51</ele>
        <time>2023-08-09T07:09:31.114+00:00</time>
      </trkpt>
      <trkpt lat="48.32971" lon="2.77902">
        <ele>52</ele>
        <time>2023-08-09T07:09:35.120+00:00</time>
      </trkpt>
      <trkpt lat="48.32976" lon="2.77901">
        <ele>52</ele>
        <time>2023-08-09T07:09:40.114+00:00</time>
      </trkpt>
      <trkpt lat="48.32982" lon="2.779">
        <ele>52</ele>
        <time>2023-08-09T07:09:44.106+00:00</time>
      </trkpt>
      <trkpt lat="48.32988" lon="2.77898">
        <ele>52</ele>
        <time>2023-08-09T07:09:48.127+00:00</time>
      </trkpt>
      <trkpt lat="48.32994" lon="2.77898">
        <ele>52</ele>
        <time>2023-08-09T07:09:53.105+00:00</time>
      </trkpt>
      <trkpt lat="48.32998" lon="2.77897">
        <ele>52</ele>
        <time>2023-08-09T07:09:57.141+00:00</time>
      </trkpt>
      <trkpt lat="48.33003" lon="2.77896">
        <ele>52</ele>
        <time>2023-08-09T07:10:02.125+00:00</time>
      </trkpt>
      <trkpt lat="48.33009" lon="2.77896">
        <ele>52</ele>
        <time>2023-08-09T07:10:06.128+00:00</time>
      </trkpt>
      <trkpt lat="48.33017" lon="2.77896">
        <ele>51</ele>
        <time>2023-08-09T07:10:11.121+00:00</time>
      </trkpt>
      <trkpt lat="48.33022" lon="2.77896">
        <ele>51</ele>
        <time>2023-08-09T07:10:15.119+00:00</time>
      </trkpt>
      <trkpt lat="48.33027" lon="2.77895">
        <ele>51</ele>
        <time>2023-08-09T07:10:19.126+00:00</time>
      </trkpt>
      <trkpt lat="48.33032" lon="2.77895">
        <ele>51</ele>
        <time>2023-08-09T07:10:24.109+00:00</time>
      </trkpt>
      <trkpt lat="48.33038" lon="2.77895">
        <ele>51</ele>
        <time>2023-08-09T07:10:28.130+00:00</time>
      </trkpt>
      <trkpt lat="48.33044" lon="2.77894">
        <ele>51</ele>
        <time>2023-08-09T07:10:32.158+00:00</time>
      </trkpt>
      <trkpt lat="48.33051" lon="2.77894">
        <ele>51</ele>
        <time>2023-08-09T07:10:37.134+00:00</time>
      </trkpt>
      <trkpt lat="48.33056" lon="2.77892">
        <ele>51</ele>
        <time>2023-08-09T07:10:42.117+00:00</time>
      </trkpt>
      <trkpt lat="48.33061" lon="2.7789">
        <ele>51</ele>
        <time>2023-08-09T07:10:46.125+00:00</time>
      </trkpt>
      <trkpt lat="48.33067" lon="2.77885">
        <ele>51</ele>
        <time>2023-08-09T07:10:51.153+00:00</time>
      </trkpt>
      <trkpt lat="48.33072" lon="2.77879">
        <ele>51</ele>
        <time>2023-08-09T07:10:56.146+00:00</time>
      </trkpt>
      <trkpt lat="48.33073" lon="2.7787">
        <ele>52</ele>
        <time>2023-08-09T07:11:01.134+00:00</time>
      </trkpt>
      <trkpt lat="48.33075" lon="2.7786">
        <ele>52</ele>
        <time>2023-08-09T07:11:06.149+00:00</time>
      </trkpt>
      <trkpt lat="48.33072" lon="2.77857">
        <ele>52</ele>
        <time>2023-08-09T07:11:11.102+00:00</time>
      </trkpt>
      <trkpt lat="48.3307" lon="2.77856">
        <ele>52</ele>
        <time>2023-08-09T07:11:19.110+00:00</time>
      </trkpt>
      <trkpt lat="48.33069" lon="2.77856">
        <ele>52</ele>
        <time>2023-08-09T07:11:33.128+00:00</time>
      </trkpt>
      <trkpt lat="48.33069" lon="2.77857">
        <ele>52</ele>
        <time>2023-08-09T07:11:38.122+00:00</time>
      </trkpt>
      <trkpt lat="48.33072" lon="2.77853">
        <ele>52</ele>
        <time>2023-08-09T07:11:42.118+00:00</time>
      </trkpt>
      <trkpt lat="48.33074" lon="2.77846">
        <ele>53</ele>
        <time>2023-08-09T07:11:47.109+00:00</time>
      </trkpt>
      <trkpt lat="48.33075" lon="2.77839">
        <ele>53</ele>
        <time>2023-08-09T07:11:52.120+00:00</time>
      </trkpt>
      <trkpt lat="48.33078" lon="2.77833">
        <ele>53</ele>
        <time>2023-08-09T07:11:56.124+00:00</time>
      </trkpt>
      <trkpt lat="48.33084" lon="2.77829">
        <ele>53</ele>
        <time>2023-08-09T07:12:01.121+00:00</time>
      </trkpt>
      <trkpt lat="48.33086" lon="2.77823">
        <ele>53</ele>
        <time>2023-08-09T07:12:05.117+00:00</time>
      </trkpt>
      <trkpt lat="48.33091" lon="2.77823">
        <ele>53</ele>
        <time>2023-08-09T07:12:10.139+00:00</time>
      </trkpt>
      <trkpt lat="48.33096" lon="2.77825">
        <ele>53</ele>
        <time>2023-08-09T07:12:15.124+00:00</time>
      </trkpt>
      <trkpt lat="48.33102" lon="2.77826">
        <ele>55</ele>
        <time>2023-08-09T07:12:19.126+00:00</time>
      </trkpt>
      <trkpt lat="48.33106" lon="2.77828">
        <ele>55</ele>
        <time>2023-08-09T07:12:23.126+00:00</time>
      </trkpt>
      <trkpt lat="48.33112" lon="2.7783">
        <ele>55</ele>
        <time>2023-08-09T07:12:28.167+00:00</time>
      </trkpt>
      <trkpt lat="48.33117" lon="2.77835">
        <ele>55</ele>
        <time>2023-08-09T07:12:33.128+00:00</time>
      </trkpt>
      <trkpt lat="48.33122" lon="2.77838">
        <ele>55</ele>
        <time>2023-08-09T07:12:38.139+00:00</time>
      </trkpt>
      <trkpt lat="48.33128" lon="2.77839">
        <ele>55</ele>
        <time>2023-08-09T07:12:42.143+00:00</time>
      </trkpt>
      <trkpt lat="48.33134" lon="2.77837">
        <ele>55</ele>
        <time>2023-08-09T07:12:47.129+00:00</time>
      </trkpt>
      <trkpt lat="48.33146" lon="2.77826">
        <ele>55</ele>
        <time>2023-08-09T07:13:01.121+00:00</time>
      </trkpt>
      <trkpt lat="48.33145" lon="2.77824">
        <ele>55</ele>
        <time>2023-08-09T07:13:05.122+00:00</time>
      </trkpt>
      <trkpt lat="48.33145" lon="2.77824">
        <ele>55</ele>
        <time>2023-08-09T07:13:09.129+00:00</time>
      </trkpt>
      <trkpt lat="48.33145" lon="2.77823">
        <ele>55</ele>
        <time>2023-08-09T07:13:14.137+00:00</time>
      </trkpt>
      <trkpt lat="48.33146" lon="2.77823">
        <ele>55</ele>
        <time>2023-08-09T07:13:19.149+00:00</time>
      </trkpt>
      <trkpt lat="48.33148" lon="2.77825">
        <ele>55</ele>
        <time>2023-08-09T07:13:24.124+00:00</time>
      </trkpt>
      <trkpt lat="48.33154" lon="2.77825">
        <ele>55</ele>
        <time>2023-08-09T07:13:29.123+00:00</time>
      </trkpt>
      <trkpt lat="48.33159" lon="2.7783">
        <ele>55</ele>
        <time>2023-08-09T07:13:33.147+00:00</time>
      </trkpt>
      <trkpt lat="48.33167" lon="2.77833">
        <ele>55</ele>
        <time>2023-08-09T07:13:38.117+00:00</time>
      </trkpt>
      <trkpt lat="48.33169" lon="2.77834">
        <ele>55</ele>
        <time>2023-08-09T07:13:42.122+00:00</time>
      </trkpt>
      <trkpt lat="48.33173" lon="2.77836">
        <ele>55</ele>
        <time>2023-08-09T07:13:46.162+00:00</time>
      </trkpt>
      <trkpt lat="48.3318" lon="2.77835">
        <ele>55</ele>
        <time>2023-08-09T07:13:51.128+00:00</time>
      </trkpt>
      <trkpt lat="48.33186" lon="2.77835">
        <ele>55</ele>
        <time>2023-08-09T07:13:56.142+00:00</time>
      </trkpt>
      <trkpt lat="48.33191" lon="2.77834">
        <ele>55</ele>
        <time>2023-08-09T07:14:01.149+00:00</time>
      </trkpt>
      <trkpt lat="48.33197" lon="2.77832">
        <ele>55</ele>
        <time>2023-08-09T07:14:06.149+00:00</time>
      </trkpt>
      <trkpt lat="48.33204" lon="2.77832">
        <ele>55</ele>
        <time>2023-08-09T07:14:11.137+00:00</time>
      </trkpt>
      <trkpt lat="48.33207" lon="2.77834">
        <ele>55</ele>
        <time>2023-08-09T07:14:16.142+00:00</time>
      </trkpt>
      <trkpt lat="48.33212" lon="2.77837">
        <ele>55</ele>
        <time>2023-08-09T07:14:20.142+00:00</time>
      </trkpt>
      <trkpt lat="48.33216" lon="2.7784">
        <ele>55</ele>
        <time>2023-08-09T07:14:24.149+00:00</time>
      </trkpt>
      <trkpt lat="48.33224" lon="2.77837">
        <ele>55</ele>
        <time>2023-08-09T07:14:29.132+00:00</time>
      </trkpt>
      <trkpt lat="48.33229" lon="2.77838">
        <ele>55</ele>
        <time>2023-08-09T07:14:33.131+00:00</time>
      </trkpt>
      <trkpt lat="48.33241" lon="2.77842">
        <ele>55</ele>
        <time>2023-08-09T07:14:56.148+00:00</time>
      </trkpt>
      <trkpt lat="48.33244" lon="2.77843">
        <ele>55</ele>
        <time>2023-08-09T07:15:00.151+00:00</time>
      </trkpt>
      <trkpt lat="48.33252" lon="2.77845">
        <ele>55</ele>
        <time>2023-08-09T07:15:05.129+00:00</time>
      </trkpt>
      <trkpt lat="48.33258" lon="2.77851">
        <ele>54</ele>
        <time>2023-08-09T07:15:09.138+00:00</time>
      </trkpt>
      <trkpt lat="48.33263" lon="2.77858">
        <ele>54</ele>
        <time>2023-08-09T07:15:14.144+00:00</time>
      </trkpt>
      <trkpt lat="48.33267" lon="2.77863">
        <ele>55</ele>
        <time>2023-08-09T07:15:18.144+00:00</time>
      </trkpt>
      <trkpt lat="48.33271" lon="2.77867">
        <ele>55</ele>
        <time>2023-08-09T07:15:22.149+00:00</time>
      </trkpt>
      <trkpt lat="48.33275" lon="2.77872">
        <ele>55</ele>
        <time>2023-08-09T07:15:26.143+00:00</time>
      </trkpt>
      <trkpt lat="48.3328" lon="2.7788">
        <ele>54</ele>
        <time>2023-08-09T07:15:31.128+00:00</time>
      </trkpt>
      <trkpt lat="48.33284" lon="2.77885">
        <ele>54</ele>
        <time>2023-08-09T07:15:35.124+00:00</time>
      </trkpt>
      <trkpt lat="48.33289" lon="2.7789">
        <ele>54</ele>
        <time>2023-08-09T07:15:40.144+00:00</time>
      </trkpt>
      <trkpt lat="48.33293" lon="2.77896">
        <ele>57</ele>
        <time>2023-08-09T07:15:44.143+00:00</time>
      </trkpt>
      <trkpt lat="48.33299" lon="2.77902">
        <ele>57</ele>
        <time>2023-08-09T07:15:49.129+00:00</time>
      </trkpt>
      <trkpt lat="48.33312" lon="2.77914">
        <ele>55</ele>
        <time>2023-08-09T07:16:07.137+00:00</time>
      </trkpt>
      <trkpt lat="48.33312" lon="2.77916">
        <ele>55</ele>
        <time>2023-08-09T07:16:12.160+00:00</time>
      </trkpt>
      <trkpt lat="48.33319" lon="2.77921">
        <ele>55</ele>
        <time>2023-08-09T07:16:17.135+00:00</time>
      </trkpt>
      <trkpt lat="48.33324" lon="2.7793">
        <ele>56</ele>
        <time>2023-08-09T07:16:22.133+00:00</time>
      </trkpt>
      <trkpt lat="48.33328" lon="2.77934">
        <ele>54</ele>
        <time>2023-08-09T07:16:26.141+00:00</time>
      </trkpt>
      <trkpt lat="48.3333" lon="2.77936">
        <ele>54</ele>
        <time>2023-08-09T07:16:31.134+00:00</time>
      </trkpt>
      <trkpt lat="48.33337" lon="2.77943">
        <ele>54</ele>
        <time>2023-08-09T07:16:36.151+00:00</time>
      </trkpt>
      <trkpt lat="48.33344" lon="2.77951">
        <ele>54</ele>
        <time>2023-08-09T07:16:41.134+00:00</time>
      </trkpt>
      <trkpt lat="48.3335" lon="2.77957">
        <ele>55</ele>
        <time>2023-08-09T07:16:46.144+00:00</time>
      </trkpt>
      <trkpt lat="48.33357" lon="2.77966">
        <ele>54</ele>
        <time>2023-08-09T07:16:51.158+00:00</time>
      </trkpt>
      <trkpt lat="48.33362" lon="2.77974">
        <ele>54</ele>
        <time>2023-08-09T07:16:56.143+00:00</time>
      </trkpt>
      <trkpt lat="48.33365" lon="2.77979">
        <ele>54</ele>
        <time>2023-08-09T07:17:01.129+00:00</time>
      </trkpt>
      <trkpt lat="48.33369" lon="2.77988">
        <ele>53</ele>
        <time>2023-08-09T07:17:06.150+00:00</time>
      </trkpt>
      <trkpt lat="48.33372" lon="2.77995">
        <ele>53</ele>
        <time>2023-08-09T07:17:10.159+00:00</time>
      </trkpt>
      <trkpt lat="48.33376" lon="2.78">
        <ele>54</ele>
        <time>2023-08-09T07:17:15.135+00:00</time>
      </trkpt>
      <trkpt lat="48.33381" lon="2.78004">
        <ele>54</ele>
        <time>2023-08-09T07:17:19.060+00:00</time>
      </trkpt>
      <trkpt lat="48.33385" lon="2.78008">
        <ele>54</ele>
        <time>2023-08-09T07:17:23.146+00:00</time>
      </trkpt>
      <trkpt lat="48.3339" lon="2.78008">
        <ele>54</ele>
        <time>2023-08-09T07:17:28.152+00:00</time>
      </trkpt>
      <trkpt lat="48.33394" lon="2.78016">
        <ele>54</ele>
        <time>2023-08-09T07:17:33.116+00:00</time>
      </trkpt>
      <trkpt lat="48.33397" lon="2.78021">
        <ele>54</ele>
        <time>2023-08-09T07:17:37.142+00:00</time>
      </trkpt>
      <trkpt lat="48.33399" lon="2.78028">
        <ele>54</ele>
        <time>2023-08-09T07:17:41.142+00:00</time>
      </trkpt>
      <trkpt lat="48.33406" lon="2.78051">
        <ele>52</ele>
        <time>2023-08-09T07:18:00.110+00:00</time>
      </trkpt>
      <trkpt lat="48.33408" lon="2.78057">
        <ele>52</ele>
        <time>2023-08-09T07:18:04.123+00:00</time>
      </trkpt>
      <trkpt lat="48.3341" lon="2.78064">
        <ele>52</ele>
        <time>2023-08-09T07:18:09.116+00:00</time>
      </trkpt>
      <trkpt lat="48.33413" lon="2.78069">
        <ele>52</ele>
        <time>2023-08-09T07:18:13.117+00:00</time>
      </trkpt>
      <trkpt lat="48.33415" lon="2.78068">
        <ele>52</ele>
        <time>2023-08-09T07:18:18.124+00:00</time>
      </trkpt>
      <trkpt lat="48.33413" lon="2.7808">
        <ele>52</ele>
        <time>2023-08-09T07:18:59.112+00:00</time>
      </trkpt>
      <trkpt lat="48.33417" lon="2.78084">
        <ele>52</ele>
        <time>2023-08-09T07:19:03.126+00:00</time>
      </trkpt>
      <trkpt lat="48.33419" lon="2.78095">
        <ele>52</ele>
        <time>2023-08-09T07:19:08.111+00:00</time>
      </trkpt>
      <trkpt lat="48.33424" lon="2.78102">
        <ele>51</ele>
        <time>2023-08-09T07:19:12.106+00:00</time>
      </trkpt>
      <trkpt lat="48.33426" lon="2.78103">
        <ele>51</ele>
        <time>2023-08-09T07:19:17.146+00:00</time>
      </trkpt>
      <trkpt lat="48.33422" lon="2.78105">
        <ele>51</ele>
        <time>2023-08-09T07:20:51.144+00:00</time>
      </trkpt>
      <trkpt lat="48.3342" lon="2.78097">
        <ele>52</ele>
        <time>2023-08-09T07:20:56.141+00:00</time>
      </trkpt>
      <trkpt lat="48.33417" lon="2.7809">
        <ele>52</ele>
        <time>2023-08-09T07:21:01.162+00:00</time>
      </trkpt>
      <trkpt lat="48.33414" lon="2.78082">
        <ele>52</ele>
        <time>2023-08-09T07:21:06.152+00:00</time>
      </trkpt>
      <trkpt lat="48.33413" lon="2.78075">
        <ele>52</ele>
        <time>2023-08-09T07:21:10.158+00:00</time>
      </trkpt>
      <trkpt lat="48.3341" lon="2.78068">
        <ele>52</ele>
        <time>2023-08-09T07:21:14.153+00:00</time>
      </trkpt>
      <trkpt lat="48.33408" lon="2.78059">
        <ele>52</ele>
        <time>2023-08-09T07:21:19.136+00:00</time>
      </trkpt>
      <trkpt lat="48.33406" lon="2.78052">
        <ele>52</ele>
        <time>2023-08-09T07:21:23.145+00:00</time>
      </trkpt>
      <trkpt lat="48.33404" lon="2.78044">
        <ele>52</ele>
        <time>2023-08-09T07:21:28.151+00:00</time>
      </trkpt>
      <trkpt lat="48.33401" lon="2.78036">
        <ele>54</ele>
        <time>2023-08-09T07:21:33.125+00:00</time>
      </trkpt>
      <trkpt lat="48.334" lon="2.78029">
        <ele>54</ele>
        <time>2023-08-09T07:21:37.151+00:00</time>
      </trkpt>
      <trkpt lat="48.33398" lon="2.78021">
        <ele>54</ele>
        <time>2023-08-09T07:21:42.149+00:00</time>
      </trkpt>
      <trkpt lat="48.33397" lon="2.78015">
        <ele>54</ele>
        <time>2023-08-09T07:21:46.154+00:00</time>
      </trkpt>
      <trkpt lat="48.33395" lon="2.78006">
        <ele>54</ele>
        <time>2023-08-09T07:21:51.128+00:00</time>
      </trkpt>
      <trkpt lat="48.33392" lon="2.77996">
        <ele>54</ele>
        <time>2023-08-09T07:21:56.121+00:00</time>
      </trkpt>
      <trkpt lat="48.33391" lon="2.77991">
        <ele>54</ele>
        <time>2023-08-09T07:22:00.130+00:00</time>
      </trkpt>
      <trkpt lat="48.33388" lon="2.77985">
        <ele>54</ele>
        <time>2023-08-09T07:22:05.124+00:00</time>
      </trkpt>
      <trkpt lat="48.33388" lon="2.77977">
        <ele>54</ele>
        <time>2023-08-09T07:22:09.136+00:00</time>
      </trkpt>
      <trkpt lat="48.33386" lon="2.77968">
        <ele>54</ele>
        <time>2023-08-09T07:22:14.142+00:00</time>
      </trkpt>
      <trkpt lat="48.33383" lon="2.77959">
        <ele>54</ele>
        <time>2023-08-09T07:22:19.109+00:00</time>
      </trkpt>
      <trkpt lat="48.33381" lon="2.77951">
        <ele>55</ele>
        <time>2023-08-09T07:22:23.128+00:00</time>
      </trkpt>
      <trkpt lat="48.33379" lon="2.77943">
        <ele>55</ele>
        <time>2023-08-09T07:22:28.153+00:00</time>
      </trkpt>
      <trkpt lat="48.33377" lon="2.77933">
        <ele>55</ele>
        <time>2023-08-09T07:22:33.128+00:00</time>
      </trkpt>
      <trkpt lat="48.33375" lon="2.77924">
        <ele>55</ele>
        <time>2023-08-09T07:22:38.127+00:00</time>
      </trkpt>
      <trkpt lat="48.33374" lon="2.77916">
        <ele>55</ele>
        <time>2023-08-09T07:22:42.125+00:00</time>
      </trkpt>
      <trkpt lat="48.33372" lon="2.77893">
        <ele>56</ele>
        <time>2023-08-09T07:22:59.113+00:00</time>
      </trkpt>
      <trkpt lat="48.33371" lon="2.77886">
        <ele>56</ele>
        <time>2023-08-09T07:23:04.163+00:00</time>
      </trkpt>
      <trkpt lat="48.3337" lon="2.77876">
        <ele>56</ele>
        <time>2023-08-09T07:23:08.144+00:00</time>
      </trkpt>
      <trkpt lat="48.3337" lon="2.77866">
        <ele>55</ele>
        <time>2023-08-09T07:23:13.124+00:00</time>
      </trkpt>
      <trkpt lat="48.3337" lon="2.77857">
        <ele>55</ele>
        <time>2023-08-09T07:23:18.123+00:00</time>
      </trkpt>
      <trkpt lat="48.3337" lon="2.77851">
        <ele>55</ele>
        <time>2023-08-09T07:23:22.136+00:00</time>
      </trkpt>
      <trkpt lat="48.3337" lon="2.7784">
        <ele>54</ele>
        <time>2023-08-09T07:23:27.129+00:00</time>
      </trkpt>
      <trkpt lat="48.33371" lon="2.77832">
        <ele>54</ele>
        <time>2023-08-09T07:23:31.132+00:00</time>
      </trkpt>
      <trkpt lat="48.33371" lon="2.77826">
        <ele>54</ele>
        <time>2023-08-09T07:23:34.105+00:00</time>
      </trkpt>
      <trkpt lat="48.3337" lon="2.7782">
        <ele>54</ele>
        <time>2023-08-09T07:23:54.100+00:00</time>
      </trkpt>
      <trkpt lat="48.33369" lon="2.77814">
        <ele>54</ele>
        <time>2023-08-09T07:23:58.138+00:00</time>
      </trkpt>
      <trkpt lat="48.3337" lon="2.77804">
        <ele>54</ele>
        <time>2023-08-09T07:24:03.127+00:00</time>
      </trkpt>
      <trkpt lat="48.3337" lon="2.77794">
        <ele>54</ele>
        <time>2023-08-09T07:24:08.120+00:00</time>
      </trkpt>
      <trkpt lat="48.33371" lon="2.77786">
        <ele>54</ele>
        <time>2023-08-09T07:24:12.130+00:00</time>
      </trkpt>
      <trkpt lat="48.33372" lon="2.77777">
        <ele>54</ele>
        <time>2023-08-09T07:24:17.134+00:00</time>
      </trkpt>
      <trkpt lat="48.33373" lon="2.77768">
        <ele>54</ele>
        <time>2023-08-09T07:24:22.134+00:00</time>
      </trkpt>
      <trkpt lat="48.33374" lon="2.77759">
        <ele>54</ele>
        <time>2023-08-09T07:24:27.117+00:00</time>
      </trkpt>
      <trkpt lat="48.33375" lon="2.77751">
        <ele>52</ele>
        <time>2023-08-09T07:24:31.118+00:00</time>
      </trkpt>
      <trkpt lat="48.33376" lon="2.77744">
        <ele>52</ele>
        <time>2023-08-09T07:24:35.156+00:00</time>
      </trkpt>
      <trkpt lat="48.33377" lon="2.77737">
        <ele>52</ele>
        <time>2023-08-09T07:24:39.145+00:00</time>
      </trkpt>
      <trkpt lat="48.33378" lon="2.77727">
        <ele>53</ele>
        <time>2023-08-09T07:24:44.148+00:00</time>
      </trkpt>
      <trkpt lat="48.33379" lon="2.77718">
        <ele>53</ele>
        <time>2023-08-09T07:24:49.148+00:00</time>
      </trkpt>
      <trkpt lat="48.33381" lon="2.77709">
        <ele>53</ele>
        <time>2023-08-09T07:24:54.136+00:00</time>
      </trkpt>
      <trkpt lat="48.33382" lon="2.777">
        <ele>53</ele>
        <time>2023-08-09T07:24:59.136+00:00</time>
      </trkpt>
      <trkpt lat="48.33382" lon="2.7769">
        <ele>53</ele>
        <time>2023-08-09T07:25:04.119+00:00</time>
      </trkpt>
      <trkpt lat="48.33383" lon="2.77682">
        <ele>53</ele>
        <time>2023-08-09T07:25:08.156+00:00</time>
      </trkpt>
      <trkpt lat="48.33384" lon="2.77674">
        <ele>54</ele>
        <time>2023-08-09T07:25:13.140+00:00</time>
      </trkpt>
      <trkpt lat="48.33385" lon="2.77665">
        <ele>54</ele>
        <time>2023-08-09T07:25:18.135+00:00</time>
      </trkpt>
      <trkpt lat="48.33387" lon="2.77657">
        <ele>54</ele>
        <time>2023-08-09T07:25:23.134+00:00</time>
      </trkpt>
      <trkpt lat="48.33389" lon="2.77649">
        <ele>53</ele>
        <time>2023-08-09T07:25:27.162+00:00</time>
      </trkpt>
      <trkpt lat="48.33389" lon="2.77642">
        <ele>53</ele>
        <time>2023-08-09T07:25:31.152+00:00</time>
      </trkpt>
      <trkpt lat="48.33391" lon="2.77634">
        <ele>53</ele>
        <time>2023-08-09T07:25:36.166+00:00</time>
      </trkpt>
      <trkpt lat="48.33393" lon="2.77625">
        <ele>53</ele>
        <time>2023-08-09T07:25:41.138+00:00</time>
      </trkpt>
      <trkpt lat="48.33395" lon="2.77616">
        <ele>53</ele>
        <time>2023-08-09T07:25:46.152+00:00</time>
      </trkpt>
      <trkpt lat="48.33396" lon="2.77607">
        <ele>53</ele>
        <time>2023-08-09T07:25:51.134+00:00</time>
      </trkpt>
      <trkpt lat="48.33398" lon="2.77599">
        <ele>53</ele>
        <time>2023-08-09T07:25:55.151+00:00</time>
      </trkpt>
      <trkpt lat="48.334" lon="2.7759">
        <ele>53</ele>
        <time>2023-08-09T07:26:00.150+00:00</time>
      </trkpt>
      <trkpt lat="48.33401" lon="2.77581">
        <ele>53</ele>
        <time>2023-08-09T07:26:04.165+00:00</time>
      </trkpt>
      <trkpt lat="48.33402" lon="2.77572">
        <ele>53</ele>
        <time>2023-08-09T07:26:09.183+00:00</time>
      </trkpt>
      <trkpt lat="48.33403" lon="2.77563">
        <ele>54</ele>
        <time>2023-08-09T07:26:14.149+00:00</time>
      </trkpt>
      <trkpt lat="48.33403" lon="2.77553">
        <ele>54</ele>
        <time>2023-08-09T07:26:19.140+00:00</time>
      </trkpt>
      <trkpt lat="48.33405" lon="2.77544">
        <ele>54</ele>
        <time>2023-08-09T07:26:24.138+00:00</time>
      </trkpt>
      <trkpt lat="48.33405" lon="2.77536">
        <ele>53</ele>
        <time>2023-08-09T07:26:29.160+00:00</time>
      </trkpt>
      <trkpt lat="48.33407" lon="2.77527">
        <ele>53</ele>
        <time>2023-08-09T07:26:34.130+00:00</time>
      </trkpt>
      <trkpt lat="48.33408" lon="2.7752">
        <ele>53</ele>
        <time>2023-08-09T07:26:38.169+00:00</time>
      </trkpt>
      <trkpt lat="48.33408" lon="2.77516">
        <ele>53</ele>
        <time>2023-08-09T07:26:40.124+00:00</time>
      </trkpt>
      <trkpt lat="48.33408" lon="2.77506">
        <ele>53</ele>
        <time>2023-08-09T07:26:47.101+00:00</time>
      </trkpt>
      <trkpt lat="48.33407" lon="2.77504">
        <ele>53</ele>
        <time>2023-08-09T07:26:51.121+00:00</time>
      </trkpt>
      <trkpt lat="48.3341" lon="2.77501">
        <ele>53</ele>
        <time>2023-08-09T07:26:56.101+00:00</time>
      </trkpt>
      <trkpt lat="48.3341" lon="2.77493">
        <ele>53</ele>
        <time>2023-08-09T07:27:01.105+00:00</time>
      </trkpt>
      <trkpt lat="48.3341" lon="2.77492">
        <ele>53</ele>
        <time>2023-08-09T07:27:05.110+00:00</time>
      </trkpt>
      <trkpt lat="48.3341" lon="2.7749">
        <ele>53</ele>
        <time>2023-08-09T07:27:09.122+00:00</time>
      </trkpt>
      <trkpt lat="48.3341" lon="2.77482">
        <ele>53</ele>
        <time>2023-08-09T07:27:13.131+00:00</time>
      </trkpt>
      <trkpt lat="48.33412" lon="2.77473">
        <ele>53</ele>
        <time>2023-08-09T07:27:18.107+00:00</time>
      </trkpt>
      <trkpt lat="48.33413" lon="2.77467">
        <ele>53</ele>
        <time>2023-08-09T07:27:22.120+00:00</time>
      </trkpt>
      <trkpt lat="48.33415" lon="2.77459">
        <ele>53</ele>
        <time>2023-08-09T07:27:55.133+00:00</time>
      </trkpt>
      <trkpt lat="48.33416" lon="2.77467">
        <ele>53</ele>
        <time>2023-08-09T07:28:00.119+00:00</time>
      </trkpt>
      <trkpt lat="48.33415" lon="2.77475">
        <ele>53</ele>
        <time>2023-08-09T07:28:05.103+00:00</time>
      </trkpt>
      <trkpt lat="48.33412" lon="2.77484">
        <ele>53</ele>
        <time>2023-08-09T07:28:09.139+00:00</time>
      </trkpt>
      <trkpt lat="48.3341" lon="2.77495">
        <ele>53</ele>
        <time>2023-08-09T07:28:14.148+00:00</time>
      </trkpt>
      <trkpt lat="48.33408" lon="2.77499">
        <ele>53</ele>
        <time>2023-08-09T07:29:10.132+00:00</time>
      </trkpt>
      <trkpt lat="48.33406" lon="2.77498">
        <ele>53</ele>
        <time>2023-08-09T07:29:15.117+00:00</time>
      </trkpt>
      <trkpt lat="48.33402" lon="2.77493">
        <ele>52</ele>
        <time>2023-08-09T07:29:19.229+00:00</time>
      </trkpt>
      <trkpt lat="48.33402" lon="2.77484">
        <ele>52</ele>
        <time>2023-08-09T07:29:24.142+00:00</time>
      </trkpt>
      <trkpt lat="48.334" lon="2.77477">
        <ele>52</ele>
        <time>2023-08-09T07:29:28.151+00:00</time>
      </trkpt>
      <trkpt lat="48.33402" lon="2.77465">
        <ele>52</ele>
        <time>2023-08-09T07:30:01.142+00:00</time>
      </trkpt>
      <trkpt lat="48.33402" lon="2.77465">
        <ele>52</ele>
        <time>2023-08-09T07:30:06.143+00:00</time>
      </trkpt>
      <trkpt lat="48.33403" lon="2.77463">
        <ele>53</ele>
        <time>2023-08-09T07:30:11.138+00:00</time>
      </trkpt>
      <trkpt lat="48.33405" lon="2.77455">
        <ele>53</ele>
        <time>2023-08-09T07:30:16.164+00:00</time>
      </trkpt>
      <trkpt lat="48.33405" lon="2.77445">
        <ele>53</ele>
        <time>2023-08-09T07:30:21.154+00:00</time>
      </trkpt>
      <trkpt lat="48.33404" lon="2.77438">
        <ele>53</ele>
        <time>2023-08-09T07:30:26.159+00:00</time>
      </trkpt>
      <trkpt lat="48.33404" lon="2.77428">
        <ele>53</ele>
        <time>2023-08-09T07:30:31.153+00:00</time>
      </trkpt>
      <trkpt lat="48.33405" lon="2.77418">
        <ele>53</ele>
        <time>2023-08-09T07:30:36.126+00:00</time>
      </trkpt>
      <trkpt lat="48.33406" lon="2.7741">
        <ele>53</ele>
        <time>2023-08-09T07:30:40.152+00:00</time>
      </trkpt>
      <trkpt lat="48.33404" lon="2.77392">
        <ele>52</ele>
        <time>2023-08-09T07:31:25.137+00:00</time>
      </trkpt>
      <trkpt lat="48.33406" lon="2.7739">
        <ele>52</ele>
        <time>2023-08-09T07:31:30.132+00:00</time>
      </trkpt>
      <trkpt lat="48.33408" lon="2.77383">
        <ele>52</ele>
        <time>2023-08-09T07:31:34.124+00:00</time>
      </trkpt>
      <trkpt lat="48.33408" lon="2.77373">
        <ele>51</ele>
        <time>2023-08-09T07:31:39.140+00:00</time>
      </trkpt>
      <trkpt lat="48.33409" lon="2.77365">
        <ele>51</ele>
        <time>2023-08-09T07:31:44.149+00:00</time>
      </trkpt>
      <trkpt lat="48.33409" lon="2.77356">
        <ele>51</ele>
        <time>2023-08-09T07:31:49.144+00:00</time>
      </trkpt>
      <trkpt lat="48.33409" lon="2.77347">
        <ele>51</ele>
        <time>2023-08-09T07:31:54.159+00:00</time>
      </trkpt>
      <trkpt lat="48.33408" lon="2.77338">
        <ele>51</ele>
        <time>2023-08-09T07:31:59.142+00:00</time>
      </trkpt>
      <trkpt lat="48.33406" lon="2.7733">
        <ele>51</ele>
        <time>2023-08-09T07:32:03.152+00:00</time>
      </trkpt>
      <trkpt lat="48.33405" lon="2.7732">
        <ele>51</ele>
        <time>2023-08-09T07:32:08.150+00:00</time>
      </trkpt>
      <trkpt lat="48.33404" lon="2.77313">
        <ele>51</ele>
        <time>2023-08-09T07:32:12.180+00:00</time>
      </trkpt>
      <trkpt lat="48.33402" lon="2.77303">
        <ele>52</ele>
        <time>2023-08-09T07:32:17.154+00:00</time>
      </trkpt>
      <trkpt lat="48.33401" lon="2.77296">
        <ele>52</ele>
        <time>2023-08-09T07:32:21.158+00:00</time>
      </trkpt>
      <trkpt lat="48.33399" lon="2.77286">
        <ele>51</ele>
        <time>2023-08-09T07:32:26.139+00:00</time>
      </trkpt>
      <trkpt lat="48.33397" lon="2.77277">
        <ele>51</ele>
        <time>2023-08-09T07:32:31.164+00:00</time>
      </trkpt>
      <trkpt lat="48.33395" lon="2.77267">
        <ele>51</ele>
        <time>2023-08-09T07:32:36.162+00:00</time>
      </trkpt>
      <trkpt lat="48.33394" lon="2.77258">
        <ele>51</ele>
        <time>2023-08-09T07:32:41.156+00:00</time>
      </trkpt>
      <trkpt lat="48.33392" lon="2.77248">
        <ele>51</ele>
        <time>2023-08-09T07:32:46.139+00:00</time>
      </trkpt>
      <trkpt lat="48.33392" lon="2.77239">
        <ele>51</ele>
        <time>2023-08-09T07:32:51.154+00:00</time>
      </trkpt>
      <trkpt lat="48.33391" lon="2.7723">
        <ele>51</ele>
        <time>2023-08-09T07:32:56.152+00:00</time>
      </trkpt>
      <trkpt lat="48.3339" lon="2.77219">
        <ele>51</ele>
        <time>2023-08-09T07:33:01.145+00:00</time>
      </trkpt>
      <trkpt lat="48.33388" lon="2.7721">
        <ele>51</ele>
        <time>2023-08-09T07:33:06.142+00:00</time>
      </trkpt>
      <trkpt lat="48.33386" lon="2.77202">
        <ele>52</ele>
        <time>2023-08-09T07:33:10.174+00:00</time>
      </trkpt>
      <trkpt lat="48.33384" lon="2.77194">
        <ele>52</ele>
        <time>2023-08-09T07:33:15.152+00:00</time>
      </trkpt>
      <trkpt lat="48.33383" lon="2.77186">
        <ele>52</ele>
        <time>2023-08-09T07:33:20.148+00:00</time>
      </trkpt>
      <trkpt lat="48.33381" lon="2.77179">
        <ele>53</ele>
        <time>2023-08-09T07:33:24.147+00:00</time>
      </trkpt>
      <trkpt lat="48.3338" lon="2.77172">
        <ele>53</ele>
        <time>2023-08-09T07:33:28.139+00:00</time>
      </trkpt>
      <trkpt lat="48.33377" lon="2.77161">
        <ele>53</ele>
        <time>2023-08-09T07:33:33.140+00:00</time>
      </trkpt>
      <trkpt lat="48.33377" lon="2.77157">
        <ele>53</ele>
        <time>2023-08-09T07:33:38.139+00:00</time>
      </trkpt>
      <trkpt lat="48.33376" lon="2.77147">
        <ele>53</ele>
        <time>2023-08-09T07:33:43.129+00:00</time>
      </trkpt>
      <trkpt lat="48.33376" lon="2.7714">
        <ele>53</ele>
        <time>2023-08-09T07:33:47.144+00:00</time>
      </trkpt>
      <trkpt lat="48.33374" lon="2.77131">
        <ele>53</ele>
        <time>2023-08-09T07:33:52.140+00:00</time>
      </trkpt>
      <trkpt lat="48.33372" lon="2.77121">
        <ele>53</ele>
        <time>2023-08-09T07:33:57.141+00:00</time>
      </trkpt>
      <trkpt lat="48.3337" lon="2.77113">
        <ele>53</ele>
        <time>2023-08-09T07:34:01.157+00:00</time>
      </trkpt>
      <trkpt lat="48.33368" lon="2.77103">
        <ele>53</ele>
        <time>2023-08-09T07:34:06.164+00:00</time>
      </trkpt>
      <trkpt lat="48.33367" lon="2.77094">
        <ele>53</ele>
        <time>2023-08-09T07:34:11.143+00:00</time>
      </trkpt>
      <trkpt lat="48.33365" lon="2.77087">
        <ele>53</ele>
        <time>2023-08-09T07:34:15.158+00:00</time>
      </trkpt>
      <trkpt lat="48.33363" lon="2.77078">
        <ele>53</ele>
        <time>2023-08-09T07:34:19.140+00:00</time>
      </trkpt>
      <trkpt lat="48.3336" lon="2.77068">
        <ele>53</ele>
        <time>2023-08-09T07:34:24.156+00:00</time>
      </trkpt>
      <trkpt lat="48.33357" lon="2.77059">
        <ele>53</ele>
        <time>2023-08-09T07:34:29.150+00:00</time>
      </trkpt>
      <trkpt lat="48.33355" lon="2.77049">
        <ele>53</ele>
        <time>2023-08-09T07:34:34.133+00:00</time>
      </trkpt>
      <trkpt lat="48.33353" lon="2.77042">
        <ele>53</ele>
        <time>2023-08-09T07:34:38.145+00:00</time>
      </trkpt>
      <trkpt lat="48.33352" lon="2.77034">
        <ele>53</ele>
        <time>2023-08-09T07:34:43.156+00:00</time>
      </trkpt>
      <trkpt lat="48.3335" lon="2.77027">
        <ele>53</ele>
        <time>2023-08-09T07:34:48.142+00:00</time>
      </trkpt>
      <trkpt lat="48.33348" lon="2.77021">
        <ele>53</ele>
        <time>2023-08-09T07:34:52.147+00:00</time>
      </trkpt>
      <trkpt lat="48.33346" lon="2.77013">
        <ele>54</ele>
        <time>2023-08-09T07:34:57.146+00:00</time>
      </trkpt>
      <trkpt lat="48.33344" lon="2.77005">
        <ele>54</ele>
        <time>2023-08-09T07:35:01.153+00:00</time>
      </trkpt>
      <trkpt lat="48.33341" lon="2.76997">
        <ele>54</ele>
        <time>2023-08-09T07:35:06.134+00:00</time>
      </trkpt>
      <trkpt lat="48.33339" lon="2.76988">
        <ele>54</ele>
        <time>2023-08-09T07:35:10.136+00:00</time>
      </trkpt>
      <trkpt lat="48.33337" lon="2.7698">
        <ele>55</ele>
        <time>2023-08-09T07:35:14.150+00:00</time>
      </trkpt>
      <trkpt lat="48.33335" lon="2.76969">
        <ele>55</ele>
        <time>2023-08-09T07:35:19.122+00:00</time>
      </trkpt>
      <trkpt lat="48.33333" lon="2.76962">
        <ele>55</ele>
        <time>2023-08-09T07:35:23.139+00:00</time>
      </trkpt>
      <trkpt lat="48.33331" lon="2.76953">
        <ele>56</ele>
        <time>2023-08-09T07:35:28.160+00:00</time>
      </trkpt>
      <trkpt lat="48.33329" lon="2.76946">
        <ele>56</ele>
        <time>2023-08-09T07:35:32.157+00:00</time>
      </trkpt>
      <trkpt lat="48.33325" lon="2.76938">
        <ele>56</ele>
        <time>2023-08-09T07:35:37.145+00:00</time>
      </trkpt>
      <trkpt lat="48.33323" lon="2.7693">
        <ele>56</ele>
        <time>2023-08-09T07:35:42.133+00:00</time>
      </trkpt>
      <trkpt lat="48.33321" lon="2.76925">
        <ele>56</ele>
        <time>2023-08-09T07:35:46.152+00:00</time>
      </trkpt>
      <trkpt lat="48.33319" lon="2.76918">
        <ele>55</ele>
        <time>2023-08-09T07:35:50.159+00:00</time>
      </trkpt>
      <trkpt lat="48.33318" lon="2.7692">
        <ele>55</ele>
        <time>2023-08-09T07:35:55.144+00:00</time>
      </trkpt>
      <trkpt lat="48.33313" lon="2.76914">
        <ele>55</ele>
        <time>2023-08-09T07:36:00.112+00:00</time>
      </trkpt>
      <trkpt lat="48.3331" lon="2.76911">
        <ele>55</ele>
        <time>2023-08-09T07:36:04.122+00:00</time>
      </trkpt>
      <trkpt lat="48.3331" lon="2.7691">
        <ele>55</ele>
        <time>2023-08-09T07:36:09.120+00:00</time>
      </trkpt>
      <trkpt lat="48.33309" lon="2.76909">
        <ele>55</ele>
        <time>2023-08-09T07:36:14.108+00:00</time>
      </trkpt>
      <trkpt lat="48.33303" lon="2.76909">
        <ele>55</ele>
        <time>2023-08-09T07:36:18.153+00:00</time>
      </trkpt>
      <trkpt lat="48.33298" lon="2.7691">
        <ele>55</ele>
        <time>2023-08-09T07:36:22.131+00:00</time>
      </trkpt>
      <trkpt lat="48.3329" lon="2.76904">
        <ele>54</ele>
        <time>2023-08-09T07:37:47.140+00:00</time>
      </trkpt>
      <trkpt lat="48.3329" lon="2.76901">
        <ele>55</ele>
        <time>2023-08-09T07:37:52.139+00:00</time>
      </trkpt>
      <trkpt lat="48.3329" lon="2.769">
        <ele>55</ele>
        <time>2023-08-09T07:37:57.131+00:00</time>
      </trkpt>
      <trkpt lat="48.33291" lon="2.76898">
        <ele>55</ele>
        <time>2023-08-09T07:38:01.130+00:00</time>
      </trkpt>
      <trkpt lat="48.33291" lon="2.76895">
        <ele>55</ele>
        <time>2023-08-09T07:38:06.160+00:00</time>
      </trkpt>
      <trkpt lat="48.33289" lon="2.76885">
        <ele>55</ele>
        <time>2023-08-09T07:38:25.121+00:00</time>
      </trkpt>
      <trkpt lat="48.33288" lon="2.76885">
        <ele>55</ele>
        <time>2023-08-09T07:38:29.128+00:00</time>
      </trkpt>
      <trkpt lat="48.33287" lon="2.76883">
        <ele>55</ele>
        <time>2023-08-09T07:38:34.161+00:00</time>
      </trkpt>
      <trkpt lat="48.33287" lon="2.76882">
        <ele>55</ele>
        <time>2023-08-09T07:38:39.121+00:00</time>
      </trkpt>
      <trkpt lat="48.33285" lon="2.76879">
        <ele>55</ele>
        <time>2023-08-09T07:38:43.135+00:00</time>
      </trkpt>
      <trkpt lat="48.33286" lon="2.76865">
        <ele>55</ele>
        <time>2023-08-09T07:39:43.118+00:00</time>
      </trkpt>
      <trkpt lat="48.33287" lon="2.76864">
        <ele>55</ele>
        <time>2023-08-09T07:39:47.138+00:00</time>
      </trkpt>
      <trkpt lat="48.33288" lon="2.76864">
        <ele>55</ele>
        <time>2023-08-09T07:39:52.129+00:00</time>
      </trkpt>
      <trkpt lat="48.33288" lon="2.76863">
        <ele>55</ele>
        <time>2023-08-09T07:39:56.142+00:00</time>
      </trkpt>
      <trkpt lat="48.33292" lon="2.76862">
        <ele>55</ele>
        <time>2023-08-09T07:40:01.122+00:00</time>
      </trkpt>
      <trkpt lat="48.33294" lon="2.76858">
        <ele>55</ele>
        <time>2023-08-09T07:40:14.160+00:00</time>
      </trkpt>
      <trkpt lat="48.33296" lon="2.76858">
        <ele>55</ele>
        <time>2023-08-09T07:40:19.125+00:00</time>
      </trkpt>
      <trkpt lat="48.33297" lon="2.76854">
        <ele>55</ele>
        <time>2023-08-09T07:40:24.150+00:00</time>
      </trkpt>
      <trkpt lat="48.33298" lon="2.76852">
        <ele>55</ele>
        <time>2023-08-09T07:40:29.107+00:00</time>
      </trkpt>
      <trkpt lat="48.33298" lon="2.7685">
        <ele>55</ele>
        <time>2023-08-09T07:40:33.136+00:00</time>
      </trkpt>
      <trkpt lat="48.33306" lon="2.76843">
        <ele>55</ele>
        <time>2023-08-09T07:41:52.137+00:00</time>
      </trkpt>
      <trkpt lat="48.33306" lon="2.76842">
        <ele>55</ele>
        <time>2023-08-09T07:41:57.127+00:00</time>
      </trkpt>
      <trkpt lat="48.33307" lon="2.76841">
        <ele>55</ele>
        <time>2023-08-09T07:42:02.140+00:00</time>
      </trkpt>
      <trkpt lat="48.33308" lon="2.7684">
        <ele>55</ele>
        <time>2023-08-09T07:42:06.136+00:00</time>
      </trkpt>
      <trkpt lat="48.33308" lon="2.76838">
        <ele>55</ele>
        <time>2023-08-09T07:42:10.134+00:00</time>
      </trkpt>
      <trkpt lat="48.33313" lon="2.76832">
        <ele>55</ele>
        <time>2023-08-09T07:42:33.120+00:00</time>
      </trkpt>
      <trkpt lat="48.33314" lon="2.76831">
        <ele>55</ele>
        <time>2023-08-09T07:42:37.125+00:00</time>
      </trkpt>
      <trkpt lat="48.33315" lon="2.76831">
        <ele>55</ele>
        <time>2023-08-09T07:42:41.126+00:00</time>
      </trkpt>
      <trkpt lat="48.33316" lon="2.7683">
        <ele>55</ele>
        <time>2023-08-09T07:42:46.145+00:00</time>
      </trkpt>
      <trkpt lat="48.33317" lon="2.76829">
        <ele>55</ele>
        <time>2023-08-09T07:42:50.140+00:00</time>
      </trkpt>
      <trkpt lat="48.33324" lon="2.76819">
        <ele>53</ele>
        <time>2023-08-09T07:43:34.144+00:00</time>
      </trkpt>
      <trkpt lat="48.33325" lon="2.76818">
        <ele>53</ele>
        <time>2023-08-09T07:43:39.118+00:00</time>
      </trkpt>
      <trkpt lat="48.33326" lon="2.76815">
        <ele>53</ele>
        <time>2023-08-09T07:43:43.149+00:00</time>
      </trkpt>
      <trkpt lat="48.33327" lon="2.76814">
        <ele>53</ele>
        <time>2023-08-09T07:43:47.145+00:00</time>
      </trkpt>
      <trkpt lat="48.33327" lon="2.76812">
        <ele>53</ele>
        <time>2023-08-09T07:43:51.123+00:00</time>
      </trkpt>
      <trkpt lat="48.33326" lon="2.76807">
        <ele>53</ele>
        <time>2023-08-09T07:43:56.143+00:00</time>
      </trkpt>
      <trkpt lat="48.33326" lon="2.76801">
        <ele>53</ele>
        <time>2023-08-09T07:44:01.116+00:00</time>
      </trkpt>
      <trkpt lat="48.33322" lon="2.76794">
        <ele>53</ele>
        <time>2023-08-09T07:44:06.100+00:00</time>
      </trkpt>
      <trkpt lat="48.3332" lon="2.76786">
        <ele>52</ele>
        <time>2023-08-09T07:44:10.114+00:00</time>
      </trkpt>
      <trkpt lat="48.33318" lon="2.7678">
        <ele>54</ele>
        <time>2023-08-09T07:44:14.145+00:00</time>
      </trkpt>
      <trkpt lat="48.33315" lon="2.76774">
        <ele>54</ele>
        <time>2023-08-09T07:44:19.110+00:00</time>
      </trkpt>
      <trkpt lat="48.33314" lon="2.76767">
        <ele>54</ele>
        <time>2023-08-09T07:44:23.132+00:00</time>
      </trkpt>
      <trkpt lat="48.33313" lon="2.76759">
        <ele>55</ele>
        <time>2023-08-09T07:44:28.106+00:00</time>
      </trkpt>
      <trkpt lat="48.33312" lon="2.76753">
        <ele>55</ele>
        <time>2023-08-09T07:44:32.111+00:00</time>
      </trkpt>
      <trkpt lat="48.3331" lon="2.76747">
        <ele>55</ele>
        <time>2023-08-09T07:44:36.127+00:00</time>
      </trkpt>
      <trkpt lat="48.33309" lon="2.7674">
        <ele>55</ele>
        <time>2023-08-09T07:44:40.149+00:00</time>
      </trkpt>
      <trkpt lat="48.33307" lon="2.76732">
        <ele>55</ele>
        <time>2023-08-09T07:44:44.144+00:00</time>
      </trkpt>
      <trkpt lat="48.33305" lon="2.76725">
        <ele>55</ele>
        <time>2023-08-09T07:44:49.129+00:00</time>
      </trkpt>
      <trkpt lat="48.33302" lon="2.76717">
        <ele>55</ele>
        <time>2023-08-09T07:44:54.151+00:00</time>
      </trkpt>
      <trkpt lat="48.333" lon="2.76711">
        <ele>55</ele>
        <time>2023-08-09T07:44:58.142+00:00</time>
      </trkpt>
      <trkpt lat="48.33298" lon="2.76703">
        <ele>54</ele>
        <time>2023-08-09T07:45:03.124+00:00</time>
      </trkpt>
      <trkpt lat="48.33296" lon="2.76697">
        <ele>54</ele>
        <time>2023-08-09T07:45:07.132+00:00</time>
      </trkpt>
      <trkpt lat="48.33293" lon="2.76688">
        <ele>54</ele>
        <time>2023-08-09T07:45:12.144+00:00</time>
      </trkpt>
      <trkpt lat="48.3329" lon="2.76681">
        <ele>56</ele>
        <time>2023-08-09T07:45:16.135+00:00</time>
      </trkpt>
      <trkpt lat="48.33288" lon="2.76673">
        <ele>56</ele>
        <time>2023-08-09T07:45:21.132+00:00</time>
      </trkpt>
      <trkpt lat="48.33286" lon="2.76665">
        <ele>56</ele>
        <time>2023-08-09T07:45:25.137+00:00</time>
      </trkpt>
      <trkpt lat="48.33284" lon="2.76659">
        <ele>56</ele>
        <time>2023-08-09T07:45:29.132+00:00</time>
      </trkpt>
      <trkpt lat="48.33282" lon="2.76653">
        <ele>56</ele>
        <time>2023-08-09T07:45:33.145+00:00</time>
      </trkpt>
      <trkpt lat="48.33279" lon="2.76645">
        <ele>56</ele>
        <time>2023-08-09T07:45:37.144+00:00</time>
      </trkpt>
      <trkpt lat="48.33277" lon="2.76636">
        <ele>56</ele>
        <time>2023-08-09T07:45:42.136+00:00</time>
      </trkpt>
      <trkpt lat="48.33274" lon="2.76627">
        <ele>56</ele>
        <time>2023-08-09T07:45:47.138+00:00</time>
      </trkpt>
      <trkpt lat="48.33271" lon="2.76618">
        <ele>56</ele>
        <time>2023-08-09T07:45:52.138+00:00</time>
      </trkpt>
      <trkpt lat="48.33269" lon="2.76609">
        <ele>56</ele>
        <time>2023-08-09T07:45:57.131+00:00</time>
      </trkpt>
      <trkpt lat="48.33266" lon="2.76602">
        <ele>56</ele>
        <time>2023-08-09T07:46:11.126+00:00</time>
      </trkpt>
      <trkpt lat="48.33265" lon="2.76601">
        <ele>56</ele>
        <time>2023-08-09T07:46:16.123+00:00</time>
      </trkpt>
      <trkpt lat="48.33264" lon="2.76594">
        <ele>58</ele>
        <time>2023-08-09T07:46:20.124+00:00</time>
      </trkpt>
      <trkpt lat="48.33261" lon="2.76584">
        <ele>58</ele>
        <time>2023-08-09T07:46:25.119+00:00</time>
      </trkpt>
      <trkpt lat="48.33259" lon="2.76578">
        <ele>58</ele>
        <time>2023-08-09T07:46:29.142+00:00</time>
      </trkpt>
      <trkpt lat="48.33256" lon="2.76569">
        <ele>57</ele>
        <time>2023-08-09T07:46:34.124+00:00</time>
      </trkpt>
      <trkpt lat="48.33254" lon="2.76556">
        <ele>57</ele>
        <time>2023-08-09T07:46:39.103+00:00</time>
      </trkpt>
      <trkpt lat="48.33252" lon="2.76546">
        <ele>57</ele>
        <time>2023-08-09T07:46:43.125+00:00</time>
      </trkpt>
      <trkpt lat="48.33249" lon="2.76537">
        <ele>56</ele>
        <time>2023-08-09T07:46:48.119+00:00</time>
      </trkpt>
      <trkpt lat="48.33247" lon="2.76529">
        <ele>56</ele>
        <time>2023-08-09T07:46:53.135+00:00</time>
      </trkpt>
      <trkpt lat="48.33244" lon="2.76519">
        <ele>56</ele>
        <time>2023-08-09T07:46:58.128+00:00</time>
      </trkpt>
      <trkpt lat="48.33242" lon="2.76512">
        <ele>54</ele>
        <time>2023-08-09T07:47:02.145+00:00</time>
      </trkpt>
      <trkpt lat="48.33239" lon="2.76503">
        <ele>54</ele>
        <time>2023-08-09T07:47:07.143+00:00</time>
      </trkpt>
      <trkpt lat="48.33236" lon="2.76493">
        <ele>56</ele>
        <time>2023-08-09T07:47:12.102+00:00</time>
      </trkpt>
      <trkpt lat="48.33234" lon="2.76486">
        <ele>56</ele>
        <time>2023-08-09T07:47:16.109+00:00</time>
      </trkpt>
      <trkpt lat="48.33233" lon="2.76481">
        <ele>56</ele>
        <time>2023-08-09T07:47:20.133+00:00</time>
      </trkpt>
      <trkpt lat="48.3323" lon="2.76473">
        <ele>56</ele>
        <time>2023-08-09T07:47:24.133+00:00</time>
      </trkpt>
      <trkpt lat="48.33229" lon="2.76465">
        <ele>56</ele>
        <time>2023-08-09T07:47:29.129+00:00</time>
      </trkpt>
      <trkpt lat="48.33226" lon="2.76456">
        <ele>56</ele>
        <time>2023-08-09T07:47:34.140+00:00</time>
      </trkpt>
      <trkpt lat="48.33222" lon="2.76447">
        <ele>56</ele>
        <time>2023-08-09T07:47:39.114+00:00</time>
      </trkpt>
      <trkpt lat="48.3322" lon="2.76437">
        <ele>56</ele>
        <time>2023-08-09T07:47:44.134+00:00</time>
      </trkpt>
      <trkpt lat="48.33217" lon="2.76418">
        <ele>56</ele>
        <time>2023-08-09T07:48:06.135+00:00</time>
      </trkpt>
      <trkpt lat="48.33217" lon="2.76417">
        <ele>56</ele>
        <time>2023-08-09T07:48:11.137+00:00</time>
      </trkpt>
      <trkpt lat="48.33214" lon="2.76406">
        <ele>56</ele>
        <time>2023-08-09T07:48:16.137+00:00</time>
      </trkpt>
      <trkpt lat="48.33213" lon="2.76396">
        <ele>56</ele>
        <time>2023-08-09T07:48:21.128+00:00</time>
      </trkpt>
      <trkpt lat="48.33212" lon="2.76389">
        <ele>56</ele>
        <time>2023-08-09T07:48:25.142+00:00</time>
      </trkpt>
      <trkpt lat="48.33209" lon="2.7638">
        <ele>56</ele>
        <time>2023-08-09T07:48:30.130+00:00</time>
      </trkpt>
      <trkpt lat="48.33206" lon="2.76371">
        <ele>58</ele>
        <time>2023-08-09T07:48:35.115+00:00</time>
      </trkpt>
      <trkpt lat="48.33202" lon="2.76363">
        <ele>58</ele>
        <time>2023-08-09T07:48:39.136+00:00</time>
      </trkpt>
      <trkpt lat="48.33199" lon="2.76354">
        <ele>58</ele>
        <time>2023-08-09T07:48:44.125+00:00</time>
      </trkpt>
      <trkpt lat="48.33196" lon="2.76345">
        <ele>58</ele>
        <time>2023-08-09T07:48:49.149+00:00</time>
      </trkpt>
      <trkpt lat="48.33194" lon="2.76335">
        <ele>58</ele>
        <time>2023-08-09T07:48:54.137+00:00</time>
      </trkpt>
      <trkpt lat="48.33192" lon="2.76328">
        <ele>58</ele>
        <time>2023-08-09T07:48:58.146+00:00</time>
      </trkpt>
      <trkpt lat="48.3319" lon="2.76319">
        <ele>58</ele>
        <time>2023-08-09T07:49:03.140+00:00</time>
      </trkpt>
      <trkpt lat="48.33186" lon="2.76309">
        <ele>58</ele>
        <time>2023-08-09T07:49:08.139+00:00</time>
      </trkpt>
      <trkpt lat="48.33184" lon="2.76302">
        <ele>58</ele>
        <time>2023-08-09T07:49:13.132+00:00</time>
      </trkpt>
      <trkpt lat="48.33182" lon="2.76296">
        <ele>58</ele>
        <time>2023-08-09T07:49:17.135+00:00</time>
      </trkpt>
      <trkpt lat="48.33179" lon="2.76288">
        <ele>60</ele>
        <time>2023-08-09T07:49:22.128+00:00</time>
      </trkpt>
      <trkpt lat="48.33177" lon="2.76278">
        <ele>60</ele>
        <time>2023-08-09T07:49:27.127+00:00</time>
      </trkpt>
      <trkpt lat="48.33176" lon="2.76272">
        <ele>60</ele>
        <time>2023-08-09T07:49:31.145+00:00</time>
      </trkpt>
      <trkpt lat="48.33173" lon="2.76262">
        <ele>60</ele>
        <time>2023-08-09T07:49:36.148+00:00</time>
      </trkpt>
      <trkpt lat="48.3317" lon="2.76252">
        <ele>60</ele>
        <time>2023-08-09T07:49:41.127+00:00</time>
      </trkpt>
      <trkpt lat="48.33168" lon="2.7624">
        <ele>60</ele>
        <time>2023-08-09T07:49:46.148+00:00</time>
      </trkpt>
      <trkpt lat="48.33165" lon="2.7623">
        <ele>59</ele>
        <time>2023-08-09T07:49:51.148+00:00</time>
      </trkpt>
      <trkpt lat="48.33162" lon="2.76221">
        <ele>59</ele>
        <time>2023-08-09T07:49:56.129+00:00</time>
      </trkpt>
      <trkpt lat="48.33161" lon="2.76215">
        <ele>59</ele>
        <time>2023-08-09T07:50:01.152+00:00</time>
      </trkpt>
      <trkpt lat="48.33156" lon="2.76207">
        <ele>58</ele>
        <time>2023-08-09T07:50:06.146+00:00</time>
      </trkpt>
      <trkpt lat="48.33153" lon="2.76198">
        <ele>61</ele>
        <time>2023-08-09T07:50:11.147+00:00</time>
      </trkpt>
      <trkpt lat="48.33151" lon="2.76187">
        <ele>61</ele>
        <time>2023-08-09T07:50:16.149+00:00</time>
      </trkpt>
      <trkpt lat="48.3315" lon="2.76186">
        <ele>61</ele>
        <time>2023-08-09T07:50:21.134+00:00</time>
      </trkpt>
      <trkpt lat="48.33151" lon="2.76187">
        <ele>61</ele>
        <time>2023-08-09T07:50:25.150+00:00</time>
      </trkpt>
      <trkpt lat="48.33151" lon="2.76187">
        <ele>61</ele>
        <time>2023-08-09T07:50:30.143+00:00</time>
      </trkpt>
      <trkpt lat="48.33151" lon="2.76183">
        <ele>61</ele>
        <time>2023-08-09T07:50:35.135+00:00</time>
      </trkpt>
      <trkpt lat="48.33148" lon="2.76173">
        <ele>61</ele>
        <time>2023-08-09T07:50:40.142+00:00</time>
      </trkpt>
      <trkpt lat="48.33145" lon="2.76164">
        <ele>61</ele>
        <time>2023-08-09T07:50:45.137+00:00</time>
      </trkpt>
      <trkpt lat="48.33141" lon="2.76155">
        <ele>61</ele>
        <time>2023-08-09T07:50:50.119+00:00</time>
      </trkpt>
      <trkpt lat="48.33138" lon="2.76148">
        <ele>60</ele>
        <time>2023-08-09T07:50:54.137+00:00</time>
      </trkpt>
      <trkpt lat="48.33136" lon="2.76138">
        <ele>60</ele>
        <time>2023-08-09T07:50:59.119+00:00</time>
      </trkpt>
      <trkpt lat="48.33134" lon="2.76128">
        <ele>60</ele>
        <time>2023-08-09T07:51:04.150+00:00</time>
      </trkpt>
      <trkpt lat="48.3313" lon="2.7612">
        <ele>59</ele>
        <time>2023-08-09T07:51:09.115+00:00</time>
      </trkpt>
      <trkpt lat="48.33128" lon="2.76112">
        <ele>59</ele>
        <time>2023-08-09T07:51:13.118+00:00</time>
      </trkpt>
      <trkpt lat="48.33126" lon="2.76103">
        <ele>59</ele>
        <time>2023-08-09T07:51:18.121+00:00</time>
      </trkpt>
      <trkpt lat="48.33125" lon="2.76095">
        <ele>57</ele>
        <time>2023-08-09T07:51:22.140+00:00</time>
      </trkpt>
      <trkpt lat="48.33124" lon="2.76087">
        <ele>57</ele>
        <time>2023-08-09T07:51:27.136+00:00</time>
      </trkpt>
      <trkpt lat="48.33122" lon="2.76079">
        <ele>57</ele>
        <time>2023-08-09T07:51:31.134+00:00</time>
      </trkpt>
      <trkpt lat="48.3312" lon="2.76071">
        <ele>57</ele>
        <time>2023-08-09T07:51:36.149+00:00</time>
      </trkpt>
      <trkpt lat="48.33118" lon="2.76062">
        <ele>56</ele>
        <time>2023-08-09T07:51:41.122+00:00</time>
      </trkpt>
      <trkpt lat="48.33115" lon="2.76053">
        <ele>56</ele>
        <time>2023-08-09T07:51:46.141+00:00</time>
      </trkpt>
      <trkpt lat="48.33112" lon="2.76044">
        <ele>56</ele>
        <time>2023-08-09T07:51:51.131+00:00</time>
      </trkpt>
      <trkpt lat="48.33111" lon="2.76037">
        <ele>55</ele>
        <time>2023-08-09T07:51:55.127+00:00</time>
      </trkpt>
      <trkpt lat="48.33108" lon="2.76028">
        <ele>55</ele>
        <time>2023-08-09T07:52:00.132+00:00</time>
      </trkpt>
      <trkpt lat="48.33105" lon="2.7602">
        <ele>55</ele>
        <time>2023-08-09T07:52:04.151+00:00</time>
      </trkpt>
      <trkpt lat="48.33102" lon="2.7601">
        <ele>54</ele>
        <time>2023-08-09T07:52:09.124+00:00</time>
      </trkpt>
      <trkpt lat="48.331" lon="2.76003">
        <ele>54</ele>
        <time>2023-08-09T07:52:13.149+00:00</time>
      </trkpt>
      <trkpt lat="48.33097" lon="2.75994">
        <ele>56</ele>
        <time>2023-08-09T07:52:18.121+00:00</time>
      </trkpt>
      <trkpt lat="48.33095" lon="2.75987">
        <ele>56</ele>
        <time>2023-08-09T07:52:22.136+00:00</time>
      </trkpt>
      <trkpt lat="48.33092" lon="2.75981">
        <ele>56</ele>
        <time>2023-08-09T07:52:27.134+00:00</time>
      </trkpt>
      <trkpt lat="48.33088" lon="2.75972">
        <ele>56</ele>
        <time>2023-08-09T07:52:32.109+00:00</time>
      </trkpt>
      <trkpt lat="48.33085" lon="2.75965">
        <ele>56</ele>
        <time>2023-08-09T07:52:36.142+00:00</time>
      </trkpt>
      <trkpt lat="48.33083" lon="2.75957">
        <ele>57</ele>
        <time>2023-08-09T07:52:41.138+00:00</time>
      </trkpt>
      <trkpt lat="48.33079" lon="2.75946">
        <ele>57</ele>
        <time>2023-08-09T07:52:46.104+00:00</time>
      </trkpt>
      <trkpt lat="48.33077" lon="2.75939">
        <ele>57</ele>
        <time>2023-08-09T07:52:50.108+00:00</time>
      </trkpt>
      <trkpt lat="48.33075" lon="2.75932">
        <ele>57</ele>
        <time>2023-08-09T07:52:54.125+00:00</time>
      </trkpt>
      <trkpt lat="48.33072" lon="2.75923">
        <ele>57</ele>
        <time>2023-08-09T07:52:59.139+00:00</time>
      </trkpt>
      <trkpt lat="48.33069" lon="2.75917">
        <ele>58</ele>
        <time>2023-08-09T07:53:03.148+00:00</time>
      </trkpt>
      <trkpt lat="48.33067" lon="2.75909">
        <ele>58</ele>
        <time>2023-08-09T07:53:08.124+00:00</time>
      </trkpt>
      <trkpt lat="48.33065" lon="2.75903">
        <ele>57</ele>
        <time>2023-08-09T07:53:12.143+00:00</time>
      </trkpt>
      <trkpt lat="48.33063" lon="2.75894">
        <ele>57</ele>
        <time>2023-08-09T07:53:16.146+00:00</time>
      </trkpt>
      <trkpt lat="48.3306" lon="2.75885">
        <ele>57</ele>
        <time>2023-08-09T07:53:21.134+00:00</time>
      </trkpt>
      <trkpt lat="48.33058" lon="2.75876">
        <ele>57</ele>
        <time>2023-08-09T07:53:25.151+00:00</time>
      </trkpt>
      <trkpt lat="48.33056" lon="2.75866">
        <ele>57</ele>
        <time>2023-08-09T07:53:30.115+00:00</time>
      </trkpt>
      <trkpt lat="48.33054" lon="2.75858">
        <ele>57</ele>
        <time>2023-08-09T07:53:34.149+00:00</time>
      </trkpt>
      <trkpt lat="48.33055" lon="2.75848">
        <ele>57</ele>
        <time>2023-08-09T07:53:39.143+00:00</time>
      </trkpt>
      <trkpt lat="48.33053" lon="2.75836">
        <ele>57</ele>
        <time>2023-08-09T07:53:44.155+00:00</time>
      </trkpt>
      <trkpt lat="48.33049" lon="2.75829">
        <ele>57</ele>
        <time>2023-08-09T07:53:49.146+00:00</time>
      </trkpt>
      <trkpt lat="48.33047" lon="2.75822">
        <ele>57</ele>
        <time>2023-08-09T07:53:53.166+00:00</time>
      </trkpt>
      <trkpt lat="48.33043" lon="2.75812">
        <ele>57</ele>
        <time>2023-08-09T07:53:58.118+00:00</time>
      </trkpt>
      <trkpt lat="48.33042" lon="2.75805">
        <ele>57</ele>
        <time>2023-08-09T07:54:02.148+00:00</time>
      </trkpt>
      <trkpt lat="48.33041" lon="2.75797">
        <ele>57</ele>
        <time>2023-08-09T07:54:07.152+00:00</time>
      </trkpt>
      <trkpt lat="48.3304" lon="2.75785">
        <ele>57</ele>
        <time>2023-08-09T07:54:12.136+00:00</time>
      </trkpt>
      <trkpt lat="48.33036" lon="2.75777">
        <ele>57</ele>
        <time>2023-08-09T07:54:16.143+00:00</time>
      </trkpt>
      <trkpt lat="48.33033" lon="2.75769">
        <ele>57</ele>
        <time>2023-08-09T07:54:21.150+00:00</time>
      </trkpt>
      <trkpt lat="48.33031" lon="2.7576">
        <ele>57</ele>
        <time>2023-08-09T07:54:26.149+00:00</time>
      </trkpt>
      <trkpt lat="48.33029" lon="2.75749">
        <ele>57</ele>
        <time>2023-08-09T07:54:31.141+00:00</time>
      </trkpt>
      <trkpt lat="48.33026" lon="2.75741">
        <ele>57</ele>
        <time>2023-08-09T07:54:35.136+00:00</time>
      </trkpt>
      <trkpt lat="48.33022" lon="2.75733">
        <ele>57</ele>
        <time>2023-08-09T07:54:40.115+00:00</time>
      </trkpt>
      <trkpt lat="48.3302" lon="2.75724">
        <ele>57</ele>
        <time>2023-08-09T07:54:44.147+00:00</time>
      </trkpt>
      <trkpt lat="48.33018" lon="2.75713">
        <ele>57</ele>
        <time>2023-08-09T07:54:49.116+00:00</time>
      </trkpt>
      <trkpt lat="48.33015" lon="2.75709">
        <ele>57</ele>
        <time>2023-08-09T07:54:53.163+00:00</time>
      </trkpt>
      <trkpt lat="48.33012" lon="2.75699">
        <ele>58</ele>
        <time>2023-08-09T07:54:58.140+00:00</time>
      </trkpt>
      <trkpt lat="48.3301" lon="2.75689">
        <ele>58</ele>
        <time>2023-08-09T07:55:03.143+00:00</time>
      </trkpt>
      <trkpt lat="48.3301" lon="2.75684">
        <ele>58</ele>
        <time>2023-08-09T07:55:07.137+00:00</time>
      </trkpt>
      <trkpt lat="48.33008" lon="2.75673">
        <ele>57</ele>
        <time>2023-08-09T07:55:12.131+00:00</time>
      </trkpt>
      <trkpt lat="48.33005" lon="2.75665">
        <ele>57</ele>
        <time>2023-08-09T07:55:16.146+00:00</time>
      </trkpt>
      <trkpt lat="48.33" lon="2.75654">
        <ele>57</ele>
        <time>2023-08-09T07:55:21.109+00:00</time>
      </trkpt>
      <trkpt lat="48.32997" lon="2.75647">
        <ele>58</ele>
        <time>2023-08-09T07:55:25.097+00:00</time>
      </trkpt>
      <trkpt lat="48.32995" lon="2.7564">
        <ele>58</ele>
        <time>2023-08-09T07:55:30.141+00:00</time>
      </trkpt>
      <trkpt lat="48.32993" lon="2.75632">
        <ele>58</ele>
        <time>2023-08-09T07:55:35.157+00:00</time>
      </trkpt>
      <trkpt lat="48.32991" lon="2.75626">
        <ele>58</ele>
        <time>2023-08-09T07:55:39.140+00:00</time>
      </trkpt>
      <trkpt lat="48.32987" lon="2.75617">
        <ele>57</ele>
        <time>2023-08-09T07:55:44.120+00:00</time>
      </trkpt>
      <trkpt lat="48.32986" lon="2.75608">
        <ele>59</ele>
        <time>2023-08-09T07:55:49.125+00:00</time>
      </trkpt>
      <trkpt lat="48.32984" lon="2.75597">
        <ele>59</ele>
        <time>2023-08-09T07:55:54.124+00:00</time>
      </trkpt>
      <trkpt lat="48.32983" lon="2.75588">
        <ele>59</ele>
        <time>2023-08-09T07:55:58.136+00:00</time>
      </trkpt>
      <trkpt lat="48.32981" lon="2.75581">
        <ele>59</ele>
        <time>2023-08-09T07:56:03.129+00:00</time>
      </trkpt>
      <trkpt lat="48.32979" lon="2.75572">
        <ele>59</ele>
        <time>2023-08-09T07:56:07.194+00:00</time>
      </trkpt>
      <trkpt lat="48.32975" lon="2.75564">
        <ele>59</ele>
        <time>2023-08-09T07:56:12.135+00:00</time>
      </trkpt>
      <trkpt lat="48.32972" lon="2.75557">
        <ele>59</ele>
        <time>2023-08-09T07:56:16.141+00:00</time>
      </trkpt>
      <trkpt lat="48.3297" lon="2.75548">
        <ele>59</ele>
        <time>2023-08-09T07:56:21.101+00:00</time>
      </trkpt>
      <trkpt lat="48.32968" lon="2.75541">
        <ele>59</ele>
        <time>2023-08-09T07:56:25.128+00:00</time>
      </trkpt>
      <trkpt lat="48.32967" lon="2.75532">
        <ele>59</ele>
        <time>2023-08-09T07:56:30.123+00:00</time>
      </trkpt>
      <trkpt lat="48.32966" lon="2.75522">
        <ele>59</ele>
        <time>2023-08-09T07:56:35.122+00:00</time>
      </trkpt>
      <trkpt lat="48.32962" lon="2.75515">
        <ele>59</ele>
        <time>2023-08-09T07:56:40.126+00:00</time>
      </trkpt>
      <trkpt lat="48.32957" lon="2.75506">
        <ele>58</ele>
        <time>2023-08-09T07:56:45.117+00:00</time>
      </trkpt>
      <trkpt lat="48.32955" lon="2.75497">
        <ele>58</ele>
        <time>2023-08-09T07:56:50.106+00:00</time>
      </trkpt>
      <trkpt lat="48.32953" lon="2.7549">
        <ele>58</ele>
        <time>2023-08-09T07:56:54.129+00:00</time>
      </trkpt>
      <trkpt lat="48.32949" lon="2.75479">
        <ele>58</ele>
        <time>2023-08-09T07:56:59.111+00:00</time>
      </trkpt>
      <trkpt lat="48.32946" lon="2.7547">
        <ele>58</ele>
        <time>2023-08-09T07:57:04.126+00:00</time>
      </trkpt>
      <trkpt lat="48.32943" lon="2.75459">
        <ele>58</ele>
        <time>2023-08-09T07:57:09.109+00:00</time>
      </trkpt>
      <trkpt lat="48.32941" lon="2.75451">
        <ele>58</ele>
        <time>2023-08-09T07:57:13.117+00:00</time>
      </trkpt>
      <trkpt lat="48.32938" lon="2.75445">
        <ele>58</ele>
        <time>2023-08-09T07:57:17.137+00:00</time>
      </trkpt>
      <trkpt lat="48.32937" lon="2.75436">
        <ele>58</ele>
        <time>2023-08-09T07:57:22.124+00:00</time>
      </trkpt>
      <trkpt lat="48.32934" lon="2.75426">
        <ele>57</ele>
        <time>2023-08-09T07:57:27.111+00:00</time>
      </trkpt>
      <trkpt lat="48.32932" lon="2.75421">
        <ele>57</ele>
        <time>2023-08-09T07:57:31.141+00:00</time>
      </trkpt>
      <trkpt lat="48.32931" lon="2.75412">
        <ele>57</ele>
        <time>2023-08-09T07:57:36.145+00:00</time>
      </trkpt>
      <trkpt lat="48.3293" lon="2.75403">
        <ele>57</ele>
        <time>2023-08-09T07:57:41.132+00:00</time>
      </trkpt>
      <trkpt lat="48.32928" lon="2.75395">
        <ele>56</ele>
        <time>2023-08-09T07:57:45.148+00:00</time>
      </trkpt>
      <trkpt lat="48.32925" lon="2.75385">
        <ele>56</ele>
        <time>2023-08-09T07:57:50.161+00:00</time>
      </trkpt>
      <trkpt lat="48.32922" lon="2.75376">
        <ele>56</ele>
        <time>2023-08-09T07:57:55.161+00:00</time>
      </trkpt>
      <trkpt lat="48.32919" lon="2.75369">
        <ele>56</ele>
        <time>2023-08-09T07:58:00.142+00:00</time>
      </trkpt>
      <trkpt lat="48.32917" lon="2.7536">
        <ele>56</ele>
        <time>2023-08-09T07:58:05.150+00:00</time>
      </trkpt>
      <trkpt lat="48.32915" lon="2.75352">
        <ele>56</ele>
        <time>2023-08-09T07:58:10.138+00:00</time>
      </trkpt>
      <trkpt lat="48.32913" lon="2.75344">
        <ele>57</ele>
        <time>2023-08-09T07:58:15.163+00:00</time>
      </trkpt>
      <trkpt lat="48.32908" lon="2.75333">
        <ele>57</ele>
        <time>2023-08-09T07:58:20.148+00:00</time>
      </trkpt>
      <trkpt lat="48.32904" lon="2.75325">
        <ele>57</ele>
        <time>2023-08-09T07:58:25.142+00:00</time>
      </trkpt>
      <trkpt lat="48.329" lon="2.75317">
        <ele>56</ele>
        <time>2023-08-09T07:58:30.165+00:00</time>
      </trkpt>
      <trkpt lat="48.32897" lon="2.75308">
        <ele>56</ele>
        <time>2023-08-09T07:58:35.151+00:00</time>
      </trkpt>
      <trkpt lat="48.32893" lon="2.75302">
        <ele>56</ele>
        <time>2023-08-09T07:58:40.148+00:00</time>
      </trkpt>
      <trkpt lat="48.32889" lon="2.75296">
        <ele>56</ele>
        <time>2023-08-09T07:58:44.170+00:00</time>
      </trkpt>
      <trkpt lat="48.3288" lon="2.7529">
        <ele>56</ele>
        <time>2023-08-09T07:58:49.114+00:00</time>
      </trkpt>
      <trkpt lat="48.32873" lon="2.75284">
        <ele>55</ele>
        <time>2023-08-09T07:58:54.108+00:00</time>
      </trkpt>
      <trkpt lat="48.32869" lon="2.75279">
        <ele>55</ele>
        <time>2023-08-09T07:58:58.109+00:00</time>
      </trkpt>
      <trkpt lat="48.32866" lon="2.75275">
        <ele>55</ele>
        <time>2023-08-09T07:59:02.128+00:00</time>
      </trkpt>
      <trkpt lat="48.32862" lon="2.7527">
        <ele>55</ele>
        <time>2023-08-09T07:59:06.131+00:00</time>
      </trkpt>
      <trkpt lat="48.32859" lon="2.75263">
        <ele>55</ele>
        <time>2023-08-09T07:59:11.133+00:00</time>
      </trkpt>
      <trkpt lat="48.32855" lon="2.75256">
        <ele>55</ele>
        <time>2023-08-09T07:59:16.154+00:00</time>
      </trkpt>
      <trkpt lat="48.3285" lon="2.75251">
        <ele>55</ele>
        <time>2023-08-09T07:59:21.109+00:00</time>
      </trkpt>
      <trkpt lat="48.32847" lon="2.75245">
        <ele>55</ele>
        <time>2023-08-09T07:59:25.137+00:00</time>
      </trkpt>
      <trkpt lat="48.32844" lon="2.7524">
        <ele>55</ele>
        <time>2023-08-09T07:59:29.140+00:00</time>
      </trkpt>
      <trkpt lat="48.3284" lon="2.75233">
        <ele>56</ele>
        <time>2023-08-09T07:59:34.137+00:00</time>
      </trkpt>
      <trkpt lat="48.32834" lon="2.75225">
        <ele>56</ele>
        <time>2023-08-09T07:59:39.125+00:00</time>
      </trkpt>
      <trkpt lat="48.32831" lon="2.75222">
        <ele>56</ele>
        <time>2023-08-09T07:59:43.132+00:00</time>
      </trkpt>
      <trkpt lat="48.32827" lon="2.75216">
        <ele>56</ele>
        <time>2023-08-09T07:59:47.145+00:00</time>
      </trkpt>
      <trkpt lat="48.32822" lon="2.75213">
        <ele>56</ele>
        <time>2023-08-09T07:59:51.155+00:00</time>
      </trkpt>
      <trkpt lat="48.32817" lon="2.75209">
        <ele>58</ele>
        <time>2023-08-09T07:59:56.121+00:00</time>
      </trkpt>
      <trkpt lat="48.32814" lon="2.75206">
        <ele>58</ele>
        <time>2023-08-09T08:00:00.125+00:00</time>
      </trkpt>
      <trkpt lat="48.32808" lon="2.75203">
        <ele>58</ele>
        <time>2023-08-09T08:00:04.142+00:00</time>
      </trkpt>
      <trkpt lat="48.32804" lon="2.75199">
        <ele>58</ele>
        <time>2023-08-09T08:00:09.133+00:00</time>
      </trkpt>
      <trkpt lat="48.32796" lon="2.75199">
        <ele>58</ele>
        <time>2023-08-09T08:00:14.124+00:00</time>
      </trkpt>
      <trkpt lat="48.32792" lon="2.75195">
        <ele>58</ele>
        <time>2023-08-09T08:00:19.097+00:00</time>
      </trkpt>
      <trkpt lat="48.32788" lon="2.75193">
        <ele>60</ele>
        <time>2023-08-09T08:00:23.101+00:00</time>
      </trkpt>
      <trkpt lat="48.32782" lon="2.75197">
        <ele>60</ele>
        <time>2023-08-09T08:00:28.093+00:00</time>
      </trkpt>
      <trkpt lat="48.32782" lon="2.75195">
        <ele>60</ele>
        <time>2023-08-09T08:00:33.111+00:00</time>
      </trkpt>
      <trkpt lat="48.32784" lon="2.75198">
        <ele>60</ele>
        <time>2023-08-09T08:00:38.106+00:00</time>
      </trkpt>
      <trkpt lat="48.32783" lon="2.75197">
        <ele>60</ele>
        <time>2023-08-09T08:00:42.094+00:00</time>
      </trkpt>
      <trkpt lat="48.3278" lon="2.75194">
        <ele>60</ele>
        <time>2023-08-09T08:00:47.106+00:00</time>
      </trkpt>
      <trkpt lat="48.32776" lon="2.75192">
        <ele>60</ele>
        <time>2023-08-09T08:00:51.097+00:00</time>
      </trkpt>
      <trkpt lat="48.32771" lon="2.7519">
        <ele>60</ele>
        <time>2023-08-09T08:00:55.112+00:00</time>
      </trkpt>
      <trkpt lat="48.32766" lon="2.75183">
        <ele>60</ele>
        <time>2023-08-09T08:01:00.103+00:00</time>
      </trkpt>
      <trkpt lat="48.32761" lon="2.75178">
        <ele>58</ele>
        <time>2023-08-09T08:01:04.098+00:00</time>
      </trkpt>
      <trkpt lat="48.32754" lon="2.75177">
        <ele>58</ele>
        <time>2023-08-09T08:01:09.107+00:00</time>
      </trkpt>
      <trkpt lat="48.32749" lon="2.75174">
        <ele>58</ele>
        <time>2023-08-09T08:01:14.099+00:00</time>
      </trkpt>
      <trkpt lat="48.32747" lon="2.75173">
        <ele>58</ele>
        <time>2023-08-09T08:01:18.100+00:00</time>
      </trkpt>
      <trkpt lat="48.32743" lon="2.75174">
        <ele>58</ele>
        <time>2023-08-09T08:01:22.102+00:00</time>
      </trkpt>
      <trkpt lat="48.32739" lon="2.75173">
        <ele>58</ele>
        <time>2023-08-09T08:01:27.109+00:00</time>
      </trkpt>
      <trkpt lat="48.32733" lon="2.75172">
        <ele>56</ele>
        <time>2023-08-09T08:01:32.116+00:00</time>
      </trkpt>
      <trkpt lat="48.32728" lon="2.75168">
        <ele>56</ele>
        <time>2023-08-09T08:01:37.106+00:00</time>
      </trkpt>
      <trkpt lat="48.32722" lon="2.75166">
        <ele>56</ele>
        <time>2023-08-09T08:01:41.101+00:00</time>
      </trkpt>
      <trkpt lat="48.32717" lon="2.75165">
        <ele>56</ele>
        <time>2023-08-09T08:01:45.155+00:00</time>
      </trkpt>
      <trkpt lat="48.32709" lon="2.75163">
        <ele>56</ele>
        <time>2023-08-09T08:01:50.167+00:00</time>
      </trkpt>
      <trkpt lat="48.327" lon="2.75161">
        <ele>55</ele>
        <time>2023-08-09T08:01:55.109+00:00</time>
      </trkpt>
      <trkpt lat="48.32694" lon="2.75158">
        <ele>55</ele>
        <time>2023-08-09T08:01:59.114+00:00</time>
      </trkpt>
      <trkpt lat="48.32689" lon="2.75155">
        <ele>55</ele>
        <time>2023-08-09T08:02:03.140+00:00</time>
      </trkpt>
      <trkpt lat="48.32683" lon="2.75152">
        <ele>57</ele>
        <time>2023-08-09T08:02:08.111+00:00</time>
      </trkpt>
      <trkpt lat="48.32678" lon="2.7515">
        <ele>57</ele>
        <time>2023-08-09T08:02:12.117+00:00</time>
      </trkpt>
      <trkpt lat="48.32674" lon="2.75147">
        <ele>57</ele>
        <time>2023-08-09T08:02:16.147+00:00</time>
      </trkpt>
      <trkpt lat="48.32669" lon="2.75145">
        <ele>57</ele>
        <time>2023-08-09T08:02:21.119+00:00</time>
      </trkpt>
      <trkpt lat="48.32664" lon="2.75142">
        <ele>57</ele>
        <time>2023-08-09T08:02:25.155+00:00</time>
      </trkpt>
      <trkpt lat="48.32658" lon="2.7514">
        <ele>57</ele>
        <time>2023-08-09T08:02:30.173+00:00</time>
      </trkpt>
      <trkpt lat="48.3265" lon="2.75136">
        <ele>57</ele>
        <time>2023-08-09T08:02:35.152+00:00</time>
      </trkpt>
      <trkpt lat="48.32643" lon="2.75131">
        <ele>57</ele>
        <time>2023-08-09T08:02:40.141+00:00</time>
      </trkpt>
      <trkpt lat="48.32639" lon="2.7513">
        <ele>57</ele>
        <time>2023-08-09T08:02:45.128+00:00</time>
      </trkpt>
      <trkpt lat="48.32634" lon="2.75129">
        <ele>57</ele>
        <time>2023-08-09T08:02:49.130+00:00</time>
      </trkpt>
      <trkpt lat="48.32627" lon="2.75126">
        <ele>57</ele>
        <time>2023-08-09T08:02:53.158+00:00</time>
      </trkpt>
      <trkpt lat="48.3262" lon="2.75123">
        <ele>57</ele>
        <time>2023-08-09T08:02:58.140+00:00</time>
      </trkpt>
      <trkpt lat="48.32616" lon="2.75122">
        <ele>57</ele>
        <time>2023-08-09T08:03:02.170+00:00</time>
      </trkpt>
      <trkpt lat="48.32608" lon="2.75121">
        <ele>57</ele>
        <time>2023-08-09T08:03:07.116+00:00</time>
      </trkpt>
      <trkpt lat="48.32601" lon="2.7512">
        <ele>57</ele>
        <time>2023-08-09T08:03:12.123+00:00</time>
      </trkpt>
      <trkpt lat="48.32594" lon="2.75119">
        <ele>56</ele>
        <time>2023-08-09T08:03:17.119+00:00</time>
      </trkpt>
      <trkpt lat="48.32588" lon="2.75117">
        <ele>56</ele>
        <time>2023-08-09T08:03:22.121+00:00</time>
      </trkpt>
      <trkpt lat="48.32584" lon="2.75115">
        <ele>56</ele>
        <time>2023-08-09T08:03:26.160+00:00</time>
      </trkpt>
      <trkpt lat="48.32578" lon="2.7511">
        <ele>56</ele>
        <time>2023-08-09T08:03:31.141+00:00</time>
      </trkpt>
      <trkpt lat="48.32574" lon="2.75107">
        <ele>56</ele>
        <time>2023-08-09T08:03:35.155+00:00</time>
      </trkpt>
      <trkpt lat="48.32568" lon="2.75103">
        <ele>57</ele>
        <time>2023-08-09T08:03:40.153+00:00</time>
      </trkpt>
      <trkpt lat="48.32561" lon="2.75101">
        <ele>57</ele>
        <time>2023-08-09T08:03:45.158+00:00</time>
      </trkpt>
      <trkpt lat="48.32554" lon="2.75101">
        <ele>57</ele>
        <time>2023-08-09T08:03:50.122+00:00</time>
      </trkpt>
      <trkpt lat="48.32548" lon="2.751">
        <ele>57</ele>
        <time>2023-08-09T08:03:54.133+00:00</time>
      </trkpt>
      <trkpt lat="48.32542" lon="2.75097">
        <ele>60</ele>
        <time>2023-08-09T08:03:59.132+00:00</time>
      </trkpt>
      <trkpt lat="48.32538" lon="2.75096">
        <ele>58</ele>
        <time>2023-08-09T08:04:03.158+00:00</time>
      </trkpt>
      <trkpt lat="48.32533" lon="2.75094">
        <ele>58</ele>
        <time>2023-08-09T08:04:08.133+00:00</time>
      </trkpt>
      <trkpt lat="48.32528" lon="2.7509">
        <ele>58</ele>
        <time>2023-08-09T08:04:12.126+00:00</time>
      </trkpt>
      <trkpt lat="48.32523" lon="2.75088">
        <ele>58</ele>
        <time>2023-08-09T08:04:16.136+00:00</time>
      </trkpt>
      <trkpt lat="48.32517" lon="2.75085">
        <ele>58</ele>
        <time>2023-08-09T08:04:21.158+00:00</time>
      </trkpt>
      <trkpt lat="48.32509" lon="2.75082">
        <ele>58</ele>
        <time>2023-08-09T08:04:26.100+00:00</time>
      </trkpt>
      <trkpt lat="48.32505" lon="2.75078">
        <ele>58</ele>
        <time>2023-08-09T08:04:30.101+00:00</time>
      </trkpt>
      <trkpt lat="48.325" lon="2.75078">
        <ele>58</ele>
        <time>2023-08-09T08:04:35.105+00:00</time>
      </trkpt>
      <trkpt lat="48.32494" lon="2.75076">
        <ele>58</ele>
        <time>2023-08-09T08:04:40.111+00:00</time>
      </trkpt>
      <trkpt lat="48.32487" lon="2.75073">
        <ele>58</ele>
        <time>2023-08-09T08:04:45.092+00:00</time>
      </trkpt>
      <trkpt lat="48.32482" lon="2.75072">
        <ele>58</ele>
        <time>2023-08-09T08:04:49.110+00:00</time>
      </trkpt>
      <trkpt lat="48.32477" lon="2.75073">
        <ele>58</ele>
        <time>2023-08-09T08:04:54.109+00:00</time>
      </trkpt>
      <trkpt lat="48.32476" lon="2.75075">
        <ele>58</ele>
        <time>2023-08-09T08:04:59.099+00:00</time>
      </trkpt>
      <trkpt lat="48.32472" lon="2.75072">
        <ele>58</ele>
        <time>2023-08-09T08:05:04.107+00:00</time>
      </trkpt>
      <trkpt lat="48.32468" lon="2.75069">
        <ele>57</ele>
        <time>2023-08-09T08:05:08.110+00:00</time>
      </trkpt>
      <trkpt lat="48.32465" lon="2.75068">
        <ele>57</ele>
        <time>2023-08-09T08:05:12.112+00:00</time>
      </trkpt>
      <trkpt lat="48.32459" lon="2.75063">
        <ele>57</ele>
        <time>2023-08-09T08:05:17.104+00:00</time>
      </trkpt>
      <trkpt lat="48.32454" lon="2.75058">
        <ele>56</ele>
        <time>2023-08-09T08:05:22.113+00:00</time>
      </trkpt>
      <trkpt lat="48.32448" lon="2.75053">
        <ele>56</ele>
        <time>2023-08-09T08:05:27.107+00:00</time>
      </trkpt>
      <trkpt lat="48.32442" lon="2.75048">
        <ele>56</ele>
        <time>2023-08-09T08:05:31.110+00:00</time>
      </trkpt>
      <trkpt lat="48.32438" lon="2.75043">
        <ele>56</ele>
        <time>2023-08-09T08:05:35.118+00:00</time>
      </trkpt>
      <trkpt lat="48.32434" lon="2.75032">
        <ele>55</ele>
        <time>2023-08-09T08:05:40.102+00:00</time>
      </trkpt>
      <trkpt lat="48.32429" lon="2.75025">
        <ele>54</ele>
        <time>2023-08-09T08:05:45.112+00:00</time>
      </trkpt>
      <trkpt lat="48.32426" lon="2.75018">
        <ele>54</ele>
        <time>2023-08-09T08:05:49.151+00:00</time>
      </trkpt>
      <trkpt lat="48.32422" lon="2.75011">
        <ele>57</ele>
        <time>2023-08-09T08:05:54.150+00:00</time>
      </trkpt>
      <trkpt lat="48.32419" lon="2.75004">
        <ele>57</ele>
        <time>2023-08-09T08:05:59.131+00:00</time>
      </trkpt>
      <trkpt lat="48.32419" lon="2.75001">
        <ele>57</ele>
        <time>2023-08-09T08:06:04.120+00:00</time>
      </trkpt>
      <trkpt lat="48.32419" lon="2.75001">
        <ele>57</ele>
        <time>2023-08-09T08:06:09.117+00:00</time>
      </trkpt>
      <trkpt lat="48.32417" lon="2.74996">
        <ele>57</ele>
        <time>2023-08-09T08:06:13.123+00:00</time>
      </trkpt>
      <trkpt lat="48.32413" lon="2.74987">
        <ele>57</ele>
        <time>2023-08-09T08:06:18.114+00:00</time>
      </trkpt>
      <trkpt lat="48.32411" lon="2.7498">
        <ele>58</ele>
        <time>2023-08-09T08:06:22.150+00:00</time>
      </trkpt>
      <trkpt lat="48.32408" lon="2.74974">
        <ele>58</ele>
        <time>2023-08-09T08:06:26.161+00:00</time>
      </trkpt>
      <trkpt lat="48.32405" lon="2.74966">
        <ele>58</ele>
        <time>2023-08-09T08:06:31.159+00:00</time>
      </trkpt>
      <trkpt lat="48.32402" lon="2.74959">
        <ele>58</ele>
        <time>2023-08-09T08:06:35.150+00:00</time>
      </trkpt>
      <trkpt lat="48.32399" lon="2.74951">
        <ele>58</ele>
        <time>2023-08-09T08:06:40.149+00:00</time>
      </trkpt>
      <trkpt lat="48.32398" lon="2.74944">
        <ele>58</ele>
        <time>2023-08-09T08:06:44.149+00:00</time>
      </trkpt>
      <trkpt lat="48.32394" lon="2.74934">
        <ele>58</ele>
        <time>2023-08-09T08:06:49.114+00:00</time>
      </trkpt>
      <trkpt lat="48.32391" lon="2.74927">
        <ele>59</ele>
        <time>2023-08-09T08:06:53.144+00:00</time>
      </trkpt>
      <trkpt lat="48.32388" lon="2.7492">
        <ele>59</ele>
        <time>2023-08-09T08:06:57.158+00:00</time>
      </trkpt>
      <trkpt lat="48.32386" lon="2.74912">
        <ele>59</ele>
        <time>2023-08-09T08:07:02.132+00:00</time>
      </trkpt>
      <trkpt lat="48.32384" lon="2.74903">
        <ele>59</ele>
        <time>2023-08-09T08:07:06.136+00:00</time>
      </trkpt>
      <trkpt lat="48.32382" lon="2.74896">
        <ele>60</ele>
        <time>2023-08-09T08:07:11.148+00:00</time>
      </trkpt>
      <trkpt lat="48.32377" lon="2.74888">
        <ele>60</ele>
        <time>2023-08-09T08:07:16.174+00:00</time>
      </trkpt>
      <trkpt lat="48.32375" lon="2.74881">
        <ele>60</ele>
        <time>2023-08-09T08:07:20.765+00:00</time>
      </trkpt>
      <trkpt lat="48.32373" lon="2.74873">
        <ele>56</ele>
        <time>2023-08-09T08:07:25.149+00:00</time>
      </trkpt>
      <trkpt lat="48.3237" lon="2.74866">
        <ele>56</ele>
        <time>2023-08-09T08:07:29.136+00:00</time>
      </trkpt>
      <trkpt lat="48.32367" lon="2.74859">
        <ele>56</ele>
        <time>2023-08-09T08:07:33.152+00:00</time>
      </trkpt>
      <trkpt lat="48.32364" lon="2.7485">
        <ele>56</ele>
        <time>2023-08-09T08:07:38.143+00:00</time>
      </trkpt>
      <trkpt lat="48.3236" lon="2.74842">
        <ele>56</ele>
        <time>2023-08-09T08:07:43.154+00:00</time>
      </trkpt>
      <trkpt lat="48.32357" lon="2.74833">
        <ele>56</ele>
        <time>2023-08-09T08:07:48.154+00:00</time>
      </trkpt>
      <trkpt lat="48.32355" lon="2.74825">
        <ele>56</ele>
        <time>2023-08-09T08:07:53.155+00:00</time>
      </trkpt>
      <trkpt lat="48.32352" lon="2.74816">
        <ele>57</ele>
        <time>2023-08-09T08:07:58.151+00:00</time>
      </trkpt>
      <trkpt lat="48.32348" lon="2.74808">
        <ele>57</ele>
        <time>2023-08-09T08:08:03.149+00:00</time>
      </trkpt>
      <trkpt lat="48.32345" lon="2.74799">
        <ele>56</ele>
        <time>2023-08-09T08:08:08.146+00:00</time>
      </trkpt>
      <trkpt lat="48.32342" lon="2.74791">
        <ele>57</ele>
        <time>2023-08-09T08:08:12.153+00:00</time>
      </trkpt>
      <trkpt lat="48.32335" lon="2.74778">
        <ele>57</ele>
        <time>2023-08-09T08:08:34.098+00:00</time>
      </trkpt>
      <trkpt lat="48.32331" lon="2.74772">
        <ele>57</ele>
        <time>2023-08-09T08:08:39.104+00:00</time>
      </trkpt>
      <trkpt lat="48.32328" lon="2.74768">
        <ele>57</ele>
        <time>2023-08-09T08:08:43.169+00:00</time>
      </trkpt>
      <trkpt lat="48.32325" lon="2.74758">
        <ele>58</ele>
        <time>2023-08-09T08:08:48.126+00:00</time>
      </trkpt>
      <trkpt lat="48.32322" lon="2.74751">
        <ele>58</ele>
        <time>2023-08-09T08:08:52.122+00:00</time>
      </trkpt>
      <trkpt lat="48.32319" lon="2.74747">
        <ele>57</ele>
        <time>2023-08-09T08:08:56.148+00:00</time>
      </trkpt>
      <trkpt lat="48.32314" lon="2.7474">
        <ele>57</ele>
        <time>2023-08-09T08:09:01.111+00:00</time>
      </trkpt>
      <trkpt lat="48.32312" lon="2.74733">
        <ele>56</ele>
        <time>2023-08-09T08:09:05.149+00:00</time>
      </trkpt>
      <trkpt lat="48.32308" lon="2.74727">
        <ele>56</ele>
        <time>2023-08-09T08:09:10.109+00:00</time>
      </trkpt>
      <trkpt lat="48.32304" lon="2.74721">
        <ele>56</ele>
        <time>2023-08-09T08:09:14.142+00:00</time>
      </trkpt>
      <trkpt lat="48.32302" lon="2.74715">
        <ele>56</ele>
        <time>2023-08-09T08:09:19.137+00:00</time>
      </trkpt>
      <trkpt lat="48.32299" lon="2.74709">
        <ele>56</ele>
        <time>2023-08-09T08:09:23.146+00:00</time>
      </trkpt>
      <trkpt lat="48.32296" lon="2.74702">
        <ele>57</ele>
        <time>2023-08-09T08:09:28.143+00:00</time>
      </trkpt>
      <trkpt lat="48.32289" lon="2.747">
        <ele>59</ele>
        <time>2023-08-09T08:09:33.179+00:00</time>
      </trkpt>
      <trkpt lat="48.32284" lon="2.74705">
        <ele>59</ele>
        <time>2023-08-09T08:09:38.141+00:00</time>
      </trkpt>
      <trkpt lat="48.32281" lon="2.74712">
        <ele>58</ele>
        <time>2023-08-09T08:09:43.137+00:00</time>
      </trkpt>
      <trkpt lat="48.32276" lon="2.74715">
        <ele>58</ele>
        <time>2023-08-09T08:09:47.152+00:00</time>
      </trkpt>
      <trkpt lat="48.32272" lon="2.74719">
        <ele>58</ele>
        <time>2023-08-09T08:09:51.164+00:00</time>
      </trkpt>
      <trkpt lat="48.32265" lon="2.74725">
        <ele>58</ele>
        <time>2023-08-09T08:09:56.135+00:00</time>
      </trkpt>
      <trkpt lat="48.3226" lon="2.74728">
        <ele>58</ele>
        <time>2023-08-09T08:10:00.160+00:00</time>
      </trkpt>
      <trkpt lat="48.32255" lon="2.74732">
        <ele>58</ele>
        <time>2023-08-09T08:10:04.162+00:00</time>
      </trkpt>
      <trkpt lat="48.32251" lon="2.74738">
        <ele>57</ele>
        <time>2023-08-09T08:10:09.125+00:00</time>
      </trkpt>
      <trkpt lat="48.32248" lon="2.74744">
        <ele>57</ele>
        <time>2023-08-09T08:10:13.128+00:00</time>
      </trkpt>
      <trkpt lat="48.32244" lon="2.74749">
        <ele>57</ele>
        <time>2023-08-09T08:10:17.162+00:00</time>
      </trkpt>
      <trkpt lat="48.3224" lon="2.74755">
        <ele>57</ele>
        <time>2023-08-09T08:10:21.623+00:00</time>
      </trkpt>
      <trkpt lat="48.32235" lon="2.7476">
        <ele>55</ele>
        <time>2023-08-09T08:10:26.142+00:00</time>
      </trkpt>
      <trkpt lat="48.32231" lon="2.74764">
        <ele>55</ele>
        <time>2023-08-09T08:10:30.141+00:00</time>
      </trkpt>
      <trkpt lat="48.32226" lon="2.74768">
        <ele>55</ele>
        <time>2023-08-09T08:10:34.161+00:00</time>
      </trkpt>
      <trkpt lat="48.32221" lon="2.74773">
        <ele>55</ele>
        <time>2023-08-09T08:10:39.109+00:00</time>
      </trkpt>
      <trkpt lat="48.32216" lon="2.74778">
        <ele>55</ele>
        <time>2023-08-09T08:10:43.116+00:00</time>
      </trkpt>
      <trkpt lat="48.32211" lon="2.74783">
        <ele>55</ele>
        <time>2023-08-09T08:10:48.129+00:00</time>
      </trkpt>
      <trkpt lat="48.32207" lon="2.74788">
        <ele>56</ele>
        <time>2023-08-09T08:10:53.156+00:00</time>
      </trkpt>
      <trkpt lat="48.32206" lon="2.74797">
        <ele>56</ele>
        <time>2023-08-09T08:10:58.148+00:00</time>
      </trkpt>
      <trkpt lat="48.32205" lon="2.74808">
        <ele>56</ele>
        <time>2023-08-09T08:11:03.162+00:00</time>
      </trkpt>
      <trkpt lat="48.32204" lon="2.74819">
        <ele>56</ele>
        <time>2023-08-09T08:11:08.101+00:00</time>
      </trkpt>
      <trkpt lat="48.32204" lon="2.74824">
        <ele>56</ele>
        <time>2023-08-09T08:11:13.099+00:00</time>
      </trkpt>
      <trkpt lat="48.32204" lon="2.74825">
        <ele>56</ele>
        <time>2023-08-09T08:11:18.098+00:00</time>
      </trkpt>
      <trkpt lat="48.32208" lon="2.74828">
        <ele>56</ele>
        <time>2023-08-09T08:11:23.112+00:00</time>
      </trkpt>
      <trkpt lat="48.32212" lon="2.74834">
        <ele>55</ele>
        <time>2023-08-09T08:11:28.101+00:00</time>
      </trkpt>
      <trkpt lat="48.32216" lon="2.74842">
        <ele>55</ele>
        <time>2023-08-09T08:11:33.097+00:00</time>
      </trkpt>
      <trkpt lat="48.32216" lon="2.74843">
        <ele>55</ele>
        <time>2023-08-09T08:11:38.096+00:00</time>
      </trkpt>
      <trkpt lat="48.32216" lon="2.74842">
        <ele>55</ele>
        <time>2023-08-09T08:11:43.100+00:00</time>
      </trkpt>
      <trkpt lat="48.32216" lon="2.74841">
        <ele>55</ele>
        <time>2023-08-09T08:11:48.093+00:00</time>
      </trkpt>
      <trkpt lat="48.32216" lon="2.74842">
        <ele>55</ele>
        <time>2023-08-09T08:11:52.099+00:00</time>
      </trkpt>
      <trkpt lat="48.32219" lon="2.74846">
        <ele>55</ele>
        <time>2023-08-09T08:11:56.104+00:00</time>
      </trkpt>
      <trkpt lat="48.32224" lon="2.74853">
        <ele>55</ele>
        <time>2023-08-09T08:12:01.103+00:00</time>
      </trkpt>
      <trkpt lat="48.32226" lon="2.74861">
        <ele>55</ele>
        <time>2023-08-09T08:12:06.109+00:00</time>
      </trkpt>
      <trkpt lat="48.32229" lon="2.74867">
        <ele>55</ele>
        <time>2023-08-09T08:12:11.104+00:00</time>
      </trkpt>
      <trkpt lat="48.32231" lon="2.74871">
        <ele>55</ele>
        <time>2023-08-09T08:12:15.120+00:00</time>
      </trkpt>
      <trkpt lat="48.32232" lon="2.74874">
        <ele>55</ele>
        <time>2023-08-09T08:12:20.111+00:00</time>
      </trkpt>
      <trkpt lat="48.3223" lon="2.74873">
        <ele>55</ele>
        <time>2023-08-09T08:15:07.169+00:00</time>
      </trkpt>
      <trkpt lat="48.32231" lon="2.74871">
        <ele>55</ele>
        <time>2023-08-09T08:15:12.117+00:00</time>
      </trkpt>
      <trkpt lat="48.32229" lon="2.74866">
        <ele>55</ele>
        <time>2023-08-09T08:15:16.154+00:00</time>
      </trkpt>
      <trkpt lat="48.32228" lon="2.74863">
        <ele>55</ele>
        <time>2023-08-09T08:15:21.130+00:00</time>
      </trkpt>
      <trkpt lat="48.32227" lon="2.74862">
        <ele>55</ele>
        <time>2023-08-09T08:15:24.101+00:00</time>
      </trkpt>
      <trkpt lat="48.32229" lon="2.74861">
        <ele>55</ele>
        <time>2023-08-09T08:23:01.125+00:00</time>
      </trkpt>
      <trkpt lat="48.32226" lon="2.74855">
        <ele>55</ele>
        <time>2023-08-09T08:23:06.128+00:00</time>
      </trkpt>
      <trkpt lat="48.32222" lon="2.74849">
        <ele>55</ele>
        <time>2023-08-09T08:23:11.130+00:00</time>
      </trkpt>
      <trkpt lat="48.32219" lon="2.74844">
        <ele>55</ele>
        <time>2023-08-09T08:23:15.122+00:00</time>
      </trkpt>
      <trkpt lat="48.32215" lon="2.74838">
        <ele>55</ele>
        <time>2023-08-09T08:23:20.156+00:00</time>
      </trkpt>
      <trkpt lat="48.32211" lon="2.74832">
        <ele>55</ele>
        <time>2023-08-09T08:23:25.152+00:00</time>
      </trkpt>
      <trkpt lat="48.32207" lon="2.74825">
        <ele>56</ele>
        <time>2023-08-09T08:23:30.149+00:00</time>
      </trkpt>
      <trkpt lat="48.32205" lon="2.74821">
        <ele>56</ele>
        <time>2023-08-09T08:23:34.147+00:00</time>
      </trkpt>
      <trkpt lat="48.32203" lon="2.74816">
        <ele>56</ele>
        <time>2023-08-09T08:23:38.157+00:00</time>
      </trkpt>
      <trkpt lat="48.32198" lon="2.7481">
        <ele>56</ele>
        <time>2023-08-09T08:23:43.135+00:00</time>
      </trkpt>
      <trkpt lat="48.32193" lon="2.74806">
        <ele>56</ele>
        <time>2023-08-09T08:23:48.128+00:00</time>
      </trkpt>
      <trkpt lat="48.32189" lon="2.74807">
        <ele>56</ele>
        <time>2023-08-09T08:23:52.157+00:00</time>
      </trkpt>
      <trkpt lat="48.32185" lon="2.74812">
        <ele>56</ele>
        <time>2023-08-09T08:23:57.127+00:00</time>
      </trkpt>
      <trkpt lat="48.32182" lon="2.74815">
        <ele>56</ele>
        <time>2023-08-09T08:24:01.160+00:00</time>
      </trkpt>
      <trkpt lat="48.32177" lon="2.7482">
        <ele>56</ele>
        <time>2023-08-09T08:24:06.159+00:00</time>
      </trkpt>
      <trkpt lat="48.32173" lon="2.74823">
        <ele>56</ele>
        <time>2023-08-09T08:24:10.178+00:00</time>
      </trkpt>
      <trkpt lat="48.32168" lon="2.74828">
        <ele>56</ele>
        <time>2023-08-09T08:24:15.135+00:00</time>
      </trkpt>
      <trkpt lat="48.32165" lon="2.74825">
        <ele>56</ele>
        <time>2023-08-09T08:24:19.113+00:00</time>
      </trkpt>
      <trkpt lat="48.32161" lon="2.74827">
        <ele>56</ele>
        <time>2023-08-09T08:24:24.116+00:00</time>
      </trkpt>
      <trkpt lat="48.32158" lon="2.74832">
        <ele>56</ele>
        <time>2023-08-09T08:24:28.116+00:00</time>
      </trkpt>
      <trkpt lat="48.32153" lon="2.74837">
        <ele>56</ele>
        <time>2023-08-09T08:24:33.114+00:00</time>
      </trkpt>
      <trkpt lat="48.32148" lon="2.74842">
        <ele>57</ele>
        <time>2023-08-09T08:24:38.103+00:00</time>
      </trkpt>
      <trkpt lat="48.32144" lon="2.74847">
        <ele>57</ele>
        <time>2023-08-09T08:24:43.122+00:00</time>
      </trkpt>
      <trkpt lat="48.3214" lon="2.74851">
        <ele>57</ele>
        <time>2023-08-09T08:24:47.114+00:00</time>
      </trkpt>
      <trkpt lat="48.32136" lon="2.74856">
        <ele>57</ele>
        <time>2023-08-09T08:24:52.118+00:00</time>
      </trkpt>
      <trkpt lat="48.3213" lon="2.7486">
        <ele>57</ele>
        <time>2023-08-09T08:24:57.125+00:00</time>
      </trkpt>
      <trkpt lat="48.32124" lon="2.74866">
        <ele>58</ele>
        <time>2023-08-09T08:25:02.120+00:00</time>
      </trkpt>
      <trkpt lat="48.32119" lon="2.7487">
        <ele>58</ele>
        <time>2023-08-09T08:25:07.120+00:00</time>
      </trkpt>
      <trkpt lat="48.32115" lon="2.74875">
        <ele>59</ele>
        <time>2023-08-09T08:25:12.118+00:00</time>
      </trkpt>
      <trkpt lat="48.32111" lon="2.74884">
        <ele>59</ele>
        <time>2023-08-09T08:25:32.130+00:00</time>
      </trkpt>
      <trkpt lat="48.32105" lon="2.74888">
        <ele>59</ele>
        <time>2023-08-09T08:25:36.109+00:00</time>
      </trkpt>
      <trkpt lat="48.32099" lon="2.74892">
        <ele>59</ele>
        <time>2023-08-09T08:25:41.117+00:00</time>
      </trkpt>
      <trkpt lat="48.32095" lon="2.74897">
        <ele>60</ele>
        <time>2023-08-09T08:25:46.106+00:00</time>
      </trkpt>
      <trkpt lat="48.32091" lon="2.74902">
        <ele>60</ele>
        <time>2023-08-09T08:25:50.108+00:00</time>
      </trkpt>
      <trkpt lat="48.32087" lon="2.74906">
        <ele>62</ele>
        <time>2023-08-09T08:25:54.108+00:00</time>
      </trkpt>
      <trkpt lat="48.32085" lon="2.74912">
        <ele>62</ele>
        <time>2023-08-09T08:25:59.105+00:00</time>
      </trkpt>
      <trkpt lat="48.32082" lon="2.74915">
        <ele>62</ele>
        <time>2023-08-09T08:26:03.118+00:00</time>
      </trkpt>
      <trkpt lat="48.32078" lon="2.74918">
        <ele>62</ele>
        <time>2023-08-09T08:26:08.118+00:00</time>
      </trkpt>
      <trkpt lat="48.32074" lon="2.74924">
        <ele>62</ele>
        <time>2023-08-09T08:26:13.114+00:00</time>
      </trkpt>
      <trkpt lat="48.3207" lon="2.7493">
        <ele>62</ele>
        <time>2023-08-09T08:26:17.111+00:00</time>
      </trkpt>
      <trkpt lat="48.32065" lon="2.74935">
        <ele>64</ele>
        <time>2023-08-09T08:26:21.108+00:00</time>
      </trkpt>
      <trkpt lat="48.32061" lon="2.74938">
        <ele>64</ele>
        <time>2023-08-09T08:26:29.115+00:00</time>
      </trkpt>
      <trkpt lat="48.32061" lon="2.74938">
        <ele>64</ele>
        <time>2023-08-09T08:26:34.104+00:00</time>
      </trkpt>
      <trkpt lat="48.32058" lon="2.7494">
        <ele>64</ele>
        <time>2023-08-09T08:26:38.114+00:00</time>
      </trkpt>
      <trkpt lat="48.32051" lon="2.74947">
        <ele>64</ele>
        <time>2023-08-09T08:26:43.117+00:00</time>
      </trkpt>
      <trkpt lat="48.32046" lon="2.74953">
        <ele>64</ele>
        <time>2023-08-09T08:26:48.110+00:00</time>
      </trkpt>
      <trkpt lat="48.3204" lon="2.74959">
        <ele>65</ele>
        <time>2023-08-09T08:26:53.109+00:00</time>
      </trkpt>
      <trkpt lat="48.32035" lon="2.74965">
        <ele>65</ele>
        <time>2023-08-09T08:26:58.107+00:00</time>
      </trkpt>
      <trkpt lat="48.32032" lon="2.74971">
        <ele>65</ele>
        <time>2023-08-09T08:27:02.117+00:00</time>
      </trkpt>
      <trkpt lat="48.32027" lon="2.7498">
        <ele>65</ele>
        <time>2023-08-09T08:27:07.105+00:00</time>
      </trkpt>
      <trkpt lat="48.32025" lon="2.74988">
        <ele>64</ele>
        <time>2023-08-09T08:27:11.132+00:00</time>
      </trkpt>
      <trkpt lat="48.32023" lon="2.74994">
        <ele>64</ele>
        <time>2023-08-09T08:27:15.134+00:00</time>
      </trkpt>
      <trkpt lat="48.32019" lon="2.75005">
        <ele>64</ele>
        <time>2023-08-09T08:27:20.134+00:00</time>
      </trkpt>
      <trkpt lat="48.32017" lon="2.75017">
        <ele>64</ele>
        <time>2023-08-09T08:27:24.150+00:00</time>
      </trkpt>
      <trkpt lat="48.32013" lon="2.75032">
        <ele>63</ele>
        <time>2023-08-09T08:27:39.096+00:00</time>
      </trkpt>
      <trkpt lat="48.32012" lon="2.75032">
        <ele>63</ele>
        <time>2023-08-09T08:27:43.108+00:00</time>
      </trkpt>
      <trkpt lat="48.3201" lon="2.75041">
        <ele>63</ele>
        <time>2023-08-09T08:27:48.106+00:00</time>
      </trkpt>
      <trkpt lat="48.32008" lon="2.75051">
        <ele>61</ele>
        <time>2023-08-09T08:27:53.124+00:00</time>
      </trkpt>
      <trkpt lat="48.32006" lon="2.7506">
        <ele>61</ele>
        <time>2023-08-09T08:27:58.108+00:00</time>
      </trkpt>
      <trkpt lat="48.32004" lon="2.75087">
        <ele>60</ele>
        <time>2023-08-09T08:28:36.118+00:00</time>
      </trkpt>
      <trkpt lat="48.32002" lon="2.7509">
        <ele>60</ele>
        <time>2023-08-09T08:28:40.116+00:00</time>
      </trkpt>
      <trkpt lat="48.31999" lon="2.75101">
        <ele>59</ele>
        <time>2023-08-09T08:28:45.115+00:00</time>
      </trkpt>
      <trkpt lat="48.31997" lon="2.7511">
        <ele>59</ele>
        <time>2023-08-09T08:28:50.117+00:00</time>
      </trkpt>
      <trkpt lat="48.31995" lon="2.75116">
        <ele>59</ele>
        <time>2023-08-09T08:28:55.123+00:00</time>
      </trkpt>
      <trkpt lat="48.31995" lon="2.75125">
        <ele>58</ele>
        <time>2023-08-09T08:29:00.110+00:00</time>
      </trkpt>
      <trkpt lat="48.31996" lon="2.75129">
        <ele>58</ele>
        <time>2023-08-09T08:29:05.096+00:00</time>
      </trkpt>
      <trkpt lat="48.31995" lon="2.75129">
        <ele>58</ele>
        <time>2023-08-09T08:29:09.123+00:00</time>
      </trkpt>
      <trkpt lat="48.31993" lon="2.75137">
        <ele>58</ele>
        <time>2023-08-09T08:29:13.118+00:00</time>
      </trkpt>
      <trkpt lat="48.3199" lon="2.75147">
        <ele>58</ele>
        <time>2023-08-09T08:29:18.118+00:00</time>
      </trkpt>
      <trkpt lat="48.31988" lon="2.75153">
        <ele>58</ele>
        <time>2023-08-09T08:29:23.126+00:00</time>
      </trkpt>
      <trkpt lat="48.31986" lon="2.75164">
        <ele>59</ele>
        <time>2023-08-09T08:29:28.109+00:00</time>
      </trkpt>
      <trkpt lat="48.31985" lon="2.75171">
        <ele>59</ele>
        <time>2023-08-09T08:29:32.114+00:00</time>
      </trkpt>
      <trkpt lat="48.31983" lon="2.75182">
        <ele>59</ele>
        <time>2023-08-09T08:29:37.121+00:00</time>
      </trkpt>
      <trkpt lat="48.31981" lon="2.75191">
        <ele>59</ele>
        <time>2023-08-09T08:29:42.113+00:00</time>
      </trkpt>
      <trkpt lat="48.31979" lon="2.75197">
        <ele>59</ele>
        <time>2023-08-09T08:29:47.113+00:00</time>
      </trkpt>
      <trkpt lat="48.31977" lon="2.75203">
        <ele>59</ele>
        <time>2023-08-09T08:29:51.115+00:00</time>
      </trkpt>
      <trkpt lat="48.31978" lon="2.75205">
        <ele>59</ele>
        <time>2023-08-09T08:29:55.124+00:00</time>
      </trkpt>
      <trkpt lat="48.31979" lon="2.75204">
        <ele>59</ele>
        <time>2023-08-09T08:30:00.109+00:00</time>
      </trkpt>
      <trkpt lat="48.31979" lon="2.75204">
        <ele>59</ele>
        <time>2023-08-09T08:30:05.116+00:00</time>
      </trkpt>
      <trkpt lat="48.31977" lon="2.75205">
        <ele>59</ele>
        <time>2023-08-09T08:30:09.120+00:00</time>
      </trkpt>
      <trkpt lat="48.31975" lon="2.75218">
        <ele>59</ele>
        <time>2023-08-09T08:30:14.112+00:00</time>
      </trkpt>
      <trkpt lat="48.31973" lon="2.75228">
        <ele>59</ele>
        <time>2023-08-09T08:30:19.142+00:00</time>
      </trkpt>
      <trkpt lat="48.3197" lon="2.75237">
        <ele>58</ele>
        <time>2023-08-09T08:30:24.106+00:00</time>
      </trkpt>
      <trkpt lat="48.3197" lon="2.75246">
        <ele>58</ele>
        <time>2023-08-09T08:30:29.110+00:00</time>
      </trkpt>
      <trkpt lat="48.31968" lon="2.75255">
        <ele>58</ele>
        <time>2023-08-09T08:30:34.108+00:00</time>
      </trkpt>
      <trkpt lat="48.31964" lon="2.75261">
        <ele>58</ele>
        <time>2023-08-09T08:30:39.126+00:00</time>
      </trkpt>
      <trkpt lat="48.31961" lon="2.75272">
        <ele>58</ele>
        <time>2023-08-09T08:30:44.108+00:00</time>
      </trkpt>
      <trkpt lat="48.31959" lon="2.75279">
        <ele>58</ele>
        <time>2023-08-09T08:30:48.114+00:00</time>
      </trkpt>
      <trkpt lat="48.31956" lon="2.75286">
        <ele>58</ele>
        <time>2023-08-09T08:30:52.111+00:00</time>
      </trkpt>
      <trkpt lat="48.31956" lon="2.75294">
        <ele>58</ele>
        <time>2023-08-09T08:30:57.118+00:00</time>
      </trkpt>
      <trkpt lat="48.31957" lon="2.75303">
        <ele>58</ele>
        <time>2023-08-09T08:31:01.122+00:00</time>
      </trkpt>
      <trkpt lat="48.31955" lon="2.75314">
        <ele>58</ele>
        <time>2023-08-09T08:31:06.105+00:00</time>
      </trkpt>
      <trkpt lat="48.31955" lon="2.75322">
        <ele>57</ele>
        <time>2023-08-09T08:31:10.152+00:00</time>
      </trkpt>
      <trkpt lat="48.31954" lon="2.7533">
        <ele>57</ele>
        <time>2023-08-09T08:31:15.141+00:00</time>
      </trkpt>
      <trkpt lat="48.31952" lon="2.7534">
        <ele>57</ele>
        <time>2023-08-09T08:31:20.166+00:00</time>
      </trkpt>
      <trkpt lat="48.31951" lon="2.75348">
        <ele>57</ele>
        <time>2023-08-09T08:31:24.158+00:00</time>
      </trkpt>
      <trkpt lat="48.31949" lon="2.75354">
        <ele>57</ele>
        <time>2023-08-09T08:31:28.154+00:00</time>
      </trkpt>
      <trkpt lat="48.31946" lon="2.75362">
        <ele>57</ele>
        <time>2023-08-09T08:31:33.155+00:00</time>
      </trkpt>
      <trkpt lat="48.31944" lon="2.75371">
        <ele>57</ele>
        <time>2023-08-09T08:31:37.157+00:00</time>
      </trkpt>
      <trkpt lat="48.31944" lon="2.7538">
        <ele>56</ele>
        <time>2023-08-09T08:31:42.138+00:00</time>
      </trkpt>
      <trkpt lat="48.31942" lon="2.75387">
        <ele>56</ele>
        <time>2023-08-09T08:31:46.150+00:00</time>
      </trkpt>
      <trkpt lat="48.3194" lon="2.75397">
        <ele>56</ele>
        <time>2023-08-09T08:31:51.157+00:00</time>
      </trkpt>
      <trkpt lat="48.31937" lon="2.75407">
        <ele>56</ele>
        <time>2023-08-09T08:31:56.153+00:00</time>
      </trkpt>
      <trkpt lat="48.31935" lon="2.75417">
        <ele>56</ele>
        <time>2023-08-09T08:32:01.139+00:00</time>
      </trkpt>
      <trkpt lat="48.31933" lon="2.75424">
        <ele>56</ele>
        <time>2023-08-09T08:32:05.143+00:00</time>
      </trkpt>
      <trkpt lat="48.31931" lon="2.75435">
        <ele>56</ele>
        <time>2023-08-09T08:32:10.138+00:00</time>
      </trkpt>
      <trkpt lat="48.3193" lon="2.75444">
        <ele>57</ele>
        <time>2023-08-09T08:32:15.155+00:00</time>
      </trkpt>
      <trkpt lat="48.31928" lon="2.75455">
        <ele>57</ele>
        <time>2023-08-09T08:32:20.159+00:00</time>
      </trkpt>
      <trkpt lat="48.31926" lon="2.75463">
        <ele>57</ele>
        <time>2023-08-09T08:32:25.122+00:00</time>
      </trkpt>
      <trkpt lat="48.31925" lon="2.75471">
        <ele>57</ele>
        <time>2023-08-09T08:32:29.138+00:00</time>
      </trkpt>
      <trkpt lat="48.31925" lon="2.75482">
        <ele>57</ele>
        <time>2023-08-09T08:32:34.137+00:00</time>
      </trkpt>
      <trkpt lat="48.31925" lon="2.75491">
        <ele>57</ele>
        <time>2023-08-09T08:32:39.122+00:00</time>
      </trkpt>
      <trkpt lat="48.31924" lon="2.75498">
        <ele>57</ele>
        <time>2023-08-09T08:32:43.137+00:00</time>
      </trkpt>
      <trkpt lat="48.31922" lon="2.75507">
        <ele>57</ele>
        <time>2023-08-09T08:32:48.126+00:00</time>
      </trkpt>
      <trkpt lat="48.3192" lon="2.75515">
        <ele>58</ele>
        <time>2023-08-09T08:32:53.122+00:00</time>
      </trkpt>
      <trkpt lat="48.31918" lon="2.75524">
        <ele>58</ele>
        <time>2023-08-09T08:32:58.113+00:00</time>
      </trkpt>
      <trkpt lat="48.31917" lon="2.75532">
        <ele>58</ele>
        <time>2023-08-09T08:33:02.130+00:00</time>
      </trkpt>
      <trkpt lat="48.31915" lon="2.75542">
        <ele>58</ele>
        <time>2023-08-09T08:33:07.175+00:00</time>
      </trkpt>
      <trkpt lat="48.31916" lon="2.7555">
        <ele>59</ele>
        <time>2023-08-09T08:33:12.137+00:00</time>
      </trkpt>
      <trkpt lat="48.31914" lon="2.75561">
        <ele>59</ele>
        <time>2023-08-09T08:33:17.168+00:00</time>
      </trkpt>
      <trkpt lat="48.31912" lon="2.75569">
        <ele>59</ele>
        <time>2023-08-09T08:33:22.130+00:00</time>
      </trkpt>
      <trkpt lat="48.31912" lon="2.75576">
        <ele>59</ele>
        <time>2023-08-09T08:33:26.147+00:00</time>
      </trkpt>
      <trkpt lat="48.31909" lon="2.75584">
        <ele>59</ele>
        <time>2023-08-09T08:33:30.141+00:00</time>
      </trkpt>
      <trkpt lat="48.31908" lon="2.75592">
        <ele>59</ele>
        <time>2023-08-09T08:33:34.146+00:00</time>
      </trkpt>
      <trkpt lat="48.31907" lon="2.756">
        <ele>60</ele>
        <time>2023-08-09T08:33:39.162+00:00</time>
      </trkpt>
      <trkpt lat="48.31905" lon="2.75609">
        <ele>60</ele>
        <time>2023-08-09T08:33:44.152+00:00</time>
      </trkpt>
      <trkpt lat="48.31903" lon="2.75618">
        <ele>60</ele>
        <time>2023-08-09T08:33:49.160+00:00</time>
      </trkpt>
      <trkpt lat="48.31902" lon="2.75628">
        <ele>63</ele>
        <time>2023-08-09T08:33:54.126+00:00</time>
      </trkpt>
      <trkpt lat="48.31901" lon="2.75636">
        <ele>63</ele>
        <time>2023-08-09T08:33:58.142+00:00</time>
      </trkpt>
      <trkpt lat="48.319" lon="2.75647">
        <ele>63</ele>
        <time>2023-08-09T08:34:03.119+00:00</time>
      </trkpt>
      <trkpt lat="48.319" lon="2.75656">
        <ele>65</ele>
        <time>2023-08-09T08:34:07.138+00:00</time>
      </trkpt>
      <trkpt lat="48.319" lon="2.75664">
        <ele>65</ele>
        <time>2023-08-09T08:34:11.156+00:00</time>
      </trkpt>
      <trkpt lat="48.319" lon="2.75672">
        <ele>65</ele>
        <time>2023-08-09T08:34:16.119+00:00</time>
      </trkpt>
      <trkpt lat="48.319" lon="2.7568">
        <ele>65</ele>
        <time>2023-08-09T08:34:21.120+00:00</time>
      </trkpt>
      <trkpt lat="48.319" lon="2.75688">
        <ele>67</ele>
        <time>2023-08-09T08:34:25.149+00:00</time>
      </trkpt>
      <trkpt lat="48.31901" lon="2.75697">
        <ele>67</ele>
        <time>2023-08-09T08:34:30.118+00:00</time>
      </trkpt>
      <trkpt lat="48.31902" lon="2.75704">
        <ele>67</ele>
        <time>2023-08-09T08:34:35.155+00:00</time>
      </trkpt>
      <trkpt lat="48.31901" lon="2.75704">
        <ele>67</ele>
        <time>2023-08-09T08:34:49.163+00:00</time>
      </trkpt>
      <trkpt lat="48.31901" lon="2.75703">
        <ele>67</ele>
        <time>2023-08-09T08:34:54.120+00:00</time>
      </trkpt>
      <trkpt lat="48.31901" lon="2.75703">
        <ele>67</ele>
        <time>2023-08-09T08:34:58.128+00:00</time>
      </trkpt>
      <trkpt lat="48.319" lon="2.75708">
        <ele>67</ele>
        <time>2023-08-09T08:35:02.150+00:00</time>
      </trkpt>
      <trkpt lat="48.31902" lon="2.75719">
        <ele>69</ele>
        <time>2023-08-09T08:35:07.145+00:00</time>
      </trkpt>
      <trkpt lat="48.31903" lon="2.75728">
        <ele>70</ele>
        <time>2023-08-09T08:35:12.124+00:00</time>
      </trkpt>
      <trkpt lat="48.31904" lon="2.75737">
        <ele>71</ele>
        <time>2023-08-09T08:35:16.142+00:00</time>
      </trkpt>
      <trkpt lat="48.31904" lon="2.75743">
        <ele>71</ele>
        <time>2023-08-09T08:35:20.161+00:00</time>
      </trkpt>
      <trkpt lat="48.31904" lon="2.75743">
        <ele>71</ele>
        <time>2023-08-09T08:35:25.140+00:00</time>
      </trkpt>
      <trkpt lat="48.31904" lon="2.75744">
        <ele>71</ele>
        <time>2023-08-09T08:35:29.153+00:00</time>
      </trkpt>
      <trkpt lat="48.31905" lon="2.75752">
        <ele>71</ele>
        <time>2023-08-09T08:35:33.157+00:00</time>
      </trkpt>
      <trkpt lat="48.31906" lon="2.75763">
        <ele>71</ele>
        <time>2023-08-09T08:35:38.168+00:00</time>
      </trkpt>
      <trkpt lat="48.31907" lon="2.75772">
        <ele>73</ele>
        <time>2023-08-09T08:35:43.136+00:00</time>
      </trkpt>
      <trkpt lat="48.31907" lon="2.7578">
        <ele>73</ele>
        <time>2023-08-09T08:35:47.141+00:00</time>
      </trkpt>
      <trkpt lat="48.31908" lon="2.75791">
        <ele>73</ele>
        <time>2023-08-09T08:35:52.135+00:00</time>
      </trkpt>
      <trkpt lat="48.31908" lon="2.75798">
        <ele>74</ele>
        <time>2023-08-09T08:35:56.151+00:00</time>
      </trkpt>
      <trkpt lat="48.31908" lon="2.75807">
        <ele>74</ele>
        <time>2023-08-09T08:36:01.141+00:00</time>
      </trkpt>
      <trkpt lat="48.31908" lon="2.75818">
        <ele>74</ele>
        <time>2023-08-09T08:36:06.125+00:00</time>
      </trkpt>
      <trkpt lat="48.31908" lon="2.75826">
        <ele>75</ele>
        <time>2023-08-09T08:36:10.141+00:00</time>
      </trkpt>
      <trkpt lat="48.31907" lon="2.75835">
        <ele>75</ele>
        <time>2023-08-09T08:36:14.161+00:00</time>
      </trkpt>
      <trkpt lat="48.31906" lon="2.75845">
        <ele>75</ele>
        <time>2023-08-09T08:36:19.133+00:00</time>
      </trkpt>
      <trkpt lat="48.31905" lon="2.75855">
        <ele>75</ele>
        <time>2023-08-09T08:36:24.132+00:00</time>
      </trkpt>
      <trkpt lat="48.31904" lon="2.75862">
        <ele>75</ele>
        <time>2023-08-09T08:36:28.151+00:00</time>
      </trkpt>
      <trkpt lat="48.31902" lon="2.75869">
        <ele>75</ele>
        <time>2023-08-09T08:36:32.178+00:00</time>
      </trkpt>
      <trkpt lat="48.31901" lon="2.75878">
        <ele>75</ele>
        <time>2023-08-09T08:36:37.174+00:00</time>
      </trkpt>
      <trkpt lat="48.31902" lon="2.75887">
        <ele>75</ele>
        <time>2023-08-09T08:36:42.129+00:00</time>
      </trkpt>
      <trkpt lat="48.319" lon="2.75895">
        <ele>75</ele>
        <time>2023-08-09T08:36:46.130+00:00</time>
      </trkpt>
      <trkpt lat="48.31898" lon="2.75904">
        <ele>75</ele>
        <time>2023-08-09T08:36:50.152+00:00</time>
      </trkpt>
      <trkpt lat="48.31897" lon="2.75915">
        <ele>75</ele>
        <time>2023-08-09T08:36:55.162+00:00</time>
      </trkpt>
      <trkpt lat="48.31896" lon="2.75925">
        <ele>75</ele>
        <time>2023-08-09T08:37:00.120+00:00</time>
      </trkpt>
      <trkpt lat="48.31896" lon="2.75933">
        <ele>75</ele>
        <time>2023-08-09T08:37:04.154+00:00</time>
      </trkpt>
      <trkpt lat="48.31896" lon="2.75941">
        <ele>75</ele>
        <time>2023-08-09T08:37:08.154+00:00</time>
      </trkpt>
      <trkpt lat="48.31895" lon="2.75951">
        <ele>75</ele>
        <time>2023-08-09T08:37:13.135+00:00</time>
      </trkpt>
      <trkpt lat="48.31894" lon="2.75958">
        <ele>75</ele>
        <time>2023-08-09T08:37:17.154+00:00</time>
      </trkpt>
      <trkpt lat="48.31893" lon="2.75967">
        <ele>75</ele>
        <time>2023-08-09T08:37:22.158+00:00</time>
      </trkpt>
      <trkpt lat="48.31892" lon="2.75978">
        <ele>75</ele>
        <time>2023-08-09T08:37:27.143+00:00</time>
      </trkpt>
      <trkpt lat="48.31891" lon="2.75986">
        <ele>75</ele>
        <time>2023-08-09T08:37:31.149+00:00</time>
      </trkpt>
      <trkpt lat="48.3189" lon="2.75995">
        <ele>76</ele>
        <time>2023-08-09T08:37:36.163+00:00</time>
      </trkpt>
      <trkpt lat="48.3189" lon="2.76004">
        <ele>76</ele>
        <time>2023-08-09T08:37:40.173+00:00</time>
      </trkpt>
      <trkpt lat="48.3189" lon="2.76013">
        <ele>76</ele>
        <time>2023-08-09T08:37:45.148+00:00</time>
      </trkpt>
      <trkpt lat="48.3189" lon="2.76022">
        <ele>76</ele>
        <time>2023-08-09T08:37:50.119+00:00</time>
      </trkpt>
      <trkpt lat="48.3189" lon="2.7603">
        <ele>76</ele>
        <time>2023-08-09T08:37:54.146+00:00</time>
      </trkpt>
      <trkpt lat="48.31889" lon="2.76039">
        <ele>76</ele>
        <time>2023-08-09T08:37:59.138+00:00</time>
      </trkpt>
      <trkpt lat="48.31888" lon="2.76048">
        <ele>77</ele>
        <time>2023-08-09T08:38:04.119+00:00</time>
      </trkpt>
      <trkpt lat="48.31888" lon="2.76052">
        <ele>77</ele>
        <time>2023-08-09T08:38:08.157+00:00</time>
      </trkpt>
      <trkpt lat="48.31888" lon="2.76051">
        <ele>77</ele>
        <time>2023-08-09T08:38:18.110+00:00</time>
      </trkpt>
      <trkpt lat="48.31888" lon="2.76051">
        <ele>77</ele>
        <time>2023-08-09T08:38:22.127+00:00</time>
      </trkpt>
      <trkpt lat="48.31888" lon="2.76051">
        <ele>77</ele>
        <time>2023-08-09T08:38:26.144+00:00</time>
      </trkpt>
      <trkpt lat="48.31887" lon="2.76057">
        <ele>77</ele>
        <time>2023-08-09T08:38:31.145+00:00</time>
      </trkpt>
      <trkpt lat="48.31886" lon="2.76066">
        <ele>77</ele>
        <time>2023-08-09T08:38:36.106+00:00</time>
      </trkpt>
      <trkpt lat="48.31886" lon="2.76072">
        <ele>78</ele>
        <time>2023-08-09T08:38:40.137+00:00</time>
      </trkpt>
      <trkpt lat="48.31885" lon="2.7608">
        <ele>78</ele>
        <time>2023-08-09T08:38:44.132+00:00</time>
      </trkpt>
      <trkpt lat="48.31885" lon="2.7609">
        <ele>78</ele>
        <time>2023-08-09T08:38:49.105+00:00</time>
      </trkpt>
      <trkpt lat="48.31884" lon="2.76098">
        <ele>78</ele>
        <time>2023-08-09T08:38:53.120+00:00</time>
      </trkpt>
      <trkpt lat="48.31883" lon="2.76105">
        <ele>78</ele>
        <time>2023-08-09T08:38:57.138+00:00</time>
      </trkpt>
      <trkpt lat="48.31883" lon="2.76113">
        <ele>78</ele>
        <time>2023-08-09T08:39:01.152+00:00</time>
      </trkpt>
      <trkpt lat="48.31883" lon="2.76122">
        <ele>78</ele>
        <time>2023-08-09T08:39:06.164+00:00</time>
      </trkpt>
      <trkpt lat="48.31881" lon="2.76133">
        <ele>77</ele>
        <time>2023-08-09T08:39:11.155+00:00</time>
      </trkpt>
      <trkpt lat="48.3188" lon="2.76143">
        <ele>77</ele>
        <time>2023-08-09T08:39:16.152+00:00</time>
      </trkpt>
      <trkpt lat="48.31881" lon="2.76153">
        <ele>77</ele>
        <time>2023-08-09T08:39:21.143+00:00</time>
      </trkpt>
      <trkpt lat="48.3188" lon="2.76155">
        <ele>75</ele>
        <time>2023-08-09T08:39:26.156+00:00</time>
      </trkpt>
      <trkpt lat="48.3188" lon="2.76158">
        <ele>75</ele>
        <time>2023-08-09T08:39:31.147+00:00</time>
      </trkpt>
      <trkpt lat="48.3188" lon="2.76168">
        <ele>75</ele>
        <time>2023-08-09T08:39:35.169+00:00</time>
      </trkpt>
      <trkpt lat="48.3188" lon="2.76177">
        <ele>75</ele>
        <time>2023-08-09T08:39:39.174+00:00</time>
      </trkpt>
      <trkpt lat="48.3188" lon="2.76184">
        <ele>71</ele>
        <time>2023-08-09T08:39:44.148+00:00</time>
      </trkpt>
      <trkpt lat="48.31881" lon="2.76194">
        <ele>71</ele>
        <time>2023-08-09T08:39:49.108+00:00</time>
      </trkpt>
      <trkpt lat="48.31883" lon="2.76204">
        <ele>71</ele>
        <time>2023-08-09T08:39:54.106+00:00</time>
      </trkpt>
      <trkpt lat="48.31883" lon="2.76213">
        <ele>69</ele>
        <time>2023-08-09T08:39:58.149+00:00</time>
      </trkpt>
      <trkpt lat="48.31884" lon="2.76223">
        <ele>69</ele>
        <time>2023-08-09T08:40:03.125+00:00</time>
      </trkpt>
      <trkpt lat="48.31885" lon="2.7623">
        <ele>69</ele>
        <time>2023-08-09T08:40:07.145+00:00</time>
      </trkpt>
      <trkpt lat="48.31886" lon="2.76239">
        <ele>67</ele>
        <time>2023-08-09T08:40:12.114+00:00</time>
      </trkpt>
      <trkpt lat="48.31887" lon="2.76246">
        <ele>67</ele>
        <time>2023-08-09T08:40:16.130+00:00</time>
      </trkpt>
      <trkpt lat="48.31886" lon="2.76255">
        <ele>67</ele>
        <time>2023-08-09T08:40:20.164+00:00</time>
      </trkpt>
      <trkpt lat="48.31886" lon="2.76265">
        <ele>67</ele>
        <time>2023-08-09T08:40:25.144+00:00</time>
      </trkpt>
      <trkpt lat="48.31885" lon="2.76278">
        <ele>67</ele>
        <time>2023-08-09T08:40:30.145+00:00</time>
      </trkpt>
      <trkpt lat="48.31885" lon="2.76287">
        <ele>67</ele>
        <time>2023-08-09T08:40:34.150+00:00</time>
      </trkpt>
      <trkpt lat="48.31885" lon="2.76295">
        <ele>67</ele>
        <time>2023-08-09T08:40:38.174+00:00</time>
      </trkpt>
      <trkpt lat="48.31886" lon="2.76305">
        <ele>67</ele>
        <time>2023-08-09T08:40:43.149+00:00</time>
      </trkpt>
      <trkpt lat="48.31886" lon="2.76314">
        <ele>67</ele>
        <time>2023-08-09T08:40:48.126+00:00</time>
      </trkpt>
      <trkpt lat="48.31887" lon="2.76324">
        <ele>67</ele>
        <time>2023-08-09T08:40:53.112+00:00</time>
      </trkpt>
      <trkpt lat="48.31887" lon="2.76332">
        <ele>67</ele>
        <time>2023-08-09T08:40:57.151+00:00</time>
      </trkpt>
      <trkpt lat="48.31888" lon="2.76342">
        <ele>67</ele>
        <time>2023-08-09T08:41:02.140+00:00</time>
      </trkpt>
      <trkpt lat="48.31888" lon="2.76349">
        <ele>67</ele>
        <time>2023-08-09T08:41:06.151+00:00</time>
      </trkpt>
      <trkpt lat="48.31888" lon="2.76357">
        <ele>67</ele>
        <time>2023-08-09T08:41:10.174+00:00</time>
      </trkpt>
      <trkpt lat="48.3189" lon="2.7637">
        <ele>67</ele>
        <time>2023-08-09T08:41:15.133+00:00</time>
      </trkpt>
      <trkpt lat="48.3189" lon="2.76375">
        <ele>66</ele>
        <time>2023-08-09T08:41:19.147+00:00</time>
      </trkpt>
      <trkpt lat="48.3189" lon="2.76382">
        <ele>66</ele>
        <time>2023-08-09T08:41:23.156+00:00</time>
      </trkpt>
      <trkpt lat="48.3189" lon="2.76392">
        <ele>66</ele>
        <time>2023-08-09T08:41:27.165+00:00</time>
      </trkpt>
      <trkpt lat="48.3189" lon="2.76402">
        <ele>66</ele>
        <time>2023-08-09T08:41:32.125+00:00</time>
      </trkpt>
      <trkpt lat="48.3189" lon="2.7641">
        <ele>65</ele>
        <time>2023-08-09T08:41:36.148+00:00</time>
      </trkpt>
      <trkpt lat="48.31889" lon="2.76421">
        <ele>65</ele>
        <time>2023-08-09T08:41:41.158+00:00</time>
      </trkpt>
      <trkpt lat="48.31889" lon="2.76433">
        <ele>65</ele>
        <time>2023-08-09T08:41:46.136+00:00</time>
      </trkpt>
      <trkpt lat="48.3189" lon="2.76444">
        <ele>65</ele>
        <time>2023-08-09T08:41:51.170+00:00</time>
      </trkpt>
      <trkpt lat="48.31889" lon="2.76453">
        <ele>65</ele>
        <time>2023-08-09T08:41:56.162+00:00</time>
      </trkpt>
      <trkpt lat="48.31888" lon="2.76462">
        <ele>64</ele>
        <time>2023-08-09T08:42:01.165+00:00</time>
      </trkpt>
      <trkpt lat="48.31887" lon="2.76471">
        <ele>64</ele>
        <time>2023-08-09T08:42:06.154+00:00</time>
      </trkpt>
      <trkpt lat="48.31886" lon="2.76482">
        <ele>64</ele>
        <time>2023-08-09T08:42:11.151+00:00</time>
      </trkpt>
      <trkpt lat="48.31886" lon="2.76491">
        <ele>65</ele>
        <time>2023-08-09T08:42:16.160+00:00</time>
      </trkpt>
      <trkpt lat="48.31885" lon="2.76501">
        <ele>65</ele>
        <time>2023-08-09T08:42:21.133+00:00</time>
      </trkpt>
      <trkpt lat="48.31885" lon="2.7651">
        <ele>65</ele>
        <time>2023-08-09T08:42:25.129+00:00</time>
      </trkpt>
      <trkpt lat="48.31886" lon="2.76517">
        <ele>64</ele>
        <time>2023-08-09T08:42:29.176+00:00</time>
      </trkpt>
      <trkpt lat="48.31887" lon="2.76524">
        <ele>64</ele>
        <time>2023-08-09T08:42:33.158+00:00</time>
      </trkpt>
      <trkpt lat="48.31887" lon="2.76534">
        <ele>64</ele>
        <time>2023-08-09T08:42:38.136+00:00</time>
      </trkpt>
      <trkpt lat="48.31886" lon="2.76544">
        <ele>63</ele>
        <time>2023-08-09T08:42:43.129+00:00</time>
      </trkpt>
      <trkpt lat="48.31886" lon="2.76554">
        <ele>63</ele>
        <time>2023-08-09T08:42:48.121+00:00</time>
      </trkpt>
      <trkpt lat="48.31885" lon="2.76563">
        <ele>63</ele>
        <time>2023-08-09T08:42:53.108+00:00</time>
      </trkpt>
      <trkpt lat="48.31884" lon="2.76572">
        <ele>62</ele>
        <time>2023-08-09T08:42:57.139+00:00</time>
      </trkpt>
      <trkpt lat="48.31883" lon="2.76579">
        <ele>62</ele>
        <time>2023-08-09T08:43:01.145+00:00</time>
      </trkpt>
      <trkpt lat="48.31882" lon="2.76589">
        <ele>62</ele>
        <time>2023-08-09T08:43:06.115+00:00</time>
      </trkpt>
      <trkpt lat="48.31882" lon="2.76597">
        <ele>62</ele>
        <time>2023-08-09T08:43:10.159+00:00</time>
      </trkpt>
      <trkpt lat="48.31882" lon="2.76606">
        <ele>62</ele>
        <time>2023-08-09T08:43:15.151+00:00</time>
      </trkpt>
      <trkpt lat="48.31881" lon="2.76614">
        <ele>62</ele>
        <time>2023-08-09T08:43:19.155+00:00</time>
      </trkpt>
      <trkpt lat="48.31879" lon="2.76625">
        <ele>63</ele>
        <time>2023-08-09T08:43:24.148+00:00</time>
      </trkpt>
      <trkpt lat="48.31879" lon="2.76631">
        <ele>63</ele>
        <time>2023-08-09T08:43:28.167+00:00</time>
      </trkpt>
      <trkpt lat="48.31878" lon="2.76641">
        <ele>63</ele>
        <time>2023-08-09T08:43:33.147+00:00</time>
      </trkpt>
      <trkpt lat="48.31876" lon="2.7665">
        <ele>63</ele>
        <time>2023-08-09T08:43:37.152+00:00</time>
      </trkpt>
      <trkpt lat="48.31874" lon="2.76662">
        <ele>63</ele>
        <time>2023-08-09T08:43:42.173+00:00</time>
      </trkpt>
      <trkpt lat="48.31874" lon="2.76672">
        <ele>63</ele>
        <time>2023-08-09T08:43:47.145+00:00</time>
      </trkpt>
      <trkpt lat="48.31874" lon="2.76682">
        <ele>63</ele>
        <time>2023-08-09T08:43:52.172+00:00</time>
      </trkpt>
      <trkpt lat="48.31873" lon="2.76691">
        <ele>63</ele>
        <time>2023-08-09T08:43:57.140+00:00</time>
      </trkpt>
      <trkpt lat="48.31872" lon="2.76701">
        <ele>63</ele>
        <time>2023-08-09T08:44:02.111+00:00</time>
      </trkpt>
      <trkpt lat="48.31873" lon="2.76708">
        <ele>63</ele>
        <time>2023-08-09T08:44:06.181+00:00</time>
      </trkpt>
      <trkpt lat="48.31874" lon="2.76727">
        <ele>64</ele>
        <time>2023-08-09T08:44:20.101+00:00</time>
      </trkpt>
      <trkpt lat="48.31876" lon="2.7673">
        <ele>63</ele>
        <time>2023-08-09T08:44:24.128+00:00</time>
      </trkpt>
      <trkpt lat="48.31876" lon="2.76739">
        <ele>63</ele>
        <time>2023-08-09T08:44:28.132+00:00</time>
      </trkpt>
      <trkpt lat="48.31873" lon="2.76747">
        <ele>65</ele>
        <time>2023-08-09T08:44:33.130+00:00</time>
      </trkpt>
      <trkpt lat="48.31873" lon="2.76757">
        <ele>65</ele>
        <time>2023-08-09T08:44:38.137+00:00</time>
      </trkpt>
      <trkpt lat="48.31871" lon="2.76767">
        <ele>65</ele>
        <time>2023-08-09T08:45:29.136+00:00</time>
      </trkpt>
      <trkpt lat="48.3187" lon="2.76768">
        <ele>65</ele>
        <time>2023-08-09T08:45:39.149+00:00</time>
      </trkpt>
      <trkpt lat="48.31869" lon="2.76776">
        <ele>65</ele>
        <time>2023-08-09T08:45:44.130+00:00</time>
      </trkpt>
      <trkpt lat="48.3187" lon="2.76786">
        <ele>65</ele>
        <time>2023-08-09T08:45:49.109+00:00</time>
      </trkpt>
      <trkpt lat="48.31869" lon="2.76793">
        <ele>63</ele>
        <time>2023-08-09T08:45:53.132+00:00</time>
      </trkpt>
      <trkpt lat="48.31869" lon="2.76806">
        <ele>63</ele>
        <time>2023-08-09T08:45:58.123+00:00</time>
      </trkpt>
      <trkpt lat="48.31868" lon="2.76817">
        <ele>63</ele>
        <time>2023-08-09T08:46:03.145+00:00</time>
      </trkpt>
      <trkpt lat="48.31867" lon="2.76827">
        <ele>61</ele>
        <time>2023-08-09T08:46:08.155+00:00</time>
      </trkpt>
      <trkpt lat="48.31868" lon="2.76837">
        <ele>61</ele>
        <time>2023-08-09T08:46:13.115+00:00</time>
      </trkpt>
      <trkpt lat="48.31866" lon="2.76845">
        <ele>61</ele>
        <time>2023-08-09T08:46:18.136+00:00</time>
      </trkpt>
      <trkpt lat="48.31866" lon="2.76855">
        <ele>61</ele>
        <time>2023-08-09T08:46:23.154+00:00</time>
      </trkpt>
      <trkpt lat="48.31865" lon="2.76866">
        <ele>61</ele>
        <time>2023-08-09T08:46:28.150+00:00</time>
      </trkpt>
      <trkpt lat="48.31864" lon="2.76875">
        <ele>61</ele>
        <time>2023-08-09T08:46:33.136+00:00</time>
      </trkpt>
      <trkpt lat="48.31863" lon="2.76883">
        <ele>60</ele>
        <time>2023-08-09T08:46:37.153+00:00</time>
      </trkpt>
      <trkpt lat="48.31861" lon="2.76894">
        <ele>60</ele>
        <time>2023-08-09T08:46:42.150+00:00</time>
      </trkpt>
      <trkpt lat="48.3186" lon="2.76903">
        <ele>60</ele>
        <time>2023-08-09T08:46:47.144+00:00</time>
      </trkpt>
      <trkpt lat="48.31859" lon="2.76913">
        <ele>60</ele>
        <time>2023-08-09T08:46:52.142+00:00</time>
      </trkpt>
      <trkpt lat="48.31856" lon="2.76925">
        <ele>60</ele>
        <time>2023-08-09T08:46:57.141+00:00</time>
      </trkpt>
      <trkpt lat="48.31853" lon="2.76928">
        <ele>60</ele>
        <time>2023-08-09T08:47:01.141+00:00</time>
      </trkpt>
      <trkpt lat="48.31852" lon="2.76931">
        <ele>60</ele>
        <time>2023-08-09T08:47:06.145+00:00</time>
      </trkpt>
      <trkpt lat="48.31856" lon="2.76939">
        <ele>60</ele>
        <time>2023-08-09T08:47:11.127+00:00</time>
      </trkpt>
      <trkpt lat="48.31856" lon="2.76951">
        <ele>60</ele>
        <time>2023-08-09T08:47:16.143+00:00</time>
      </trkpt>
      <trkpt lat="48.31855" lon="2.76962">
        <ele>61</ele>
        <time>2023-08-09T08:47:21.144+00:00</time>
      </trkpt>
      <trkpt lat="48.31854" lon="2.7697">
        <ele>61</ele>
        <time>2023-08-09T08:47:26.144+00:00</time>
      </trkpt>
      <trkpt lat="48.31852" lon="2.76983">
        <ele>61</ele>
        <time>2023-08-09T08:47:31.121+00:00</time>
      </trkpt>
      <trkpt lat="48.31853" lon="2.76994">
        <ele>62</ele>
        <time>2023-08-09T08:47:36.111+00:00</time>
      </trkpt>
      <trkpt lat="48.31854" lon="2.77002">
        <ele>62</ele>
        <time>2023-08-09T08:47:40.112+00:00</time>
      </trkpt>
      <trkpt lat="48.31852" lon="2.77009">
        <ele>62</ele>
        <time>2023-08-09T08:47:44.146+00:00</time>
      </trkpt>
      <trkpt lat="48.31851" lon="2.77015">
        <ele>61</ele>
        <time>2023-08-09T08:47:48.159+00:00</time>
      </trkpt>
      <trkpt lat="48.31852" lon="2.77024">
        <ele>61</ele>
        <time>2023-08-09T08:47:53.108+00:00</time>
      </trkpt>
      <trkpt lat="48.31851" lon="2.77032">
        <ele>61</ele>
        <time>2023-08-09T08:47:57.129+00:00</time>
      </trkpt>
      <trkpt lat="48.31847" lon="2.77036">
        <ele>61</ele>
        <time>2023-08-09T08:48:01.136+00:00</time>
      </trkpt>
      <trkpt lat="48.31842" lon="2.77046">
        <ele>60</ele>
        <time>2023-08-09T08:48:06.112+00:00</time>
      </trkpt>
      <trkpt lat="48.31838" lon="2.77055">
        <ele>60</ele>
        <time>2023-08-09T08:48:11.115+00:00</time>
      </trkpt>
      <trkpt lat="48.31834" lon="2.77064">
        <ele>60</ele>
        <time>2023-08-09T08:48:16.112+00:00</time>
      </trkpt>
      <trkpt lat="48.3183" lon="2.7707">
        <ele>59</ele>
        <time>2023-08-09T08:48:20.109+00:00</time>
      </trkpt>
      <trkpt lat="48.31826" lon="2.77076">
        <ele>59</ele>
        <time>2023-08-09T08:48:24.120+00:00</time>
      </trkpt>
      <trkpt lat="48.31823" lon="2.77082">
        <ele>59</ele>
        <time>2023-08-09T08:48:28.119+00:00</time>
      </trkpt>
      <trkpt lat="48.31822" lon="2.77081">
        <ele>59</ele>
        <time>2023-08-09T08:48:33.113+00:00</time>
      </trkpt>
      <trkpt lat="48.31822" lon="2.77082">
        <ele>59</ele>
        <time>2023-08-09T08:48:38.119+00:00</time>
      </trkpt>
      <trkpt lat="48.31817" lon="2.77086">
        <ele>59</ele>
        <time>2023-08-09T08:48:42.123+00:00</time>
      </trkpt>
      <trkpt lat="48.31814" lon="2.77089">
        <ele>59</ele>
        <time>2023-08-09T08:48:46.165+00:00</time>
      </trkpt>
      <trkpt lat="48.31807" lon="2.77095">
        <ele>59</ele>
        <time>2023-08-09T08:48:51.142+00:00</time>
      </trkpt>
      <trkpt lat="48.31802" lon="2.771">
        <ele>59</ele>
        <time>2023-08-09T08:48:55.141+00:00</time>
      </trkpt>
      <trkpt lat="48.31796" lon="2.77108">
        <ele>59</ele>
        <time>2023-08-09T08:49:00.136+00:00</time>
      </trkpt>
      <trkpt lat="48.3179" lon="2.77117">
        <ele>60</ele>
        <time>2023-08-09T08:49:05.115+00:00</time>
      </trkpt>
      <trkpt lat="48.31785" lon="2.77124">
        <ele>60</ele>
        <time>2023-08-09T08:49:10.136+00:00</time>
      </trkpt>
      <trkpt lat="48.31781" lon="2.77129">
        <ele>59</ele>
        <time>2023-08-09T08:49:14.135+00:00</time>
      </trkpt>
      <trkpt lat="48.31777" lon="2.77133">
        <ele>59</ele>
        <time>2023-08-09T08:49:18.156+00:00</time>
      </trkpt>
      <trkpt lat="48.31774" lon="2.77138">
        <ele>59</ele>
        <time>2023-08-09T08:49:23.152+00:00</time>
      </trkpt>
      <trkpt lat="48.31768" lon="2.77143">
        <ele>59</ele>
        <time>2023-08-09T08:49:28.137+00:00</time>
      </trkpt>
      <trkpt lat="48.31763" lon="2.77152">
        <ele>58</ele>
        <time>2023-08-09T08:49:33.140+00:00</time>
      </trkpt>
      <trkpt lat="48.31759" lon="2.77159">
        <ele>58</ele>
        <time>2023-08-09T08:49:38.156+00:00</time>
      </trkpt>
      <trkpt lat="48.31753" lon="2.77164">
        <ele>58</ele>
        <time>2023-08-09T08:49:43.142+00:00</time>
      </trkpt>
      <trkpt lat="48.31746" lon="2.77169">
        <ele>58</ele>
        <time>2023-08-09T08:49:48.125+00:00</time>
      </trkpt>
      <trkpt lat="48.31741" lon="2.77175">
        <ele>58</ele>
        <time>2023-08-09T08:49:52.138+00:00</time>
      </trkpt>
      <trkpt lat="48.31737" lon="2.7718">
        <ele>58</ele>
        <time>2023-08-09T08:49:57.132+00:00</time>
      </trkpt>
      <trkpt lat="48.31733" lon="2.77184">
        <ele>59</ele>
        <time>2023-08-09T08:50:01.141+00:00</time>
      </trkpt>
      <trkpt lat="48.31728" lon="2.77189">
        <ele>59</ele>
        <time>2023-08-09T08:50:05.142+00:00</time>
      </trkpt>
      <trkpt lat="48.31723" lon="2.77198">
        <ele>59</ele>
        <time>2023-08-09T08:50:10.120+00:00</time>
      </trkpt>
      <trkpt lat="48.31719" lon="2.77206">
        <ele>59</ele>
        <time>2023-08-09T08:50:14.140+00:00</time>
      </trkpt>
      <trkpt lat="48.31714" lon="2.77212">
        <ele>58</ele>
        <time>2023-08-09T08:50:19.139+00:00</time>
      </trkpt>
      <trkpt lat="48.31708" lon="2.77219">
        <ele>58</ele>
        <time>2023-08-09T08:50:24.162+00:00</time>
      </trkpt>
      <trkpt lat="48.31703" lon="2.77225">
        <ele>58</ele>
        <time>2023-08-09T08:50:29.135+00:00</time>
      </trkpt>
      <trkpt lat="48.31698" lon="2.77233">
        <ele>58</ele>
        <time>2023-08-09T08:50:34.136+00:00</time>
      </trkpt>
      <trkpt lat="48.31692" lon="2.7724">
        <ele>57</ele>
        <time>2023-08-09T08:50:39.129+00:00</time>
      </trkpt>
      <trkpt lat="48.3169" lon="2.77247">
        <ele>57</ele>
        <time>2023-08-09T08:50:44.160+00:00</time>
      </trkpt>
      <trkpt lat="48.31691" lon="2.77249">
        <ele>57</ele>
        <time>2023-08-09T08:50:49.144+00:00</time>
      </trkpt>
      <trkpt lat="48.31696" lon="2.77255">
        <ele>57</ele>
        <time>2023-08-09T08:50:54.131+00:00</time>
      </trkpt>
      <trkpt lat="48.31702" lon="2.77262">
        <ele>57</ele>
        <time>2023-08-09T08:50:59.133+00:00</time>
      </trkpt>
      <trkpt lat="48.31708" lon="2.77267">
        <ele>57</ele>
        <time>2023-08-09T08:51:04.133+00:00</time>
      </trkpt>
      <trkpt lat="48.31714" lon="2.77272">
        <ele>57</ele>
        <time>2023-08-09T08:51:09.119+00:00</time>
      </trkpt>
      <trkpt lat="48.31716" lon="2.77275">
        <ele>57</ele>
        <time>2023-08-09T08:51:14.098+00:00</time>
      </trkpt>
      <trkpt lat="48.31718" lon="2.77281">
        <ele>57</ele>
        <time>2023-08-09T08:51:18.108+00:00</time>
      </trkpt>
      <trkpt lat="48.31727" lon="2.7729">
        <ele>57</ele>
        <time>2023-08-09T08:51:23.110+00:00</time>
      </trkpt>
      <trkpt lat="48.3173" lon="2.77289">
        <ele>57</ele>
        <time>2023-08-09T08:51:28.094+00:00</time>
      </trkpt>
      <trkpt lat="48.3173" lon="2.77292">
        <ele>57</ele>
        <time>2023-08-09T08:51:32.099+00:00</time>
      </trkpt>
      <trkpt lat="48.3173" lon="2.77296">
        <ele>57</ele>
        <time>2023-08-09T08:51:36.109+00:00</time>
      </trkpt>
      <trkpt lat="48.31733" lon="2.77304">
        <ele>57</ele>
        <time>2023-08-09T08:51:41.105+00:00</time>
      </trkpt>
      <trkpt lat="48.31738" lon="2.77317">
        <ele>57</ele>
        <time>2023-08-09T08:51:46.100+00:00</time>
      </trkpt>
      <trkpt lat="48.31744" lon="2.77328">
        <ele>58</ele>
        <time>2023-08-09T08:51:51.135+00:00</time>
      </trkpt>
      <trkpt lat="48.31746" lon="2.77334">
        <ele>58</ele>
        <time>2023-08-09T08:51:55.118+00:00</time>
      </trkpt>
      <trkpt lat="48.31746" lon="2.77335">
        <ele>58</ele>
        <time>2023-08-09T08:51:59.138+00:00</time>
      </trkpt>
      <trkpt lat="48.31748" lon="2.77341">
        <ele>58</ele>
        <time>2023-08-09T08:52:03.128+00:00</time>
      </trkpt>
      <trkpt lat="48.31752" lon="2.77348">
        <ele>58</ele>
        <time>2023-08-09T08:52:08.156+00:00</time>
      </trkpt>
      <trkpt lat="48.31757" lon="2.77356">
        <ele>58</ele>
        <time>2023-08-09T08:52:13.121+00:00</time>
      </trkpt>
      <trkpt lat="48.31763" lon="2.77357">
        <ele>58</ele>
        <time>2023-08-09T08:52:17.116+00:00</time>
      </trkpt>
      <trkpt lat="48.31769" lon="2.77356">
        <ele>58</ele>
        <time>2023-08-09T08:52:21.121+00:00</time>
      </trkpt>
      <trkpt lat="48.31775" lon="2.77355">
        <ele>58</ele>
        <time>2023-08-09T08:52:26.130+00:00</time>
      </trkpt>
      <trkpt lat="48.31776" lon="2.77362">
        <ele>58</ele>
        <time>2023-08-09T08:52:30.118+00:00</time>
      </trkpt>
      <trkpt lat="48.31777" lon="2.77369">
        <ele>58</ele>
        <time>2023-08-09T08:52:35.109+00:00</time>
      </trkpt>
      <trkpt lat="48.31783" lon="2.7738">
        <ele>58</ele>
        <time>2023-08-09T08:52:40.108+00:00</time>
      </trkpt>
      <trkpt lat="48.31788" lon="2.77389">
        <ele>58</ele>
        <time>2023-08-09T08:52:45.115+00:00</time>
      </trkpt>
      <trkpt lat="48.31791" lon="2.77397">
        <ele>58</ele>
        <time>2023-08-09T08:52:49.127+00:00</time>
      </trkpt>
      <trkpt lat="48.31793" lon="2.77407">
        <ele>57</ele>
        <time>2023-08-09T08:52:54.130+00:00</time>
      </trkpt>
      <trkpt lat="48.31795" lon="2.77414">
        <ele>57</ele>
        <time>2023-08-09T08:52:58.134+00:00</time>
      </trkpt>
      <trkpt lat="48.31797" lon="2.77423">
        <ele>57</ele>
        <time>2023-08-09T08:53:03.126+00:00</time>
      </trkpt>
      <trkpt lat="48.318" lon="2.77432">
        <ele>57</ele>
        <time>2023-08-09T08:53:08.113+00:00</time>
      </trkpt>
      <trkpt lat="48.31802" lon="2.77441">
        <ele>57</ele>
        <time>2023-08-09T08:53:12.142+00:00</time>
      </trkpt>
      <trkpt lat="48.31802" lon="2.77444">
        <ele>57</ele>
        <time>2023-08-09T08:53:17.100+00:00</time>
      </trkpt>
      <trkpt lat="48.31806" lon="2.7745">
        <ele>57</ele>
        <time>2023-08-09T08:53:22.096+00:00</time>
      </trkpt>
      <trkpt lat="48.31811" lon="2.77454">
        <ele>57</ele>
        <time>2023-08-09T08:53:26.108+00:00</time>
      </trkpt>
      <trkpt lat="48.31811" lon="2.77457">
        <ele>57</ele>
        <time>2023-08-09T08:53:31.100+00:00</time>
      </trkpt>
      <trkpt lat="48.31813" lon="2.77452">
        <ele>57</ele>
        <time>2023-08-09T08:55:59.114+00:00</time>
      </trkpt>
      <trkpt lat="48.31812" lon="2.77449">
        <ele>57</ele>
        <time>2023-08-09T08:56:04.121+00:00</time>
      </trkpt>
      <trkpt lat="48.31806" lon="2.77444">
        <ele>57</ele>
        <time>2023-08-09T08:56:09.129+00:00</time>
      </trkpt>
      <trkpt lat="48.31803" lon="2.77438">
        <ele>57</ele>
        <time>2023-08-09T08:56:14.142+00:00</time>
      </trkpt>
      <trkpt lat="48.318" lon="2.77432">
        <ele>57</ele>
        <time>2023-08-09T08:56:19.108+00:00</time>
      </trkpt>
      <trkpt lat="48.31798" lon="2.77426">
        <ele>57</ele>
        <time>2023-08-09T08:56:23.138+00:00</time>
      </trkpt>
      <trkpt lat="48.31797" lon="2.77421">
        <ele>57</ele>
        <time>2023-08-09T08:56:27.141+00:00</time>
      </trkpt>
      <trkpt lat="48.31795" lon="2.77412">
        <ele>57</ele>
        <time>2023-08-09T08:56:32.117+00:00</time>
      </trkpt>
      <trkpt lat="48.31794" lon="2.77405">
        <ele>57</ele>
        <time>2023-08-09T08:56:36.140+00:00</time>
      </trkpt>
      <trkpt lat="48.31789" lon="2.77398">
        <ele>58</ele>
        <time>2023-08-09T08:56:41.153+00:00</time>
      </trkpt>
      <trkpt lat="48.31786" lon="2.77392">
        <ele>58</ele>
        <time>2023-08-09T08:56:46.101+00:00</time>
      </trkpt>
      <trkpt lat="48.31784" lon="2.77387">
        <ele>58</ele>
        <time>2023-08-09T08:56:50.106+00:00</time>
      </trkpt>
      <trkpt lat="48.31785" lon="2.77384">
        <ele>58</ele>
        <time>2023-08-09T08:56:54.111+00:00</time>
      </trkpt>
      <trkpt lat="48.31784" lon="2.77379">
        <ele>58</ele>
        <time>2023-08-09T08:56:58.134+00:00</time>
      </trkpt>
      <trkpt lat="48.31782" lon="2.7737">
        <ele>58</ele>
        <time>2023-08-09T08:57:03.132+00:00</time>
      </trkpt>
      <trkpt lat="48.3178" lon="2.77363">
        <ele>58</ele>
        <time>2023-08-09T08:57:07.154+00:00</time>
      </trkpt>
      <trkpt lat="48.31778" lon="2.77354">
        <ele>58</ele>
        <time>2023-08-09T08:57:12.147+00:00</time>
      </trkpt>
      <trkpt lat="48.31773" lon="2.77344">
        <ele>57</ele>
        <time>2023-08-09T08:57:47.116+00:00</time>
      </trkpt>
      <trkpt lat="48.31772" lon="2.77344">
        <ele>57</ele>
        <time>2023-08-09T08:57:51.117+00:00</time>
      </trkpt>
      <trkpt lat="48.3177" lon="2.77348">
        <ele>58</ele>
        <time>2023-08-09T08:57:56.106+00:00</time>
      </trkpt>
      <trkpt lat="48.31764" lon="2.7735">
        <ele>58</ele>
        <time>2023-08-09T08:58:01.108+00:00</time>
      </trkpt>
      <trkpt lat="48.31758" lon="2.77346">
        <ele>58</ele>
        <time>2023-08-09T08:58:05.130+00:00</time>
      </trkpt>
      <trkpt lat="48.31755" lon="2.77341">
        <ele>58</ele>
        <time>2023-08-09T08:58:09.125+00:00</time>
      </trkpt>
      <trkpt lat="48.31752" lon="2.77333">
        <ele>58</ele>
        <time>2023-08-09T08:58:14.159+00:00</time>
      </trkpt>
      <trkpt lat="48.31748" lon="2.77324">
        <ele>58</ele>
        <time>2023-08-09T08:58:19.152+00:00</time>
      </trkpt>
      <trkpt lat="48.31745" lon="2.77316">
        <ele>57</ele>
        <time>2023-08-09T08:58:24.113+00:00</time>
      </trkpt>
      <trkpt lat="48.31741" lon="2.77309">
        <ele>57</ele>
        <time>2023-08-09T08:58:28.132+00:00</time>
      </trkpt>
      <trkpt lat="48.31739" lon="2.77302">
        <ele>57</ele>
        <time>2023-08-09T08:58:32.147+00:00</time>
      </trkpt>
      <trkpt lat="48.31739" lon="2.77298">
        <ele>57</ele>
        <time>2023-08-09T08:58:37.120+00:00</time>
      </trkpt>
      <trkpt lat="48.31739" lon="2.77298">
        <ele>57</ele>
        <time>2023-08-09T08:58:41.126+00:00</time>
      </trkpt>
      <trkpt lat="48.31737" lon="2.77296">
        <ele>57</ele>
        <time>2023-08-09T08:58:45.150+00:00</time>
      </trkpt>
      <trkpt lat="48.31734" lon="2.77288">
        <ele>57</ele>
        <time>2023-08-09T08:58:50.151+00:00</time>
      </trkpt>
      <trkpt lat="48.31729" lon="2.77283">
        <ele>57</ele>
        <time>2023-08-09T08:58:54.164+00:00</time>
      </trkpt>
      <trkpt lat="48.31722" lon="2.77275">
        <ele>57</ele>
        <time>2023-08-09T08:58:59.151+00:00</time>
      </trkpt>
      <trkpt lat="48.31717" lon="2.77268">
        <ele>57</ele>
        <time>2023-08-09T08:59:03.601+00:00</time>
      </trkpt>
      <trkpt lat="48.31712" lon="2.77262">
        <ele>57</ele>
        <time>2023-08-09T08:59:08.120+00:00</time>
      </trkpt>
      <trkpt lat="48.31707" lon="2.77256">
        <ele>57</ele>
        <time>2023-08-09T08:59:12.142+00:00</time>
      </trkpt>
      <trkpt lat="48.317" lon="2.77251">
        <ele>57</ele>
        <time>2023-08-09T08:59:17.131+00:00</time>
      </trkpt>
      <trkpt lat="48.31694" lon="2.77247">
        <ele>57</ele>
        <time>2023-08-09T08:59:21.132+00:00</time>
      </trkpt>
      <trkpt lat="48.31686" lon="2.77248">
        <ele>57</ele>
        <time>2023-08-09T08:59:25.150+00:00</time>
      </trkpt>
      <trkpt lat="48.31679" lon="2.77257">
        <ele>58</ele>
        <time>2023-08-09T08:59:30.111+00:00</time>
      </trkpt>
      <trkpt lat="48.31673" lon="2.77265">
        <ele>57</ele>
        <time>2023-08-09T08:59:35.148+00:00</time>
      </trkpt>
      <trkpt lat="48.31668" lon="2.77272">
        <ele>57</ele>
        <time>2023-08-09T08:59:40.158+00:00</time>
      </trkpt>
      <trkpt lat="48.31663" lon="2.77279">
        <ele>57</ele>
        <time>2023-08-09T08:59:45.145+00:00</time>
      </trkpt>
      <trkpt lat="48.31657" lon="2.77289">
        <ele>57</ele>
        <time>2023-08-09T08:59:50.165+00:00</time>
      </trkpt>
      <trkpt lat="48.31652" lon="2.77294">
        <ele>61</ele>
        <time>2023-08-09T08:59:55.162+00:00</time>
      </trkpt>
      <trkpt lat="48.31646" lon="2.77301">
        <ele>61</ele>
        <time>2023-08-09T09:00:00.151+00:00</time>
      </trkpt>
      <trkpt lat="48.31644" lon="2.77311">
        <ele>61</ele>
        <time>2023-08-09T09:00:05.145+00:00</time>
      </trkpt>
      <trkpt lat="48.31646" lon="2.7732">
        <ele>63</ele>
        <time>2023-08-09T09:00:10.113+00:00</time>
      </trkpt>
      <trkpt lat="48.31648" lon="2.77327">
        <ele>63</ele>
        <time>2023-08-09T09:00:14.135+00:00</time>
      </trkpt>
      <trkpt lat="48.31651" lon="2.77336">
        <ele>63</ele>
        <time>2023-08-09T09:00:19.140+00:00</time>
      </trkpt>
      <trkpt lat="48.31653" lon="2.77342">
        <ele>60</ele>
        <time>2023-08-09T09:00:23.159+00:00</time>
      </trkpt>
      <trkpt lat="48.31657" lon="2.77352">
        <ele>62</ele>
        <time>2023-08-09T09:00:28.177+00:00</time>
      </trkpt>
      <trkpt lat="48.31658" lon="2.77361">
        <ele>62</ele>
        <time>2023-08-09T09:00:33.151+00:00</time>
      </trkpt>
      <trkpt lat="48.3166" lon="2.7737">
        <ele>62</ele>
        <time>2023-08-09T09:00:38.148+00:00</time>
      </trkpt>
      <trkpt lat="48.31663" lon="2.7738">
        <ele>64</ele>
        <time>2023-08-09T09:00:43.154+00:00</time>
      </trkpt>
      <trkpt lat="48.31666" lon="2.7739">
        <ele>64</ele>
        <time>2023-08-09T09:00:48.030+00:00</time>
      </trkpt>
      <trkpt lat="48.31669" lon="2.77399">
        <ele>64</ele>
        <time>2023-08-09T09:00:52.129+00:00</time>
      </trkpt>
      <trkpt lat="48.31672" lon="2.77409">
        <ele>65</ele>
        <time>2023-08-09T09:00:56.131+00:00</time>
      </trkpt>
      <trkpt lat="48.31676" lon="2.7742">
        <ele>65</ele>
        <time>2023-08-09T09:01:00.140+00:00</time>
      </trkpt>
      <trkpt lat="48.3168" lon="2.77426">
        <ele>65</ele>
        <time>2023-08-09T09:01:04.150+00:00</time>
      </trkpt>
      <trkpt lat="48.31682" lon="2.77435">
        <ele>65</ele>
        <time>2023-08-09T09:01:09.156+00:00</time>
      </trkpt>
      <trkpt lat="48.31685" lon="2.77445">
        <ele>65</ele>
        <time>2023-08-09T09:01:14.149+00:00</time>
      </trkpt>
      <trkpt lat="48.31688" lon="2.77453">
        <ele>65</ele>
        <time>2023-08-09T09:01:18.147+00:00</time>
      </trkpt>
      <trkpt lat="48.31691" lon="2.77465">
        <ele>65</ele>
        <time>2023-08-09T09:01:23.154+00:00</time>
      </trkpt>
      <trkpt lat="48.31694" lon="2.77474">
        <ele>65</ele>
        <time>2023-08-09T09:01:27.158+00:00</time>
      </trkpt>
      <trkpt lat="48.31699" lon="2.77484">
        <ele>65</ele>
        <time>2023-08-09T09:01:32.119+00:00</time>
      </trkpt>
      <trkpt lat="48.31701" lon="2.77489">
        <ele>65</ele>
        <time>2023-08-09T09:01:36.133+00:00</time>
      </trkpt>
      <trkpt lat="48.31703" lon="2.77497">
        <ele>65</ele>
        <time>2023-08-09T09:01:40.158+00:00</time>
      </trkpt>
      <trkpt lat="48.31707" lon="2.77507">
        <ele>65</ele>
        <time>2023-08-09T09:01:45.161+00:00</time>
      </trkpt>
      <trkpt lat="48.31712" lon="2.77518">
        <ele>60</ele>
        <time>2023-08-09T09:01:50.118+00:00</time>
      </trkpt>
      <trkpt lat="48.31711" lon="2.77519">
        <ele>60</ele>
        <time>2023-08-09T09:04:23.122+00:00</time>
      </trkpt>
      <trkpt lat="48.31711" lon="2.77519">
        <ele>60</ele>
        <time>2023-08-09T09:04:27.124+00:00</time>
      </trkpt>
      <trkpt lat="48.31711" lon="2.77519">
        <ele>60</ele>
        <time>2023-08-09T09:04:31.122+00:00</time>
      </trkpt>
      <trkpt lat="48.3171" lon="2.77519">
        <ele>60</ele>
        <time>2023-08-09T09:04:35.153+00:00</time>
      </trkpt>
      <trkpt lat="48.31709" lon="2.77512">
        <ele>64</ele>
        <time>2023-08-09T09:04:40.133+00:00</time>
      </trkpt>
      <trkpt lat="48.31707" lon="2.77504">
        <ele>65</ele>
        <time>2023-08-09T09:04:44.136+00:00</time>
      </trkpt>
      <trkpt lat="48.31706" lon="2.77497">
        <ele>65</ele>
        <time>2023-08-09T09:04:49.125+00:00</time>
      </trkpt>
      <trkpt lat="48.31705" lon="2.77491">
        <ele>65</ele>
        <time>2023-08-09T09:04:53.154+00:00</time>
      </trkpt>
      <trkpt lat="48.31702" lon="2.77483">
        <ele>65</ele>
        <time>2023-08-09T09:04:58.138+00:00</time>
      </trkpt>
      <trkpt lat="48.317" lon="2.77474">
        <ele>65</ele>
        <time>2023-08-09T09:05:03.128+00:00</time>
      </trkpt>
      <trkpt lat="48.31698" lon="2.77466">
        <ele>65</ele>
        <time>2023-08-09T09:05:07.128+00:00</time>
      </trkpt>
      <trkpt lat="48.31695" lon="2.77457">
        <ele>65</ele>
        <time>2023-08-09T09:05:11.144+00:00</time>
      </trkpt>
      <trkpt lat="48.31691" lon="2.7745">
        <ele>65</ele>
        <time>2023-08-09T09:05:16.149+00:00</time>
      </trkpt>
      <trkpt lat="48.31688" lon="2.77441">
        <ele>65</ele>
        <time>2023-08-09T09:05:21.133+00:00</time>
      </trkpt>
      <trkpt lat="48.31686" lon="2.77437">
        <ele>65</ele>
        <time>2023-08-09T09:05:25.160+00:00</time>
      </trkpt>
      <trkpt lat="48.31684" lon="2.77429">
        <ele>63</ele>
        <time>2023-08-09T09:05:30.144+00:00</time>
      </trkpt>
      <trkpt lat="48.31682" lon="2.7742">
        <ele>63</ele>
        <time>2023-08-09T09:05:35.125+00:00</time>
      </trkpt>
      <trkpt lat="48.3168" lon="2.77412">
        <ele>65</ele>
        <time>2023-08-09T09:05:39.151+00:00</time>
      </trkpt>
      <trkpt lat="48.31677" lon="2.77401">
        <ele>64</ele>
        <time>2023-08-09T09:05:44.138+00:00</time>
      </trkpt>
      <trkpt lat="48.31676" lon="2.77392">
        <ele>64</ele>
        <time>2023-08-09T09:05:48.152+00:00</time>
      </trkpt>
      <trkpt lat="48.31674" lon="2.77387">
        <ele>64</ele>
        <time>2023-08-09T09:05:52.150+00:00</time>
      </trkpt>
      <trkpt lat="48.31671" lon="2.7738">
        <ele>64</ele>
        <time>2023-08-09T09:05:57.144+00:00</time>
      </trkpt>
      <trkpt lat="48.31669" lon="2.77371">
        <ele>62</ele>
        <time>2023-08-09T09:06:01.153+00:00</time>
      </trkpt>
      <trkpt lat="48.31665" lon="2.77358">
        <ele>62</ele>
        <time>2023-08-09T09:06:06.156+00:00</time>
      </trkpt>
      <trkpt lat="48.3166" lon="2.77349">
        <ele>62</ele>
        <time>2023-08-09T09:06:11.145+00:00</time>
      </trkpt>
      <trkpt lat="48.31656" lon="2.77339">
        <ele>60</ele>
        <time>2023-08-09T09:06:16.136+00:00</time>
      </trkpt>
      <trkpt lat="48.31651" lon="2.77329">
        <ele>63</ele>
        <time>2023-08-09T09:06:21.105+00:00</time>
      </trkpt>
      <trkpt lat="48.31648" lon="2.77321">
        <ele>63</ele>
        <time>2023-08-09T09:06:25.152+00:00</time>
      </trkpt>
      <trkpt lat="48.31641" lon="2.77313">
        <ele>61</ele>
        <time>2023-08-09T09:06:30.154+00:00</time>
      </trkpt>
      <trkpt lat="48.31632" lon="2.7731">
        <ele>61</ele>
        <time>2023-08-09T09:06:35.125+00:00</time>
      </trkpt>
      <trkpt lat="48.31626" lon="2.77307">
        <ele>61</ele>
        <time>2023-08-09T09:06:39.135+00:00</time>
      </trkpt>
      <trkpt lat="48.31619" lon="2.77307">
        <ele>60</ele>
        <time>2023-08-09T09:06:43.164+00:00</time>
      </trkpt>
      <trkpt lat="48.31613" lon="2.77306">
        <ele>60</ele>
        <time>2023-08-09T09:06:47.157+00:00</time>
      </trkpt>
      <trkpt lat="48.31607" lon="2.77306">
        <ele>60</ele>
        <time>2023-08-09T09:06:52.110+00:00</time>
      </trkpt>
      <trkpt lat="48.31601" lon="2.77306">
        <ele>60</ele>
        <time>2023-08-09T09:06:57.161+00:00</time>
      </trkpt>
      <trkpt lat="48.31595" lon="2.77304">
        <ele>59</ele>
        <time>2023-08-09T09:07:02.154+00:00</time>
      </trkpt>
      <trkpt lat="48.3159" lon="2.77302">
        <ele>59</ele>
        <time>2023-08-09T09:07:07.155+00:00</time>
      </trkpt>
      <trkpt lat="48.31584" lon="2.77302">
        <ele>59</ele>
        <time>2023-08-09T09:07:12.156+00:00</time>
      </trkpt>
      <trkpt lat="48.31577" lon="2.77301">
        <ele>59</ele>
        <time>2023-08-09T09:07:17.165+00:00</time>
      </trkpt>
      <trkpt lat="48.3157" lon="2.77301">
        <ele>59</ele>
        <time>2023-08-09T09:07:22.159+00:00</time>
      </trkpt>
      <trkpt lat="48.31564" lon="2.773">
        <ele>58</ele>
        <time>2023-08-09T09:07:27.160+00:00</time>
      </trkpt>
      <trkpt lat="48.31557" lon="2.77301">
        <ele>58</ele>
        <time>2023-08-09T09:07:32.123+00:00</time>
      </trkpt>
      <trkpt lat="48.3155" lon="2.773">
        <ele>58</ele>
        <time>2023-08-09T09:07:37.139+00:00</time>
      </trkpt>
      <trkpt lat="48.31543" lon="2.77299">
        <ele>58</ele>
        <time>2023-08-09T09:07:42.135+00:00</time>
      </trkpt>
      <trkpt lat="48.31537" lon="2.773">
        <ele>59</ele>
        <time>2023-08-09T09:07:46.039+00:00</time>
      </trkpt>
      <trkpt lat="48.3153" lon="2.77301">
        <ele>59</ele>
        <time>2023-08-09T09:07:50.158+00:00</time>
      </trkpt>
      <trkpt lat="48.31524" lon="2.77302">
        <ele>59</ele>
        <time>2023-08-09T09:07:55.149+00:00</time>
      </trkpt>
      <trkpt lat="48.31519" lon="2.77302">
        <ele>59</ele>
        <time>2023-08-09T09:07:59.137+00:00</time>
      </trkpt>
      <trkpt lat="48.31513" lon="2.77301">
        <ele>61</ele>
        <time>2023-08-09T09:08:04.137+00:00</time>
      </trkpt>
      <trkpt lat="48.31508" lon="2.773">
        <ele>61</ele>
        <time>2023-08-09T09:08:08.151+00:00</time>
      </trkpt>
      <trkpt lat="48.31498" lon="2.77296">
        <ele>61</ele>
        <time>2023-08-09T09:08:13.136+00:00</time>
      </trkpt>
      <trkpt lat="48.31494" lon="2.77296">
        <ele>61</ele>
        <time>2023-08-09T09:08:17.161+00:00</time>
      </trkpt>
      <trkpt lat="48.3149" lon="2.77298">
        <ele>61</ele>
        <time>2023-08-09T09:08:22.151+00:00</time>
      </trkpt>
      <trkpt lat="48.31488" lon="2.77299">
        <ele>61</ele>
        <time>2023-08-09T09:08:24.097+00:00</time>
      </trkpt>
      <trkpt lat="48.31483" lon="2.77304">
        <ele>64</ele>
        <time>2023-08-09T09:08:31.101+00:00</time>
      </trkpt>
      <trkpt lat="48.3148" lon="2.77303">
        <ele>64</ele>
        <time>2023-08-09T09:08:35.133+00:00</time>
      </trkpt>
      <trkpt lat="48.31477" lon="2.77297">
        <ele>64</ele>
        <time>2023-08-09T09:08:40.112+00:00</time>
      </trkpt>
      <trkpt lat="48.31471" lon="2.77298">
        <ele>64</ele>
        <time>2023-08-09T09:08:45.129+00:00</time>
      </trkpt>
      <trkpt lat="48.31464" lon="2.77298">
        <ele>64</ele>
        <time>2023-08-09T09:08:50.102+00:00</time>
      </trkpt>
      <trkpt lat="48.31459" lon="2.77297">
        <ele>64</ele>
        <time>2023-08-09T09:08:54.099+00:00</time>
      </trkpt>
      <trkpt lat="48.31455" lon="2.77296">
        <ele>66</ele>
        <time>2023-08-09T09:08:58.106+00:00</time>
      </trkpt>
      <trkpt lat="48.31451" lon="2.77296">
        <ele>66</ele>
        <time>2023-08-09T09:09:03.103+00:00</time>
      </trkpt>
      <trkpt lat="48.31446" lon="2.77295">
        <ele>66</ele>
        <time>2023-08-09T09:09:07.110+00:00</time>
      </trkpt>
      <trkpt lat="48.31443" lon="2.77293">
        <ele>66</ele>
        <time>2023-08-09T09:09:11.109+00:00</time>
      </trkpt>
      <trkpt lat="48.31437" lon="2.77293">
        <ele>66</ele>
        <time>2023-08-09T09:09:16.099+00:00</time>
      </trkpt>
      <trkpt lat="48.31431" lon="2.77296">
        <ele>66</ele>
        <time>2023-08-09T09:09:20.139+00:00</time>
      </trkpt>
      <trkpt lat="48.31427" lon="2.77296">
        <ele>68</ele>
        <time>2023-08-09T09:09:24.135+00:00</time>
      </trkpt>
      <trkpt lat="48.31421" lon="2.77295">
        <ele>68</ele>
        <time>2023-08-09T09:09:29.136+00:00</time>
      </trkpt>
      <trkpt lat="48.31416" lon="2.77294">
        <ele>68</ele>
        <time>2023-08-09T09:09:34.120+00:00</time>
      </trkpt>
      <trkpt lat="48.31409" lon="2.77294">
        <ele>68</ele>
        <time>2023-08-09T09:09:39.141+00:00</time>
      </trkpt>
      <trkpt lat="48.31404" lon="2.77298">
        <ele>68</ele>
        <time>2023-08-09T09:09:43.126+00:00</time>
      </trkpt>
      <trkpt lat="48.31399" lon="2.77303">
        <ele>69</ele>
        <time>2023-08-09T09:09:47.138+00:00</time>
      </trkpt>
      <trkpt lat="48.31394" lon="2.77304">
        <ele>69</ele>
        <time>2023-08-09T09:09:52.114+00:00</time>
      </trkpt>
      <trkpt lat="48.31389" lon="2.77305">
        <ele>69</ele>
        <time>2023-08-09T09:09:56.128+00:00</time>
      </trkpt>
      <trkpt lat="48.31384" lon="2.77307">
        <ele>69</ele>
        <time>2023-08-09T09:10:00.135+00:00</time>
      </trkpt>
      <trkpt lat="48.31378" lon="2.7731">
        <ele>69</ele>
        <time>2023-08-09T09:10:05.133+00:00</time>
      </trkpt>
      <trkpt lat="48.31372" lon="2.77315">
        <ele>71</ele>
        <time>2023-08-09T09:10:09.145+00:00</time>
      </trkpt>
      <trkpt lat="48.31366" lon="2.7732">
        <ele>69</ele>
        <time>2023-08-09T09:10:13.147+00:00</time>
      </trkpt>
      <trkpt lat="48.31361" lon="2.77321">
        <ele>69</ele>
        <time>2023-08-09T09:10:18.131+00:00</time>
      </trkpt>
      <trkpt lat="48.31356" lon="2.77324">
        <ele>69</ele>
        <time>2023-08-09T09:10:23.142+00:00</time>
      </trkpt>
      <trkpt lat="48.31352" lon="2.77329">
        <ele>69</ele>
        <time>2023-08-09T09:10:28.163+00:00</time>
      </trkpt>
      <trkpt lat="48.31349" lon="2.77332">
        <ele>69</ele>
        <time>2023-08-09T09:10:33.145+00:00</time>
      </trkpt>
      <trkpt lat="48.31348" lon="2.77336">
        <ele>69</ele>
        <time>2023-08-09T09:10:38.141+00:00</time>
      </trkpt>
      <trkpt lat="48.31347" lon="2.77338">
        <ele>69</ele>
        <time>2023-08-09T09:10:42.141+00:00</time>
      </trkpt>
      <trkpt lat="48.31347" lon="2.77338">
        <ele>69</ele>
        <time>2023-08-09T09:10:46.151+00:00</time>
      </trkpt>
      <trkpt lat="48.31342" lon="2.77342">
        <ele>69</ele>
        <time>2023-08-09T09:10:51.109+00:00</time>
      </trkpt>
      <trkpt lat="48.31335" lon="2.77343">
        <ele>69</ele>
        <time>2023-08-09T09:10:55.132+00:00</time>
      </trkpt>
      <trkpt lat="48.3133" lon="2.77347">
        <ele>69</ele>
        <time>2023-08-09T09:10:59.133+00:00</time>
      </trkpt>
      <trkpt lat="48.31324" lon="2.77353">
        <ele>69</ele>
        <time>2023-08-09T09:11:04.142+00:00</time>
      </trkpt>
      <trkpt lat="48.31317" lon="2.77358">
        <ele>69</ele>
        <time>2023-08-09T09:11:09.146+00:00</time>
      </trkpt>
      <trkpt lat="48.3131" lon="2.77361">
        <ele>69</ele>
        <time>2023-08-09T09:11:14.118+00:00</time>
      </trkpt>
      <trkpt lat="48.31304" lon="2.77363">
        <ele>69</ele>
        <time>2023-08-09T09:11:18.126+00:00</time>
      </trkpt>
      <trkpt lat="48.31297" lon="2.77367">
        <ele>69</ele>
        <time>2023-08-09T09:11:23.127+00:00</time>
      </trkpt>
      <trkpt lat="48.3129" lon="2.77373">
        <ele>68</ele>
        <time>2023-08-09T09:11:28.133+00:00</time>
      </trkpt>
      <trkpt lat="48.31284" lon="2.77375">
        <ele>68</ele>
        <time>2023-08-09T09:11:32.121+00:00</time>
      </trkpt>
      <trkpt lat="48.31276" lon="2.77381">
        <ele>68</ele>
        <time>2023-08-09T09:11:37.137+00:00</time>
      </trkpt>
      <trkpt lat="48.3127" lon="2.77385">
        <ele>68</ele>
        <time>2023-08-09T09:11:42.131+00:00</time>
      </trkpt>
      <trkpt lat="48.31263" lon="2.77391">
        <ele>68</ele>
        <time>2023-08-09T09:11:47.124+00:00</time>
      </trkpt>
      <trkpt lat="48.31256" lon="2.77394">
        <ele>68</ele>
        <time>2023-08-09T09:11:52.121+00:00</time>
      </trkpt>
      <trkpt lat="48.31249" lon="2.77399">
        <ele>68</ele>
        <time>2023-08-09T09:11:57.115+00:00</time>
      </trkpt>
      <trkpt lat="48.31244" lon="2.77402">
        <ele>68</ele>
        <time>2023-08-09T09:12:01.133+00:00</time>
      </trkpt>
      <trkpt lat="48.31238" lon="2.77408">
        <ele>69</ele>
        <time>2023-08-09T09:12:06.119+00:00</time>
      </trkpt>
      <trkpt lat="48.31231" lon="2.77413">
        <ele>68</ele>
        <time>2023-08-09T09:12:11.132+00:00</time>
      </trkpt>
      <trkpt lat="48.31224" lon="2.77416">
        <ele>68</ele>
        <time>2023-08-09T09:12:16.117+00:00</time>
      </trkpt>
      <trkpt lat="48.31216" lon="2.77419">
        <ele>68</ele>
        <time>2023-08-09T09:12:20.127+00:00</time>
      </trkpt>
      <trkpt lat="48.31209" lon="2.7742">
        <ele>68</ele>
        <time>2023-08-09T09:12:25.117+00:00</time>
      </trkpt>
      <trkpt lat="48.31203" lon="2.77424">
        <ele>70</ele>
        <time>2023-08-09T09:12:30.141+00:00</time>
      </trkpt>
      <trkpt lat="48.31199" lon="2.77428">
        <ele>70</ele>
        <time>2023-08-09T09:12:35.120+00:00</time>
      </trkpt>
      <trkpt lat="48.31195" lon="2.77432">
        <ele>70</ele>
        <time>2023-08-09T09:12:39.130+00:00</time>
      </trkpt>
      <trkpt lat="48.31189" lon="2.77441">
        <ele>70</ele>
        <time>2023-08-09T09:12:44.130+00:00</time>
      </trkpt>
      <trkpt lat="48.31183" lon="2.77444">
        <ele>70</ele>
        <time>2023-08-09T09:12:48.145+00:00</time>
      </trkpt>
      <trkpt lat="48.31178" lon="2.77449">
        <ele>71</ele>
        <time>2023-08-09T09:12:53.137+00:00</time>
      </trkpt>
      <trkpt lat="48.3117" lon="2.77453">
        <ele>71</ele>
        <time>2023-08-09T09:12:58.118+00:00</time>
      </trkpt>
      <trkpt lat="48.31159" lon="2.77455">
        <ele>71</ele>
        <time>2023-08-09T09:13:03.121+00:00</time>
      </trkpt>
      <trkpt lat="48.31153" lon="2.77457">
        <ele>70</ele>
        <time>2023-08-09T09:13:07.129+00:00</time>
      </trkpt>
      <trkpt lat="48.31144" lon="2.77458">
        <ele>70</ele>
        <time>2023-08-09T09:13:12.139+00:00</time>
      </trkpt>
      <trkpt lat="48.31138" lon="2.77462">
        <ele>69</ele>
        <time>2023-08-09T09:13:16.141+00:00</time>
      </trkpt>
      <trkpt lat="48.31131" lon="2.77467">
        <ele>69</ele>
        <time>2023-08-09T09:13:21.112+00:00</time>
      </trkpt>
      <trkpt lat="48.31125" lon="2.7747">
        <ele>67</ele>
        <time>2023-08-09T09:13:25.138+00:00</time>
      </trkpt>
      <trkpt lat="48.31119" lon="2.77474">
        <ele>67</ele>
        <time>2023-08-09T09:13:29.134+00:00</time>
      </trkpt>
      <trkpt lat="48.31113" lon="2.77476">
        <ele>67</ele>
        <time>2023-08-09T09:13:34.134+00:00</time>
      </trkpt>
      <trkpt lat="48.31108" lon="2.7748">
        <ele>67</ele>
        <time>2023-08-09T09:13:38.148+00:00</time>
      </trkpt>
      <trkpt lat="48.31101" lon="2.77482">
        <ele>67</ele>
        <time>2023-08-09T09:13:43.128+00:00</time>
      </trkpt>
      <trkpt lat="48.31093" lon="2.77486">
        <ele>67</ele>
        <time>2023-08-09T09:13:48.129+00:00</time>
      </trkpt>
      <trkpt lat="48.31085" lon="2.7749">
        <ele>66</ele>
        <time>2023-08-09T09:13:53.127+00:00</time>
      </trkpt>
      <trkpt lat="48.31076" lon="2.77495">
        <ele>66</ele>
        <time>2023-08-09T09:13:58.133+00:00</time>
      </trkpt>
      <trkpt lat="48.3107" lon="2.77499">
        <ele>66</ele>
        <time>2023-08-09T09:14:02.131+00:00</time>
      </trkpt>
      <trkpt lat="48.31065" lon="2.77502">
        <ele>67</ele>
        <time>2023-08-09T09:14:06.135+00:00</time>
      </trkpt>
      <trkpt lat="48.31058" lon="2.77506">
        <ele>67</ele>
        <time>2023-08-09T09:14:11.125+00:00</time>
      </trkpt>
      <trkpt lat="48.31051" lon="2.77511">
        <ele>67</ele>
        <time>2023-08-09T09:14:16.148+00:00</time>
      </trkpt>
      <trkpt lat="48.31045" lon="2.77513">
        <ele>67</ele>
        <time>2023-08-09T09:14:21.122+00:00</time>
      </trkpt>
      <trkpt lat="48.31039" lon="2.77516">
        <ele>66</ele>
        <time>2023-08-09T09:14:25.136+00:00</time>
      </trkpt>
      <trkpt lat="48.31033" lon="2.77519">
        <ele>66</ele>
        <time>2023-08-09T09:14:30.159+00:00</time>
      </trkpt>
      <trkpt lat="48.31027" lon="2.77521">
        <ele>66</ele>
        <time>2023-08-09T09:14:35.128+00:00</time>
      </trkpt>
      <trkpt lat="48.31021" lon="2.77525">
        <ele>66</ele>
        <time>2023-08-09T09:14:39.150+00:00</time>
      </trkpt>
      <trkpt lat="48.31014" lon="2.77527">
        <ele>66</ele>
        <time>2023-08-09T09:14:44.142+00:00</time>
      </trkpt>
      <trkpt lat="48.31009" lon="2.77529">
        <ele>63</ele>
        <time>2023-08-09T09:14:48.143+00:00</time>
      </trkpt>
      <trkpt lat="48.31003" lon="2.77534">
        <ele>63</ele>
        <time>2023-08-09T09:14:53.135+00:00</time>
      </trkpt>
      <trkpt lat="48.30996" lon="2.77538">
        <ele>63</ele>
        <time>2023-08-09T09:14:58.151+00:00</time>
      </trkpt>
      <trkpt lat="48.30987" lon="2.77541">
        <ele>63</ele>
        <time>2023-08-09T09:15:03.126+00:00</time>
      </trkpt>
      <trkpt lat="48.30982" lon="2.77543">
        <ele>62</ele>
        <time>2023-08-09T09:15:07.128+00:00</time>
      </trkpt>
      <trkpt lat="48.30974" lon="2.77544">
        <ele>62</ele>
        <time>2023-08-09T09:15:12.144+00:00</time>
      </trkpt>
      <trkpt lat="48.30968" lon="2.77543">
        <ele>62</ele>
        <time>2023-08-09T09:15:16.164+00:00</time>
      </trkpt>
      <trkpt lat="48.30959" lon="2.77544">
        <ele>62</ele>
        <time>2023-08-09T09:15:21.118+00:00</time>
      </trkpt>
      <trkpt lat="48.30952" lon="2.77546">
        <ele>61</ele>
        <time>2023-08-09T09:15:26.107+00:00</time>
      </trkpt>
      <trkpt lat="48.30949" lon="2.77549">
        <ele>61</ele>
        <time>2023-08-09T09:15:31.118+00:00</time>
      </trkpt>
      <trkpt lat="48.30937" lon="2.77549">
        <ele>61</ele>
        <time>2023-08-09T09:15:36.110+00:00</time>
      </trkpt>
      <trkpt lat="48.30928" lon="2.77546">
        <ele>60</ele>
        <time>2023-08-09T09:15:41.099+00:00</time>
      </trkpt>
      <trkpt lat="48.30922" lon="2.77545">
        <ele>60</ele>
        <time>2023-08-09T09:15:45.114+00:00</time>
      </trkpt>
      <trkpt lat="48.30918" lon="2.77544">
        <ele>60</ele>
        <time>2023-08-09T09:15:49.106+00:00</time>
      </trkpt>
      <trkpt lat="48.30913" lon="2.77545">
        <ele>60</ele>
        <time>2023-08-09T09:15:54.113+00:00</time>
      </trkpt>
      <trkpt lat="48.30912" lon="2.77546">
        <ele>60</ele>
        <time>2023-08-09T09:15:59.104+00:00</time>
      </trkpt>
      <trkpt lat="48.30908" lon="2.77547">
        <ele>60</ele>
        <time>2023-08-09T09:16:03.105+00:00</time>
      </trkpt>
      <trkpt lat="48.30902" lon="2.77547">
        <ele>62</ele>
        <time>2023-08-09T09:16:08.107+00:00</time>
      </trkpt>
      <trkpt lat="48.30898" lon="2.7755">
        <ele>62</ele>
        <time>2023-08-09T09:16:13.103+00:00</time>
      </trkpt>
      <trkpt lat="48.30893" lon="2.77552">
        <ele>62</ele>
        <time>2023-08-09T09:16:17.102+00:00</time>
      </trkpt>
      <trkpt lat="48.30887" lon="2.77553">
        <ele>62</ele>
        <time>2023-08-09T09:16:22.106+00:00</time>
      </trkpt>
      <trkpt lat="48.30883" lon="2.77552">
        <ele>62</ele>
        <time>2023-08-09T09:16:27.130+00:00</time>
      </trkpt>
      <trkpt lat="48.30883" lon="2.77551">
        <ele>62</ele>
        <time>2023-08-09T09:16:28.120+00:00</time>
      </trkpt>
      <trkpt lat="48.30881" lon="2.77552">
        <ele>62</ele>
        <time>2023-08-09T09:16:36.104+00:00</time>
      </trkpt>
      <trkpt lat="48.30882" lon="2.77544">
        <ele>62</ele>
        <time>2023-08-09T09:16:41.112+00:00</time>
      </trkpt>
      <trkpt lat="48.3088" lon="2.77535">
        <ele>61</ele>
        <time>2023-08-09T09:16:45.127+00:00</time>
      </trkpt>
      <trkpt lat="48.30881" lon="2.77527">
        <ele>61</ele>
        <time>2023-08-09T09:16:49.119+00:00</time>
      </trkpt>
      <trkpt lat="48.3088" lon="2.77516">
        <ele>61</ele>
        <time>2023-08-09T09:16:54.126+00:00</time>
      </trkpt>
      <trkpt lat="48.30881" lon="2.7751">
        <ele>61</ele>
        <time>2023-08-09T09:16:58.113+00:00</time>
      </trkpt>
      <trkpt lat="48.30883" lon="2.77502">
        <ele>61</ele>
        <time>2023-08-09T09:17:02.582+00:00</time>
      </trkpt>
      <trkpt lat="48.30885" lon="2.77492">
        <ele>61</ele>
        <time>2023-08-09T09:17:07.115+00:00</time>
      </trkpt>
      <trkpt lat="48.30887" lon="2.77486">
        <ele>61</ele>
        <time>2023-08-09T09:17:11.146+00:00</time>
      </trkpt>
      <trkpt lat="48.30888" lon="2.77475">
        <ele>61</ele>
        <time>2023-08-09T09:17:16.108+00:00</time>
      </trkpt>
      <trkpt lat="48.30891" lon="2.77468">
        <ele>61</ele>
        <time>2023-08-09T09:17:20.133+00:00</time>
      </trkpt>
      <trkpt lat="48.30893" lon="2.77465">
        <ele>61</ele>
        <time>2023-08-09T09:17:24.129+00:00</time>
      </trkpt>
      <trkpt lat="48.30895" lon="2.77454">
        <ele>64</ele>
        <time>2023-08-09T09:17:29.128+00:00</time>
      </trkpt>
      <trkpt lat="48.30897" lon="2.77443">
        <ele>64</ele>
        <time>2023-08-09T09:17:34.142+00:00</time>
      </trkpt>
      <trkpt lat="48.30897" lon="2.77432">
        <ele>64</ele>
        <time>2023-08-09T09:17:39.141+00:00</time>
      </trkpt>
      <trkpt lat="48.30897" lon="2.7742">
        <ele>66</ele>
        <time>2023-08-09T09:17:44.118+00:00</time>
      </trkpt>
      <trkpt lat="48.30898" lon="2.77413">
        <ele>66</ele>
        <time>2023-08-09T09:17:48.138+00:00</time>
      </trkpt>
      <trkpt lat="48.30898" lon="2.77404">
        <ele>66</ele>
        <time>2023-08-09T09:17:53.144+00:00</time>
      </trkpt>
      <trkpt lat="48.30897" lon="2.77395">
        <ele>66</ele>
        <time>2023-08-09T09:17:57.143+00:00</time>
      </trkpt>
      <trkpt lat="48.30897" lon="2.77382">
        <ele>66</ele>
        <time>2023-08-09T09:18:02.134+00:00</time>
      </trkpt>
      <trkpt lat="48.30896" lon="2.77372">
        <ele>66</ele>
        <time>2023-08-09T09:18:07.112+00:00</time>
      </trkpt>
      <trkpt lat="48.30898" lon="2.77365">
        <ele>66</ele>
        <time>2023-08-09T09:18:11.122+00:00</time>
      </trkpt>
      <trkpt lat="48.309" lon="2.77359">
        <ele>66</ele>
        <time>2023-08-09T09:18:16.150+00:00</time>
      </trkpt>
      <trkpt lat="48.30897" lon="2.77358">
        <ele>66</ele>
        <time>2023-08-09T09:18:21.109+00:00</time>
      </trkpt>
      <trkpt lat="48.30896" lon="2.7736">
        <ele>66</ele>
        <time>2023-08-09T09:18:25.158+00:00</time>
      </trkpt>
      <trkpt lat="48.30891" lon="2.77359">
        <ele>66</ele>
        <time>2023-08-09T09:18:30.139+00:00</time>
      </trkpt>
      <trkpt lat="48.30888" lon="2.77358">
        <ele>66</ele>
        <time>2023-08-09T09:18:34.129+00:00</time>
      </trkpt>
      <trkpt lat="48.30883" lon="2.7736">
        <ele>66</ele>
        <time>2023-08-09T09:18:38.125+00:00</time>
      </trkpt>
      <trkpt lat="48.30877" lon="2.77362">
        <ele>66</ele>
        <time>2023-08-09T09:18:43.133+00:00</time>
      </trkpt>
      <trkpt lat="48.30873" lon="2.77364">
        <ele>73</ele>
        <time>2023-08-09T09:18:48.116+00:00</time>
      </trkpt>
      <trkpt lat="48.30868" lon="2.77367">
        <ele>73</ele>
        <time>2023-08-09T09:18:53.146+00:00</time>
      </trkpt>
      <trkpt lat="48.30865" lon="2.77368">
        <ele>73</ele>
        <time>2023-08-09T09:18:57.146+00:00</time>
      </trkpt>
      <trkpt lat="48.30858" lon="2.7737">
        <ele>73</ele>
        <time>2023-08-09T09:19:02.113+00:00</time>
      </trkpt>
      <trkpt lat="48.30853" lon="2.7737">
        <ele>73</ele>
        <time>2023-08-09T09:19:06.138+00:00</time>
      </trkpt>
      <trkpt lat="48.30847" lon="2.7737">
        <ele>74</ele>
        <time>2023-08-09T09:19:10.134+00:00</time>
      </trkpt>
      <trkpt lat="48.30843" lon="2.77371">
        <ele>74</ele>
        <time>2023-08-09T09:19:14.130+00:00</time>
      </trkpt>
      <trkpt lat="48.30839" lon="2.77373">
        <ele>74</ele>
        <time>2023-08-09T09:19:19.138+00:00</time>
      </trkpt>
      <trkpt lat="48.30834" lon="2.77373">
        <ele>74</ele>
        <time>2023-08-09T09:19:23.138+00:00</time>
      </trkpt>
      <trkpt lat="48.3083" lon="2.77373">
        <ele>74</ele>
        <time>2023-08-09T09:19:27.150+00:00</time>
      </trkpt>
      <trkpt lat="48.30824" lon="2.77375">
        <ele>75</ele>
        <time>2023-08-09T09:19:32.110+00:00</time>
      </trkpt>
      <trkpt lat="48.30819" lon="2.77376">
        <ele>76</ele>
        <time>2023-08-09T09:19:36.124+00:00</time>
      </trkpt>
      <trkpt lat="48.30814" lon="2.77377">
        <ele>76</ele>
        <time>2023-08-09T09:19:41.122+00:00</time>
      </trkpt>
      <trkpt lat="48.3081" lon="2.7738">
        <ele>76</ele>
        <time>2023-08-09T09:19:45.150+00:00</time>
      </trkpt>
      <trkpt lat="48.30803" lon="2.77381">
        <ele>76</ele>
        <time>2023-08-09T09:19:50.110+00:00</time>
      </trkpt>
      <trkpt lat="48.30799" lon="2.77382">
        <ele>76</ele>
        <time>2023-08-09T09:19:54.130+00:00</time>
      </trkpt>
      <trkpt lat="48.30793" lon="2.77382">
        <ele>76</ele>
        <time>2023-08-09T09:19:58.130+00:00</time>
      </trkpt>
      <trkpt lat="48.30789" lon="2.77384">
        <ele>79</ele>
        <time>2023-08-09T09:20:02.126+00:00</time>
      </trkpt>
      <trkpt lat="48.30783" lon="2.77386">
        <ele>79</ele>
        <time>2023-08-09T09:20:07.144+00:00</time>
      </trkpt>
      <trkpt lat="48.3078" lon="2.77387">
        <ele>79</ele>
        <time>2023-08-09T09:20:11.149+00:00</time>
      </trkpt>
      <trkpt lat="48.30777" lon="2.77389">
        <ele>79</ele>
        <time>2023-08-09T09:20:15.158+00:00</time>
      </trkpt>
      <trkpt lat="48.30771" lon="2.7739">
        <ele>79</ele>
        <time>2023-08-09T09:20:20.133+00:00</time>
      </trkpt>
      <trkpt lat="48.30766" lon="2.77392">
        <ele>79</ele>
        <time>2023-08-09T09:20:24.134+00:00</time>
      </trkpt>
      <trkpt lat="48.3076" lon="2.77395">
        <ele>79</ele>
        <time>2023-08-09T09:20:29.122+00:00</time>
      </trkpt>
      <trkpt lat="48.30757" lon="2.77396">
        <ele>79</ele>
        <time>2023-08-09T09:20:33.138+00:00</time>
      </trkpt>
      <trkpt lat="48.30752" lon="2.77398">
        <ele>79</ele>
        <time>2023-08-09T09:20:38.111+00:00</time>
      </trkpt>
      <trkpt lat="48.30747" lon="2.77399">
        <ele>79</ele>
        <time>2023-08-09T09:20:43.116+00:00</time>
      </trkpt>
      <trkpt lat="48.30741" lon="2.77401">
        <ele>79</ele>
        <time>2023-08-09T09:20:47.137+00:00</time>
      </trkpt>
      <trkpt lat="48.30735" lon="2.77401">
        <ele>78</ele>
        <time>2023-08-09T09:20:51.164+00:00</time>
      </trkpt>
      <trkpt lat="48.30729" lon="2.77404">
        <ele>80</ele>
        <time>2023-08-09T09:20:56.126+00:00</time>
      </trkpt>
      <trkpt lat="48.30723" lon="2.77405">
        <ele>80</ele>
        <time>2023-08-09T09:21:00.139+00:00</time>
      </trkpt>
      <trkpt lat="48.30715" lon="2.77408">
        <ele>80</ele>
        <time>2023-08-09T09:21:05.122+00:00</time>
      </trkpt>
      <trkpt lat="48.30706" lon="2.77412">
        <ele>80</ele>
        <time>2023-08-09T09:21:10.121+00:00</time>
      </trkpt>
      <trkpt lat="48.30701" lon="2.77415">
        <ele>80</ele>
        <time>2023-08-09T09:21:15.150+00:00</time>
      </trkpt>
      <trkpt lat="48.30696" lon="2.77417">
        <ele>80</ele>
        <time>2023-08-09T09:21:20.126+00:00</time>
      </trkpt>
      <trkpt lat="48.30692" lon="2.77417">
        <ele>80</ele>
        <time>2023-08-09T09:21:24.131+00:00</time>
      </trkpt>
      <trkpt lat="48.30686" lon="2.77416">
        <ele>80</ele>
        <time>2023-08-09T09:21:29.142+00:00</time>
      </trkpt>
      <trkpt lat="48.30681" lon="2.77417">
        <ele>80</ele>
        <time>2023-08-09T09:21:33.148+00:00</time>
      </trkpt>
      <trkpt lat="48.30674" lon="2.77416">
        <ele>80</ele>
        <time>2023-08-09T09:21:37.172+00:00</time>
      </trkpt>
      <trkpt lat="48.30668" lon="2.77416">
        <ele>80</ele>
        <time>2023-08-09T09:21:42.117+00:00</time>
      </trkpt>
      <trkpt lat="48.30664" lon="2.77416">
        <ele>80</ele>
        <time>2023-08-09T09:21:46.132+00:00</time>
      </trkpt>
      <trkpt lat="48.30658" lon="2.77417">
        <ele>80</ele>
        <time>2023-08-09T09:21:50.133+00:00</time>
      </trkpt>
      <trkpt lat="48.30653" lon="2.77416">
        <ele>80</ele>
        <time>2023-08-09T09:21:55.146+00:00</time>
      </trkpt>
      <trkpt lat="48.30648" lon="2.77416">
        <ele>79</ele>
        <time>2023-08-09T09:21:59.137+00:00</time>
      </trkpt>
      <trkpt lat="48.30642" lon="2.77416">
        <ele>79</ele>
        <time>2023-08-09T09:22:03.162+00:00</time>
      </trkpt>
      <trkpt lat="48.30635" lon="2.77416">
        <ele>79</ele>
        <time>2023-08-09T09:22:08.125+00:00</time>
      </trkpt>
      <trkpt lat="48.30631" lon="2.77416">
        <ele>79</ele>
        <time>2023-08-09T09:22:12.134+00:00</time>
      </trkpt>
      <trkpt lat="48.30624" lon="2.77416">
        <ele>80</ele>
        <time>2023-08-09T09:22:17.128+00:00</time>
      </trkpt>
      <trkpt lat="48.30617" lon="2.77415">
        <ele>80</ele>
        <time>2023-08-09T09:22:22.105+00:00</time>
      </trkpt>
      <trkpt lat="48.30612" lon="2.77414">
        <ele>80</ele>
        <time>2023-08-09T09:22:26.133+00:00</time>
      </trkpt>
      <trkpt lat="48.30604" lon="2.77413">
        <ele>80</ele>
        <time>2023-08-09T09:22:31.137+00:00</time>
      </trkpt>
      <trkpt lat="48.30595" lon="2.77412">
        <ele>80</ele>
        <time>2023-08-09T09:22:36.130+00:00</time>
      </trkpt>
      <trkpt lat="48.30589" lon="2.77411">
        <ele>80</ele>
        <time>2023-08-09T09:22:40.140+00:00</time>
      </trkpt>
      <trkpt lat="48.30585" lon="2.7741">
        <ele>80</ele>
        <time>2023-08-09T09:22:44.137+00:00</time>
      </trkpt>
      <trkpt lat="48.30579" lon="2.77409">
        <ele>80</ele>
        <time>2023-08-09T09:22:49.138+00:00</time>
      </trkpt>
      <trkpt lat="48.30574" lon="2.77409">
        <ele>80</ele>
        <time>2023-08-09T09:22:53.141+00:00</time>
      </trkpt>
      <trkpt lat="48.30568" lon="2.77407">
        <ele>82</ele>
        <time>2023-08-09T09:22:58.125+00:00</time>
      </trkpt>
      <trkpt lat="48.30561" lon="2.77403">
        <ele>82</ele>
        <time>2023-08-09T09:23:03.161+00:00</time>
      </trkpt>
      <trkpt lat="48.30556" lon="2.77399">
        <ele>82</ele>
        <time>2023-08-09T09:23:08.129+00:00</time>
      </trkpt>
      <trkpt lat="48.3055" lon="2.77396">
        <ele>82</ele>
        <time>2023-08-09T09:23:13.153+00:00</time>
      </trkpt>
      <trkpt lat="48.30544" lon="2.77394">
        <ele>82</ele>
        <time>2023-08-09T09:23:18.134+00:00</time>
      </trkpt>
      <trkpt lat="48.30539" lon="2.77392">
        <ele>83</ele>
        <time>2023-08-09T09:23:23.148+00:00</time>
      </trkpt>
      <trkpt lat="48.30535" lon="2.77389">
        <ele>83</ele>
        <time>2023-08-09T09:23:27.157+00:00</time>
      </trkpt>
      <trkpt lat="48.30534" lon="2.77385">
        <ele>83</ele>
        <time>2023-08-09T09:23:32.141+00:00</time>
      </trkpt>
      <trkpt lat="48.30532" lon="2.77386">
        <ele>83</ele>
        <time>2023-08-09T09:23:36.104+00:00</time>
      </trkpt>
      <trkpt lat="48.30527" lon="2.77384">
        <ele>83</ele>
        <time>2023-08-09T09:23:41.097+00:00</time>
      </trkpt>
      <trkpt lat="48.30526" lon="2.77383">
        <ele>83</ele>
        <time>2023-08-09T09:23:45.101+00:00</time>
      </trkpt>
      <trkpt lat="48.30527" lon="2.77381">
        <ele>83</ele>
        <time>2023-08-09T09:23:49.107+00:00</time>
      </trkpt>
      <trkpt lat="48.30527" lon="2.77385">
        <ele>83</ele>
        <time>2023-08-09T09:23:54.090+00:00</time>
      </trkpt>
      <trkpt lat="48.30524" lon="2.77385">
        <ele>83</ele>
        <time>2023-08-09T09:23:58.139+00:00</time>
      </trkpt>
      <trkpt lat="48.30521" lon="2.77383">
        <ele>83</ele>
        <time>2023-08-09T09:24:03.130+00:00</time>
      </trkpt>
      <trkpt lat="48.30515" lon="2.7738">
        <ele>83</ele>
        <time>2023-08-09T09:24:08.101+00:00</time>
      </trkpt>
      <trkpt lat="48.30508" lon="2.7738">
        <ele>84</ele>
        <time>2023-08-09T09:24:13.110+00:00</time>
      </trkpt>
      <trkpt lat="48.30503" lon="2.77378">
        <ele>84</ele>
        <time>2023-08-09T09:24:17.109+00:00</time>
      </trkpt>
      <trkpt lat="48.30499" lon="2.77376">
        <ele>84</ele>
        <time>2023-08-09T09:24:21.126+00:00</time>
      </trkpt>
      <trkpt lat="48.30494" lon="2.77372">
        <ele>83</ele>
        <time>2023-08-09T09:24:26.107+00:00</time>
      </trkpt>
      <trkpt lat="48.30491" lon="2.77368">
        <ele>83</ele>
        <time>2023-08-09T09:24:30.152+00:00</time>
      </trkpt>
      <trkpt lat="48.30486" lon="2.77361">
        <ele>83</ele>
        <time>2023-08-09T09:24:35.106+00:00</time>
      </trkpt>
      <trkpt lat="48.30483" lon="2.77357">
        <ele>82</ele>
        <time>2023-08-09T09:24:39.117+00:00</time>
      </trkpt>
      <trkpt lat="48.30481" lon="2.77355">
        <ele>82</ele>
        <time>2023-08-09T09:24:43.144+00:00</time>
      </trkpt>
      <trkpt lat="48.30477" lon="2.77351">
        <ele>82</ele>
        <time>2023-08-09T09:24:48.165+00:00</time>
      </trkpt>
      <trkpt lat="48.30472" lon="2.77347">
        <ele>81</ele>
        <time>2023-08-09T09:24:53.137+00:00</time>
      </trkpt>
      <trkpt lat="48.30465" lon="2.77343">
        <ele>81</ele>
        <time>2023-08-09T09:24:58.145+00:00</time>
      </trkpt>
      <trkpt lat="48.30461" lon="2.77341">
        <ele>81</ele>
        <time>2023-08-09T09:25:03.134+00:00</time>
      </trkpt>
      <trkpt lat="48.30457" lon="2.77339">
        <ele>81</ele>
        <time>2023-08-09T09:25:07.143+00:00</time>
      </trkpt>
      <trkpt lat="48.30453" lon="2.77338">
        <ele>81</ele>
        <time>2023-08-09T09:25:11.138+00:00</time>
      </trkpt>
      <trkpt lat="48.30446" lon="2.77337">
        <ele>81</ele>
        <time>2023-08-09T09:25:16.138+00:00</time>
      </trkpt>
      <trkpt lat="48.30438" lon="2.77336">
        <ele>81</ele>
        <time>2023-08-09T09:25:21.162+00:00</time>
      </trkpt>
      <trkpt lat="48.30434" lon="2.77335">
        <ele>81</ele>
        <time>2023-08-09T09:25:26.158+00:00</time>
      </trkpt>
      <trkpt lat="48.30425" lon="2.77333">
        <ele>82</ele>
        <time>2023-08-09T09:25:31.113+00:00</time>
      </trkpt>
      <trkpt lat="48.30418" lon="2.77332">
        <ele>82</ele>
        <time>2023-08-09T09:25:35.134+00:00</time>
      </trkpt>
      <trkpt lat="48.3041" lon="2.77332">
        <ele>82</ele>
        <time>2023-08-09T09:25:40.132+00:00</time>
      </trkpt>
      <trkpt lat="48.30405" lon="2.7733">
        <ele>82</ele>
        <time>2023-08-09T09:25:44.141+00:00</time>
      </trkpt>
      <trkpt lat="48.30398" lon="2.77328">
        <ele>81</ele>
        <time>2023-08-09T09:25:49.118+00:00</time>
      </trkpt>
      <trkpt lat="48.30388" lon="2.77327">
        <ele>81</ele>
        <time>2023-08-09T09:25:54.124+00:00</time>
      </trkpt>
      <trkpt lat="48.30379" lon="2.77325">
        <ele>81</ele>
        <time>2023-08-09T09:25:59.114+00:00</time>
      </trkpt>
      <trkpt lat="48.30374" lon="2.77325">
        <ele>78</ele>
        <time>2023-08-09T09:26:03.117+00:00</time>
      </trkpt>
      <trkpt lat="48.30369" lon="2.77324">
        <ele>78</ele>
        <time>2023-08-09T09:26:07.125+00:00</time>
      </trkpt>
      <trkpt lat="48.30362" lon="2.77324">
        <ele>78</ele>
        <time>2023-08-09T09:26:12.120+00:00</time>
      </trkpt>
      <trkpt lat="48.3036" lon="2.77324">
        <ele>78</ele>
        <time>2023-08-09T09:26:16.129+00:00</time>
      </trkpt>
      <trkpt lat="48.30357" lon="2.77325">
        <ele>78</ele>
        <time>2023-08-09T09:26:21.102+00:00</time>
      </trkpt>
      <trkpt lat="48.30353" lon="2.77324">
        <ele>78</ele>
        <time>2023-08-09T09:26:25.097+00:00</time>
      </trkpt>
      <trkpt lat="48.3035" lon="2.77322">
        <ele>78</ele>
        <time>2023-08-09T09:26:29.116+00:00</time>
      </trkpt>
      <trkpt lat="48.30345" lon="2.7732">
        <ele>74</ele>
        <time>2023-08-09T09:26:34.121+00:00</time>
      </trkpt>
      <trkpt lat="48.30337" lon="2.77317">
        <ele>73</ele>
        <time>2023-08-09T09:26:39.114+00:00</time>
      </trkpt>
      <trkpt lat="48.30333" lon="2.77316">
        <ele>73</ele>
        <time>2023-08-09T09:26:43.130+00:00</time>
      </trkpt>
      <trkpt lat="48.30325" lon="2.77316">
        <ele>73</ele>
        <time>2023-08-09T09:26:48.136+00:00</time>
      </trkpt>
      <trkpt lat="48.30319" lon="2.77314">
        <ele>72</ele>
        <time>2023-08-09T09:26:53.120+00:00</time>
      </trkpt>
      <trkpt lat="48.30315" lon="2.77314">
        <ele>72</ele>
        <time>2023-08-09T09:26:57.134+00:00</time>
      </trkpt>
      <trkpt lat="48.30309" lon="2.77313">
        <ele>72</ele>
        <time>2023-08-09T09:27:02.135+00:00</time>
      </trkpt>
      <trkpt lat="48.303" lon="2.77312">
        <ele>72</ele>
        <time>2023-08-09T09:27:07.135+00:00</time>
      </trkpt>
      <trkpt lat="48.30294" lon="2.77312">
        <ele>72</ele>
        <time>2023-08-09T09:27:12.120+00:00</time>
      </trkpt>
      <trkpt lat="48.30292" lon="2.77314">
        <ele>72</ele>
        <time>2023-08-09T09:27:31.091+00:00</time>
      </trkpt>
      <trkpt lat="48.30292" lon="2.77315">
        <ele>72</ele>
        <time>2023-08-09T09:27:35.100+00:00</time>
      </trkpt>
      <trkpt lat="48.303" lon="2.77317">
        <ele>72</ele>
        <time>2023-08-09T09:27:40.106+00:00</time>
      </trkpt>
      <trkpt lat="48.30305" lon="2.77319">
        <ele>72</ele>
        <time>2023-08-09T09:27:44.141+00:00</time>
      </trkpt>
      <trkpt lat="48.30311" lon="2.77321">
        <ele>73</ele>
        <time>2023-08-09T09:27:49.116+00:00</time>
      </trkpt>
      <trkpt lat="48.30316" lon="2.77323">
        <ele>73</ele>
        <time>2023-08-09T09:27:53.123+00:00</time>
      </trkpt>
      <trkpt lat="48.30322" lon="2.77325">
        <ele>74</ele>
        <time>2023-08-09T09:27:58.120+00:00</time>
      </trkpt>
      <trkpt lat="48.30325" lon="2.77332">
        <ele>74</ele>
        <time>2023-08-09T09:28:02.133+00:00</time>
      </trkpt>
      <trkpt lat="48.30326" lon="2.7734">
        <ele>74</ele>
        <time>2023-08-09T09:28:07.101+00:00</time>
      </trkpt>
      <trkpt lat="48.30325" lon="2.77341">
        <ele>74</ele>
        <time>2023-08-09T09:28:11.107+00:00</time>
      </trkpt>
      <trkpt lat="48.30327" lon="2.77347">
        <ele>74</ele>
        <time>2023-08-09T09:28:15.123+00:00</time>
      </trkpt>
      <trkpt lat="48.30328" lon="2.77353">
        <ele>75</ele>
        <time>2023-08-09T09:28:19.136+00:00</time>
      </trkpt>
      <trkpt lat="48.30328" lon="2.7736">
        <ele>75</ele>
        <time>2023-08-09T09:28:23.148+00:00</time>
      </trkpt>
      <trkpt lat="48.30329" lon="2.77371">
        <ele>75</ele>
        <time>2023-08-09T09:28:28.149+00:00</time>
      </trkpt>
      <trkpt lat="48.30329" lon="2.77381">
        <ele>75</ele>
        <time>2023-08-09T09:28:33.144+00:00</time>
      </trkpt>
      <trkpt lat="48.30329" lon="2.77389">
        <ele>75</ele>
        <time>2023-08-09T09:28:37.144+00:00</time>
      </trkpt>
      <trkpt lat="48.30328" lon="2.77394">
        <ele>75</ele>
        <time>2023-08-09T09:28:41.133+00:00</time>
      </trkpt>
      <trkpt lat="48.30329" lon="2.77397">
        <ele>75</ele>
        <time>2023-08-09T09:28:46.141+00:00</time>
      </trkpt>
      <trkpt lat="48.30331" lon="2.77402">
        <ele>75</ele>
        <time>2023-08-09T09:28:51.134+00:00</time>
      </trkpt>
      <trkpt lat="48.30331" lon="2.77412">
        <ele>75</ele>
        <time>2023-08-09T09:28:56.145+00:00</time>
      </trkpt>
      <trkpt lat="48.3033" lon="2.77422">
        <ele>75</ele>
        <time>2023-08-09T09:29:01.154+00:00</time>
      </trkpt>
      <trkpt lat="48.3033" lon="2.77432">
        <ele>75</ele>
        <time>2023-08-09T09:29:06.142+00:00</time>
      </trkpt>
      <trkpt lat="48.30332" lon="2.7744">
        <ele>75</ele>
        <time>2023-08-09T09:29:11.166+00:00</time>
      </trkpt>
      <trkpt lat="48.30331" lon="2.77449">
        <ele>75</ele>
        <time>2023-08-09T09:29:16.139+00:00</time>
      </trkpt>
      <trkpt lat="48.3033" lon="2.77458">
        <ele>75</ele>
        <time>2023-08-09T09:29:20.139+00:00</time>
      </trkpt>
      <trkpt lat="48.3033" lon="2.77467">
        <ele>77</ele>
        <time>2023-08-09T09:29:24.162+00:00</time>
      </trkpt>
      <trkpt lat="48.30328" lon="2.77476">
        <ele>77</ele>
        <time>2023-08-09T09:29:29.169+00:00</time>
      </trkpt>
      <trkpt lat="48.30326" lon="2.77489">
        <ele>77</ele>
        <time>2023-08-09T09:29:34.154+00:00</time>
      </trkpt>
      <trkpt lat="48.30325" lon="2.77498">
        <ele>77</ele>
        <time>2023-08-09T09:29:39.128+00:00</time>
      </trkpt>
      <trkpt lat="48.30324" lon="2.77506">
        <ele>77</ele>
        <time>2023-08-09T09:29:43.140+00:00</time>
      </trkpt>
      <trkpt lat="48.30324" lon="2.77519">
        <ele>76</ele>
        <time>2023-08-09T09:29:48.108+00:00</time>
      </trkpt>
      <trkpt lat="48.30325" lon="2.77529">
        <ele>76</ele>
        <time>2023-08-09T09:29:52.130+00:00</time>
      </trkpt>
      <trkpt lat="48.30326" lon="2.77538">
        <ele>76</ele>
        <time>2023-08-09T09:29:57.135+00:00</time>
      </trkpt>
      <trkpt lat="48.30328" lon="2.77549">
        <ele>75</ele>
        <time>2023-08-09T09:30:02.123+00:00</time>
      </trkpt>
      <trkpt lat="48.3033" lon="2.77558">
        <ele>75</ele>
        <time>2023-08-09T09:30:07.154+00:00</time>
      </trkpt>
      <trkpt lat="48.30332" lon="2.77567">
        <ele>75</ele>
        <time>2023-08-09T09:30:12.109+00:00</time>
      </trkpt>
      <trkpt lat="48.30333" lon="2.77576">
        <ele>74</ele>
        <time>2023-08-09T09:30:16.146+00:00</time>
      </trkpt>
      <trkpt lat="48.30332" lon="2.77585">
        <ele>74</ele>
        <time>2023-08-09T09:30:21.130+00:00</time>
      </trkpt>
      <trkpt lat="48.30333" lon="2.77595">
        <ele>74</ele>
        <time>2023-08-09T09:30:26.144+00:00</time>
      </trkpt>
      <trkpt lat="48.30335" lon="2.77603">
        <ele>73</ele>
        <time>2023-08-09T09:30:31.162+00:00</time>
      </trkpt>
      <trkpt lat="48.30336" lon="2.77608">
        <ele>73</ele>
        <time>2023-08-09T09:30:35.162+00:00</time>
      </trkpt>
      <trkpt lat="48.30339" lon="2.77617">
        <ele>73</ele>
        <time>2023-08-09T09:30:40.152+00:00</time>
      </trkpt>
      <trkpt lat="48.30342" lon="2.77627">
        <ele>72</ele>
        <time>2023-08-09T09:30:45.143+00:00</time>
      </trkpt>
      <trkpt lat="48.30345" lon="2.77637">
        <ele>72</ele>
        <time>2023-08-09T09:30:50.145+00:00</time>
      </trkpt>
      <trkpt lat="48.30348" lon="2.77645">
        <ele>76</ele>
        <time>2023-08-09T09:30:54.141+00:00</time>
      </trkpt>
      <trkpt lat="48.3035" lon="2.77654">
        <ele>75</ele>
        <time>2023-08-09T09:30:59.132+00:00</time>
      </trkpt>
      <trkpt lat="48.30353" lon="2.7766">
        <ele>75</ele>
        <time>2023-08-09T09:31:03.139+00:00</time>
      </trkpt>
      <trkpt lat="48.30358" lon="2.77668">
        <ele>75</ele>
        <time>2023-08-09T09:31:08.166+00:00</time>
      </trkpt>
      <trkpt lat="48.30361" lon="2.77677">
        <ele>75</ele>
        <time>2023-08-09T09:31:13.132+00:00</time>
      </trkpt>
      <trkpt lat="48.30364" lon="2.77683">
        <ele>72</ele>
        <time>2023-08-09T09:31:17.141+00:00</time>
      </trkpt>
      <trkpt lat="48.30366" lon="2.77692">
        <ele>72</ele>
        <time>2023-08-09T09:31:21.143+00:00</time>
      </trkpt>
      <trkpt lat="48.3037" lon="2.777">
        <ele>72</ele>
        <time>2023-08-09T09:31:26.141+00:00</time>
      </trkpt>
      <trkpt lat="48.30371" lon="2.77705">
        <ele>72</ele>
        <time>2023-08-09T09:31:30.140+00:00</time>
      </trkpt>
      <trkpt lat="48.30361" lon="2.77724">
        <ele>69</ele>
        <time>2023-08-09T09:31:50.087+00:00</time>
      </trkpt>
      <trkpt lat="48.30361" lon="2.77727">
        <ele>69</ele>
        <time>2023-08-09T09:31:54.101+00:00</time>
      </trkpt>
      <trkpt lat="48.30359" lon="2.77728">
        <ele>69</ele>
        <time>2023-08-09T09:31:58.099+00:00</time>
      </trkpt>
      <trkpt lat="48.30358" lon="2.7773">
        <ele>69</ele>
        <time>2023-08-09T09:32:03.099+00:00</time>
      </trkpt>
      <trkpt lat="48.30354" lon="2.77737">
        <ele>65</ele>
        <time>2023-08-09T09:32:08.105+00:00</time>
      </trkpt>
      <trkpt lat="48.30351" lon="2.7774">
        <ele>65</ele>
        <time>2023-08-09T09:32:12.093+00:00</time>
      </trkpt>
      <trkpt lat="48.30351" lon="2.77742">
        <ele>65</ele>
        <time>2023-08-09T09:32:16.095+00:00</time>
      </trkpt>
      <trkpt lat="48.30355" lon="2.77743">
        <ele>65</ele>
        <time>2023-08-09T09:32:20.105+00:00</time>
      </trkpt>
      <trkpt lat="48.30353" lon="2.77746">
        <ele>65</ele>
        <time>2023-08-09T09:32:25.105+00:00</time>
      </trkpt>
      <trkpt lat="48.30345" lon="2.77751">
        <ele>63</ele>
        <time>2023-08-09T09:32:30.100+00:00</time>
      </trkpt>
      <trkpt lat="48.30336" lon="2.77757">
        <ele>63</ele>
        <time>2023-08-09T09:32:40.095+00:00</time>
      </trkpt>
      <trkpt lat="48.30336" lon="2.77759">
        <ele>63</ele>
        <time>2023-08-09T09:32:44.095+00:00</time>
      </trkpt>
      <trkpt lat="48.30337" lon="2.77762">
        <ele>63</ele>
        <time>2023-08-09T09:32:48.099+00:00</time>
      </trkpt>
      <trkpt lat="48.30336" lon="2.77767">
        <ele>61</ele>
        <time>2023-08-09T09:32:52.104+00:00</time>
      </trkpt>
      <trkpt lat="48.30331" lon="2.77772">
        <ele>61</ele>
        <time>2023-08-09T09:32:57.099+00:00</time>
      </trkpt>
      <trkpt lat="48.30326" lon="2.77778">
        <ele>61</ele>
        <time>2023-08-09T09:33:01.098+00:00</time>
      </trkpt>
      <trkpt lat="48.30324" lon="2.77788">
        <ele>61</ele>
        <time>2023-08-09T09:33:06.107+00:00</time>
      </trkpt>
      <trkpt lat="48.3032" lon="2.77795">
        <ele>60</ele>
        <time>2023-08-09T09:33:11.094+00:00</time>
      </trkpt>
      <trkpt lat="48.30317" lon="2.77802">
        <ele>60</ele>
        <time>2023-08-09T09:33:15.104+00:00</time>
      </trkpt>
      <trkpt lat="48.30312" lon="2.77808">
        <ele>60</ele>
        <time>2023-08-09T09:33:19.106+00:00</time>
      </trkpt>
      <trkpt lat="48.30309" lon="2.77817">
        <ele>60</ele>
        <time>2023-08-09T09:33:24.108+00:00</time>
      </trkpt>
      <trkpt lat="48.30306" lon="2.77822">
        <ele>60</ele>
        <time>2023-08-09T09:33:29.112+00:00</time>
      </trkpt>
      <trkpt lat="48.30304" lon="2.77827">
        <ele>60</ele>
        <time>2023-08-09T09:33:34.096+00:00</time>
      </trkpt>
      <trkpt lat="48.30304" lon="2.77827">
        <ele>60</ele>
        <time>2023-08-09T09:33:38.103+00:00</time>
      </trkpt>
      <trkpt lat="48.30301" lon="2.77835">
        <ele>60</ele>
        <time>2023-08-09T09:33:43.099+00:00</time>
      </trkpt>
      <trkpt lat="48.30297" lon="2.77841">
        <ele>60</ele>
        <time>2023-08-09T09:33:47.121+00:00</time>
      </trkpt>
      <trkpt lat="48.30293" lon="2.77849">
        <ele>60</ele>
        <time>2023-08-09T09:33:52.117+00:00</time>
      </trkpt>
      <trkpt lat="48.30289" lon="2.77856">
        <ele>60</ele>
        <time>2023-08-09T09:33:57.106+00:00</time>
      </trkpt>
      <trkpt lat="48.30285" lon="2.77865">
        <ele>60</ele>
        <time>2023-08-09T09:34:02.105+00:00</time>
      </trkpt>
      <trkpt lat="48.3028" lon="2.77872">
        <ele>60</ele>
        <time>2023-08-09T09:34:07.116+00:00</time>
      </trkpt>
      <trkpt lat="48.30276" lon="2.77878">
        <ele>61</ele>
        <time>2023-08-09T09:34:11.110+00:00</time>
      </trkpt>
      <trkpt lat="48.30274" lon="2.77881">
        <ele>61</ele>
        <time>2023-08-09T09:34:15.114+00:00</time>
      </trkpt>
      <trkpt lat="48.30272" lon="2.77884">
        <ele>61</ele>
        <time>2023-08-09T09:34:19.130+00:00</time>
      </trkpt>
      <trkpt lat="48.30266" lon="2.77889">
        <ele>61</ele>
        <time>2023-08-09T09:34:24.114+00:00</time>
      </trkpt>
      <trkpt lat="48.30259" lon="2.77892">
        <ele>62</ele>
        <time>2023-08-09T09:34:28.108+00:00</time>
      </trkpt>
      <trkpt lat="48.30254" lon="2.77891">
        <ele>62</ele>
        <time>2023-08-09T09:34:33.104+00:00</time>
      </trkpt>
      <trkpt lat="48.30249" lon="2.77898">
        <ele>62</ele>
        <time>2023-08-09T09:34:38.126+00:00</time>
      </trkpt>
      <trkpt lat="48.30241" lon="2.77903">
        <ele>63</ele>
        <time>2023-08-09T09:34:43.137+00:00</time>
      </trkpt>
      <trkpt lat="48.30235" lon="2.77907">
        <ele>64</ele>
        <time>2023-08-09T09:34:48.107+00:00</time>
      </trkpt>
      <trkpt lat="48.30228" lon="2.77909">
        <ele>64</ele>
        <time>2023-08-09T09:34:53.108+00:00</time>
      </trkpt>
      <trkpt lat="48.30223" lon="2.77911">
        <ele>64</ele>
        <time>2023-08-09T09:34:57.117+00:00</time>
      </trkpt>
      <trkpt lat="48.30217" lon="2.77914">
        <ele>64</ele>
        <time>2023-08-09T09:35:02.104+00:00</time>
      </trkpt>
      <trkpt lat="48.30213" lon="2.77915">
        <ele>64</ele>
        <time>2023-08-09T09:35:06.155+00:00</time>
      </trkpt>
      <trkpt lat="48.30214" lon="2.77917">
        <ele>64</ele>
        <time>2023-08-09T09:35:20.100+00:00</time>
      </trkpt>
      <trkpt lat="48.30218" lon="2.7792">
        <ele>64</ele>
        <time>2023-08-09T09:35:25.107+00:00</time>
      </trkpt>
      <trkpt lat="48.30225" lon="2.77925">
        <ele>64</ele>
        <time>2023-08-09T09:35:29.100+00:00</time>
      </trkpt>
      <trkpt lat="48.30226" lon="2.77938">
        <ele>64</ele>
        <time>2023-08-09T09:35:34.099+00:00</time>
      </trkpt>
      <trkpt lat="48.30225" lon="2.77944">
        <ele>64</ele>
        <time>2023-08-09T09:35:38.108+00:00</time>
      </trkpt>
      <trkpt lat="48.30224" lon="2.77955">
        <ele>64</ele>
        <time>2023-08-09T09:36:11.130+00:00</time>
      </trkpt>
      <trkpt lat="48.30225" lon="2.77956">
        <ele>64</ele>
        <time>2023-08-09T09:36:16.127+00:00</time>
      </trkpt>
      <trkpt lat="48.30223" lon="2.77957">
        <ele>64</ele>
        <time>2023-08-09T09:36:20.123+00:00</time>
      </trkpt>
      <trkpt lat="48.30223" lon="2.77963">
        <ele>64</ele>
        <time>2023-08-09T09:36:25.114+00:00</time>
      </trkpt>
      <trkpt lat="48.30222" lon="2.77971">
        <ele>64</ele>
        <time>2023-08-09T09:36:30.106+00:00</time>
      </trkpt>
      <trkpt lat="48.30221" lon="2.77976">
        <ele>64</ele>
        <time>2023-08-09T09:36:34.074+00:00</time>
      </trkpt>
      <trkpt lat="48.3022" lon="2.77985">
        <ele>64</ele>
        <time>2023-08-09T09:36:39.129+00:00</time>
      </trkpt>
      <trkpt lat="48.3022" lon="2.77994">
        <ele>63</ele>
        <time>2023-08-09T09:36:44.124+00:00</time>
      </trkpt>
      <trkpt lat="48.3022" lon="2.78002">
        <ele>63</ele>
        <time>2023-08-09T09:36:48.101+00:00</time>
      </trkpt>
      <trkpt lat="48.30218" lon="2.78014">
        <ele>63</ele>
        <time>2023-08-09T09:36:54.098+00:00</time>
      </trkpt>
      <trkpt lat="48.30216" lon="2.78023">
        <ele>62</ele>
        <time>2023-08-09T09:36:59.103+00:00</time>
      </trkpt>
      <trkpt lat="48.30215" lon="2.7803">
        <ele>62</ele>
        <time>2023-08-09T09:37:03.109+00:00</time>
      </trkpt>
      <trkpt lat="48.30214" lon="2.78038">
        <ele>62</ele>
        <time>2023-08-09T09:37:07.104+00:00</time>
      </trkpt>
      <trkpt lat="48.30214" lon="2.78055">
        <ele>61</ele>
        <time>2023-08-09T09:37:16.100+00:00</time>
      </trkpt>
      <trkpt lat="48.30216" lon="2.78057">
        <ele>61</ele>
        <time>2023-08-09T09:37:20.104+00:00</time>
      </trkpt>
      <trkpt lat="48.30214" lon="2.78058">
        <ele>61</ele>
        <time>2023-08-09T09:37:25.102+00:00</time>
      </trkpt>
      <trkpt lat="48.30212" lon="2.78063">
        <ele>61</ele>
        <time>2023-08-09T09:37:29.100+00:00</time>
      </trkpt>
      <trkpt lat="48.30211" lon="2.78074">
        <ele>60</ele>
        <time>2023-08-09T09:37:34.095+00:00</time>
      </trkpt>
      <trkpt lat="48.3021" lon="2.78084">
        <ele>60</ele>
        <time>2023-08-09T09:37:39.111+00:00</time>
      </trkpt>
      <trkpt lat="48.30209" lon="2.78092">
        <ele>60</ele>
        <time>2023-08-09T09:37:43.155+00:00</time>
      </trkpt>
      <trkpt lat="48.30208" lon="2.78101">
        <ele>62</ele>
        <time>2023-08-09T09:37:48.130+00:00</time>
      </trkpt>
      <trkpt lat="48.30207" lon="2.78107">
        <ele>62</ele>
        <time>2023-08-09T09:37:52.138+00:00</time>
      </trkpt>
      <trkpt lat="48.30206" lon="2.78116">
        <ele>62</ele>
        <time>2023-08-09T09:37:57.109+00:00</time>
      </trkpt>
      <trkpt lat="48.30205" lon="2.78125">
        <ele>62</ele>
        <time>2023-08-09T09:38:02.103+00:00</time>
      </trkpt>
      <trkpt lat="48.30205" lon="2.78132">
        <ele>62</ele>
        <time>2023-08-09T09:38:06.117+00:00</time>
      </trkpt>
      <trkpt lat="48.30204" lon="2.78139">
        <ele>62</ele>
        <time>2023-08-09T09:38:10.141+00:00</time>
      </trkpt>
      <trkpt lat="48.30204" lon="2.78147">
        <ele>62</ele>
        <time>2023-08-09T09:38:15.134+00:00</time>
      </trkpt>
      <trkpt lat="48.30203" lon="2.78147">
        <ele>62</ele>
        <time>2023-08-09T09:38:20.099+00:00</time>
      </trkpt>
      <trkpt lat="48.30202" lon="2.78154">
        <ele>61</ele>
        <time>2023-08-09T09:38:25.115+00:00</time>
      </trkpt>
      <trkpt lat="48.302" lon="2.78161">
        <ele>61</ele>
        <time>2023-08-09T09:38:29.118+00:00</time>
      </trkpt>
      <trkpt lat="48.30199" lon="2.78169">
        <ele>61</ele>
        <time>2023-08-09T09:38:33.129+00:00</time>
      </trkpt>
      <trkpt lat="48.30198" lon="2.7818">
        <ele>61</ele>
        <time>2023-08-09T09:38:38.129+00:00</time>
      </trkpt>
      <trkpt lat="48.30198" lon="2.78189">
        <ele>61</ele>
        <time>2023-08-09T09:38:43.113+00:00</time>
      </trkpt>
      <trkpt lat="48.30198" lon="2.78192">
        <ele>61</ele>
        <time>2023-08-09T09:38:47.132+00:00</time>
      </trkpt>
      <trkpt lat="48.30199" lon="2.78195">
        <ele>61</ele>
        <time>2023-08-09T09:39:16.127+00:00</time>
      </trkpt>
      <trkpt lat="48.30199" lon="2.78195">
        <ele>61</ele>
        <time>2023-08-09T09:39:21.150+00:00</time>
      </trkpt>
      <trkpt lat="48.302" lon="2.78202">
        <ele>61</ele>
        <time>2023-08-09T09:39:26.101+00:00</time>
      </trkpt>
      <trkpt lat="48.302" lon="2.78208">
        <ele>61</ele>
        <time>2023-08-09T09:39:31.105+00:00</time>
      </trkpt>
      <trkpt lat="48.30196" lon="2.78208">
        <ele>61</ele>
        <time>2023-08-09T09:39:36.102+00:00</time>
      </trkpt>
      <trkpt lat="48.30196" lon="2.78218">
        <ele>61</ele>
        <time>2023-08-09T09:39:41.110+00:00</time>
      </trkpt>
      <trkpt lat="48.30196" lon="2.78225">
        <ele>61</ele>
        <time>2023-08-09T09:39:45.121+00:00</time>
      </trkpt>
      <trkpt lat="48.30197" lon="2.78233">
        <ele>61</ele>
        <time>2023-08-09T09:39:50.120+00:00</time>
      </trkpt>
      <trkpt lat="48.302" lon="2.78233">
        <ele>61</ele>
        <time>2023-08-09T09:39:55.126+00:00</time>
      </trkpt>
      <trkpt lat="48.302" lon="2.78234">
        <ele>61</ele>
        <time>2023-08-09T09:40:05.102+00:00</time>
      </trkpt>
      <trkpt lat="48.302" lon="2.78235">
        <ele>61</ele>
        <time>2023-08-09T09:40:10.101+00:00</time>
      </trkpt>
      <trkpt lat="48.30199" lon="2.78234">
        <ele>61</ele>
        <time>2023-08-09T09:40:14.120+00:00</time>
      </trkpt>
      <trkpt lat="48.30195" lon="2.78238">
        <ele>62</ele>
        <time>2023-08-09T09:40:19.101+00:00</time>
      </trkpt>
      <trkpt lat="48.30195" lon="2.78244">
        <ele>62</ele>
        <time>2023-08-09T09:40:23.142+00:00</time>
      </trkpt>
      <trkpt lat="48.30195" lon="2.78251">
        <ele>62</ele>
        <time>2023-08-09T09:40:28.152+00:00</time>
      </trkpt>
      <trkpt lat="48.30194" lon="2.78261">
        <ele>62</ele>
        <time>2023-08-09T09:40:33.136+00:00</time>
      </trkpt>
      <trkpt lat="48.30193" lon="2.78269">
        <ele>63</ele>
        <time>2023-08-09T09:40:37.154+00:00</time>
      </trkpt>
      <trkpt lat="48.30193" lon="2.78276">
        <ele>63</ele>
        <time>2023-08-09T09:40:41.154+00:00</time>
      </trkpt>
      <trkpt lat="48.30193" lon="2.78286">
        <ele>63</ele>
        <time>2023-08-09T09:40:46.151+00:00</time>
      </trkpt>
      <trkpt lat="48.30192" lon="2.78296">
        <ele>63</ele>
        <time>2023-08-09T09:40:51.157+00:00</time>
      </trkpt>
      <trkpt lat="48.30192" lon="2.78306">
        <ele>63</ele>
        <time>2023-08-09T09:40:56.124+00:00</time>
      </trkpt>
      <trkpt lat="48.30191" lon="2.78313">
        <ele>63</ele>
        <time>2023-08-09T09:41:00.125+00:00</time>
      </trkpt>
      <trkpt lat="48.30191" lon="2.7832">
        <ele>64</ele>
        <time>2023-08-09T09:41:04.150+00:00</time>
      </trkpt>
      <trkpt lat="48.30191" lon="2.78327">
        <ele>64</ele>
        <time>2023-08-09T09:41:08.161+00:00</time>
      </trkpt>
      <trkpt lat="48.3019" lon="2.78336">
        <ele>64</ele>
        <time>2023-08-09T09:41:13.152+00:00</time>
      </trkpt>
      <trkpt lat="48.30189" lon="2.78346">
        <ele>64</ele>
        <time>2023-08-09T09:41:18.143+00:00</time>
      </trkpt>
      <trkpt lat="48.30188" lon="2.78355">
        <ele>65</ele>
        <time>2023-08-09T09:41:23.142+00:00</time>
      </trkpt>
      <trkpt lat="48.30187" lon="2.78365">
        <ele>65</ele>
        <time>2023-08-09T09:41:28.123+00:00</time>
      </trkpt>
      <trkpt lat="48.30187" lon="2.78374">
        <ele>65</ele>
        <time>2023-08-09T09:41:33.169+00:00</time>
      </trkpt>
      <trkpt lat="48.30186" lon="2.78383">
        <ele>65</ele>
        <time>2023-08-09T09:41:38.125+00:00</time>
      </trkpt>
      <trkpt lat="48.30185" lon="2.78393">
        <ele>65</ele>
        <time>2023-08-09T09:41:43.137+00:00</time>
      </trkpt>
      <trkpt lat="48.30184" lon="2.784">
        <ele>65</ele>
        <time>2023-08-09T09:41:47.138+00:00</time>
      </trkpt>
      <trkpt lat="48.30184" lon="2.78407">
        <ele>66</ele>
        <time>2023-08-09T09:41:51.169+00:00</time>
      </trkpt>
      <trkpt lat="48.30183" lon="2.78415">
        <ele>66</ele>
        <time>2023-08-09T09:41:56.129+00:00</time>
      </trkpt>
      <trkpt lat="48.30183" lon="2.78422">
        <ele>66</ele>
        <time>2023-08-09T09:42:00.123+00:00</time>
      </trkpt>
      <trkpt lat="48.30182" lon="2.78431">
        <ele>66</ele>
        <time>2023-08-09T09:42:05.111+00:00</time>
      </trkpt>
      <trkpt lat="48.30182" lon="2.78438">
        <ele>66</ele>
        <time>2023-08-09T09:42:09.130+00:00</time>
      </trkpt>
      <trkpt lat="48.30181" lon="2.78445">
        <ele>66</ele>
        <time>2023-08-09T09:42:13.120+00:00</time>
      </trkpt>
      <trkpt lat="48.30179" lon="2.78457">
        <ele>66</ele>
        <time>2023-08-09T09:43:34.157+00:00</time>
      </trkpt>
      <trkpt lat="48.30178" lon="2.78463">
        <ele>68</ele>
        <time>2023-08-09T09:43:39.148+00:00</time>
      </trkpt>
      <trkpt lat="48.30177" lon="2.78472">
        <ele>68</ele>
        <time>2023-08-09T09:43:44.147+00:00</time>
      </trkpt>
      <trkpt lat="48.30177" lon="2.78481">
        <ele>68</ele>
        <time>2023-08-09T09:43:49.164+00:00</time>
      </trkpt>
      <trkpt lat="48.30177" lon="2.7849">
        <ele>71</ele>
        <time>2023-08-09T09:43:54.129+00:00</time>
      </trkpt>
      <trkpt lat="48.30176" lon="2.78499">
        <ele>71</ele>
        <time>2023-08-09T09:43:59.136+00:00</time>
      </trkpt>
      <trkpt lat="48.30177" lon="2.78506">
        <ele>71</ele>
        <time>2023-08-09T09:44:03.137+00:00</time>
      </trkpt>
      <trkpt lat="48.30177" lon="2.78513">
        <ele>71</ele>
        <time>2023-08-09T09:44:07.144+00:00</time>
      </trkpt>
      <trkpt lat="48.30177" lon="2.78519">
        <ele>74</ele>
        <time>2023-08-09T09:44:12.157+00:00</time>
      </trkpt>
      <trkpt lat="48.30177" lon="2.78526">
        <ele>74</ele>
        <time>2023-08-09T09:44:17.150+00:00</time>
      </trkpt>
      <trkpt lat="48.30177" lon="2.78535">
        <ele>74</ele>
        <time>2023-08-09T09:44:22.141+00:00</time>
      </trkpt>
      <trkpt lat="48.30177" lon="2.78545">
        <ele>77</ele>
        <time>2023-08-09T09:44:27.169+00:00</time>
      </trkpt>
      <trkpt lat="48.30178" lon="2.78553">
        <ele>77</ele>
        <time>2023-08-09T09:44:32.127+00:00</time>
      </trkpt>
      <trkpt lat="48.30179" lon="2.78562">
        <ele>77</ele>
        <time>2023-08-09T09:44:37.128+00:00</time>
      </trkpt>
      <trkpt lat="48.30179" lon="2.7857">
        <ele>77</ele>
        <time>2023-08-09T09:44:42.140+00:00</time>
      </trkpt>
      <trkpt lat="48.30179" lon="2.78576">
        <ele>77</ele>
        <time>2023-08-09T09:44:46.140+00:00</time>
      </trkpt>
      <trkpt lat="48.30178" lon="2.78579">
        <ele>77</ele>
        <time>2023-08-09T09:44:50.129+00:00</time>
      </trkpt>
      <trkpt lat="48.30178" lon="2.78587">
        <ele>77</ele>
        <time>2023-08-09T09:44:55.151+00:00</time>
      </trkpt>
      <trkpt lat="48.30177" lon="2.78595">
        <ele>77</ele>
        <time>2023-08-09T09:45:00.134+00:00</time>
      </trkpt>
      <trkpt lat="48.30177" lon="2.786">
        <ele>78</ele>
        <time>2023-08-09T09:45:05.148+00:00</time>
      </trkpt>
      <trkpt lat="48.30176" lon="2.78601">
        <ele>78</ele>
        <time>2023-08-09T09:45:09.153+00:00</time>
      </trkpt>
      <trkpt lat="48.30175" lon="2.78608">
        <ele>78</ele>
        <time>2023-08-09T09:45:14.125+00:00</time>
      </trkpt>
      <trkpt lat="48.30175" lon="2.78615">
        <ele>78</ele>
        <time>2023-08-09T09:45:19.101+00:00</time>
      </trkpt>
      <trkpt lat="48.30175" lon="2.78624">
        <ele>78</ele>
        <time>2023-08-09T09:45:23.113+00:00</time>
      </trkpt>
      <trkpt lat="48.30176" lon="2.78637">
        <ele>82</ele>
        <time>2023-08-09T09:45:28.104+00:00</time>
      </trkpt>
      <trkpt lat="48.30176" lon="2.78644">
        <ele>82</ele>
        <time>2023-08-09T09:45:32.107+00:00</time>
      </trkpt>
      <trkpt lat="48.30176" lon="2.78652">
        <ele>82</ele>
        <time>2023-08-09T09:45:37.103+00:00</time>
      </trkpt>
      <trkpt lat="48.30176" lon="2.78659">
        <ele>87</ele>
        <time>2023-08-09T09:45:41.139+00:00</time>
      </trkpt>
      <trkpt lat="48.30176" lon="2.78667">
        <ele>87</ele>
        <time>2023-08-09T09:45:46.126+00:00</time>
      </trkpt>
      <trkpt lat="48.30178" lon="2.78675">
        <ele>87</ele>
        <time>2023-08-09T09:45:50.138+00:00</time>
      </trkpt>
      <trkpt lat="48.3018" lon="2.78682">
        <ele>92</ele>
        <time>2023-08-09T09:45:55.155+00:00</time>
      </trkpt>
      <trkpt lat="48.30182" lon="2.7869">
        <ele>86</ele>
        <time>2023-08-09T09:46:00.113+00:00</time>
      </trkpt>
      <trkpt lat="48.30183" lon="2.78695">
        <ele>86</ele>
        <time>2023-08-09T09:46:04.124+00:00</time>
      </trkpt>
      <trkpt lat="48.30186" lon="2.78702">
        <ele>86</ele>
        <time>2023-08-09T09:46:09.144+00:00</time>
      </trkpt>
      <trkpt lat="48.30187" lon="2.78708">
        <ele>86</ele>
        <time>2023-08-09T09:46:13.150+00:00</time>
      </trkpt>
      <trkpt lat="48.30188" lon="2.78714">
        <ele>90</ele>
        <time>2023-08-09T09:46:18.130+00:00</time>
      </trkpt>
      <trkpt lat="48.30189" lon="2.78722">
        <ele>90</ele>
        <time>2023-08-09T09:46:23.138+00:00</time>
      </trkpt>
      <trkpt lat="48.30191" lon="2.78728">
        <ele>90</ele>
        <time>2023-08-09T09:46:27.157+00:00</time>
      </trkpt>
      <trkpt lat="48.3019" lon="2.78735">
        <ele>90</ele>
        <time>2023-08-09T09:46:32.114+00:00</time>
      </trkpt>
      <trkpt lat="48.30191" lon="2.78741">
        <ele>94</ele>
        <time>2023-08-09T09:46:36.127+00:00</time>
      </trkpt>
      <trkpt lat="48.30192" lon="2.78748">
        <ele>94</ele>
        <time>2023-08-09T09:46:41.126+00:00</time>
      </trkpt>
      <trkpt lat="48.30193" lon="2.78754">
        <ele>94</ele>
        <time>2023-08-09T09:46:45.150+00:00</time>
      </trkpt>
      <trkpt lat="48.30193" lon="2.78763">
        <ele>94</ele>
        <time>2023-08-09T09:46:50.127+00:00</time>
      </trkpt>
      <trkpt lat="48.30193" lon="2.7877">
        <ele>97</ele>
        <time>2023-08-09T09:46:54.128+00:00</time>
      </trkpt>
      <trkpt lat="48.30192" lon="2.78779">
        <ele>97</ele>
        <time>2023-08-09T09:46:59.130+00:00</time>
      </trkpt>
      <trkpt lat="48.30191" lon="2.78789">
        <ele>97</ele>
        <time>2023-08-09T09:47:04.121+00:00</time>
      </trkpt>
      <trkpt lat="48.3019" lon="2.78796">
        <ele>101</ele>
        <time>2023-08-09T09:47:08.135+00:00</time>
      </trkpt>
      <trkpt lat="48.30188" lon="2.78801">
        <ele>101</ele>
        <time>2023-08-09T09:47:12.148+00:00</time>
      </trkpt>
      <trkpt lat="48.30185" lon="2.78807">
        <ele>101</ele>
        <time>2023-08-09T09:47:17.139+00:00</time>
      </trkpt>
      <trkpt lat="48.30181" lon="2.78815">
        <ele>101</ele>
        <time>2023-08-09T09:47:22.136+00:00</time>
      </trkpt>
      <trkpt lat="48.30178" lon="2.78821">
        <ele>106</ele>
        <time>2023-08-09T09:47:26.153+00:00</time>
      </trkpt>
      <trkpt lat="48.30175" lon="2.78829">
        <ele>106</ele>
        <time>2023-08-09T09:47:31.151+00:00</time>
      </trkpt>
      <trkpt lat="48.30172" lon="2.78834">
        <ele>106</ele>
        <time>2023-08-09T09:47:35.159+00:00</time>
      </trkpt>
      <trkpt lat="48.30165" lon="2.78838">
        <ele>106</ele>
        <time>2023-08-09T09:47:40.131+00:00</time>
      </trkpt>
      <trkpt lat="48.30159" lon="2.78841">
        <ele>106</ele>
        <time>2023-08-09T09:47:45.123+00:00</time>
      </trkpt>
      <trkpt lat="48.30156" lon="2.78847">
        <ele>107</ele>
        <time>2023-08-09T09:47:49.137+00:00</time>
      </trkpt>
      <trkpt lat="48.30152" lon="2.78853">
        <ele>105</ele>
        <time>2023-08-09T09:47:53.153+00:00</time>
      </trkpt>
      <trkpt lat="48.30148" lon="2.78861">
        <ele>105</ele>
        <time>2023-08-09T09:47:58.130+00:00</time>
      </trkpt>
      <trkpt lat="48.30144" lon="2.78868">
        <ele>105</ele>
        <time>2023-08-09T09:48:02.140+00:00</time>
      </trkpt>
      <trkpt lat="48.30139" lon="2.7888">
        <ele>105</ele>
        <time>2023-08-09T09:48:07.117+00:00</time>
      </trkpt>
      <trkpt lat="48.30138" lon="2.78891">
        <ele>105</ele>
        <time>2023-08-09T09:48:11.133+00:00</time>
      </trkpt>
      <trkpt lat="48.3014" lon="2.78905">
        <ele>105</ele>
        <time>2023-08-09T09:48:16.106+00:00</time>
      </trkpt>
      <trkpt lat="48.30141" lon="2.78915">
        <ele>105</ele>
        <time>2023-08-09T09:48:20.147+00:00</time>
      </trkpt>
      <trkpt lat="48.30142" lon="2.78926">
        <ele>105</ele>
        <time>2023-08-09T09:48:25.143+00:00</time>
      </trkpt>
      <trkpt lat="48.30143" lon="2.78934">
        <ele>104</ele>
        <time>2023-08-09T09:48:29.159+00:00</time>
      </trkpt>
      <trkpt lat="48.30143" lon="2.78946">
        <ele>104</ele>
        <time>2023-08-09T09:48:34.146+00:00</time>
      </trkpt>
      <trkpt lat="48.30143" lon="2.78954">
        <ele>104</ele>
        <time>2023-08-09T09:48:38.149+00:00</time>
      </trkpt>
      <trkpt lat="48.30144" lon="2.78963">
        <ele>102</ele>
        <time>2023-08-09T09:48:42.147+00:00</time>
      </trkpt>
      <trkpt lat="48.30145" lon="2.78973">
        <ele>102</ele>
        <time>2023-08-09T09:48:47.141+00:00</time>
      </trkpt>
      <trkpt lat="48.30146" lon="2.78983">
        <ele>102</ele>
        <time>2023-08-09T09:48:52.119+00:00</time>
      </trkpt>
      <trkpt lat="48.30147" lon="2.78992">
        <ele>102</ele>
        <time>2023-08-09T09:48:57.138+00:00</time>
      </trkpt>
      <trkpt lat="48.30148" lon="2.79003">
        <ele>102</ele>
        <time>2023-08-09T09:49:02.125+00:00</time>
      </trkpt>
      <trkpt lat="48.30149" lon="2.79011">
        <ele>102</ele>
        <time>2023-08-09T09:49:06.150+00:00</time>
      </trkpt>
      <trkpt lat="48.30151" lon="2.79022">
        <ele>102</ele>
        <time>2023-08-09T09:49:11.112+00:00</time>
      </trkpt>
      <trkpt lat="48.30152" lon="2.79029">
        <ele>102</ele>
        <time>2023-08-09T09:49:15.132+00:00</time>
      </trkpt>
      <trkpt lat="48.30154" lon="2.79037">
        <ele>103</ele>
        <time>2023-08-09T09:49:19.133+00:00</time>
      </trkpt>
      <trkpt lat="48.30155" lon="2.79045">
        <ele>103</ele>
        <time>2023-08-09T09:49:23.144+00:00</time>
      </trkpt>
      <trkpt lat="48.30156" lon="2.79056">
        <ele>103</ele>
        <time>2023-08-09T09:49:28.132+00:00</time>
      </trkpt>
      <trkpt lat="48.30159" lon="2.79063">
        <ele>103</ele>
        <time>2023-08-09T09:49:32.127+00:00</time>
      </trkpt>
      <trkpt lat="48.30162" lon="2.7907">
        <ele>103</ele>
        <time>2023-08-09T09:49:36.158+00:00</time>
      </trkpt>
      <trkpt lat="48.30165" lon="2.79076">
        <ele>103</ele>
        <time>2023-08-09T09:49:40.143+00:00</time>
      </trkpt>
      <trkpt lat="48.30169" lon="2.79084">
        <ele>103</ele>
        <time>2023-08-09T09:49:45.137+00:00</time>
      </trkpt>
      <trkpt lat="48.30173" lon="2.79091">
        <ele>103</ele>
        <time>2023-08-09T09:49:49.130+00:00</time>
      </trkpt>
      <trkpt lat="48.30177" lon="2.79099">
        <ele>103</ele>
        <time>2023-08-09T09:49:54.134+00:00</time>
      </trkpt>
      <trkpt lat="48.30179" lon="2.79102">
        <ele>103</ele>
        <time>2023-08-09T09:49:59.140+00:00</time>
      </trkpt>
      <trkpt lat="48.30178" lon="2.79104">
        <ele>103</ele>
        <time>2023-08-09T09:50:43.116+00:00</time>
      </trkpt>
      <trkpt lat="48.30182" lon="2.79112">
        <ele>101</ele>
        <time>2023-08-09T09:50:48.126+00:00</time>
      </trkpt>
      <trkpt lat="48.30186" lon="2.79119">
        <ele>101</ele>
        <time>2023-08-09T09:50:53.129+00:00</time>
      </trkpt>
      <trkpt lat="48.30189" lon="2.79125">
        <ele>101</ele>
        <time>2023-08-09T09:50:58.124+00:00</time>
      </trkpt>
      <trkpt lat="48.30193" lon="2.79134">
        <ele>101</ele>
        <time>2023-08-09T09:51:03.115+00:00</time>
      </trkpt>
      <trkpt lat="48.30197" lon="2.79144">
        <ele>101</ele>
        <time>2023-08-09T09:51:08.118+00:00</time>
      </trkpt>
      <trkpt lat="48.302" lon="2.79151">
        <ele>101</ele>
        <time>2023-08-09T09:51:12.147+00:00</time>
      </trkpt>
      <trkpt lat="48.30203" lon="2.7916">
        <ele>101</ele>
        <time>2023-08-09T09:51:17.132+00:00</time>
      </trkpt>
      <trkpt lat="48.30206" lon="2.79168">
        <ele>101</ele>
        <time>2023-08-09T09:51:21.147+00:00</time>
      </trkpt>
      <trkpt lat="48.30209" lon="2.79176">
        <ele>99</ele>
        <time>2023-08-09T09:51:25.149+00:00</time>
      </trkpt>
      <trkpt lat="48.30212" lon="2.79185">
        <ele>99</ele>
        <time>2023-08-09T09:51:30.144+00:00</time>
      </trkpt>
      <trkpt lat="48.30215" lon="2.79193">
        <ele>99</ele>
        <time>2023-08-09T09:51:35.141+00:00</time>
      </trkpt>
      <trkpt lat="48.30218" lon="2.79201">
        <ele>99</ele>
        <time>2023-08-09T09:51:39.153+00:00</time>
      </trkpt>
      <trkpt lat="48.30221" lon="2.79212">
        <ele>99</ele>
        <time>2023-08-09T09:51:44.160+00:00</time>
      </trkpt>
      <trkpt lat="48.30224" lon="2.79222">
        <ele>99</ele>
        <time>2023-08-09T09:51:49.141+00:00</time>
      </trkpt>
      <trkpt lat="48.30227" lon="2.79232">
        <ele>99</ele>
        <time>2023-08-09T09:51:54.135+00:00</time>
      </trkpt>
      <trkpt lat="48.30229" lon="2.79239">
        <ele>99</ele>
        <time>2023-08-09T09:51:58.138+00:00</time>
      </trkpt>
      <trkpt lat="48.30231" lon="2.79249">
        <ele>99</ele>
        <time>2023-08-09T09:52:03.143+00:00</time>
      </trkpt>
      <trkpt lat="48.30234" lon="2.79259">
        <ele>99</ele>
        <time>2023-08-09T09:52:08.103+00:00</time>
      </trkpt>
      <trkpt lat="48.30236" lon="2.79268">
        <ele>99</ele>
        <time>2023-08-09T09:52:12.121+00:00</time>
      </trkpt>
      <trkpt lat="48.30239" lon="2.79277">
        <ele>99</ele>
        <time>2023-08-09T09:52:17.128+00:00</time>
      </trkpt>
      <trkpt lat="48.30242" lon="2.79285">
        <ele>99</ele>
        <time>2023-08-09T09:52:22.130+00:00</time>
      </trkpt>
      <trkpt lat="48.30244" lon="2.79293">
        <ele>98</ele>
        <time>2023-08-09T09:52:26.132+00:00</time>
      </trkpt>
      <trkpt lat="48.30247" lon="2.79303">
        <ele>98</ele>
        <time>2023-08-09T09:52:31.137+00:00</time>
      </trkpt>
      <trkpt lat="48.3025" lon="2.79312">
        <ele>98</ele>
        <time>2023-08-09T09:52:36.146+00:00</time>
      </trkpt>
      <trkpt lat="48.30253" lon="2.79323">
        <ele>97</ele>
        <time>2023-08-09T09:52:41.139+00:00</time>
      </trkpt>
      <trkpt lat="48.30255" lon="2.7933">
        <ele>97</ele>
        <time>2023-08-09T09:52:45.141+00:00</time>
      </trkpt>
      <trkpt lat="48.30257" lon="2.7934">
        <ele>97</ele>
        <time>2023-08-09T09:52:50.134+00:00</time>
      </trkpt>
      <trkpt lat="48.30259" lon="2.7935">
        <ele>96</ele>
        <time>2023-08-09T09:52:55.128+00:00</time>
      </trkpt>
      <trkpt lat="48.30261" lon="2.79358">
        <ele>96</ele>
        <time>2023-08-09T09:52:59.138+00:00</time>
      </trkpt>
      <trkpt lat="48.30264" lon="2.79367">
        <ele>96</ele>
        <time>2023-08-09T09:53:04.149+00:00</time>
      </trkpt>
      <trkpt lat="48.30265" lon="2.79377">
        <ele>97</ele>
        <time>2023-08-09T09:53:09.128+00:00</time>
      </trkpt>
      <trkpt lat="48.30267" lon="2.79386">
        <ele>97</ele>
        <time>2023-08-09T09:53:14.130+00:00</time>
      </trkpt>
      <trkpt lat="48.3027" lon="2.79396">
        <ele>97</ele>
        <time>2023-08-09T09:53:19.138+00:00</time>
      </trkpt>
      <trkpt lat="48.30273" lon="2.79407">
        <ele>98</ele>
        <time>2023-08-09T09:53:24.140+00:00</time>
      </trkpt>
      <trkpt lat="48.30276" lon="2.79414">
        <ele>98</ele>
        <time>2023-08-09T09:53:28.116+00:00</time>
      </trkpt>
      <trkpt lat="48.30278" lon="2.79424">
        <ele>98</ele>
        <time>2023-08-09T09:53:33.139+00:00</time>
      </trkpt>
      <trkpt lat="48.30281" lon="2.79434">
        <ele>99</ele>
        <time>2023-08-09T09:53:38.103+00:00</time>
      </trkpt>
      <trkpt lat="48.30284" lon="2.79442">
        <ele>99</ele>
        <time>2023-08-09T09:53:42.124+00:00</time>
      </trkpt>
      <trkpt lat="48.30285" lon="2.79449">
        <ele>99</ele>
        <time>2023-08-09T09:53:46.135+00:00</time>
      </trkpt>
      <trkpt lat="48.30287" lon="2.79455">
        <ele>99</ele>
        <time>2023-08-09T09:53:50.151+00:00</time>
      </trkpt>
      <trkpt lat="48.3029" lon="2.79462">
        <ele>100</ele>
        <time>2023-08-09T09:53:55.142+00:00</time>
      </trkpt>
      <trkpt lat="48.30295" lon="2.79467">
        <ele>101</ele>
        <time>2023-08-09T09:54:00.134+00:00</time>
      </trkpt>
      <trkpt lat="48.303" lon="2.79474">
        <ele>101</ele>
        <time>2023-08-09T09:54:05.162+00:00</time>
      </trkpt>
      <trkpt lat="48.30305" lon="2.79479">
        <ele>101</ele>
        <time>2023-08-09T09:54:10.139+00:00</time>
      </trkpt>
      <trkpt lat="48.3031" lon="2.79485">
        <ele>101</ele>
        <time>2023-08-09T09:54:15.126+00:00</time>
      </trkpt>
      <trkpt lat="48.30314" lon="2.7949">
        <ele>100</ele>
        <time>2023-08-09T09:54:19.119+00:00</time>
      </trkpt>
      <trkpt lat="48.30319" lon="2.79494">
        <ele>100</ele>
        <time>2023-08-09T09:54:24.132+00:00</time>
      </trkpt>
      <trkpt lat="48.30324" lon="2.79498">
        <ele>100</ele>
        <time>2023-08-09T09:54:29.127+00:00</time>
      </trkpt>
      <trkpt lat="48.30323" lon="2.79498">
        <ele>100</ele>
        <time>2023-08-09T09:54:48.129+00:00</time>
      </trkpt>
      <trkpt lat="48.30323" lon="2.79498">
        <ele>100</ele>
        <time>2023-08-09T09:54:53.134+00:00</time>
      </trkpt>
      <trkpt lat="48.30323" lon="2.79497">
        <ele>100</ele>
        <time>2023-08-09T09:54:58.141+00:00</time>
      </trkpt>
      <trkpt lat="48.30318" lon="2.79491">
        <ele>100</ele>
        <time>2023-08-09T09:55:03.141+00:00</time>
      </trkpt>
      <trkpt lat="48.30313" lon="2.79487">
        <ele>100</ele>
        <time>2023-08-09T09:55:08.142+00:00</time>
      </trkpt>
      <trkpt lat="48.30308" lon="2.79484">
        <ele>101</ele>
        <time>2023-08-09T09:55:13.137+00:00</time>
      </trkpt>
      <trkpt lat="48.30302" lon="2.79479">
        <ele>101</ele>
        <time>2023-08-09T09:55:18.146+00:00</time>
      </trkpt>
      <trkpt lat="48.30295" lon="2.79477">
        <ele>101</ele>
        <time>2023-08-09T09:55:23.142+00:00</time>
      </trkpt>
      <trkpt lat="48.30291" lon="2.79483">
        <ele>100</ele>
        <time>2023-08-09T09:55:28.140+00:00</time>
      </trkpt>
      <trkpt lat="48.30292" lon="2.79489">
        <ele>100</ele>
        <time>2023-08-09T09:55:32.130+00:00</time>
      </trkpt>
      <trkpt lat="48.30294" lon="2.79495">
        <ele>100</ele>
        <time>2023-08-09T09:55:36.144+00:00</time>
      </trkpt>
      <trkpt lat="48.30297" lon="2.79504">
        <ele>100</ele>
        <time>2023-08-09T09:55:41.140+00:00</time>
      </trkpt>
      <trkpt lat="48.30299" lon="2.79511">
        <ele>100</ele>
        <time>2023-08-09T09:55:45.151+00:00</time>
      </trkpt>
      <trkpt lat="48.30301" lon="2.7952">
        <ele>98</ele>
        <time>2023-08-09T09:55:50.117+00:00</time>
      </trkpt>
      <trkpt lat="48.30305" lon="2.7953">
        <ele>98</ele>
        <time>2023-08-09T09:55:54.134+00:00</time>
      </trkpt>
      <trkpt lat="48.30307" lon="2.79539">
        <ele>98</ele>
        <time>2023-08-09T09:55:59.121+00:00</time>
      </trkpt>
      <trkpt lat="48.30308" lon="2.79547">
        <ele>97</ele>
        <time>2023-08-09T09:56:03.133+00:00</time>
      </trkpt>
      <trkpt lat="48.3031" lon="2.79554">
        <ele>97</ele>
        <time>2023-08-09T09:56:07.141+00:00</time>
      </trkpt>
      <trkpt lat="48.30312" lon="2.79562">
        <ele>97</ele>
        <time>2023-08-09T09:56:12.149+00:00</time>
      </trkpt>
      <trkpt lat="48.30314" lon="2.79573">
        <ele>97</ele>
        <time>2023-08-09T09:56:17.150+00:00</time>
      </trkpt>
      <trkpt lat="48.30316" lon="2.79585">
        <ele>97</ele>
        <time>2023-08-09T09:56:22.144+00:00</time>
      </trkpt>
      <trkpt lat="48.30317" lon="2.79595">
        <ele>97</ele>
        <time>2023-08-09T09:56:27.119+00:00</time>
      </trkpt>
      <trkpt lat="48.30318" lon="2.79602">
        <ele>96</ele>
        <time>2023-08-09T09:56:31.128+00:00</time>
      </trkpt>
      <trkpt lat="48.30319" lon="2.79608">
        <ele>96</ele>
        <time>2023-08-09T09:56:36.096+00:00</time>
      </trkpt>
      <trkpt lat="48.30319" lon="2.7961">
        <ele>96</ele>
        <time>2023-08-09T09:56:40.098+00:00</time>
      </trkpt>
      <trkpt lat="48.30317" lon="2.79615">
        <ele>96</ele>
        <time>2023-08-09T09:56:53.102+00:00</time>
      </trkpt>
      <trkpt lat="48.30319" lon="2.79619">
        <ele>96</ele>
        <time>2023-08-09T09:56:57.135+00:00</time>
      </trkpt>
      <trkpt lat="48.30321" lon="2.79628">
        <ele>97</ele>
        <time>2023-08-09T09:57:02.124+00:00</time>
      </trkpt>
      <trkpt lat="48.30323" lon="2.79638">
        <ele>97</ele>
        <time>2023-08-09T09:57:07.111+00:00</time>
      </trkpt>
      <trkpt lat="48.30324" lon="2.79647">
        <ele>97</ele>
        <time>2023-08-09T09:57:12.102+00:00</time>
      </trkpt>
      <trkpt lat="48.30326" lon="2.79654">
        <ele>97</ele>
        <time>2023-08-09T09:57:16.119+00:00</time>
      </trkpt>
      <trkpt lat="48.30327" lon="2.79662">
        <ele>97</ele>
        <time>2023-08-09T09:57:20.140+00:00</time>
      </trkpt>
      <trkpt lat="48.30329" lon="2.79669">
        <ele>97</ele>
        <time>2023-08-09T09:57:24.137+00:00</time>
      </trkpt>
      <trkpt lat="48.30331" lon="2.79679">
        <ele>97</ele>
        <time>2023-08-09T09:57:29.102+00:00</time>
      </trkpt>
      <trkpt lat="48.30333" lon="2.79685">
        <ele>96</ele>
        <time>2023-08-09T09:57:33.157+00:00</time>
      </trkpt>
      <trkpt lat="48.30335" lon="2.79695">
        <ele>96</ele>
        <time>2023-08-09T09:57:38.148+00:00</time>
      </trkpt>
      <trkpt lat="48.30337" lon="2.79703">
        <ele>96</ele>
        <time>2023-08-09T09:57:42.138+00:00</time>
      </trkpt>
      <trkpt lat="48.30339" lon="2.79711">
        <ele>95</ele>
        <time>2023-08-09T09:57:47.139+00:00</time>
      </trkpt>
      <trkpt lat="48.30341" lon="2.79721">
        <ele>95</ele>
        <time>2023-08-09T09:57:52.145+00:00</time>
      </trkpt>
      <trkpt lat="48.30344" lon="2.7973">
        <ele>95</ele>
        <time>2023-08-09T09:57:57.147+00:00</time>
      </trkpt>
      <trkpt lat="48.30346" lon="2.79739">
        <ele>92</ele>
        <time>2023-08-09T09:58:02.120+00:00</time>
      </trkpt>
      <trkpt lat="48.30348" lon="2.79748">
        <ele>93</ele>
        <time>2023-08-09T09:58:07.134+00:00</time>
      </trkpt>
      <trkpt lat="48.30349" lon="2.79755">
        <ele>93</ele>
        <time>2023-08-09T09:58:11.137+00:00</time>
      </trkpt>
      <trkpt lat="48.30351" lon="2.79765">
        <ele>89</ele>
        <time>2023-08-09T09:58:16.123+00:00</time>
      </trkpt>
      <trkpt lat="48.30354" lon="2.79773">
        <ele>89</ele>
        <time>2023-08-09T09:58:20.149+00:00</time>
      </trkpt>
      <trkpt lat="48.30359" lon="2.79778">
        <ele>89</ele>
        <time>2023-08-09T09:58:24.149+00:00</time>
      </trkpt>
      <trkpt lat="48.30365" lon="2.79779">
        <ele>89</ele>
        <time>2023-08-09T09:58:29.139+00:00</time>
      </trkpt>
      <trkpt lat="48.30371" lon="2.79778">
        <ele>89</ele>
        <time>2023-08-09T09:58:34.139+00:00</time>
      </trkpt>
      <trkpt lat="48.30377" lon="2.79776">
        <ele>91</ele>
        <time>2023-08-09T09:58:39.130+00:00</time>
      </trkpt>
      <trkpt lat="48.30382" lon="2.79774">
        <ele>91</ele>
        <time>2023-08-09T09:58:43.128+00:00</time>
      </trkpt>
      <trkpt lat="48.30388" lon="2.79772">
        <ele>91</ele>
        <time>2023-08-09T09:58:48.131+00:00</time>
      </trkpt>
      <trkpt lat="48.30393" lon="2.79771">
        <ele>91</ele>
        <time>2023-08-09T09:58:53.140+00:00</time>
      </trkpt>
      <trkpt lat="48.30397" lon="2.7977">
        <ele>91</ele>
        <time>2023-08-09T09:58:57.146+00:00</time>
      </trkpt>
      <trkpt lat="48.30401" lon="2.79768">
        <ele>91</ele>
        <time>2023-08-09T09:59:01.158+00:00</time>
      </trkpt>
      <trkpt lat="48.30408" lon="2.79766">
        <ele>93</ele>
        <time>2023-08-09T09:59:06.148+00:00</time>
      </trkpt>
      <trkpt lat="48.30413" lon="2.79765">
        <ele>93</ele>
        <time>2023-08-09T09:59:11.142+00:00</time>
      </trkpt>
      <trkpt lat="48.30419" lon="2.79763">
        <ele>96</ele>
        <time>2023-08-09T09:59:15.137+00:00</time>
      </trkpt>
      <trkpt lat="48.30425" lon="2.79761">
        <ele>96</ele>
        <time>2023-08-09T09:59:20.143+00:00</time>
      </trkpt>
      <trkpt lat="48.30432" lon="2.7976">
        <ele>96</ele>
        <time>2023-08-09T09:59:25.129+00:00</time>
      </trkpt>
      <trkpt lat="48.30437" lon="2.79759">
        <ele>96</ele>
        <time>2023-08-09T09:59:30.146+00:00</time>
      </trkpt>
      <trkpt lat="48.30443" lon="2.79757">
        <ele>96</ele>
        <time>2023-08-09T09:59:35.137+00:00</time>
      </trkpt>
      <trkpt lat="48.30448" lon="2.79756">
        <ele>96</ele>
        <time>2023-08-09T09:59:39.140+00:00</time>
      </trkpt>
      <trkpt lat="48.30452" lon="2.79754">
        <ele>96</ele>
        <time>2023-08-09T09:59:43.152+00:00</time>
      </trkpt>
      <trkpt lat="48.30459" lon="2.79753">
        <ele>95</ele>
        <time>2023-08-09T09:59:48.154+00:00</time>
      </trkpt>
      <trkpt lat="48.30464" lon="2.79751">
        <ele>95</ele>
        <time>2023-08-09T09:59:53.144+00:00</time>
      </trkpt>
      <trkpt lat="48.30468" lon="2.79754">
        <ele>95</ele>
        <time>2023-08-09T09:59:58.114+00:00</time>
      </trkpt>
      <trkpt lat="48.3047" lon="2.7976">
        <ele>95</ele>
        <time>2023-08-09T10:00:03.110+00:00</time>
      </trkpt>
      <trkpt lat="48.3047" lon="2.79767">
        <ele>94</ele>
        <time>2023-08-09T10:00:07.117+00:00</time>
      </trkpt>
      <trkpt lat="48.30471" lon="2.79775">
        <ele>94</ele>
        <time>2023-08-09T10:00:11.132+00:00</time>
      </trkpt>
      <trkpt lat="48.30471" lon="2.79783">
        <ele>94</ele>
        <time>2023-08-09T10:00:15.161+00:00</time>
      </trkpt>
      <trkpt lat="48.30472" lon="2.79793">
        <ele>94</ele>
        <time>2023-08-09T10:00:20.134+00:00</time>
      </trkpt>
      <trkpt lat="48.30473" lon="2.79801">
        <ele>94</ele>
        <time>2023-08-09T10:00:24.144+00:00</time>
      </trkpt>
      <trkpt lat="48.30475" lon="2.7981">
        <ele>94</ele>
        <time>2023-08-09T10:00:29.146+00:00</time>
      </trkpt>
      <trkpt lat="48.30476" lon="2.79817">
        <ele>94</ele>
        <time>2023-08-09T10:00:33.156+00:00</time>
      </trkpt>
      <trkpt lat="48.30477" lon="2.79826">
        <ele>94</ele>
        <time>2023-08-09T10:00:38.158+00:00</time>
      </trkpt>
      <trkpt lat="48.30478" lon="2.79834">
        <ele>94</ele>
        <time>2023-08-09T10:00:42.164+00:00</time>
      </trkpt>
      <trkpt lat="48.3048" lon="2.79843">
        <ele>94</ele>
        <time>2023-08-09T10:00:47.144+00:00</time>
      </trkpt>
      <trkpt lat="48.30482" lon="2.79851">
        <ele>93</ele>
        <time>2023-08-09T10:00:51.154+00:00</time>
      </trkpt>
      <trkpt lat="48.30483" lon="2.79858">
        <ele>93</ele>
        <time>2023-08-09T10:00:55.146+00:00</time>
      </trkpt>
      <trkpt lat="48.30484" lon="2.79866">
        <ele>93</ele>
        <time>2023-08-09T10:00:59.158+00:00</time>
      </trkpt>
      <trkpt lat="48.30485" lon="2.79875">
        <ele>92</ele>
        <time>2023-08-09T10:01:04.148+00:00</time>
      </trkpt>
      <trkpt lat="48.30487" lon="2.79885">
        <ele>94</ele>
        <time>2023-08-09T10:01:09.149+00:00</time>
      </trkpt>
      <trkpt lat="48.30487" lon="2.79893">
        <ele>94</ele>
        <time>2023-08-09T10:01:24.148+00:00</time>
      </trkpt>
      <trkpt lat="48.3049" lon="2.799">
        <ele>94</ele>
        <time>2023-08-09T10:01:29.148+00:00</time>
      </trkpt>
      <trkpt lat="48.30492" lon="2.7991">
        <ele>93</ele>
        <time>2023-08-09T10:01:34.146+00:00</time>
      </trkpt>
      <trkpt lat="48.30495" lon="2.79919">
        <ele>93</ele>
        <time>2023-08-09T10:01:39.138+00:00</time>
      </trkpt>
      <trkpt lat="48.30497" lon="2.79928">
        <ele>93</ele>
        <time>2023-08-09T10:01:44.112+00:00</time>
      </trkpt>
      <trkpt lat="48.30499" lon="2.79935">
        <ele>90</ele>
        <time>2023-08-09T10:01:48.119+00:00</time>
      </trkpt>
      <trkpt lat="48.30501" lon="2.79943">
        <ele>90</ele>
        <time>2023-08-09T10:01:52.153+00:00</time>
      </trkpt>
      <trkpt lat="48.30504" lon="2.79952">
        <ele>90</ele>
        <time>2023-08-09T10:01:57.107+00:00</time>
      </trkpt>
      <trkpt lat="48.30507" lon="2.7996">
        <ele>88</ele>
        <time>2023-08-09T10:02:01.109+00:00</time>
      </trkpt>
      <trkpt lat="48.30509" lon="2.79967">
        <ele>88</ele>
        <time>2023-08-09T10:02:05.107+00:00</time>
      </trkpt>
      <trkpt lat="48.30512" lon="2.79976">
        <ele>88</ele>
        <time>2023-08-09T10:02:10.122+00:00</time>
      </trkpt>
      <trkpt lat="48.30515" lon="2.79983">
        <ele>90</ele>
        <time>2023-08-09T10:02:14.137+00:00</time>
      </trkpt>
      <trkpt lat="48.30518" lon="2.79992">
        <ele>89</ele>
        <time>2023-08-09T10:02:19.133+00:00</time>
      </trkpt>
      <trkpt lat="48.30521" lon="2.8">
        <ele>89</ele>
        <time>2023-08-09T10:02:24.144+00:00</time>
      </trkpt>
      <trkpt lat="48.30525" lon="2.80008">
        <ele>89</ele>
        <time>2023-08-09T10:02:29.127+00:00</time>
      </trkpt>
      <trkpt lat="48.30528" lon="2.80016">
        <ele>88</ele>
        <time>2023-08-09T10:02:34.108+00:00</time>
      </trkpt>
      <trkpt lat="48.30531" lon="2.80022">
        <ele>88</ele>
        <time>2023-08-09T10:02:38.145+00:00</time>
      </trkpt>
      <trkpt lat="48.30535" lon="2.8003">
        <ele>88</ele>
        <time>2023-08-09T10:02:43.120+00:00</time>
      </trkpt>
      <trkpt lat="48.3054" lon="2.80038">
        <ele>88</ele>
        <time>2023-08-09T10:02:48.105+00:00</time>
      </trkpt>
      <trkpt lat="48.30543" lon="2.80043">
        <ele>88</ele>
        <time>2023-08-09T10:02:52.103+00:00</time>
      </trkpt>
      <trkpt lat="48.30547" lon="2.80049">
        <ele>88</ele>
        <time>2023-08-09T10:02:56.125+00:00</time>
      </trkpt>
      <trkpt lat="48.30551" lon="2.80056">
        <ele>88</ele>
        <time>2023-08-09T10:03:01.134+00:00</time>
      </trkpt>
      <trkpt lat="48.30556" lon="2.80063">
        <ele>88</ele>
        <time>2023-08-09T10:03:06.128+00:00</time>
      </trkpt>
      <trkpt lat="48.30558" lon="2.80067">
        <ele>88</ele>
        <time>2023-08-09T10:03:10.120+00:00</time>
      </trkpt>
      <trkpt lat="48.30563" lon="2.80069">
        <ele>88</ele>
        <time>2023-08-09T10:03:15.111+00:00</time>
      </trkpt>
      <trkpt lat="48.30567" lon="2.80073">
        <ele>88</ele>
        <time>2023-08-09T10:03:19.114+00:00</time>
      </trkpt>
      <trkpt lat="48.30571" lon="2.80078">
        <ele>86</ele>
        <time>2023-08-09T10:03:23.139+00:00</time>
      </trkpt>
      <trkpt lat="48.30576" lon="2.80079">
        <ele>86</ele>
        <time>2023-08-09T10:03:28.107+00:00</time>
      </trkpt>
      <trkpt lat="48.3058" lon="2.80082">
        <ele>86</ele>
        <time>2023-08-09T10:03:32.127+00:00</time>
      </trkpt>
      <trkpt lat="48.30588" lon="2.80094">
        <ele>86</ele>
        <time>2023-08-09T10:03:50.107+00:00</time>
      </trkpt>
      <trkpt lat="48.30588" lon="2.80101">
        <ele>86</ele>
        <time>2023-08-09T10:03:55.097+00:00</time>
      </trkpt>
      <trkpt lat="48.30589" lon="2.80103">
        <ele>86</ele>
        <time>2023-08-09T10:03:59.103+00:00</time>
      </trkpt>
      <trkpt lat="48.30592" lon="2.80107">
        <ele>86</ele>
        <time>2023-08-09T10:04:03.125+00:00</time>
      </trkpt>
      <trkpt lat="48.30593" lon="2.80112">
        <ele>86</ele>
        <time>2023-08-09T10:04:07.139+00:00</time>
      </trkpt>
      <trkpt lat="48.30597" lon="2.80116">
        <ele>86</ele>
        <time>2023-08-09T10:04:11.150+00:00</time>
      </trkpt>
      <trkpt lat="48.30602" lon="2.80119">
        <ele>86</ele>
        <time>2023-08-09T10:04:16.103+00:00</time>
      </trkpt>
      <trkpt lat="48.30606" lon="2.80123">
        <ele>86</ele>
        <time>2023-08-09T10:04:20.119+00:00</time>
      </trkpt>
      <trkpt lat="48.30608" lon="2.80125">
        <ele>86</ele>
        <time>2023-08-09T10:04:24.115+00:00</time>
      </trkpt>
      <trkpt lat="48.30602" lon="2.80119">
        <ele>86</ele>
        <time>2023-08-09T10:04:29.107+00:00</time>
      </trkpt>
      <trkpt lat="48.30599" lon="2.80113">
        <ele>86</ele>
        <time>2023-08-09T10:04:33.107+00:00</time>
      </trkpt>
      <trkpt lat="48.30595" lon="2.80107">
        <ele>86</ele>
        <time>2023-08-09T10:04:37.112+00:00</time>
      </trkpt>
      <trkpt lat="48.30591" lon="2.80103">
        <ele>86</ele>
        <time>2023-08-09T10:04:41.129+00:00</time>
      </trkpt>
      <trkpt lat="48.30587" lon="2.80097">
        <ele>86</ele>
        <time>2023-08-09T10:04:45.147+00:00</time>
      </trkpt>
      <trkpt lat="48.30583" lon="2.80092">
        <ele>86</ele>
        <time>2023-08-09T10:04:50.132+00:00</time>
      </trkpt>
      <trkpt lat="48.30577" lon="2.80085">
        <ele>86</ele>
        <time>2023-08-09T10:04:55.134+00:00</time>
      </trkpt>
      <trkpt lat="48.30571" lon="2.80079">
        <ele>86</ele>
        <time>2023-08-09T10:05:00.117+00:00</time>
      </trkpt>
      <trkpt lat="48.30567" lon="2.80075">
        <ele>88</ele>
        <time>2023-08-09T10:05:04.146+00:00</time>
      </trkpt>
      <trkpt lat="48.30561" lon="2.80071">
        <ele>88</ele>
        <time>2023-08-09T10:05:09.153+00:00</time>
      </trkpt>
      <trkpt lat="48.30554" lon="2.80071">
        <ele>88</ele>
        <time>2023-08-09T10:05:14.133+00:00</time>
      </trkpt>
      <trkpt lat="48.30547" lon="2.80075">
        <ele>88</ele>
        <time>2023-08-09T10:05:19.114+00:00</time>
      </trkpt>
      <trkpt lat="48.30542" lon="2.80077">
        <ele>88</ele>
        <time>2023-08-09T10:05:23.120+00:00</time>
      </trkpt>
      <trkpt lat="48.30537" lon="2.80078">
        <ele>89</ele>
        <time>2023-08-09T10:05:27.122+00:00</time>
      </trkpt>
      <trkpt lat="48.30533" lon="2.8008">
        <ele>89</ele>
        <time>2023-08-09T10:05:31.139+00:00</time>
      </trkpt>
      <trkpt lat="48.30525" lon="2.80082">
        <ele>89</ele>
        <time>2023-08-09T10:05:36.140+00:00</time>
      </trkpt>
      <trkpt lat="48.30518" lon="2.80084">
        <ele>89</ele>
        <time>2023-08-09T10:05:41.152+00:00</time>
      </trkpt>
      <trkpt lat="48.30511" lon="2.80087">
        <ele>88</ele>
        <time>2023-08-09T10:05:46.147+00:00</time>
      </trkpt>
      <trkpt lat="48.30504" lon="2.80088">
        <ele>88</ele>
        <time>2023-08-09T10:05:50.166+00:00</time>
      </trkpt>
      <trkpt lat="48.30498" lon="2.80089">
        <ele>88</ele>
        <time>2023-08-09T10:05:55.142+00:00</time>
      </trkpt>
      <trkpt lat="48.30491" lon="2.80092">
        <ele>88</ele>
        <time>2023-08-09T10:06:00.134+00:00</time>
      </trkpt>
      <trkpt lat="48.30485" lon="2.80093">
        <ele>87</ele>
        <time>2023-08-09T10:06:05.156+00:00</time>
      </trkpt>
      <trkpt lat="48.30478" lon="2.80094">
        <ele>87</ele>
        <time>2023-08-09T10:06:10.126+00:00</time>
      </trkpt>
      <trkpt lat="48.30473" lon="2.80095">
        <ele>87</ele>
        <time>2023-08-09T10:06:14.166+00:00</time>
      </trkpt>
      <trkpt lat="48.30466" lon="2.80098">
        <ele>88</ele>
        <time>2023-08-09T10:06:19.148+00:00</time>
      </trkpt>
      <trkpt lat="48.30459" lon="2.801">
        <ele>88</ele>
        <time>2023-08-09T10:06:24.133+00:00</time>
      </trkpt>
      <trkpt lat="48.30454" lon="2.80101">
        <ele>86</ele>
        <time>2023-08-09T10:06:28.142+00:00</time>
      </trkpt>
      <trkpt lat="48.30447" lon="2.80103">
        <ele>86</ele>
        <time>2023-08-09T10:06:32.143+00:00</time>
      </trkpt>
      <trkpt lat="48.30441" lon="2.80105">
        <ele>86</ele>
        <time>2023-08-09T10:06:37.152+00:00</time>
      </trkpt>
      <trkpt lat="48.30435" lon="2.80107">
        <ele>86</ele>
        <time>2023-08-09T10:06:42.155+00:00</time>
      </trkpt>
      <trkpt lat="48.30428" lon="2.8011">
        <ele>83</ele>
        <time>2023-08-09T10:06:47.146+00:00</time>
      </trkpt>
      <trkpt lat="48.30424" lon="2.80112">
        <ele>83</ele>
        <time>2023-08-09T10:06:51.144+00:00</time>
      </trkpt>
      <trkpt lat="48.30418" lon="2.80112">
        <ele>83</ele>
        <time>2023-08-09T10:07:09.108+00:00</time>
      </trkpt>
      <trkpt lat="48.30416" lon="2.80112">
        <ele>83</ele>
        <time>2023-08-09T10:07:13.115+00:00</time>
      </trkpt>
      <trkpt lat="48.30412" lon="2.80113">
        <ele>83</ele>
        <time>2023-08-09T10:07:17.142+00:00</time>
      </trkpt>
      <trkpt lat="48.3041" lon="2.80113">
        <ele>83</ele>
        <time>2023-08-09T10:07:22.160+00:00</time>
      </trkpt>
      <trkpt lat="48.30404" lon="2.80115">
        <ele>83</ele>
        <time>2023-08-09T10:07:27.165+00:00</time>
      </trkpt>
      <trkpt lat="48.30397" lon="2.80116">
        <ele>79</ele>
        <time>2023-08-09T10:07:32.145+00:00</time>
      </trkpt>
      <trkpt lat="48.3039" lon="2.80118">
        <ele>79</ele>
        <time>2023-08-09T10:07:37.136+00:00</time>
      </trkpt>
      <trkpt lat="48.30383" lon="2.80119">
        <ele>79</ele>
        <time>2023-08-09T10:07:42.136+00:00</time>
      </trkpt>
      <trkpt lat="48.30377" lon="2.80121">
        <ele>79</ele>
        <time>2023-08-09T10:07:46.132+00:00</time>
      </trkpt>
      <trkpt lat="48.30362" lon="2.80124">
        <ele>78</ele>
        <time>2023-08-09T10:08:19.117+00:00</time>
      </trkpt>
      <trkpt lat="48.30361" lon="2.80124">
        <ele>78</ele>
        <time>2023-08-09T10:08:24.104+00:00</time>
      </trkpt>
      <trkpt lat="48.30358" lon="2.80126">
        <ele>78</ele>
        <time>2023-08-09T10:08:28.121+00:00</time>
      </trkpt>
      <trkpt lat="48.30353" lon="2.80128">
        <ele>78</ele>
        <time>2023-08-09T10:08:32.142+00:00</time>
      </trkpt>
      <trkpt lat="48.30348" lon="2.8013">
        <ele>78</ele>
        <time>2023-08-09T10:08:36.154+00:00</time>
      </trkpt>
      <trkpt lat="48.3034" lon="2.80132">
        <ele>77</ele>
        <time>2023-08-09T10:08:41.136+00:00</time>
      </trkpt>
      <trkpt lat="48.30334" lon="2.80133">
        <ele>77</ele>
        <time>2023-08-09T10:08:45.135+00:00</time>
      </trkpt>
      <trkpt lat="48.30327" lon="2.80135">
        <ele>77</ele>
        <time>2023-08-09T10:08:50.119+00:00</time>
      </trkpt>
      <trkpt lat="48.30322" lon="2.80136">
        <ele>77</ele>
        <time>2023-08-09T10:08:54.158+00:00</time>
      </trkpt>
      <trkpt lat="48.30315" lon="2.80139">
        <ele>76</ele>
        <time>2023-08-09T10:08:59.136+00:00</time>
      </trkpt>
      <trkpt lat="48.3031" lon="2.80141">
        <ele>76</ele>
        <time>2023-08-09T10:09:03.162+00:00</time>
      </trkpt>
      <trkpt lat="48.30303" lon="2.80143">
        <ele>76</ele>
        <time>2023-08-09T10:09:08.146+00:00</time>
      </trkpt>
      <trkpt lat="48.30297" lon="2.80145">
        <ele>76</ele>
        <time>2023-08-09T10:09:13.134+00:00</time>
      </trkpt>
      <trkpt lat="48.3029" lon="2.80147">
        <ele>76</ele>
        <time>2023-08-09T10:09:18.126+00:00</time>
      </trkpt>
      <trkpt lat="48.30284" lon="2.80148">
        <ele>76</ele>
        <time>2023-08-09T10:09:22.121+00:00</time>
      </trkpt>
      <trkpt lat="48.30279" lon="2.8015">
        <ele>76</ele>
        <time>2023-08-09T10:09:26.154+00:00</time>
      </trkpt>
      <trkpt lat="48.30273" lon="2.80151">
        <ele>76</ele>
        <time>2023-08-09T10:09:30.144+00:00</time>
      </trkpt>
      <trkpt lat="48.30267" lon="2.80154">
        <ele>76</ele>
        <time>2023-08-09T10:09:35.141+00:00</time>
      </trkpt>
      <trkpt lat="48.30261" lon="2.80155">
        <ele>76</ele>
        <time>2023-08-09T10:09:39.145+00:00</time>
      </trkpt>
      <trkpt lat="48.30254" lon="2.80157">
        <ele>76</ele>
        <time>2023-08-09T10:09:44.157+00:00</time>
      </trkpt>
      <trkpt lat="48.30248" lon="2.80159">
        <ele>76</ele>
        <time>2023-08-09T10:09:49.124+00:00</time>
      </trkpt>
      <trkpt lat="48.30242" lon="2.8016">
        <ele>76</ele>
        <time>2023-08-09T10:09:53.131+00:00</time>
      </trkpt>
      <trkpt lat="48.30235" lon="2.80162">
        <ele>75</ele>
        <time>2023-08-09T10:09:58.115+00:00</time>
      </trkpt>
      <trkpt lat="48.30229" lon="2.80163">
        <ele>75</ele>
        <time>2023-08-09T10:10:03.114+00:00</time>
      </trkpt>
      <trkpt lat="48.30224" lon="2.80164">
        <ele>75</ele>
        <time>2023-08-09T10:10:07.107+00:00</time>
      </trkpt>
      <trkpt lat="48.30223" lon="2.80164">
        <ele>75</ele>
        <time>2023-08-09T10:10:12.117+00:00</time>
      </trkpt>
      <trkpt lat="48.3022" lon="2.80165">
        <ele>75</ele>
        <time>2023-08-09T10:10:16.126+00:00</time>
      </trkpt>
      <trkpt lat="48.30219" lon="2.80166">
        <ele>75</ele>
        <time>2023-08-09T10:10:21.130+00:00</time>
      </trkpt>
      <trkpt lat="48.30219" lon="2.80166">
        <ele>75</ele>
        <time>2023-08-09T10:10:25.136+00:00</time>
      </trkpt>
      <trkpt lat="48.30213" lon="2.80168">
        <ele>75</ele>
        <time>2023-08-09T10:10:30.102+00:00</time>
      </trkpt>
      <trkpt lat="48.30209" lon="2.80168">
        <ele>75</ele>
        <time>2023-08-09T10:10:34.138+00:00</time>
      </trkpt>
      <trkpt lat="48.30202" lon="2.8017">
        <ele>75</ele>
        <time>2023-08-09T10:10:39.144+00:00</time>
      </trkpt>
      <trkpt lat="48.30197" lon="2.80171">
        <ele>75</ele>
        <time>2023-08-09T10:10:43.160+00:00</time>
      </trkpt>
      <trkpt lat="48.30191" lon="2.80173">
        <ele>75</ele>
        <time>2023-08-09T10:10:48.110+00:00</time>
      </trkpt>
      <trkpt lat="48.30186" lon="2.80173">
        <ele>75</ele>
        <time>2023-08-09T10:10:52.126+00:00</time>
      </trkpt>
      <trkpt lat="48.3018" lon="2.80175">
        <ele>74</ele>
        <time>2023-08-09T10:10:57.119+00:00</time>
      </trkpt>
      <trkpt lat="48.30174" lon="2.80176">
        <ele>74</ele>
        <time>2023-08-09T10:11:01.142+00:00</time>
      </trkpt>
      <trkpt lat="48.30167" lon="2.80178">
        <ele>74</ele>
        <time>2023-08-09T10:11:06.140+00:00</time>
      </trkpt>
      <trkpt lat="48.3016" lon="2.80181">
        <ele>74</ele>
        <time>2023-08-09T10:11:11.105+00:00</time>
      </trkpt>
      <trkpt lat="48.30155" lon="2.80183">
        <ele>74</ele>
        <time>2023-08-09T10:11:15.168+00:00</time>
      </trkpt>
      <trkpt lat="48.30148" lon="2.80185">
        <ele>74</ele>
        <time>2023-08-09T10:11:20.146+00:00</time>
      </trkpt>
      <trkpt lat="48.30142" lon="2.80187">
        <ele>74</ele>
        <time>2023-08-09T10:11:24.171+00:00</time>
      </trkpt>
      <trkpt lat="48.30136" lon="2.80188">
        <ele>74</ele>
        <time>2023-08-09T10:11:29.116+00:00</time>
      </trkpt>
      <trkpt lat="48.3013" lon="2.8019">
        <ele>74</ele>
        <time>2023-08-09T10:11:33.146+00:00</time>
      </trkpt>
      <trkpt lat="48.30124" lon="2.80193">
        <ele>74</ele>
        <time>2023-08-09T10:11:38.144+00:00</time>
      </trkpt>
      <trkpt lat="48.30117" lon="2.80194">
        <ele>74</ele>
        <time>2023-08-09T10:11:43.153+00:00</time>
      </trkpt>
      <trkpt lat="48.30111" lon="2.80197">
        <ele>74</ele>
        <time>2023-08-09T10:11:48.155+00:00</time>
      </trkpt>
      <trkpt lat="48.30104" lon="2.80198">
        <ele>74</ele>
        <time>2023-08-09T10:11:53.131+00:00</time>
      </trkpt>
      <trkpt lat="48.30098" lon="2.80201">
        <ele>74</ele>
        <time>2023-08-09T10:11:58.151+00:00</time>
      </trkpt>
      <trkpt lat="48.30093" lon="2.80202">
        <ele>74</ele>
        <time>2023-08-09T10:12:02.164+00:00</time>
      </trkpt>
      <trkpt lat="48.30086" lon="2.80204">
        <ele>74</ele>
        <time>2023-08-09T10:12:07.155+00:00</time>
      </trkpt>
      <trkpt lat="48.30079" lon="2.80205">
        <ele>74</ele>
        <time>2023-08-09T10:12:12.146+00:00</time>
      </trkpt>
      <trkpt lat="48.30073" lon="2.80207">
        <ele>74</ele>
        <time>2023-08-09T10:12:17.126+00:00</time>
      </trkpt>
      <trkpt lat="48.30069" lon="2.80208">
        <ele>75</ele>
        <time>2023-08-09T10:12:21.154+00:00</time>
      </trkpt>
      <trkpt lat="48.30063" lon="2.8021">
        <ele>74</ele>
        <time>2023-08-09T10:12:26.143+00:00</time>
      </trkpt>
      <trkpt lat="48.30056" lon="2.80211">
        <ele>74</ele>
        <time>2023-08-09T10:12:31.156+00:00</time>
      </trkpt>
      <trkpt lat="48.3005" lon="2.80213">
        <ele>74</ele>
        <time>2023-08-09T10:12:36.143+00:00</time>
      </trkpt>
      <trkpt lat="48.30044" lon="2.80215">
        <ele>74</ele>
        <time>2023-08-09T10:12:41.153+00:00</time>
      </trkpt>
      <trkpt lat="48.30037" lon="2.80216">
        <ele>76</ele>
        <time>2023-08-09T10:12:46.156+00:00</time>
      </trkpt>
      <trkpt lat="48.30031" lon="2.80218">
        <ele>76</ele>
        <time>2023-08-09T10:12:51.166+00:00</time>
      </trkpt>
      <trkpt lat="48.30025" lon="2.8022">
        <ele>76</ele>
        <time>2023-08-09T10:12:56.129+00:00</time>
      </trkpt>
      <trkpt lat="48.3002" lon="2.80222">
        <ele>76</ele>
        <time>2023-08-09T10:13:01.119+00:00</time>
      </trkpt>
      <trkpt lat="48.30014" lon="2.80224">
        <ele>78</ele>
        <time>2023-08-09T10:13:06.122+00:00</time>
      </trkpt>
      <trkpt lat="48.30008" lon="2.80226">
        <ele>78</ele>
        <time>2023-08-09T10:13:10.134+00:00</time>
      </trkpt>
      <trkpt lat="48.30002" lon="2.80228">
        <ele>78</ele>
        <time>2023-08-09T10:13:15.128+00:00</time>
      </trkpt>
      <trkpt lat="48.29996" lon="2.8023">
        <ele>78</ele>
        <time>2023-08-09T10:13:20.118+00:00</time>
      </trkpt>
      <trkpt lat="48.2999" lon="2.80232">
        <ele>78</ele>
        <time>2023-08-09T10:13:25.120+00:00</time>
      </trkpt>
      <trkpt lat="48.29985" lon="2.80234">
        <ele>79</ele>
        <time>2023-08-09T10:13:29.122+00:00</time>
      </trkpt>
      <trkpt lat="48.29979" lon="2.80236">
        <ele>79</ele>
        <time>2023-08-09T10:13:34.134+00:00</time>
      </trkpt>
      <trkpt lat="48.29973" lon="2.80237">
        <ele>81</ele>
        <time>2023-08-09T10:13:39.117+00:00</time>
      </trkpt>
      <trkpt lat="48.29967" lon="2.8024">
        <ele>81</ele>
        <time>2023-08-09T10:13:44.126+00:00</time>
      </trkpt>
      <trkpt lat="48.29962" lon="2.80242">
        <ele>81</ele>
        <time>2023-08-09T10:13:48.117+00:00</time>
      </trkpt>
      <trkpt lat="48.29958" lon="2.80243">
        <ele>83</ele>
        <time>2023-08-09T10:13:52.144+00:00</time>
      </trkpt>
      <trkpt lat="48.29951" lon="2.80245">
        <ele>83</ele>
        <time>2023-08-09T10:13:57.131+00:00</time>
      </trkpt>
      <trkpt lat="48.29946" lon="2.80247">
        <ele>83</ele>
        <time>2023-08-09T10:14:01.123+00:00</time>
      </trkpt>
      <trkpt lat="48.2994" lon="2.80249">
        <ele>83</ele>
        <time>2023-08-09T10:14:06.126+00:00</time>
      </trkpt>
      <trkpt lat="48.29934" lon="2.8025">
        <ele>83</ele>
        <time>2023-08-09T10:14:11.111+00:00</time>
      </trkpt>
      <trkpt lat="48.29929" lon="2.80252">
        <ele>83</ele>
        <time>2023-08-09T10:14:15.111+00:00</time>
      </trkpt>
      <trkpt lat="48.29923" lon="2.80254">
        <ele>83</ele>
        <time>2023-08-09T10:14:20.121+00:00</time>
      </trkpt>
      <trkpt lat="48.29917" lon="2.80255">
        <ele>83</ele>
        <time>2023-08-09T10:14:25.130+00:00</time>
      </trkpt>
      <trkpt lat="48.29911" lon="2.80258">
        <ele>83</ele>
        <time>2023-08-09T10:14:30.133+00:00</time>
      </trkpt>
      <trkpt lat="48.29905" lon="2.80261">
        <ele>83</ele>
        <time>2023-08-09T10:14:35.124+00:00</time>
      </trkpt>
      <trkpt lat="48.29899" lon="2.80264">
        <ele>83</ele>
        <time>2023-08-09T10:14:40.106+00:00</time>
      </trkpt>
      <trkpt lat="48.29894" lon="2.80265">
        <ele>83</ele>
        <time>2023-08-09T10:14:44.111+00:00</time>
      </trkpt>
      <trkpt lat="48.29889" lon="2.80267">
        <ele>83</ele>
        <time>2023-08-09T10:14:48.121+00:00</time>
      </trkpt>
      <trkpt lat="48.29884" lon="2.80269">
        <ele>83</ele>
        <time>2023-08-09T10:14:52.124+00:00</time>
      </trkpt>
      <trkpt lat="48.29878" lon="2.80271">
        <ele>83</ele>
        <time>2023-08-09T10:14:57.128+00:00</time>
      </trkpt>
      <trkpt lat="48.29873" lon="2.80273">
        <ele>83</ele>
        <time>2023-08-09T10:15:01.128+00:00</time>
      </trkpt>
      <trkpt lat="48.29868" lon="2.80275">
        <ele>83</ele>
        <time>2023-08-09T10:15:05.149+00:00</time>
      </trkpt>
      <trkpt lat="48.29863" lon="2.80276">
        <ele>83</ele>
        <time>2023-08-09T10:15:09.174+00:00</time>
      </trkpt>
      <trkpt lat="48.29856" lon="2.80278">
        <ele>83</ele>
        <time>2023-08-09T10:15:14.130+00:00</time>
      </trkpt>
      <trkpt lat="48.29852" lon="2.8028">
        <ele>83</ele>
        <time>2023-08-09T10:15:18.147+00:00</time>
      </trkpt>
      <trkpt lat="48.29847" lon="2.80282">
        <ele>83</ele>
        <time>2023-08-09T10:15:22.148+00:00</time>
      </trkpt>
      <trkpt lat="48.2984" lon="2.80283">
        <ele>83</ele>
        <time>2023-08-09T10:15:27.131+00:00</time>
      </trkpt>
      <trkpt lat="48.29834" lon="2.80285">
        <ele>83</ele>
        <time>2023-08-09T10:15:32.161+00:00</time>
      </trkpt>
      <trkpt lat="48.29828" lon="2.80287">
        <ele>83</ele>
        <time>2023-08-09T10:15:37.146+00:00</time>
      </trkpt>
      <trkpt lat="48.29823" lon="2.8029">
        <ele>83</ele>
        <time>2023-08-09T10:15:41.140+00:00</time>
      </trkpt>
      <trkpt lat="48.29818" lon="2.80292">
        <ele>83</ele>
        <time>2023-08-09T10:15:45.146+00:00</time>
      </trkpt>
      <trkpt lat="48.29811" lon="2.80293">
        <ele>83</ele>
        <time>2023-08-09T10:15:50.143+00:00</time>
      </trkpt>
      <trkpt lat="48.29805" lon="2.80296">
        <ele>83</ele>
        <time>2023-08-09T10:15:55.139+00:00</time>
      </trkpt>
      <trkpt lat="48.29799" lon="2.80299">
        <ele>83</ele>
        <time>2023-08-09T10:16:00.146+00:00</time>
      </trkpt>
      <trkpt lat="48.29794" lon="2.80301">
        <ele>83</ele>
        <time>2023-08-09T10:16:04.160+00:00</time>
      </trkpt>
      <trkpt lat="48.29787" lon="2.80304">
        <ele>84</ele>
        <time>2023-08-09T10:16:09.150+00:00</time>
      </trkpt>
      <trkpt lat="48.29781" lon="2.80309">
        <ele>84</ele>
        <time>2023-08-09T10:16:14.135+00:00</time>
      </trkpt>
      <trkpt lat="48.29775" lon="2.80313">
        <ele>84</ele>
        <time>2023-08-09T10:16:19.150+00:00</time>
      </trkpt>
      <trkpt lat="48.2977" lon="2.80316">
        <ele>84</ele>
        <time>2023-08-09T10:16:24.142+00:00</time>
      </trkpt>
      <trkpt lat="48.29764" lon="2.80319">
        <ele>87</ele>
        <time>2023-08-09T10:16:29.135+00:00</time>
      </trkpt>
      <trkpt lat="48.29758" lon="2.80323">
        <ele>87</ele>
        <time>2023-08-09T10:16:34.133+00:00</time>
      </trkpt>
      <trkpt lat="48.29752" lon="2.80326">
        <ele>87</ele>
        <time>2023-08-09T10:16:39.141+00:00</time>
      </trkpt>
      <trkpt lat="48.29746" lon="2.8033">
        <ele>87</ele>
        <time>2023-08-09T10:16:44.133+00:00</time>
      </trkpt>
      <trkpt lat="48.2974" lon="2.80334">
        <ele>87</ele>
        <time>2023-08-09T10:16:49.140+00:00</time>
      </trkpt>
      <trkpt lat="48.29735" lon="2.80337">
        <ele>93</ele>
        <time>2023-08-09T10:16:53.140+00:00</time>
      </trkpt>
      <trkpt lat="48.29731" lon="2.80339">
        <ele>93</ele>
        <time>2023-08-09T10:16:57.150+00:00</time>
      </trkpt>
      <trkpt lat="48.29725" lon="2.80343">
        <ele>93</ele>
        <time>2023-08-09T10:17:02.126+00:00</time>
      </trkpt>
      <trkpt lat="48.29721" lon="2.80346">
        <ele>93</ele>
        <time>2023-08-09T10:17:06.159+00:00</time>
      </trkpt>
      <trkpt lat="48.29715" lon="2.80351">
        <ele>92</ele>
        <time>2023-08-09T10:17:11.149+00:00</time>
      </trkpt>
      <trkpt lat="48.29711" lon="2.80355">
        <ele>92</ele>
        <time>2023-08-09T10:17:15.159+00:00</time>
      </trkpt>
      <trkpt lat="48.29706" lon="2.80358">
        <ele>98</ele>
        <time>2023-08-09T10:17:20.161+00:00</time>
      </trkpt>
      <trkpt lat="48.29702" lon="2.8036">
        <ele>98</ele>
        <time>2023-08-09T10:17:25.145+00:00</time>
      </trkpt>
      <trkpt lat="48.29698" lon="2.80362">
        <ele>98</ele>
        <time>2023-08-09T10:17:30.146+00:00</time>
      </trkpt>
      <trkpt lat="48.29694" lon="2.80363">
        <ele>98</ele>
        <time>2023-08-09T10:17:34.149+00:00</time>
      </trkpt>
      <trkpt lat="48.29687" lon="2.80366">
        <ele>98</ele>
        <time>2023-08-09T10:17:39.165+00:00</time>
      </trkpt>
      <trkpt lat="48.29682" lon="2.8037">
        <ele>98</ele>
        <time>2023-08-09T10:17:44.132+00:00</time>
      </trkpt>
      <trkpt lat="48.29678" lon="2.80371">
        <ele>101</ele>
        <time>2023-08-09T10:17:48.148+00:00</time>
      </trkpt>
      <trkpt lat="48.29673" lon="2.80373">
        <ele>101</ele>
        <time>2023-08-09T10:17:53.154+00:00</time>
      </trkpt>
      <trkpt lat="48.29666" lon="2.80376">
        <ele>102</ele>
        <time>2023-08-09T10:17:58.153+00:00</time>
      </trkpt>
      <trkpt lat="48.2966" lon="2.80379">
        <ele>102</ele>
        <time>2023-08-09T10:18:03.124+00:00</time>
      </trkpt>
      <trkpt lat="48.29653" lon="2.80383">
        <ele>102</ele>
        <time>2023-08-09T10:18:08.144+00:00</time>
      </trkpt>
      <trkpt lat="48.29648" lon="2.80387">
        <ele>103</ele>
        <time>2023-08-09T10:18:12.136+00:00</time>
      </trkpt>
      <trkpt lat="48.29643" lon="2.80391">
        <ele>103</ele>
        <time>2023-08-09T10:18:17.139+00:00</time>
      </trkpt>
      <trkpt lat="48.29637" lon="2.80395">
        <ele>103</ele>
        <time>2023-08-09T10:18:21.144+00:00</time>
      </trkpt>
      <trkpt lat="48.29632" lon="2.804">
        <ele>103</ele>
        <time>2023-08-09T10:18:26.153+00:00</time>
      </trkpt>
      <trkpt lat="48.29626" lon="2.80404">
        <ele>103</ele>
        <time>2023-08-09T10:18:31.153+00:00</time>
      </trkpt>
      <trkpt lat="48.29621" lon="2.80409">
        <ele>102</ele>
        <time>2023-08-09T10:18:36.138+00:00</time>
      </trkpt>
      <trkpt lat="48.29616" lon="2.80413">
        <ele>102</ele>
        <time>2023-08-09T10:18:41.158+00:00</time>
      </trkpt>
      <trkpt lat="48.29609" lon="2.80417">
        <ele>102</ele>
        <time>2023-08-09T10:18:46.145+00:00</time>
      </trkpt>
      <trkpt lat="48.29602" lon="2.8042">
        <ele>102</ele>
        <time>2023-08-09T10:18:51.141+00:00</time>
      </trkpt>
      <trkpt lat="48.29596" lon="2.80423">
        <ele>101</ele>
        <time>2023-08-09T10:18:56.143+00:00</time>
      </trkpt>
      <trkpt lat="48.2959" lon="2.80427">
        <ele>101</ele>
        <time>2023-08-09T10:19:01.146+00:00</time>
      </trkpt>
      <trkpt lat="48.29584" lon="2.80432">
        <ele>99</ele>
        <time>2023-08-09T10:19:06.144+00:00</time>
      </trkpt>
      <trkpt lat="48.29577" lon="2.80434">
        <ele>99</ele>
        <time>2023-08-09T10:19:11.137+00:00</time>
      </trkpt>
      <trkpt lat="48.29571" lon="2.80438">
        <ele>99</ele>
        <time>2023-08-09T10:19:16.155+00:00</time>
      </trkpt>
      <trkpt lat="48.29565" lon="2.8044">
        <ele>99</ele>
        <time>2023-08-09T10:19:21.141+00:00</time>
      </trkpt>
      <trkpt lat="48.2956" lon="2.80442">
        <ele>99</ele>
        <time>2023-08-09T10:19:26.124+00:00</time>
      </trkpt>
      <trkpt lat="48.29553" lon="2.80442">
        <ele>99</ele>
        <time>2023-08-09T10:19:31.150+00:00</time>
      </trkpt>
      <trkpt lat="48.29547" lon="2.80444">
        <ele>99</ele>
        <time>2023-08-09T10:19:36.158+00:00</time>
      </trkpt>
      <trkpt lat="48.29541" lon="2.80444">
        <ele>100</ele>
        <time>2023-08-09T10:19:41.131+00:00</time>
      </trkpt>
      <trkpt lat="48.29537" lon="2.80445">
        <ele>100</ele>
        <time>2023-08-09T10:19:45.135+00:00</time>
      </trkpt>
      <trkpt lat="48.29531" lon="2.80447">
        <ele>100</ele>
        <time>2023-08-09T10:19:50.155+00:00</time>
      </trkpt>
      <trkpt lat="48.29525" lon="2.8045">
        <ele>100</ele>
        <time>2023-08-09T10:19:55.102+00:00</time>
      </trkpt>
      <trkpt lat="48.29521" lon="2.80452">
        <ele>100</ele>
        <time>2023-08-09T10:19:59.125+00:00</time>
      </trkpt>
      <trkpt lat="48.29517" lon="2.80454">
        <ele>100</ele>
        <time>2023-08-09T10:20:03.141+00:00</time>
      </trkpt>
      <trkpt lat="48.29513" lon="2.80456">
        <ele>100</ele>
        <time>2023-08-09T10:20:07.149+00:00</time>
      </trkpt>
      <trkpt lat="48.29506" lon="2.80458">
        <ele>100</ele>
        <time>2023-08-09T10:20:12.144+00:00</time>
      </trkpt>
      <trkpt lat="48.295" lon="2.8046">
        <ele>99</ele>
        <time>2023-08-09T10:20:17.163+00:00</time>
      </trkpt>
      <trkpt lat="48.29495" lon="2.80463">
        <ele>99</ele>
        <time>2023-08-09T10:20:21.161+00:00</time>
      </trkpt>
      <trkpt lat="48.29488" lon="2.80464">
        <ele>99</ele>
        <time>2023-08-09T10:20:26.160+00:00</time>
      </trkpt>
      <trkpt lat="48.29482" lon="2.80467">
        <ele>98</ele>
        <time>2023-08-09T10:20:31.150+00:00</time>
      </trkpt>
      <trkpt lat="48.29474" lon="2.80468">
        <ele>98</ele>
        <time>2023-08-09T10:20:36.156+00:00</time>
      </trkpt>
      <trkpt lat="48.29467" lon="2.80467">
        <ele>98</ele>
        <time>2023-08-09T10:20:41.149+00:00</time>
      </trkpt>
      <trkpt lat="48.29461" lon="2.80468">
        <ele>98</ele>
        <time>2023-08-09T10:20:46.109+00:00</time>
      </trkpt>
      <trkpt lat="48.29455" lon="2.80468">
        <ele>95</ele>
        <time>2023-08-09T10:20:50.114+00:00</time>
      </trkpt>
      <trkpt lat="48.29449" lon="2.80471">
        <ele>95</ele>
        <time>2023-08-09T10:20:54.141+00:00</time>
      </trkpt>
      <trkpt lat="48.29443" lon="2.80476">
        <ele>95</ele>
        <time>2023-08-09T10:20:59.146+00:00</time>
      </trkpt>
      <trkpt lat="48.29438" lon="2.80482">
        <ele>95</ele>
        <time>2023-08-09T10:21:04.145+00:00</time>
      </trkpt>
      <trkpt lat="48.29433" lon="2.80485">
        <ele>95</ele>
        <time>2023-08-09T10:21:08.176+00:00</time>
      </trkpt>
      <trkpt lat="48.29428" lon="2.80488">
        <ele>92</ele>
        <time>2023-08-09T10:21:12.143+00:00</time>
      </trkpt>
      <trkpt lat="48.29422" lon="2.80493">
        <ele>92</ele>
        <time>2023-08-09T10:21:17.127+00:00</time>
      </trkpt>
      <trkpt lat="48.29416" lon="2.80497">
        <ele>92</ele>
        <time>2023-08-09T10:21:21.137+00:00</time>
      </trkpt>
      <trkpt lat="48.2941" lon="2.805">
        <ele>92</ele>
        <time>2023-08-09T10:21:26.103+00:00</time>
      </trkpt>
      <trkpt lat="48.29407" lon="2.80501">
        <ele>92</ele>
        <time>2023-08-09T10:21:31.125+00:00</time>
      </trkpt>
      <trkpt lat="48.29403" lon="2.80503">
        <ele>88</ele>
        <time>2023-08-09T10:21:36.135+00:00</time>
      </trkpt>
      <trkpt lat="48.29398" lon="2.80505">
        <ele>88</ele>
        <time>2023-08-09T10:21:40.154+00:00</time>
      </trkpt>
      <trkpt lat="48.29392" lon="2.80509">
        <ele>88</ele>
        <time>2023-08-09T10:21:45.130+00:00</time>
      </trkpt>
      <trkpt lat="48.29385" lon="2.80512">
        <ele>88</ele>
        <time>2023-08-09T10:21:50.131+00:00</time>
      </trkpt>
      <trkpt lat="48.29378" lon="2.80516">
        <ele>87</ele>
        <time>2023-08-09T10:21:55.134+00:00</time>
      </trkpt>
      <trkpt lat="48.29372" lon="2.80519">
        <ele>85</ele>
        <time>2023-08-09T10:22:00.118+00:00</time>
      </trkpt>
      <trkpt lat="48.29366" lon="2.80521">
        <ele>85</ele>
        <time>2023-08-09T10:22:04.132+00:00</time>
      </trkpt>
      <trkpt lat="48.29362" lon="2.80524">
        <ele>85</ele>
        <time>2023-08-09T10:22:08.145+00:00</time>
      </trkpt>
      <trkpt lat="48.29355" lon="2.80527">
        <ele>85</ele>
        <time>2023-08-09T10:22:13.136+00:00</time>
      </trkpt>
      <trkpt lat="48.29349" lon="2.8053">
        <ele>85</ele>
        <time>2023-08-09T10:22:18.137+00:00</time>
      </trkpt>
      <trkpt lat="48.29343" lon="2.80534">
        <ele>84</ele>
        <time>2023-08-09T10:22:23.115+00:00</time>
      </trkpt>
      <trkpt lat="48.29338" lon="2.80537">
        <ele>84</ele>
        <time>2023-08-09T10:22:27.137+00:00</time>
      </trkpt>
      <trkpt lat="48.29331" lon="2.80539">
        <ele>84</ele>
        <time>2023-08-09T10:22:32.139+00:00</time>
      </trkpt>
      <trkpt lat="48.29324" lon="2.80542">
        <ele>84</ele>
        <time>2023-08-09T10:22:37.126+00:00</time>
      </trkpt>
      <trkpt lat="48.2932" lon="2.80544">
        <ele>84</ele>
        <time>2023-08-09T10:22:41.140+00:00</time>
      </trkpt>
      <trkpt lat="48.29313" lon="2.80547">
        <ele>83</ele>
        <time>2023-08-09T10:22:46.155+00:00</time>
      </trkpt>
      <trkpt lat="48.29308" lon="2.8055">
        <ele>83</ele>
        <time>2023-08-09T10:22:51.128+00:00</time>
      </trkpt>
      <trkpt lat="48.29303" lon="2.80552">
        <ele>83</ele>
        <time>2023-08-09T10:22:55.116+00:00</time>
      </trkpt>
      <trkpt lat="48.29298" lon="2.80555">
        <ele>83</ele>
        <time>2023-08-09T10:22:59.139+00:00</time>
      </trkpt>
      <trkpt lat="48.29292" lon="2.80558">
        <ele>83</ele>
        <time>2023-08-09T10:23:04.140+00:00</time>
      </trkpt>
      <trkpt lat="48.29287" lon="2.80561">
        <ele>81</ele>
        <time>2023-08-09T10:23:08.130+00:00</time>
      </trkpt>
      <trkpt lat="48.29281" lon="2.80563">
        <ele>81</ele>
        <time>2023-08-09T10:23:12.156+00:00</time>
      </trkpt>
      <trkpt lat="48.29274" lon="2.80567">
        <ele>81</ele>
        <time>2023-08-09T10:23:17.135+00:00</time>
      </trkpt>
      <trkpt lat="48.2927" lon="2.8057">
        <ele>80</ele>
        <time>2023-08-09T10:23:21.134+00:00</time>
      </trkpt>
      <trkpt lat="48.29264" lon="2.80572">
        <ele>80</ele>
        <time>2023-08-09T10:23:26.149+00:00</time>
      </trkpt>
      <trkpt lat="48.29258" lon="2.80576">
        <ele>79</ele>
        <time>2023-08-09T10:23:31.117+00:00</time>
      </trkpt>
      <trkpt lat="48.29254" lon="2.80578">
        <ele>79</ele>
        <time>2023-08-09T10:23:35.132+00:00</time>
      </trkpt>
      <trkpt lat="48.29248" lon="2.80581">
        <ele>79</ele>
        <time>2023-08-09T10:23:40.134+00:00</time>
      </trkpt>
      <trkpt lat="48.29243" lon="2.80583">
        <ele>79</ele>
        <time>2023-08-09T10:23:44.145+00:00</time>
      </trkpt>
      <trkpt lat="48.29236" lon="2.80586">
        <ele>79</ele>
        <time>2023-08-09T10:23:49.124+00:00</time>
      </trkpt>
      <trkpt lat="48.2923" lon="2.80588">
        <ele>80</ele>
        <time>2023-08-09T10:23:54.136+00:00</time>
      </trkpt>
      <trkpt lat="48.29224" lon="2.80592">
        <ele>80</ele>
        <time>2023-08-09T10:23:59.117+00:00</time>
      </trkpt>
      <trkpt lat="48.29219" lon="2.80596">
        <ele>80</ele>
        <time>2023-08-09T10:24:03.143+00:00</time>
      </trkpt>
      <trkpt lat="48.29212" lon="2.806">
        <ele>78</ele>
        <time>2023-08-09T10:24:08.106+00:00</time>
      </trkpt>
      <trkpt lat="48.29208" lon="2.80603">
        <ele>78</ele>
        <time>2023-08-09T10:24:12.139+00:00</time>
      </trkpt>
      <trkpt lat="48.29202" lon="2.80604">
        <ele>78</ele>
        <time>2023-08-09T10:24:17.133+00:00</time>
      </trkpt>
      <trkpt lat="48.29197" lon="2.806">
        <ele>78</ele>
        <time>2023-08-09T10:24:22.147+00:00</time>
      </trkpt>
      <trkpt lat="48.29193" lon="2.80593">
        <ele>79</ele>
        <time>2023-08-09T10:24:27.113+00:00</time>
      </trkpt>
      <trkpt lat="48.29189" lon="2.80594">
        <ele>79</ele>
        <time>2023-08-09T10:24:32.093+00:00</time>
      </trkpt>
      <trkpt lat="48.2919" lon="2.80595">
        <ele>79</ele>
        <time>2023-08-09T10:24:41.094+00:00</time>
      </trkpt>
      <trkpt lat="48.29191" lon="2.80595">
        <ele>79</ele>
        <time>2023-08-09T10:24:45.107+00:00</time>
      </trkpt>
      <trkpt lat="48.29192" lon="2.80592">
        <ele>79</ele>
        <time>2023-08-09T10:24:50.095+00:00</time>
      </trkpt>
      <trkpt lat="48.29192" lon="2.80588">
        <ele>79</ele>
        <time>2023-08-09T10:24:54.100+00:00</time>
      </trkpt>
      <trkpt lat="48.2919" lon="2.80579">
        <ele>79</ele>
        <time>2023-08-09T10:24:59.105+00:00</time>
      </trkpt>
      <trkpt lat="48.29188" lon="2.80568">
        <ele>79</ele>
        <time>2023-08-09T10:25:04.108+00:00</time>
      </trkpt>
      <trkpt lat="48.29184" lon="2.80561">
        <ele>79</ele>
        <time>2023-08-09T10:25:08.103+00:00</time>
      </trkpt>
      <trkpt lat="48.29181" lon="2.80555">
        <ele>79</ele>
        <time>2023-08-09T10:25:13.097+00:00</time>
      </trkpt>
      <trkpt lat="48.29179" lon="2.80549">
        <ele>77</ele>
        <time>2023-08-09T10:25:17.095+00:00</time>
      </trkpt>
      <trkpt lat="48.29178" lon="2.8054">
        <ele>76</ele>
        <time>2023-08-09T10:25:22.109+00:00</time>
      </trkpt>
      <trkpt lat="48.29176" lon="2.80531">
        <ele>76</ele>
        <time>2023-08-09T10:25:27.098+00:00</time>
      </trkpt>
      <trkpt lat="48.29174" lon="2.80523">
        <ele>76</ele>
        <time>2023-08-09T10:25:32.104+00:00</time>
      </trkpt>
      <trkpt lat="48.29172" lon="2.80515">
        <ele>76</ele>
        <time>2023-08-09T10:25:36.102+00:00</time>
      </trkpt>
      <trkpt lat="48.29165" lon="2.80507">
        <ele>77</ele>
        <time>2023-08-09T10:26:03.104+00:00</time>
      </trkpt>
      <trkpt lat="48.29164" lon="2.80509">
        <ele>77</ele>
        <time>2023-08-09T10:26:08.094+00:00</time>
      </trkpt>
      <trkpt lat="48.29159" lon="2.80508">
        <ele>77</ele>
        <time>2023-08-09T10:26:13.099+00:00</time>
      </trkpt>
      <trkpt lat="48.29154" lon="2.80511">
        <ele>77</ele>
        <time>2023-08-09T10:26:17.104+00:00</time>
      </trkpt>
      <trkpt lat="48.29149" lon="2.80516">
        <ele>76</ele>
        <time>2023-08-09T10:26:22.115+00:00</time>
      </trkpt>
      <trkpt lat="48.29148" lon="2.80523">
        <ele>76</ele>
        <time>2023-08-09T10:26:37.094+00:00</time>
      </trkpt>
      <trkpt lat="48.29149" lon="2.80523">
        <ele>76</ele>
        <time>2023-08-09T10:26:41.096+00:00</time>
      </trkpt>
      <trkpt lat="48.29146" lon="2.80522">
        <ele>76</ele>
        <time>2023-08-09T10:26:45.102+00:00</time>
      </trkpt>
      <trkpt lat="48.29139" lon="2.80525">
        <ele>76</ele>
        <time>2023-08-09T10:26:50.095+00:00</time>
      </trkpt>
      <trkpt lat="48.29132" lon="2.80529">
        <ele>76</ele>
        <time>2023-08-09T10:26:55.118+00:00</time>
      </trkpt>
      <trkpt lat="48.29127" lon="2.80533">
        <ele>76</ele>
        <time>2023-08-09T10:27:00.099+00:00</time>
      </trkpt>
      <trkpt lat="48.29122" lon="2.80538">
        <ele>78</ele>
        <time>2023-08-09T10:27:04.105+00:00</time>
      </trkpt>
      <trkpt lat="48.29116" lon="2.80543">
        <ele>78</ele>
        <time>2023-08-09T10:27:09.101+00:00</time>
      </trkpt>
      <trkpt lat="48.29111" lon="2.80547">
        <ele>78</ele>
        <time>2023-08-09T10:27:13.106+00:00</time>
      </trkpt>
      <trkpt lat="48.29105" lon="2.80551">
        <ele>78</ele>
        <time>2023-08-09T10:27:17.112+00:00</time>
      </trkpt>
      <trkpt lat="48.29099" lon="2.80555">
        <ele>78</ele>
        <time>2023-08-09T10:27:22.109+00:00</time>
      </trkpt>
      <trkpt lat="48.29095" lon="2.80559">
        <ele>79</ele>
        <time>2023-08-09T10:27:26.143+00:00</time>
      </trkpt>
      <trkpt lat="48.29089" lon="2.80563">
        <ele>79</ele>
        <time>2023-08-09T10:27:31.143+00:00</time>
      </trkpt>
      <trkpt lat="48.29083" lon="2.80567">
        <ele>79</ele>
        <time>2023-08-09T10:27:36.138+00:00</time>
      </trkpt>
      <trkpt lat="48.29078" lon="2.80571">
        <ele>78</ele>
        <time>2023-08-09T10:27:40.154+00:00</time>
      </trkpt>
      <trkpt lat="48.29073" lon="2.80575">
        <ele>78</ele>
        <time>2023-08-09T10:27:45.126+00:00</time>
      </trkpt>
      <trkpt lat="48.29067" lon="2.8058">
        <ele>77</ele>
        <time>2023-08-09T10:27:50.129+00:00</time>
      </trkpt>
      <trkpt lat="48.29062" lon="2.80583">
        <ele>77</ele>
        <time>2023-08-09T10:27:54.131+00:00</time>
      </trkpt>
      <trkpt lat="48.29057" lon="2.80587">
        <ele>77</ele>
        <time>2023-08-09T10:27:59.126+00:00</time>
      </trkpt>
      <trkpt lat="48.29052" lon="2.80592">
        <ele>77</ele>
        <time>2023-08-09T10:28:04.142+00:00</time>
      </trkpt>
      <trkpt lat="48.29048" lon="2.80595">
        <ele>77</ele>
        <time>2023-08-09T10:28:08.151+00:00</time>
      </trkpt>
      <trkpt lat="48.29035" lon="2.80609">
        <ele>75</ele>
        <time>2023-08-09T10:29:00.104+00:00</time>
      </trkpt>
      <trkpt lat="48.29029" lon="2.80611">
        <ele>75</ele>
        <time>2023-08-09T10:29:04.111+00:00</time>
      </trkpt>
      <trkpt lat="48.29023" lon="2.80615">
        <ele>75</ele>
        <time>2023-08-09T10:29:09.108+00:00</time>
      </trkpt>
      <trkpt lat="48.29017" lon="2.80619">
        <ele>75</ele>
        <time>2023-08-09T10:29:14.104+00:00</time>
      </trkpt>
      <trkpt lat="48.29013" lon="2.80624">
        <ele>75</ele>
        <time>2023-08-09T10:29:18.117+00:00</time>
      </trkpt>
      <trkpt lat="48.29007" lon="2.80628">
        <ele>75</ele>
        <time>2023-08-09T10:29:23.097+00:00</time>
      </trkpt>
      <trkpt lat="48.29003" lon="2.80631">
        <ele>75</ele>
        <time>2023-08-09T10:29:27.101+00:00</time>
      </trkpt>
      <trkpt lat="48.28997" lon="2.80635">
        <ele>75</ele>
        <time>2023-08-09T10:29:32.108+00:00</time>
      </trkpt>
      <trkpt lat="48.28992" lon="2.8064">
        <ele>75</ele>
        <time>2023-08-09T10:29:37.100+00:00</time>
      </trkpt>
      <trkpt lat="48.28987" lon="2.80644">
        <ele>75</ele>
        <time>2023-08-09T10:29:41.103+00:00</time>
      </trkpt>
      <trkpt lat="48.28981" lon="2.80648">
        <ele>76</ele>
        <time>2023-08-09T10:29:46.104+00:00</time>
      </trkpt>
      <trkpt lat="48.28976" lon="2.80652">
        <ele>76</ele>
        <time>2023-08-09T10:29:51.107+00:00</time>
      </trkpt>
      <trkpt lat="48.28973" lon="2.80655">
        <ele>75</ele>
        <time>2023-08-09T10:29:56.098+00:00</time>
      </trkpt>
      <trkpt lat="48.28972" lon="2.80657">
        <ele>75</ele>
        <time>2023-08-09T10:30:01.108+00:00</time>
      </trkpt>
      <trkpt lat="48.28971" lon="2.80657">
        <ele>75</ele>
        <time>2023-08-09T10:30:05.102+00:00</time>
      </trkpt>
      <trkpt lat="48.28966" lon="2.80659">
        <ele>75</ele>
        <time>2023-08-09T10:30:10.095+00:00</time>
      </trkpt>
      <trkpt lat="48.28961" lon="2.80663">
        <ele>75</ele>
        <time>2023-08-09T10:30:14.104+00:00</time>
      </trkpt>
      <trkpt lat="48.28957" lon="2.80666">
        <ele>76</ele>
        <time>2023-08-09T10:30:18.118+00:00</time>
      </trkpt>
      <trkpt lat="48.28952" lon="2.8067">
        <ele>76</ele>
        <time>2023-08-09T10:30:23.096+00:00</time>
      </trkpt>
      <trkpt lat="48.28948" lon="2.80672">
        <ele>76</ele>
        <time>2023-08-09T10:30:27.105+00:00</time>
      </trkpt>
      <trkpt lat="48.28944" lon="2.80676">
        <ele>76</ele>
        <time>2023-08-09T10:30:31.103+00:00</time>
      </trkpt>
      <trkpt lat="48.2894" lon="2.8068">
        <ele>76</ele>
        <time>2023-08-09T10:30:46.094+00:00</time>
      </trkpt>
      <trkpt lat="48.28937" lon="2.80681">
        <ele>77</ele>
        <time>2023-08-09T10:30:50.103+00:00</time>
      </trkpt>
      <trkpt lat="48.28935" lon="2.80683">
        <ele>77</ele>
        <time>2023-08-09T10:30:54.102+00:00</time>
      </trkpt>
      <trkpt lat="48.2893" lon="2.80687">
        <ele>78</ele>
        <time>2023-08-09T10:30:59.109+00:00</time>
      </trkpt>
      <trkpt lat="48.28926" lon="2.8069">
        <ele>78</ele>
        <time>2023-08-09T10:31:03.104+00:00</time>
      </trkpt>
      <trkpt lat="48.28925" lon="2.80689">
        <ele>78</ele>
        <time>2023-08-09T10:31:08.101+00:00</time>
      </trkpt>
      <trkpt lat="48.28924" lon="2.8069">
        <ele>78</ele>
        <time>2023-08-09T10:31:13.099+00:00</time>
      </trkpt>
      <trkpt lat="48.28923" lon="2.8069">
        <ele>78</ele>
        <time>2023-08-09T10:31:17.111+00:00</time>
      </trkpt>
      <trkpt lat="48.28921" lon="2.80692">
        <ele>78</ele>
        <time>2023-08-09T10:31:22.128+00:00</time>
      </trkpt>
      <trkpt lat="48.28918" lon="2.80698">
        <ele>78</ele>
        <time>2023-08-09T10:31:27.095+00:00</time>
      </trkpt>
      <trkpt lat="48.28913" lon="2.80701">
        <ele>78</ele>
        <time>2023-08-09T10:31:32.099+00:00</time>
      </trkpt>
      <trkpt lat="48.28908" lon="2.80706">
        <ele>78</ele>
        <time>2023-08-09T10:31:37.105+00:00</time>
      </trkpt>
      <trkpt lat="48.28904" lon="2.8071">
        <ele>79</ele>
        <time>2023-08-09T10:31:42.106+00:00</time>
      </trkpt>
      <trkpt lat="48.28899" lon="2.80713">
        <ele>79</ele>
        <time>2023-08-09T10:31:47.101+00:00</time>
      </trkpt>
      <trkpt lat="48.28895" lon="2.80718">
        <ele>79</ele>
        <time>2023-08-09T10:31:52.107+00:00</time>
      </trkpt>
      <trkpt lat="48.2889" lon="2.80721">
        <ele>79</ele>
        <time>2023-08-09T10:31:57.109+00:00</time>
      </trkpt>
      <trkpt lat="48.28885" lon="2.80724">
        <ele>79</ele>
        <time>2023-08-09T10:32:02.107+00:00</time>
      </trkpt>
      <trkpt lat="48.28881" lon="2.80729">
        <ele>79</ele>
        <time>2023-08-09T10:32:07.106+00:00</time>
      </trkpt>
      <trkpt lat="48.28877" lon="2.80732">
        <ele>79</ele>
        <time>2023-08-09T10:32:11.133+00:00</time>
      </trkpt>
      <trkpt lat="48.28872" lon="2.80734">
        <ele>79</ele>
        <time>2023-08-09T10:32:15.128+00:00</time>
      </trkpt>
      <trkpt lat="48.28867" lon="2.80739">
        <ele>79</ele>
        <time>2023-08-09T10:32:20.128+00:00</time>
      </trkpt>
      <trkpt lat="48.28862" lon="2.80743">
        <ele>79</ele>
        <time>2023-08-09T10:32:25.114+00:00</time>
      </trkpt>
      <trkpt lat="48.28858" lon="2.80746">
        <ele>79</ele>
        <time>2023-08-09T10:32:29.125+00:00</time>
      </trkpt>
      <trkpt lat="48.28851" lon="2.80751">
        <ele>79</ele>
        <time>2023-08-09T10:32:34.141+00:00</time>
      </trkpt>
      <trkpt lat="48.28846" lon="2.80757">
        <ele>79</ele>
        <time>2023-08-09T10:32:39.104+00:00</time>
      </trkpt>
      <trkpt lat="48.28842" lon="2.80759">
        <ele>79</ele>
        <time>2023-08-09T10:32:43.119+00:00</time>
      </trkpt>
      <trkpt lat="48.2884" lon="2.8076">
        <ele>79</ele>
        <time>2023-08-09T10:32:48.137+00:00</time>
      </trkpt>
      <trkpt lat="48.28839" lon="2.80763">
        <ele>79</ele>
        <time>2023-08-09T10:32:52.139+00:00</time>
      </trkpt>
      <trkpt lat="48.28835" lon="2.80765">
        <ele>80</ele>
        <time>2023-08-09T10:32:57.120+00:00</time>
      </trkpt>
      <trkpt lat="48.28832" lon="2.80769">
        <ele>80</ele>
        <time>2023-08-09T10:33:01.119+00:00</time>
      </trkpt>
      <trkpt lat="48.28828" lon="2.80771">
        <ele>80</ele>
        <time>2023-08-09T10:33:05.124+00:00</time>
      </trkpt>
      <trkpt lat="48.28824" lon="2.80774">
        <ele>80</ele>
        <time>2023-08-09T10:33:09.121+00:00</time>
      </trkpt>
      <trkpt lat="48.28818" lon="2.80779">
        <ele>82</ele>
        <time>2023-08-09T10:33:14.109+00:00</time>
      </trkpt>
      <trkpt lat="48.28814" lon="2.80779">
        <ele>82</ele>
        <time>2023-08-09T10:33:18.116+00:00</time>
      </trkpt>
      <trkpt lat="48.28809" lon="2.80783">
        <ele>82</ele>
        <time>2023-08-09T10:33:23.113+00:00</time>
      </trkpt>
      <trkpt lat="48.28806" lon="2.80787">
        <ele>82</ele>
        <time>2023-08-09T10:33:27.123+00:00</time>
      </trkpt>
      <trkpt lat="48.28802" lon="2.8079">
        <ele>82</ele>
        <time>2023-08-09T10:33:31.136+00:00</time>
      </trkpt>
      <trkpt lat="48.28798" lon="2.80794">
        <ele>82</ele>
        <time>2023-08-09T10:33:36.097+00:00</time>
      </trkpt>
      <trkpt lat="48.28794" lon="2.80796">
        <ele>82</ele>
        <time>2023-08-09T10:33:40.140+00:00</time>
      </trkpt>
      <trkpt lat="48.2879" lon="2.80799">
        <ele>82</ele>
        <time>2023-08-09T10:33:45.133+00:00</time>
      </trkpt>
      <trkpt lat="48.28785" lon="2.80803">
        <ele>82</ele>
        <time>2023-08-09T10:33:49.140+00:00</time>
      </trkpt>
      <trkpt lat="48.28779" lon="2.80808">
        <ele>82</ele>
        <time>2023-08-09T10:33:54.132+00:00</time>
      </trkpt>
      <trkpt lat="48.28774" lon="2.80813">
        <ele>82</ele>
        <time>2023-08-09T10:33:59.134+00:00</time>
      </trkpt>
      <trkpt lat="48.28768" lon="2.80817">
        <ele>82</ele>
        <time>2023-08-09T10:34:04.128+00:00</time>
      </trkpt>
      <trkpt lat="48.28766" lon="2.80819">
        <ele>82</ele>
        <time>2023-08-09T10:34:06.095+00:00</time>
      </trkpt>
      <trkpt lat="48.2876" lon="2.80819">
        <ele>84</ele>
        <time>2023-08-09T10:34:15.100+00:00</time>
      </trkpt>
      <trkpt lat="48.28759" lon="2.80821">
        <ele>83</ele>
        <time>2023-08-09T10:34:19.098+00:00</time>
      </trkpt>
      <trkpt lat="48.28757" lon="2.80822">
        <ele>83</ele>
        <time>2023-08-09T10:34:23.102+00:00</time>
      </trkpt>
      <trkpt lat="48.28754" lon="2.80824">
        <ele>83</ele>
        <time>2023-08-09T10:34:28.125+00:00</time>
      </trkpt>
      <trkpt lat="48.28749" lon="2.80829">
        <ele>83</ele>
        <time>2023-08-09T10:34:33.116+00:00</time>
      </trkpt>
      <trkpt lat="48.28744" lon="2.80834">
        <ele>83</ele>
        <time>2023-08-09T10:34:37.140+00:00</time>
      </trkpt>
      <trkpt lat="48.28741" lon="2.80837">
        <ele>83</ele>
        <time>2023-08-09T10:34:41.123+00:00</time>
      </trkpt>
      <trkpt lat="48.28737" lon="2.80842">
        <ele>83</ele>
        <time>2023-08-09T10:34:45.118+00:00</time>
      </trkpt>
      <trkpt lat="48.28732" lon="2.80847">
        <ele>84</ele>
        <time>2023-08-09T10:34:50.108+00:00</time>
      </trkpt>
      <trkpt lat="48.28728" lon="2.80852">
        <ele>84</ele>
        <time>2023-08-09T10:34:54.133+00:00</time>
      </trkpt>
      <trkpt lat="48.28724" lon="2.80855">
        <ele>84</ele>
        <time>2023-08-09T10:34:58.127+00:00</time>
      </trkpt>
      <trkpt lat="48.2872" lon="2.80859">
        <ele>84</ele>
        <time>2023-08-09T10:35:02.149+00:00</time>
      </trkpt>
      <trkpt lat="48.28714" lon="2.80863">
        <ele>84</ele>
        <time>2023-08-09T10:35:07.132+00:00</time>
      </trkpt>
      <trkpt lat="48.28709" lon="2.80865">
        <ele>84</ele>
        <time>2023-08-09T10:35:12.096+00:00</time>
      </trkpt>
      <trkpt lat="48.28708" lon="2.80864">
        <ele>83</ele>
        <time>2023-08-09T10:35:16.109+00:00</time>
      </trkpt>
      <trkpt lat="48.28706" lon="2.80871">
        <ele>83</ele>
        <time>2023-08-09T10:35:21.097+00:00</time>
      </trkpt>
      <trkpt lat="48.28703" lon="2.80876">
        <ele>83</ele>
        <time>2023-08-09T10:35:26.100+00:00</time>
      </trkpt>
      <trkpt lat="48.28694" lon="2.80882">
        <ele>83</ele>
        <time>2023-08-09T10:36:04.101+00:00</time>
      </trkpt>
      <trkpt lat="48.28694" lon="2.80885">
        <ele>83</ele>
        <time>2023-08-09T10:36:09.109+00:00</time>
      </trkpt>
      <trkpt lat="48.28696" lon="2.80893">
        <ele>83</ele>
        <time>2023-08-09T10:36:13.092+00:00</time>
      </trkpt>
      <trkpt lat="48.28698" lon="2.80901">
        <ele>83</ele>
        <time>2023-08-09T10:36:17.101+00:00</time>
      </trkpt>
      <trkpt lat="48.28699" lon="2.80911">
        <ele>81</ele>
        <time>2023-08-09T10:36:22.100+00:00</time>
      </trkpt>
      <trkpt lat="48.28702" lon="2.80917">
        <ele>81</ele>
        <time>2023-08-09T10:36:26.105+00:00</time>
      </trkpt>
      <trkpt lat="48.28703" lon="2.80926">
        <ele>81</ele>
        <time>2023-08-09T10:36:31.096+00:00</time>
      </trkpt>
      <trkpt lat="48.28706" lon="2.80943">
        <ele>80</ele>
        <time>2023-08-09T10:36:40.113+00:00</time>
      </trkpt>
      <trkpt lat="48.28707" lon="2.8095">
        <ele>80</ele>
        <time>2023-08-09T10:36:44.096+00:00</time>
      </trkpt>
      <trkpt lat="48.28709" lon="2.8096">
        <ele>78</ele>
        <time>2023-08-09T10:36:49.104+00:00</time>
      </trkpt>
      <trkpt lat="48.2871" lon="2.80966">
        <ele>78</ele>
        <time>2023-08-09T10:36:53.104+00:00</time>
      </trkpt>
      <trkpt lat="48.28711" lon="2.80974">
        <ele>78</ele>
        <time>2023-08-09T10:36:57.111+00:00</time>
      </trkpt>
      <trkpt lat="48.28712" lon="2.80982">
        <ele>78</ele>
        <time>2023-08-09T10:37:02.105+00:00</time>
      </trkpt>
      <trkpt lat="48.28713" lon="2.80991">
        <ele>77</ele>
        <time>2023-08-09T10:37:07.106+00:00</time>
      </trkpt>
      <trkpt lat="48.28715" lon="2.80999">
        <ele>77</ele>
        <time>2023-08-09T10:37:11.105+00:00</time>
      </trkpt>
      <trkpt lat="48.28717" lon="2.81008">
        <ele>77</ele>
        <time>2023-08-09T10:37:16.102+00:00</time>
      </trkpt>
      <trkpt lat="48.28718" lon="2.81017">
        <ele>77</ele>
        <time>2023-08-09T10:37:21.097+00:00</time>
      </trkpt>
      <trkpt lat="48.2872" lon="2.81024">
        <ele>77</ele>
        <time>2023-08-09T10:37:25.110+00:00</time>
      </trkpt>
      <trkpt lat="48.28721" lon="2.81031">
        <ele>77</ele>
        <time>2023-08-09T10:37:29.111+00:00</time>
      </trkpt>
      <trkpt lat="48.28723" lon="2.8104">
        <ele>77</ele>
        <time>2023-08-09T10:37:34.124+00:00</time>
      </trkpt>
      <trkpt lat="48.28724" lon="2.81048">
        <ele>77</ele>
        <time>2023-08-09T10:37:39.109+00:00</time>
      </trkpt>
      <trkpt lat="48.28724" lon="2.81054">
        <ele>77</ele>
        <time>2023-08-09T10:37:43.109+00:00</time>
      </trkpt>
      <trkpt lat="48.28724" lon="2.81055">
        <ele>77</ele>
        <time>2023-08-09T10:37:48.109+00:00</time>
      </trkpt>
      <trkpt lat="48.28726" lon="2.8106">
        <ele>77</ele>
        <time>2023-08-09T10:37:53.122+00:00</time>
      </trkpt>
      <trkpt lat="48.28727" lon="2.81065">
        <ele>77</ele>
        <time>2023-08-09T10:37:58.105+00:00</time>
      </trkpt>
      <trkpt lat="48.28732" lon="2.81072">
        <ele>76</ele>
        <time>2023-08-09T10:38:07.102+00:00</time>
      </trkpt>
      <trkpt lat="48.28726" lon="2.81076">
        <ele>76</ele>
        <time>2023-08-09T10:38:47.115+00:00</time>
      </trkpt>
      <trkpt lat="48.28724" lon="2.81078">
        <ele>76</ele>
        <time>2023-08-09T10:38:51.132+00:00</time>
      </trkpt>
      <trkpt lat="48.28724" lon="2.81082">
        <ele>76</ele>
        <time>2023-08-09T10:38:55.138+00:00</time>
      </trkpt>
      <trkpt lat="48.28727" lon="2.81087">
        <ele>76</ele>
        <time>2023-08-09T10:39:00.100+00:00</time>
      </trkpt>
      <trkpt lat="48.28729" lon="2.81092">
        <ele>76</ele>
        <time>2023-08-09T10:39:04.101+00:00</time>
      </trkpt>
      <trkpt lat="48.28733" lon="2.81097">
        <ele>76</ele>
        <time>2023-08-09T10:39:18.121+00:00</time>
      </trkpt>
      <trkpt lat="48.28728" lon="2.81102">
        <ele>76</ele>
        <time>2023-08-09T10:39:23.105+00:00</time>
      </trkpt>
      <trkpt lat="48.28725" lon="2.81111">
        <ele>76</ele>
        <time>2023-08-09T10:39:28.107+00:00</time>
      </trkpt>
      <trkpt lat="48.28724" lon="2.8112">
        <ele>76</ele>
        <time>2023-08-09T10:39:33.100+00:00</time>
      </trkpt>
      <trkpt lat="48.28723" lon="2.81126">
        <ele>74</ele>
        <time>2023-08-09T10:39:37.107+00:00</time>
      </trkpt>
      <trkpt lat="48.28723" lon="2.81135">
        <ele>74</ele>
        <time>2023-08-09T10:39:42.102+00:00</time>
      </trkpt>
      <trkpt lat="48.28723" lon="2.81144">
        <ele>74</ele>
        <time>2023-08-09T10:39:47.103+00:00</time>
      </trkpt>
      <trkpt lat="48.28723" lon="2.81152">
        <ele>74</ele>
        <time>2023-08-09T10:39:52.103+00:00</time>
      </trkpt>
      <trkpt lat="48.28722" lon="2.81156">
        <ele>72</ele>
        <time>2023-08-09T10:39:57.104+00:00</time>
      </trkpt>
      <trkpt lat="48.28723" lon="2.81158">
        <ele>72</ele>
        <time>2023-08-09T10:40:02.104+00:00</time>
      </trkpt>
      <trkpt lat="48.28724" lon="2.81164">
        <ele>72</ele>
        <time>2023-08-09T10:40:07.110+00:00</time>
      </trkpt>
      <trkpt lat="48.28725" lon="2.81174">
        <ele>72</ele>
        <time>2023-08-09T10:40:12.112+00:00</time>
      </trkpt>
      <trkpt lat="48.28726" lon="2.81181">
        <ele>71</ele>
        <time>2023-08-09T10:40:17.092+00:00</time>
      </trkpt>
      <trkpt lat="48.28726" lon="2.81187">
        <ele>71</ele>
        <time>2023-08-09T10:40:21.104+00:00</time>
      </trkpt>
      <trkpt lat="48.28727" lon="2.81194">
        <ele>71</ele>
        <time>2023-08-09T10:40:26.094+00:00</time>
      </trkpt>
      <trkpt lat="48.28728" lon="2.81201">
        <ele>71</ele>
        <time>2023-08-09T10:40:30.107+00:00</time>
      </trkpt>
      <trkpt lat="48.28731" lon="2.81206">
        <ele>71</ele>
        <time>2023-08-09T10:40:35.105+00:00</time>
      </trkpt>
      <trkpt lat="48.28733" lon="2.81212">
        <ele>71</ele>
        <time>2023-08-09T10:40:40.103+00:00</time>
      </trkpt>
      <trkpt lat="48.28737" lon="2.81214">
        <ele>73</ele>
        <time>2023-08-09T10:40:45.106+00:00</time>
      </trkpt>
      <trkpt lat="48.2874" lon="2.81215">
        <ele>73</ele>
        <time>2023-08-09T10:40:50.102+00:00</time>
      </trkpt>
      <trkpt lat="48.28743" lon="2.81215">
        <ele>73</ele>
        <time>2023-08-09T10:40:55.109+00:00</time>
      </trkpt>
      <trkpt lat="48.28745" lon="2.81214">
        <ele>73</ele>
        <time>2023-08-09T10:41:00.105+00:00</time>
      </trkpt>
      <trkpt lat="48.28747" lon="2.81215">
        <ele>73</ele>
        <time>2023-08-09T10:41:04.103+00:00</time>
      </trkpt>
      <trkpt lat="48.28751" lon="2.81215">
        <ele>73</ele>
        <time>2023-08-09T10:41:09.101+00:00</time>
      </trkpt>
      <trkpt lat="48.28752" lon="2.81218">
        <ele>73</ele>
        <time>2023-08-09T10:41:13.110+00:00</time>
      </trkpt>
      <trkpt lat="48.28752" lon="2.81224">
        <ele>73</ele>
        <time>2023-08-09T10:41:17.101+00:00</time>
      </trkpt>
      <trkpt lat="48.28753" lon="2.81231">
        <ele>73</ele>
        <time>2023-08-09T10:41:22.129+00:00</time>
      </trkpt>
      <trkpt lat="48.28754" lon="2.81239">
        <ele>73</ele>
        <time>2023-08-09T10:41:27.106+00:00</time>
      </trkpt>
      <trkpt lat="48.28752" lon="2.81243">
        <ele>73</ele>
        <time>2023-08-09T10:41:31.108+00:00</time>
      </trkpt>
      <trkpt lat="48.28749" lon="2.81245">
        <ele>73</ele>
        <time>2023-08-09T10:41:36.115+00:00</time>
      </trkpt>
      <trkpt lat="48.28749" lon="2.81245">
        <ele>73</ele>
        <time>2023-08-09T10:41:41.106+00:00</time>
      </trkpt>
      <trkpt lat="48.28746" lon="2.81245">
        <ele>73</ele>
        <time>2023-08-09T10:41:46.113+00:00</time>
      </trkpt>
      <trkpt lat="48.28741" lon="2.81246">
        <ele>73</ele>
        <time>2023-08-09T10:41:50.102+00:00</time>
      </trkpt>
      <trkpt lat="48.28736" lon="2.81248">
        <ele>71</ele>
        <time>2023-08-09T10:41:55.106+00:00</time>
      </trkpt>
      <trkpt lat="48.28731" lon="2.81248">
        <ele>71</ele>
        <time>2023-08-09T10:41:59.104+00:00</time>
      </trkpt>
      <trkpt lat="48.28726" lon="2.81248">
        <ele>71</ele>
        <time>2023-08-09T10:42:03.106+00:00</time>
      </trkpt>
      <trkpt lat="48.28721" lon="2.8125">
        <ele>71</ele>
        <time>2023-08-09T10:42:08.103+00:00</time>
      </trkpt>
      <trkpt lat="48.28715" lon="2.8125">
        <ele>71</ele>
        <time>2023-08-09T10:42:12.097+00:00</time>
      </trkpt>
      <trkpt lat="48.2871" lon="2.81251">
        <ele>71</ele>
        <time>2023-08-09T10:42:17.118+00:00</time>
      </trkpt>
      <trkpt lat="48.28705" lon="2.81253">
        <ele>72</ele>
        <time>2023-08-09T10:42:21.124+00:00</time>
      </trkpt>
      <trkpt lat="48.287" lon="2.81254">
        <ele>72</ele>
        <time>2023-08-09T10:42:25.139+00:00</time>
      </trkpt>
      <trkpt lat="48.28695" lon="2.81254">
        <ele>72</ele>
        <time>2023-08-09T10:42:29.143+00:00</time>
      </trkpt>
      <trkpt lat="48.28689" lon="2.81256">
        <ele>72</ele>
        <time>2023-08-09T10:42:34.131+00:00</time>
      </trkpt>
      <trkpt lat="48.28683" lon="2.81257">
        <ele>72</ele>
        <time>2023-08-09T10:42:39.122+00:00</time>
      </trkpt>
      <trkpt lat="48.28678" lon="2.81258">
        <ele>72</ele>
        <time>2023-08-09T10:42:43.137+00:00</time>
      </trkpt>
      <trkpt lat="48.28673" lon="2.81259">
        <ele>72</ele>
        <time>2023-08-09T10:42:48.122+00:00</time>
      </trkpt>
      <trkpt lat="48.28667" lon="2.81261">
        <ele>72</ele>
        <time>2023-08-09T10:42:53.127+00:00</time>
      </trkpt>
      <trkpt lat="48.28663" lon="2.81262">
        <ele>72</ele>
        <time>2023-08-09T10:42:57.141+00:00</time>
      </trkpt>
      <trkpt lat="48.28658" lon="2.81263">
        <ele>72</ele>
        <time>2023-08-09T10:43:01.139+00:00</time>
      </trkpt>
      <trkpt lat="48.28652" lon="2.81265">
        <ele>73</ele>
        <time>2023-08-09T10:43:06.138+00:00</time>
      </trkpt>
      <trkpt lat="48.28647" lon="2.81267">
        <ele>73</ele>
        <time>2023-08-09T10:43:11.156+00:00</time>
      </trkpt>
      <trkpt lat="48.28642" lon="2.81268">
        <ele>73</ele>
        <time>2023-08-09T10:43:16.132+00:00</time>
      </trkpt>
      <trkpt lat="48.28638" lon="2.81269">
        <ele>73</ele>
        <time>2023-08-09T10:43:20.134+00:00</time>
      </trkpt>
      <trkpt lat="48.28631" lon="2.81271">
        <ele>73</ele>
        <time>2023-08-09T10:43:25.118+00:00</time>
      </trkpt>
      <trkpt lat="48.28626" lon="2.81272">
        <ele>73</ele>
        <time>2023-08-09T10:43:29.142+00:00</time>
      </trkpt>
      <trkpt lat="48.2862" lon="2.81273">
        <ele>73</ele>
        <time>2023-08-09T10:43:34.148+00:00</time>
      </trkpt>
      <trkpt lat="48.28614" lon="2.81274">
        <ele>73</ele>
        <time>2023-08-09T10:43:39.134+00:00</time>
      </trkpt>
      <trkpt lat="48.28609" lon="2.81274">
        <ele>73</ele>
        <time>2023-08-09T10:43:43.138+00:00</time>
      </trkpt>
      <trkpt lat="48.28603" lon="2.81274">
        <ele>73</ele>
        <time>2023-08-09T10:43:48.126+00:00</time>
      </trkpt>
      <trkpt lat="48.28597" lon="2.81275">
        <ele>73</ele>
        <time>2023-08-09T10:43:53.134+00:00</time>
      </trkpt>
      <trkpt lat="48.28591" lon="2.81277">
        <ele>73</ele>
        <time>2023-08-09T10:43:58.134+00:00</time>
      </trkpt>
      <trkpt lat="48.28586" lon="2.81277">
        <ele>73</ele>
        <time>2023-08-09T10:44:02.138+00:00</time>
      </trkpt>
      <trkpt lat="48.28583" lon="2.81277">
        <ele>73</ele>
        <time>2023-08-09T10:44:07.132+00:00</time>
      </trkpt>
      <trkpt lat="48.28576" lon="2.8128">
        <ele>73</ele>
        <time>2023-08-09T10:44:12.124+00:00</time>
      </trkpt>
      <trkpt lat="48.28572" lon="2.81283">
        <ele>73</ele>
        <time>2023-08-09T10:44:16.146+00:00</time>
      </trkpt>
      <trkpt lat="48.28567" lon="2.81287">
        <ele>72</ele>
        <time>2023-08-09T10:44:21.139+00:00</time>
      </trkpt>
      <trkpt lat="48.28562" lon="2.8129">
        <ele>72</ele>
        <time>2023-08-09T10:44:26.145+00:00</time>
      </trkpt>
      <trkpt lat="48.28558" lon="2.81294">
        <ele>73</ele>
        <time>2023-08-09T10:44:30.154+00:00</time>
      </trkpt>
      <trkpt lat="48.28555" lon="2.81298">
        <ele>73</ele>
        <time>2023-08-09T10:44:35.137+00:00</time>
      </trkpt>
      <trkpt lat="48.28556" lon="2.81304">
        <ele>73</ele>
        <time>2023-08-09T10:44:39.142+00:00</time>
      </trkpt>
      <trkpt lat="48.28556" lon="2.81317">
        <ele>73</ele>
        <time>2023-08-09T10:44:53.142+00:00</time>
      </trkpt>
      <trkpt lat="48.28556" lon="2.81326">
        <ele>74</ele>
        <time>2023-08-09T10:44:58.098+00:00</time>
      </trkpt>
      <trkpt lat="48.28558" lon="2.81334">
        <ele>74</ele>
        <time>2023-08-09T10:45:02.102+00:00</time>
      </trkpt>
      <trkpt lat="48.28557" lon="2.81343">
        <ele>74</ele>
        <time>2023-08-09T10:45:07.107+00:00</time>
      </trkpt>
      <trkpt lat="48.28558" lon="2.81349">
        <ele>75</ele>
        <time>2023-08-09T10:45:11.110+00:00</time>
      </trkpt>
      <trkpt lat="48.28558" lon="2.81356">
        <ele>75</ele>
        <time>2023-08-09T10:45:16.101+00:00</time>
      </trkpt>
      <trkpt lat="48.28559" lon="2.81359">
        <ele>75</ele>
        <time>2023-08-09T10:45:20.103+00:00</time>
      </trkpt>
      <trkpt lat="48.2856" lon="2.81362">
        <ele>75</ele>
        <time>2023-08-09T10:45:25.104+00:00</time>
      </trkpt>
      <trkpt lat="48.28558" lon="2.81369">
        <ele>75</ele>
        <time>2023-08-09T10:45:30.096+00:00</time>
      </trkpt>
      <trkpt lat="48.28557" lon="2.81377">
        <ele>76</ele>
        <time>2023-08-09T10:45:35.106+00:00</time>
      </trkpt>
      <trkpt lat="48.28557" lon="2.81385">
        <ele>76</ele>
        <time>2023-08-09T10:45:40.117+00:00</time>
      </trkpt>
      <trkpt lat="48.28555" lon="2.81392">
        <ele>76</ele>
        <time>2023-08-09T10:45:44.110+00:00</time>
      </trkpt>
      <trkpt lat="48.28555" lon="2.81401">
        <ele>76</ele>
        <time>2023-08-09T10:45:49.116+00:00</time>
      </trkpt>
      <trkpt lat="48.28554" lon="2.81409">
        <ele>77</ele>
        <time>2023-08-09T10:45:53.125+00:00</time>
      </trkpt>
      <trkpt lat="48.28554" lon="2.81417">
        <ele>77</ele>
        <time>2023-08-09T10:45:57.132+00:00</time>
      </trkpt>
      <trkpt lat="48.28554" lon="2.81428">
        <ele>77</ele>
        <time>2023-08-09T10:46:02.093+00:00</time>
      </trkpt>
      <trkpt lat="48.28555" lon="2.8143">
        <ele>77</ele>
        <time>2023-08-09T10:46:03.096+00:00</time>
      </trkpt>
      <trkpt lat="48.28555" lon="2.81442">
        <ele>78</ele>
        <time>2023-08-09T10:46:10.096+00:00</time>
      </trkpt>
      <trkpt lat="48.28554" lon="2.8145">
        <ele>78</ele>
        <time>2023-08-09T10:46:15.106+00:00</time>
      </trkpt>
      <trkpt lat="48.28553" lon="2.81461">
        <ele>77</ele>
        <time>2023-08-09T10:46:20.100+00:00</time>
      </trkpt>
      <trkpt lat="48.28552" lon="2.81468">
        <ele>77</ele>
        <time>2023-08-09T10:46:24.100+00:00</time>
      </trkpt>
      <trkpt lat="48.28552" lon="2.81476">
        <ele>77</ele>
        <time>2023-08-09T10:46:28.100+00:00</time>
      </trkpt>
      <trkpt lat="48.28552" lon="2.81485">
        <ele>77</ele>
        <time>2023-08-09T10:46:33.095+00:00</time>
      </trkpt>
      <trkpt lat="48.28553" lon="2.81494">
        <ele>76</ele>
        <time>2023-08-09T10:46:38.103+00:00</time>
      </trkpt>
      <trkpt lat="48.28553" lon="2.81505">
        <ele>76</ele>
        <time>2023-08-09T10:46:43.130+00:00</time>
      </trkpt>
      <trkpt lat="48.28553" lon="2.81513">
        <ele>76</ele>
        <time>2023-08-09T10:46:47.114+00:00</time>
      </trkpt>
      <trkpt lat="48.28553" lon="2.81523">
        <ele>75</ele>
        <time>2023-08-09T10:46:52.102+00:00</time>
      </trkpt>
      <trkpt lat="48.28554" lon="2.81531">
        <ele>75</ele>
        <time>2023-08-09T10:46:56.146+00:00</time>
      </trkpt>
      <trkpt lat="48.28555" lon="2.81539">
        <ele>75</ele>
        <time>2023-08-09T10:47:01.117+00:00</time>
      </trkpt>
      <trkpt lat="48.28554" lon="2.81545">
        <ele>74</ele>
        <time>2023-08-09T10:47:05.134+00:00</time>
      </trkpt>
      <trkpt lat="48.28555" lon="2.81553">
        <ele>74</ele>
        <time>2023-08-09T10:47:09.134+00:00</time>
      </trkpt>
      <trkpt lat="48.28556" lon="2.81563">
        <ele>74</ele>
        <time>2023-08-09T10:47:14.145+00:00</time>
      </trkpt>
      <trkpt lat="48.28558" lon="2.81573">
        <ele>74</ele>
        <time>2023-08-09T10:47:19.110+00:00</time>
      </trkpt>
      <trkpt lat="48.28558" lon="2.81581">
        <ele>74</ele>
        <time>2023-08-09T10:47:23.137+00:00</time>
      </trkpt>
      <trkpt lat="48.28559" lon="2.81589">
        <ele>74</ele>
        <time>2023-08-09T10:47:28.133+00:00</time>
      </trkpt>
      <trkpt lat="48.2856" lon="2.81598">
        <ele>73</ele>
        <time>2023-08-09T10:47:33.118+00:00</time>
      </trkpt>
      <trkpt lat="48.2856" lon="2.81608">
        <ele>73</ele>
        <time>2023-08-09T10:47:38.121+00:00</time>
      </trkpt>
      <trkpt lat="48.2856" lon="2.8162">
        <ele>73</ele>
        <time>2023-08-09T10:47:43.114+00:00</time>
      </trkpt>
      <trkpt lat="48.2856" lon="2.81628">
        <ele>74</ele>
        <time>2023-08-09T10:47:48.116+00:00</time>
      </trkpt>
      <trkpt lat="48.28561" lon="2.81631">
        <ele>74</ele>
        <time>2023-08-09T10:47:53.121+00:00</time>
      </trkpt>
      <trkpt lat="48.28561" lon="2.81639">
        <ele>74</ele>
        <time>2023-08-09T10:47:58.112+00:00</time>
      </trkpt>
      <trkpt lat="48.2856" lon="2.81647">
        <ele>74</ele>
        <time>2023-08-09T10:48:02.123+00:00</time>
      </trkpt>
      <trkpt lat="48.28559" lon="2.81654">
        <ele>73</ele>
        <time>2023-08-09T10:48:06.115+00:00</time>
      </trkpt>
      <trkpt lat="48.28558" lon="2.81663">
        <ele>73</ele>
        <time>2023-08-09T10:48:11.134+00:00</time>
      </trkpt>
      <trkpt lat="48.28557" lon="2.81674">
        <ele>73</ele>
        <time>2023-08-09T10:48:16.133+00:00</time>
      </trkpt>
      <trkpt lat="48.28556" lon="2.81684">
        <ele>73</ele>
        <time>2023-08-09T10:48:21.124+00:00</time>
      </trkpt>
      <trkpt lat="48.28554" lon="2.81695">
        <ele>73</ele>
        <time>2023-08-09T10:48:26.137+00:00</time>
      </trkpt>
      <trkpt lat="48.28552" lon="2.81706">
        <ele>73</ele>
        <time>2023-08-09T10:48:31.113+00:00</time>
      </trkpt>
      <trkpt lat="48.2855" lon="2.81714">
        <ele>74</ele>
        <time>2023-08-09T10:48:36.114+00:00</time>
      </trkpt>
      <trkpt lat="48.2855" lon="2.81719">
        <ele>74</ele>
        <time>2023-08-09T10:48:41.125+00:00</time>
      </trkpt>
      <trkpt lat="48.28548" lon="2.8173">
        <ele>74</ele>
        <time>2023-08-09T10:48:46.106+00:00</time>
      </trkpt>
      <trkpt lat="48.28546" lon="2.8174">
        <ele>75</ele>
        <time>2023-08-09T10:48:51.142+00:00</time>
      </trkpt>
      <trkpt lat="48.28545" lon="2.8175">
        <ele>75</ele>
        <time>2023-08-09T10:48:56.104+00:00</time>
      </trkpt>
      <trkpt lat="48.28544" lon="2.81758">
        <ele>75</ele>
        <time>2023-08-09T10:49:00.124+00:00</time>
      </trkpt>
      <trkpt lat="48.28545" lon="2.81767">
        <ele>76</ele>
        <time>2023-08-09T10:49:05.095+00:00</time>
      </trkpt>
      <trkpt lat="48.28545" lon="2.81774">
        <ele>76</ele>
        <time>2023-08-09T10:49:09.099+00:00</time>
      </trkpt>
      <trkpt lat="48.28545" lon="2.81781">
        <ele>76</ele>
        <time>2023-08-09T10:49:13.143+00:00</time>
      </trkpt>
      <trkpt lat="48.28547" lon="2.81788">
        <ele>76</ele>
        <time>2023-08-09T10:49:17.139+00:00</time>
      </trkpt>
      <trkpt lat="48.28549" lon="2.81799">
        <ele>77</ele>
        <time>2023-08-09T10:49:22.135+00:00</time>
      </trkpt>
      <trkpt lat="48.2855" lon="2.81806">
        <ele>77</ele>
        <time>2023-08-09T10:49:26.126+00:00</time>
      </trkpt>
      <trkpt lat="48.28552" lon="2.81816">
        <ele>77</ele>
        <time>2023-08-09T10:49:31.129+00:00</time>
      </trkpt>
      <trkpt lat="48.28549" lon="2.81824">
        <ele>77</ele>
        <time>2023-08-09T10:49:36.122+00:00</time>
      </trkpt>
      <trkpt lat="48.28545" lon="2.81825">
        <ele>77</ele>
        <time>2023-08-09T10:49:40.132+00:00</time>
      </trkpt>
      <trkpt lat="48.28539" lon="2.81829">
        <ele>77</ele>
        <time>2023-08-09T10:49:45.124+00:00</time>
      </trkpt>
      <trkpt lat="48.28534" lon="2.81831">
        <ele>77</ele>
        <time>2023-08-09T10:49:49.147+00:00</time>
      </trkpt>
      <trkpt lat="48.28529" lon="2.81833">
        <ele>77</ele>
        <time>2023-08-09T10:49:53.149+00:00</time>
      </trkpt>
      <trkpt lat="48.28523" lon="2.81836">
        <ele>77</ele>
        <time>2023-08-09T10:50:12.111+00:00</time>
      </trkpt>
      <trkpt lat="48.28523" lon="2.81836">
        <ele>77</ele>
        <time>2023-08-09T10:50:17.117+00:00</time>
      </trkpt>
      <trkpt lat="48.28524" lon="2.81836">
        <ele>77</ele>
        <time>2023-08-09T10:50:22.124+00:00</time>
      </trkpt>
      <trkpt lat="48.28528" lon="2.81834">
        <ele>77</ele>
        <time>2023-08-09T10:50:27.111+00:00</time>
      </trkpt>
      <trkpt lat="48.28533" lon="2.81834">
        <ele>77</ele>
        <time>2023-08-09T10:50:31.035+00:00</time>
      </trkpt>
      <trkpt lat="48.28539" lon="2.81832">
        <ele>77</ele>
        <time>2023-08-09T10:50:36.030+00:00</time>
      </trkpt>
      <trkpt lat="48.28545" lon="2.8183">
        <ele>77</ele>
        <time>2023-08-09T10:50:40.117+00:00</time>
      </trkpt>
      <trkpt lat="48.28551" lon="2.8183">
        <ele>77</ele>
        <time>2023-08-09T10:50:45.154+00:00</time>
      </trkpt>
      <trkpt lat="48.28556" lon="2.81837">
        <ele>77</ele>
        <time>2023-08-09T10:50:50.117+00:00</time>
      </trkpt>
      <trkpt lat="48.28557" lon="2.81846">
        <ele>77</ele>
        <time>2023-08-09T10:50:55.141+00:00</time>
      </trkpt>
      <trkpt lat="48.2856" lon="2.81856">
        <ele>76</ele>
        <time>2023-08-09T10:51:00.126+00:00</time>
      </trkpt>
      <trkpt lat="48.28562" lon="2.81865">
        <ele>76</ele>
        <time>2023-08-09T10:51:04.133+00:00</time>
      </trkpt>
      <trkpt lat="48.28563" lon="2.81873">
        <ele>76</ele>
        <time>2023-08-09T10:51:08.161+00:00</time>
      </trkpt>
      <trkpt lat="48.28566" lon="2.81883">
        <ele>75</ele>
        <time>2023-08-09T10:51:13.104+00:00</time>
      </trkpt>
      <trkpt lat="48.28568" lon="2.8189">
        <ele>75</ele>
        <time>2023-08-09T10:51:17.106+00:00</time>
      </trkpt>
      <trkpt lat="48.2857" lon="2.81898">
        <ele>76</ele>
        <time>2023-08-09T10:51:21.141+00:00</time>
      </trkpt>
      <trkpt lat="48.28572" lon="2.81899">
        <ele>76</ele>
        <time>2023-08-09T10:51:26.105+00:00</time>
      </trkpt>
      <trkpt lat="48.28572" lon="2.819">
        <ele>76</ele>
        <time>2023-08-09T10:51:31.096+00:00</time>
      </trkpt>
      <trkpt lat="48.28573" lon="2.81901">
        <ele>76</ele>
        <time>2023-08-09T10:51:36.101+00:00</time>
      </trkpt>
      <trkpt lat="48.28575" lon="2.8191">
        <ele>76</ele>
        <time>2023-08-09T10:51:40.114+00:00</time>
      </trkpt>
      <trkpt lat="48.28576" lon="2.81921">
        <ele>76</ele>
        <time>2023-08-09T10:51:45.116+00:00</time>
      </trkpt>
      <trkpt lat="48.28579" lon="2.8193">
        <ele>76</ele>
        <time>2023-08-09T10:51:50.108+00:00</time>
      </trkpt>
      <trkpt lat="48.28581" lon="2.8194">
        <ele>75</ele>
        <time>2023-08-09T10:51:55.108+00:00</time>
      </trkpt>
      <trkpt lat="48.28581" lon="2.81951">
        <ele>75</ele>
        <time>2023-08-09T10:52:00.097+00:00</time>
      </trkpt>
      <trkpt lat="48.28581" lon="2.81958">
        <ele>75</ele>
        <time>2023-08-09T10:52:04.130+00:00</time>
      </trkpt>
      <trkpt lat="48.28579" lon="2.81965">
        <ele>75</ele>
        <time>2023-08-09T10:52:08.142+00:00</time>
      </trkpt>
      <trkpt lat="48.28575" lon="2.81974">
        <ele>75</ele>
        <time>2023-08-09T10:52:13.113+00:00</time>
      </trkpt>
      <trkpt lat="48.28571" lon="2.81981">
        <ele>75</ele>
        <time>2023-08-09T10:52:18.114+00:00</time>
      </trkpt>
      <trkpt lat="48.28566" lon="2.81987">
        <ele>76</ele>
        <time>2023-08-09T10:52:22.110+00:00</time>
      </trkpt>
      <trkpt lat="48.28561" lon="2.81993">
        <ele>76</ele>
        <time>2023-08-09T10:52:26.117+00:00</time>
      </trkpt>
      <trkpt lat="48.28555" lon="2.81998">
        <ele>76</ele>
        <time>2023-08-09T10:52:31.110+00:00</time>
      </trkpt>
      <trkpt lat="48.2855" lon="2.82">
        <ele>76</ele>
        <time>2023-08-09T10:52:35.111+00:00</time>
      </trkpt>
      <trkpt lat="48.28546" lon="2.82002">
        <ele>76</ele>
        <time>2023-08-09T10:52:40.137+00:00</time>
      </trkpt>
      <trkpt lat="48.28544" lon="2.82004">
        <ele>76</ele>
        <time>2023-08-09T10:52:45.105+00:00</time>
      </trkpt>
      <trkpt lat="48.28538" lon="2.82006">
        <ele>77</ele>
        <time>2023-08-09T10:52:49.113+00:00</time>
      </trkpt>
      <trkpt lat="48.28532" lon="2.82007">
        <ele>77</ele>
        <time>2023-08-09T10:52:53.136+00:00</time>
      </trkpt>
      <trkpt lat="48.28525" lon="2.82008">
        <ele>77</ele>
        <time>2023-08-09T10:52:58.122+00:00</time>
      </trkpt>
      <trkpt lat="48.28519" lon="2.82008">
        <ele>77</ele>
        <time>2023-08-09T10:53:03.121+00:00</time>
      </trkpt>
      <trkpt lat="48.28513" lon="2.82007">
        <ele>78</ele>
        <time>2023-08-09T10:53:08.111+00:00</time>
      </trkpt>
      <trkpt lat="48.28508" lon="2.82006">
        <ele>78</ele>
        <time>2023-08-09T10:53:12.120+00:00</time>
      </trkpt>
      <trkpt lat="48.28503" lon="2.82004">
        <ele>78</ele>
        <time>2023-08-09T10:53:16.096+00:00</time>
      </trkpt>
      <trkpt lat="48.28495" lon="2.81998">
        <ele>78</ele>
        <time>2023-08-09T10:53:37.104+00:00</time>
      </trkpt>
      <trkpt lat="48.2849" lon="2.82">
        <ele>78</ele>
        <time>2023-08-09T10:53:41.649+00:00</time>
      </trkpt>
      <trkpt lat="48.28486" lon="2.82001">
        <ele>79</ele>
        <time>2023-08-09T10:53:46.095+00:00</time>
      </trkpt>
      <trkpt lat="48.28484" lon="2.81999">
        <ele>79</ele>
        <time>2023-08-09T10:53:51.104+00:00</time>
      </trkpt>
      <trkpt lat="48.28478" lon="2.81997">
        <ele>79</ele>
        <time>2023-08-09T10:53:55.101+00:00</time>
      </trkpt>
      <trkpt lat="48.28471" lon="2.81992">
        <ele>79</ele>
        <time>2023-08-09T10:54:00.103+00:00</time>
      </trkpt>
      <trkpt lat="48.28465" lon="2.81988">
        <ele>79</ele>
        <time>2023-08-09T10:54:04.108+00:00</time>
      </trkpt>
      <trkpt lat="48.28464" lon="2.81985">
        <ele>77</ele>
        <time>2023-08-09T10:54:09.100+00:00</time>
      </trkpt>
      <trkpt lat="48.2846" lon="2.81982">
        <ele>77</ele>
        <time>2023-08-09T10:54:13.099+00:00</time>
      </trkpt>
      <trkpt lat="48.28454" lon="2.81982">
        <ele>76</ele>
        <time>2023-08-09T10:54:18.103+00:00</time>
      </trkpt>
      <trkpt lat="48.28448" lon="2.81983">
        <ele>76</ele>
        <time>2023-08-09T10:54:23.111+00:00</time>
      </trkpt>
      <trkpt lat="48.28443" lon="2.81984">
        <ele>76</ele>
        <time>2023-08-09T10:54:28.105+00:00</time>
      </trkpt>
      <trkpt lat="48.28441" lon="2.81981">
        <ele>76</ele>
        <time>2023-08-09T10:54:33.111+00:00</time>
      </trkpt>
      <trkpt lat="48.28433" lon="2.81977">
        <ele>76</ele>
        <time>2023-08-09T10:55:18.097+00:00</time>
      </trkpt>
      <trkpt lat="48.28432" lon="2.8198">
        <ele>76</ele>
        <time>2023-08-09T10:55:23.097+00:00</time>
      </trkpt>
      <trkpt lat="48.2843" lon="2.81984">
        <ele>77</ele>
        <time>2023-08-09T10:55:27.032+00:00</time>
      </trkpt>
      <trkpt lat="48.28424" lon="2.81986">
        <ele>77</ele>
        <time>2023-08-09T10:55:31.124+00:00</time>
      </trkpt>
      <trkpt lat="48.2842" lon="2.81988">
        <ele>78</ele>
        <time>2023-08-09T10:55:35.140+00:00</time>
      </trkpt>
      <trkpt lat="48.28413" lon="2.81989">
        <ele>78</ele>
        <time>2023-08-09T10:55:40.111+00:00</time>
      </trkpt>
      <trkpt lat="48.28412" lon="2.8199">
        <ele>78</ele>
        <time>2023-08-09T10:55:41.107+00:00</time>
      </trkpt>
      <trkpt lat="48.28405" lon="2.81995">
        <ele>78</ele>
        <time>2023-08-09T10:55:50.086+00:00</time>
      </trkpt>
      <trkpt lat="48.28402" lon="2.81991">
        <ele>76</ele>
        <time>2023-08-09T10:55:54.119+00:00</time>
      </trkpt>
      <trkpt lat="48.28399" lon="2.81987">
        <ele>76</ele>
        <time>2023-08-09T10:56:13.108+00:00</time>
      </trkpt>
      <trkpt lat="48.28405" lon="2.81987">
        <ele>78</ele>
        <time>2023-08-09T10:56:18.106+00:00</time>
      </trkpt>
      <trkpt lat="48.28409" lon="2.81986">
        <ele>78</ele>
        <time>2023-08-09T10:56:22.117+00:00</time>
      </trkpt>
      <trkpt lat="48.28414" lon="2.81984">
        <ele>77</ele>
        <time>2023-08-09T10:56:27.112+00:00</time>
      </trkpt>
      <trkpt lat="48.28418" lon="2.81985">
        <ele>77</ele>
        <time>2023-08-09T10:56:31.150+00:00</time>
      </trkpt>
      <trkpt lat="48.28424" lon="2.81984">
        <ele>77</ele>
        <time>2023-08-09T10:56:36.106+00:00</time>
      </trkpt>
      <trkpt lat="48.28428" lon="2.81983">
        <ele>77</ele>
        <time>2023-08-09T10:56:40.136+00:00</time>
      </trkpt>
      <trkpt lat="48.28432" lon="2.81983">
        <ele>76</ele>
        <time>2023-08-09T10:56:44.117+00:00</time>
      </trkpt>
      <trkpt lat="48.28436" lon="2.81982">
        <ele>76</ele>
        <time>2023-08-09T10:56:48.148+00:00</time>
      </trkpt>
      <trkpt lat="48.2844" lon="2.8198">
        <ele>76</ele>
        <time>2023-08-09T10:57:16.131+00:00</time>
      </trkpt>
      <trkpt lat="48.28443" lon="2.8198">
        <ele>76</ele>
        <time>2023-08-09T10:57:21.097+00:00</time>
      </trkpt>
      <trkpt lat="48.28448" lon="2.81981">
        <ele>76</ele>
        <time>2023-08-09T10:57:26.095+00:00</time>
      </trkpt>
      <trkpt lat="48.28447" lon="2.81984">
        <ele>76</ele>
        <time>2023-08-09T10:57:31.105+00:00</time>
      </trkpt>
      <trkpt lat="48.2845" lon="2.81984">
        <ele>76</ele>
        <time>2023-08-09T10:57:36.089+00:00</time>
      </trkpt>
      <trkpt lat="48.28454" lon="2.81982">
        <ele>76</ele>
        <time>2023-08-09T10:57:40.113+00:00</time>
      </trkpt>
      <trkpt lat="48.28458" lon="2.8198">
        <ele>76</ele>
        <time>2023-08-09T10:57:45.093+00:00</time>
      </trkpt>
      <trkpt lat="48.28457" lon="2.81979">
        <ele>76</ele>
        <time>2023-08-09T10:57:49.100+00:00</time>
      </trkpt>
      <trkpt lat="48.28462" lon="2.81983">
        <ele>77</ele>
        <time>2023-08-09T10:57:53.097+00:00</time>
      </trkpt>
      <trkpt lat="48.28467" lon="2.81987">
        <ele>79</ele>
        <time>2023-08-09T10:57:57.090+00:00</time>
      </trkpt>
      <trkpt lat="48.28478" lon="2.81996">
        <ele>79</ele>
        <time>2023-08-09T10:58:15.091+00:00</time>
      </trkpt>
      <trkpt lat="48.28479" lon="2.81998">
        <ele>79</ele>
        <time>2023-08-09T10:58:19.097+00:00</time>
      </trkpt>
      <trkpt lat="48.28485" lon="2.81997">
        <ele>79</ele>
        <time>2023-08-09T10:58:24.118+00:00</time>
      </trkpt>
      <trkpt lat="48.2849" lon="2.81998">
        <ele>78</ele>
        <time>2023-08-09T10:58:29.098+00:00</time>
      </trkpt>
      <trkpt lat="48.28497" lon="2.82002">
        <ele>78</ele>
        <time>2023-08-09T10:58:34.103+00:00</time>
      </trkpt>
      <trkpt lat="48.28504" lon="2.82006">
        <ele>78</ele>
        <time>2023-08-09T10:58:39.097+00:00</time>
      </trkpt>
      <trkpt lat="48.2851" lon="2.82008">
        <ele>78</ele>
        <time>2023-08-09T10:58:44.093+00:00</time>
      </trkpt>
      <trkpt lat="48.28517" lon="2.82008">
        <ele>77</ele>
        <time>2023-08-09T10:58:49.092+00:00</time>
      </trkpt>
      <trkpt lat="48.28524" lon="2.82006">
        <ele>77</ele>
        <time>2023-08-09T10:58:54.115+00:00</time>
      </trkpt>
      <trkpt lat="48.2853" lon="2.82005">
        <ele>77</ele>
        <time>2023-08-09T10:58:59.144+00:00</time>
      </trkpt>
      <trkpt lat="48.28537" lon="2.82004">
        <ele>77</ele>
        <time>2023-08-09T10:59:04.134+00:00</time>
      </trkpt>
      <trkpt lat="48.28543" lon="2.82003">
        <ele>76</ele>
        <time>2023-08-09T10:59:09.131+00:00</time>
      </trkpt>
      <trkpt lat="48.28547" lon="2.82009">
        <ele>76</ele>
        <time>2023-08-09T10:59:14.140+00:00</time>
      </trkpt>
      <trkpt lat="48.28547" lon="2.8202">
        <ele>76</ele>
        <time>2023-08-09T10:59:19.102+00:00</time>
      </trkpt>
      <trkpt lat="48.28545" lon="2.82027">
        <ele>76</ele>
        <time>2023-08-09T10:59:23.134+00:00</time>
      </trkpt>
      <trkpt lat="48.28541" lon="2.82034">
        <ele>77</ele>
        <time>2023-08-09T10:59:28.050+00:00</time>
      </trkpt>
      <trkpt lat="48.28539" lon="2.82043">
        <ele>78</ele>
        <time>2023-08-09T10:59:32.105+00:00</time>
      </trkpt>
      <trkpt lat="48.28537" lon="2.8205">
        <ele>78</ele>
        <time>2023-08-09T10:59:36.148+00:00</time>
      </trkpt>
      <trkpt lat="48.28534" lon="2.82059">
        <ele>78</ele>
        <time>2023-08-09T10:59:41.162+00:00</time>
      </trkpt>
      <trkpt lat="48.28531" lon="2.8207">
        <ele>80</ele>
        <time>2023-08-09T10:59:46.143+00:00</time>
      </trkpt>
      <trkpt lat="48.2853" lon="2.8208">
        <ele>80</ele>
        <time>2023-08-09T10:59:51.148+00:00</time>
      </trkpt>
      <trkpt lat="48.28529" lon="2.82089">
        <ele>80</ele>
        <time>2023-08-09T10:59:56.140+00:00</time>
      </trkpt>
      <trkpt lat="48.28528" lon="2.82098">
        <ele>82</ele>
        <time>2023-08-09T11:00:01.129+00:00</time>
      </trkpt>
      <trkpt lat="48.28528" lon="2.82107">
        <ele>82</ele>
        <time>2023-08-09T11:00:06.113+00:00</time>
      </trkpt>
      <trkpt lat="48.28526" lon="2.82115">
        <ele>82</ele>
        <time>2023-08-09T11:00:10.118+00:00</time>
      </trkpt>
      <trkpt lat="48.28526" lon="2.82122">
        <ele>82</ele>
        <time>2023-08-09T11:00:14.109+00:00</time>
      </trkpt>
      <trkpt lat="48.28526" lon="2.82133">
        <ele>83</ele>
        <time>2023-08-09T11:00:19.103+00:00</time>
      </trkpt>
      <trkpt lat="48.28527" lon="2.82141">
        <ele>83</ele>
        <time>2023-08-09T11:00:23.121+00:00</time>
      </trkpt>
      <trkpt lat="48.28526" lon="2.82152">
        <ele>83</ele>
        <time>2023-08-09T11:00:28.115+00:00</time>
      </trkpt>
      <trkpt lat="48.28527" lon="2.8216">
        <ele>84</ele>
        <time>2023-08-09T11:00:32.134+00:00</time>
      </trkpt>
      <trkpt lat="48.28527" lon="2.82169">
        <ele>84</ele>
        <time>2023-08-09T11:00:37.120+00:00</time>
      </trkpt>
      <trkpt lat="48.28528" lon="2.8218">
        <ele>84</ele>
        <time>2023-08-09T11:00:42.122+00:00</time>
      </trkpt>
      <trkpt lat="48.28527" lon="2.8219">
        <ele>85</ele>
        <time>2023-08-09T11:00:46.114+00:00</time>
      </trkpt>
      <trkpt lat="48.28527" lon="2.82198">
        <ele>85</ele>
        <time>2023-08-09T11:00:50.124+00:00</time>
      </trkpt>
      <trkpt lat="48.28528" lon="2.82207">
        <ele>85</ele>
        <time>2023-08-09T11:00:55.108+00:00</time>
      </trkpt>
      <trkpt lat="48.28526" lon="2.82218">
        <ele>85</ele>
        <time>2023-08-09T11:01:00.107+00:00</time>
      </trkpt>
      <trkpt lat="48.28526" lon="2.82226">
        <ele>85</ele>
        <time>2023-08-09T11:01:04.142+00:00</time>
      </trkpt>
      <trkpt lat="48.28526" lon="2.82237">
        <ele>86</ele>
        <time>2023-08-09T11:01:09.119+00:00</time>
      </trkpt>
      <trkpt lat="48.28526" lon="2.82249">
        <ele>86</ele>
        <time>2023-08-09T11:01:14.105+00:00</time>
      </trkpt>
      <trkpt lat="48.28526" lon="2.82258">
        <ele>86</ele>
        <time>2023-08-09T11:01:18.118+00:00</time>
      </trkpt>
      <trkpt lat="48.28526" lon="2.82266">
        <ele>83</ele>
        <time>2023-08-09T11:01:22.110+00:00</time>
      </trkpt>
      <trkpt lat="48.28527" lon="2.82276">
        <ele>83</ele>
        <time>2023-08-09T11:01:27.133+00:00</time>
      </trkpt>
      <trkpt lat="48.28527" lon="2.82285">
        <ele>83</ele>
        <time>2023-08-09T11:01:31.129+00:00</time>
      </trkpt>
      <trkpt lat="48.28527" lon="2.82297">
        <ele>81</ele>
        <time>2023-08-09T11:01:36.100+00:00</time>
      </trkpt>
      <trkpt lat="48.28528" lon="2.82306">
        <ele>81</ele>
        <time>2023-08-09T11:01:41.107+00:00</time>
      </trkpt>
      <trkpt lat="48.28529" lon="2.82314">
        <ele>81</ele>
        <time>2023-08-09T11:01:45.147+00:00</time>
      </trkpt>
      <trkpt lat="48.28529" lon="2.82324">
        <ele>80</ele>
        <time>2023-08-09T11:01:50.126+00:00</time>
      </trkpt>
      <trkpt lat="48.2853" lon="2.82333">
        <ele>80</ele>
        <time>2023-08-09T11:01:55.099+00:00</time>
      </trkpt>
      <trkpt lat="48.28531" lon="2.8234">
        <ele>80</ele>
        <time>2023-08-09T11:01:59.120+00:00</time>
      </trkpt>
      <trkpt lat="48.28532" lon="2.82349">
        <ele>79</ele>
        <time>2023-08-09T11:02:04.115+00:00</time>
      </trkpt>
      <trkpt lat="48.28532" lon="2.82359">
        <ele>79</ele>
        <time>2023-08-09T11:02:08.135+00:00</time>
      </trkpt>
      <trkpt lat="48.28532" lon="2.8237">
        <ele>79</ele>
        <time>2023-08-09T11:02:13.117+00:00</time>
      </trkpt>
      <trkpt lat="48.28533" lon="2.8238">
        <ele>78</ele>
        <time>2023-08-09T11:02:18.150+00:00</time>
      </trkpt>
      <trkpt lat="48.28534" lon="2.82391">
        <ele>78</ele>
        <time>2023-08-09T11:02:23.110+00:00</time>
      </trkpt>
      <trkpt lat="48.28536" lon="2.82401">
        <ele>78</ele>
        <time>2023-08-09T11:02:28.143+00:00</time>
      </trkpt>
      <trkpt lat="48.28536" lon="2.8241">
        <ele>78</ele>
        <time>2023-08-09T11:02:33.106+00:00</time>
      </trkpt>
      <trkpt lat="48.28537" lon="2.82418">
        <ele>78</ele>
        <time>2023-08-09T11:02:37.117+00:00</time>
      </trkpt>
      <trkpt lat="48.28538" lon="2.82428">
        <ele>78</ele>
        <time>2023-08-09T11:02:42.102+00:00</time>
      </trkpt>
      <trkpt lat="48.28538" lon="2.82437">
        <ele>77</ele>
        <time>2023-08-09T11:02:46.124+00:00</time>
      </trkpt>
      <trkpt lat="48.28539" lon="2.82448">
        <ele>77</ele>
        <time>2023-08-09T11:02:51.119+00:00</time>
      </trkpt>
      <trkpt lat="48.28539" lon="2.82456">
        <ele>77</ele>
        <time>2023-08-09T11:02:55.117+00:00</time>
      </trkpt>
      <trkpt lat="48.28538" lon="2.82469">
        <ele>76</ele>
        <time>2023-08-09T11:03:00.115+00:00</time>
      </trkpt>
      <trkpt lat="48.28537" lon="2.82476">
        <ele>76</ele>
        <time>2023-08-09T11:03:04.135+00:00</time>
      </trkpt>
      <trkpt lat="48.28537" lon="2.82484">
        <ele>76</ele>
        <time>2023-08-09T11:03:09.118+00:00</time>
      </trkpt>
      <trkpt lat="48.28535" lon="2.82493">
        <ele>75</ele>
        <time>2023-08-09T11:03:13.140+00:00</time>
      </trkpt>
      <trkpt lat="48.28534" lon="2.82502">
        <ele>75</ele>
        <time>2023-08-09T11:03:18.139+00:00</time>
      </trkpt>
      <trkpt lat="48.28532" lon="2.82512">
        <ele>75</ele>
        <time>2023-08-09T11:03:23.145+00:00</time>
      </trkpt>
      <trkpt lat="48.2853" lon="2.82522">
        <ele>76</ele>
        <time>2023-08-09T11:03:28.134+00:00</time>
      </trkpt>
      <trkpt lat="48.28528" lon="2.82531">
        <ele>76</ele>
        <time>2023-08-09T11:03:32.126+00:00</time>
      </trkpt>
      <trkpt lat="48.28525" lon="2.8254">
        <ele>76</ele>
        <time>2023-08-09T11:03:37.118+00:00</time>
      </trkpt>
      <trkpt lat="48.28523" lon="2.82548">
        <ele>77</ele>
        <time>2023-08-09T11:03:41.150+00:00</time>
      </trkpt>
      <trkpt lat="48.28521" lon="2.82557">
        <ele>77</ele>
        <time>2023-08-09T11:03:46.130+00:00</time>
      </trkpt>
      <trkpt lat="48.28519" lon="2.82564">
        <ele>77</ele>
        <time>2023-08-09T11:03:51.144+00:00</time>
      </trkpt>
      <trkpt lat="48.28518" lon="2.82573">
        <ele>77</ele>
        <time>2023-08-09T11:03:56.154+00:00</time>
      </trkpt>
      <trkpt lat="48.28514" lon="2.82582">
        <ele>77</ele>
        <time>2023-08-09T11:04:01.138+00:00</time>
      </trkpt>
      <trkpt lat="48.28513" lon="2.82588">
        <ele>77</ele>
        <time>2023-08-09T11:04:05.156+00:00</time>
      </trkpt>
      <trkpt lat="48.28511" lon="2.82594">
        <ele>77</ele>
        <time>2023-08-09T11:04:09.159+00:00</time>
      </trkpt>
      <trkpt lat="48.28508" lon="2.82603">
        <ele>77</ele>
        <time>2023-08-09T11:04:14.139+00:00</time>
      </trkpt>
      <trkpt lat="48.28507" lon="2.82611">
        <ele>77</ele>
        <time>2023-08-09T11:04:19.099+00:00</time>
      </trkpt>
      <trkpt lat="48.28506" lon="2.82619">
        <ele>77</ele>
        <time>2023-08-09T11:04:23.121+00:00</time>
      </trkpt>
      <trkpt lat="48.28505" lon="2.82625">
        <ele>77</ele>
        <time>2023-08-09T11:04:28.127+00:00</time>
      </trkpt>
      <trkpt lat="48.28505" lon="2.82627">
        <ele>77</ele>
        <time>2023-08-09T11:04:32.137+00:00</time>
      </trkpt>
      <trkpt lat="48.28505" lon="2.82638">
        <ele>77</ele>
        <time>2023-08-09T11:04:37.122+00:00</time>
      </trkpt>
      <trkpt lat="48.28505" lon="2.82646">
        <ele>77</ele>
        <time>2023-08-09T11:04:41.141+00:00</time>
      </trkpt>
      <trkpt lat="48.28505" lon="2.82657">
        <ele>77</ele>
        <time>2023-08-09T11:04:46.127+00:00</time>
      </trkpt>
      <trkpt lat="48.28505" lon="2.82666">
        <ele>77</ele>
        <time>2023-08-09T11:04:51.130+00:00</time>
      </trkpt>
      <trkpt lat="48.28506" lon="2.82675">
        <ele>77</ele>
        <time>2023-08-09T11:04:56.135+00:00</time>
      </trkpt>
      <trkpt lat="48.28506" lon="2.82684">
        <ele>78</ele>
        <time>2023-08-09T11:05:01.145+00:00</time>
      </trkpt>
      <trkpt lat="48.28506" lon="2.82694">
        <ele>78</ele>
        <time>2023-08-09T11:05:06.107+00:00</time>
      </trkpt>
      <trkpt lat="48.28506" lon="2.82702">
        <ele>78</ele>
        <time>2023-08-09T11:05:10.108+00:00</time>
      </trkpt>
      <trkpt lat="48.28507" lon="2.8271">
        <ele>78</ele>
        <time>2023-08-09T11:05:14.121+00:00</time>
      </trkpt>
      <trkpt lat="48.28507" lon="2.82717">
        <ele>78</ele>
        <time>2023-08-09T11:05:18.141+00:00</time>
      </trkpt>
      <trkpt lat="48.28506" lon="2.82727">
        <ele>78</ele>
        <time>2023-08-09T11:05:23.143+00:00</time>
      </trkpt>
      <trkpt lat="48.28506" lon="2.82735">
        <ele>78</ele>
        <time>2023-08-09T11:05:27.146+00:00</time>
      </trkpt>
      <trkpt lat="48.28506" lon="2.82745">
        <ele>78</ele>
        <time>2023-08-09T11:05:32.124+00:00</time>
      </trkpt>
      <trkpt lat="48.28506" lon="2.82754">
        <ele>78</ele>
        <time>2023-08-09T11:05:36.122+00:00</time>
      </trkpt>
      <trkpt lat="48.28506" lon="2.82761">
        <ele>78</ele>
        <time>2023-08-09T11:05:40.130+00:00</time>
      </trkpt>
      <trkpt lat="48.28506" lon="2.82768">
        <ele>77</ele>
        <time>2023-08-09T11:05:44.140+00:00</time>
      </trkpt>
      <trkpt lat="48.28505" lon="2.82777">
        <ele>77</ele>
        <time>2023-08-09T11:05:49.147+00:00</time>
      </trkpt>
      <trkpt lat="48.28504" lon="2.8278">
        <ele>77</ele>
        <time>2023-08-09T11:05:54.101+00:00</time>
      </trkpt>
      <trkpt lat="48.28505" lon="2.82782">
        <ele>77</ele>
        <time>2023-08-09T11:05:58.173+00:00</time>
      </trkpt>
      <trkpt lat="48.28506" lon="2.82781">
        <ele>77</ele>
        <time>2023-08-09T11:06:03.104+00:00</time>
      </trkpt>
      <trkpt lat="48.28505" lon="2.82787">
        <ele>77</ele>
        <time>2023-08-09T11:06:07.105+00:00</time>
      </trkpt>
      <trkpt lat="48.28505" lon="2.82791">
        <ele>77</ele>
        <time>2023-08-09T11:06:12.102+00:00</time>
      </trkpt>
      <trkpt lat="48.28505" lon="2.82797">
        <ele>76</ele>
        <time>2023-08-09T11:06:16.103+00:00</time>
      </trkpt>
      <trkpt lat="48.28504" lon="2.82805">
        <ele>76</ele>
        <time>2023-08-09T11:06:21.102+00:00</time>
      </trkpt>
      <trkpt lat="48.28502" lon="2.82814">
        <ele>76</ele>
        <time>2023-08-09T11:06:26.097+00:00</time>
      </trkpt>
      <trkpt lat="48.28501" lon="2.82823">
        <ele>77</ele>
        <time>2023-08-09T11:06:30.097+00:00</time>
      </trkpt>
      <trkpt lat="48.285" lon="2.82831">
        <ele>77</ele>
        <time>2023-08-09T11:06:34.124+00:00</time>
      </trkpt>
      <trkpt lat="48.28499" lon="2.82839">
        <ele>77</ele>
        <time>2023-08-09T11:06:38.139+00:00</time>
      </trkpt>
      <trkpt lat="48.28498" lon="2.82848">
        <ele>78</ele>
        <time>2023-08-09T11:06:42.145+00:00</time>
      </trkpt>
      <trkpt lat="48.28497" lon="2.82856">
        <ele>78</ele>
        <time>2023-08-09T11:06:47.140+00:00</time>
      </trkpt>
      <trkpt lat="48.28496" lon="2.82866">
        <ele>78</ele>
        <time>2023-08-09T11:06:52.109+00:00</time>
      </trkpt>
      <trkpt lat="48.28496" lon="2.82873">
        <ele>78</ele>
        <time>2023-08-09T11:06:56.119+00:00</time>
      </trkpt>
      <trkpt lat="48.28496" lon="2.8288">
        <ele>78</ele>
        <time>2023-08-09T11:07:00.120+00:00</time>
      </trkpt>
      <trkpt lat="48.28495" lon="2.82889">
        <ele>78</ele>
        <time>2023-08-09T11:07:04.125+00:00</time>
      </trkpt>
      <trkpt lat="48.28496" lon="2.829">
        <ele>78</ele>
        <time>2023-08-09T11:07:09.118+00:00</time>
      </trkpt>
      <trkpt lat="48.28497" lon="2.82908">
        <ele>79</ele>
        <time>2023-08-09T11:07:13.132+00:00</time>
      </trkpt>
      <trkpt lat="48.28497" lon="2.82917">
        <ele>79</ele>
        <time>2023-08-09T11:07:17.152+00:00</time>
      </trkpt>
      <trkpt lat="48.28497" lon="2.82924">
        <ele>79</ele>
        <time>2023-08-09T11:07:21.145+00:00</time>
      </trkpt>
      <trkpt lat="48.28498" lon="2.82932">
        <ele>79</ele>
        <time>2023-08-09T11:07:26.137+00:00</time>
      </trkpt>
      <trkpt lat="48.28497" lon="2.8294">
        <ele>79</ele>
        <time>2023-08-09T11:07:31.141+00:00</time>
      </trkpt>
      <trkpt lat="48.28497" lon="2.82951">
        <ele>79</ele>
        <time>2023-08-09T11:07:36.124+00:00</time>
      </trkpt>
      <trkpt lat="48.28497" lon="2.8296">
        <ele>80</ele>
        <time>2023-08-09T11:07:40.133+00:00</time>
      </trkpt>
      <trkpt lat="48.28498" lon="2.82969">
        <ele>80</ele>
        <time>2023-08-09T11:07:45.099+00:00</time>
      </trkpt>
      <trkpt lat="48.28498" lon="2.82976">
        <ele>80</ele>
        <time>2023-08-09T11:07:49.115+00:00</time>
      </trkpt>
      <trkpt lat="48.28497" lon="2.82983">
        <ele>80</ele>
        <time>2023-08-09T11:07:53.159+00:00</time>
      </trkpt>
      <trkpt lat="48.28497" lon="2.82994">
        <ele>80</ele>
        <time>2023-08-09T11:07:58.114+00:00</time>
      </trkpt>
      <trkpt lat="48.28498" lon="2.83003">
        <ele>80</ele>
        <time>2023-08-09T11:08:02.134+00:00</time>
      </trkpt>
      <trkpt lat="48.28498" lon="2.8301">
        <ele>80</ele>
        <time>2023-08-09T11:08:07.140+00:00</time>
      </trkpt>
      <trkpt lat="48.28497" lon="2.83018">
        <ele>80</ele>
        <time>2023-08-09T11:08:12.131+00:00</time>
      </trkpt>
      <trkpt lat="48.28497" lon="2.83028">
        <ele>80</ele>
        <time>2023-08-09T11:08:17.142+00:00</time>
      </trkpt>
      <trkpt lat="48.28497" lon="2.83039">
        <ele>80</ele>
        <time>2023-08-09T11:08:22.132+00:00</time>
      </trkpt>
      <trkpt lat="48.28497" lon="2.83049">
        <ele>79</ele>
        <time>2023-08-09T11:08:27.148+00:00</time>
      </trkpt>
      <trkpt lat="48.28498" lon="2.83059">
        <ele>79</ele>
        <time>2023-08-09T11:08:32.136+00:00</time>
      </trkpt>
      <trkpt lat="48.28499" lon="2.83069">
        <ele>79</ele>
        <time>2023-08-09T11:08:37.121+00:00</time>
      </trkpt>
      <trkpt lat="48.28499" lon="2.83077">
        <ele>79</ele>
        <time>2023-08-09T11:08:41.129+00:00</time>
      </trkpt>
      <trkpt lat="48.28499" lon="2.83085">
        <ele>79</ele>
        <time>2023-08-09T11:08:45.144+00:00</time>
      </trkpt>
      <trkpt lat="48.28499" lon="2.83093">
        <ele>79</ele>
        <time>2023-08-09T11:08:50.119+00:00</time>
      </trkpt>
      <trkpt lat="48.285" lon="2.83104">
        <ele>79</ele>
        <time>2023-08-09T11:08:55.134+00:00</time>
      </trkpt>
      <trkpt lat="48.285" lon="2.83113">
        <ele>79</ele>
        <time>2023-08-09T11:08:59.140+00:00</time>
      </trkpt>
      <trkpt lat="48.28501" lon="2.83123">
        <ele>79</ele>
        <time>2023-08-09T11:09:04.126+00:00</time>
      </trkpt>
      <trkpt lat="48.28501" lon="2.83132">
        <ele>79</ele>
        <time>2023-08-09T11:09:08.130+00:00</time>
      </trkpt>
      <trkpt lat="48.28503" lon="2.83139">
        <ele>79</ele>
        <time>2023-08-09T11:09:13.146+00:00</time>
      </trkpt>
      <trkpt lat="48.28504" lon="2.83148">
        <ele>79</ele>
        <time>2023-08-09T11:09:18.122+00:00</time>
      </trkpt>
      <trkpt lat="48.28504" lon="2.83157">
        <ele>80</ele>
        <time>2023-08-09T11:09:22.130+00:00</time>
      </trkpt>
      <trkpt lat="48.28504" lon="2.83168">
        <ele>80</ele>
        <time>2023-08-09T11:09:27.109+00:00</time>
      </trkpt>
      <trkpt lat="48.28503" lon="2.83175">
        <ele>80</ele>
        <time>2023-08-09T11:09:31.122+00:00</time>
      </trkpt>
      <trkpt lat="48.28502" lon="2.83185">
        <ele>81</ele>
        <time>2023-08-09T11:09:36.135+00:00</time>
      </trkpt>
      <trkpt lat="48.28502" lon="2.83194">
        <ele>81</ele>
        <time>2023-08-09T11:09:41.122+00:00</time>
      </trkpt>
      <trkpt lat="48.28501" lon="2.83201">
        <ele>81</ele>
        <time>2023-08-09T11:09:45.138+00:00</time>
      </trkpt>
      <trkpt lat="48.285" lon="2.83213">
        <ele>82</ele>
        <time>2023-08-09T11:09:50.112+00:00</time>
      </trkpt>
      <trkpt lat="48.285" lon="2.83222">
        <ele>82</ele>
        <time>2023-08-09T11:09:54.122+00:00</time>
      </trkpt>
      <trkpt lat="48.28502" lon="2.83232">
        <ele>82</ele>
        <time>2023-08-09T11:09:59.115+00:00</time>
      </trkpt>
      <trkpt lat="48.28502" lon="2.8324">
        <ele>81</ele>
        <time>2023-08-09T11:10:03.138+00:00</time>
      </trkpt>
      <trkpt lat="48.28502" lon="2.8325">
        <ele>81</ele>
        <time>2023-08-09T11:10:08.114+00:00</time>
      </trkpt>
      <trkpt lat="48.28501" lon="2.83258">
        <ele>81</ele>
        <time>2023-08-09T11:10:12.119+00:00</time>
      </trkpt>
      <trkpt lat="48.28499" lon="2.83267">
        <ele>80</ele>
        <time>2023-08-09T11:10:17.106+00:00</time>
      </trkpt>
      <trkpt lat="48.28498" lon="2.83276">
        <ele>80</ele>
        <time>2023-08-09T11:10:21.122+00:00</time>
      </trkpt>
      <trkpt lat="48.28497" lon="2.83288">
        <ele>80</ele>
        <time>2023-08-09T11:10:26.121+00:00</time>
      </trkpt>
      <trkpt lat="48.28496" lon="2.83296">
        <ele>81</ele>
        <time>2023-08-09T11:10:30.130+00:00</time>
      </trkpt>
      <trkpt lat="48.28496" lon="2.83306">
        <ele>81</ele>
        <time>2023-08-09T11:10:35.117+00:00</time>
      </trkpt>
      <trkpt lat="48.28495" lon="2.83314">
        <ele>81</ele>
        <time>2023-08-09T11:10:39.125+00:00</time>
      </trkpt>
      <trkpt lat="48.28495" lon="2.83326">
        <ele>82</ele>
        <time>2023-08-09T11:10:44.116+00:00</time>
      </trkpt>
      <trkpt lat="48.28496" lon="2.8333">
        <ele>82</ele>
        <time>2023-08-09T11:10:49.128+00:00</time>
      </trkpt>
      <trkpt lat="48.28495" lon="2.83341">
        <ele>82</ele>
        <time>2023-08-09T11:10:54.123+00:00</time>
      </trkpt>
      <trkpt lat="48.28494" lon="2.83349">
        <ele>84</ele>
        <time>2023-08-09T11:10:58.128+00:00</time>
      </trkpt>
      <trkpt lat="48.28494" lon="2.83358">
        <ele>84</ele>
        <time>2023-08-09T11:11:03.099+00:00</time>
      </trkpt>
      <trkpt lat="48.28493" lon="2.83366">
        <ele>84</ele>
        <time>2023-08-09T11:11:07.117+00:00</time>
      </trkpt>
      <trkpt lat="48.28494" lon="2.83375">
        <ele>84</ele>
        <time>2023-08-09T11:11:12.104+00:00</time>
      </trkpt>
      <trkpt lat="48.28494" lon="2.83382">
        <ele>85</ele>
        <time>2023-08-09T11:11:16.120+00:00</time>
      </trkpt>
      <trkpt lat="48.28494" lon="2.83392">
        <ele>85</ele>
        <time>2023-08-09T11:11:21.107+00:00</time>
      </trkpt>
      <trkpt lat="48.28493" lon="2.83403">
        <ele>85</ele>
        <time>2023-08-09T11:11:26.108+00:00</time>
      </trkpt>
      <trkpt lat="48.28494" lon="2.8341">
        <ele>85</ele>
        <time>2023-08-09T11:11:30.135+00:00</time>
      </trkpt>
      <trkpt lat="48.28494" lon="2.83417">
        <ele>85</ele>
        <time>2023-08-09T11:11:35.110+00:00</time>
      </trkpt>
      <trkpt lat="48.28494" lon="2.8342">
        <ele>85</ele>
        <time>2023-08-09T11:11:39.109+00:00</time>
      </trkpt>
      <trkpt lat="48.28494" lon="2.83427">
        <ele>85</ele>
        <time>2023-08-09T11:11:43.133+00:00</time>
      </trkpt>
      <trkpt lat="48.28493" lon="2.83438">
        <ele>83</ele>
        <time>2023-08-09T11:11:48.111+00:00</time>
      </trkpt>
      <trkpt lat="48.28494" lon="2.83444">
        <ele>83</ele>
        <time>2023-08-09T11:11:53.110+00:00</time>
      </trkpt>
      <trkpt lat="48.28495" lon="2.83445">
        <ele>83</ele>
        <time>2023-08-09T11:11:57.125+00:00</time>
      </trkpt>
      <trkpt lat="48.28495" lon="2.8345">
        <ele>83</ele>
        <time>2023-08-09T11:12:01.139+00:00</time>
      </trkpt>
      <trkpt lat="48.28495" lon="2.83456">
        <ele>83</ele>
        <time>2023-08-09T11:12:06.096+00:00</time>
      </trkpt>
      <trkpt lat="48.28494" lon="2.83456">
        <ele>83</ele>
        <time>2023-08-09T11:12:13.105+00:00</time>
      </trkpt>
      <trkpt lat="48.28495" lon="2.83454">
        <ele>83</ele>
        <time>2023-08-09T11:12:22.097+00:00</time>
      </trkpt>
      <trkpt lat="48.28492" lon="2.83458">
        <ele>83</ele>
        <time>2023-08-09T11:12:27.097+00:00</time>
      </trkpt>
      <trkpt lat="48.28491" lon="2.83465">
        <ele>81</ele>
        <time>2023-08-09T11:12:32.124+00:00</time>
      </trkpt>
      <trkpt lat="48.28491" lon="2.8347">
        <ele>81</ele>
        <time>2023-08-09T11:12:36.134+00:00</time>
      </trkpt>
      <trkpt lat="48.28492" lon="2.83472">
        <ele>81</ele>
        <time>2023-08-09T11:12:41.119+00:00</time>
      </trkpt>
      <trkpt lat="48.28491" lon="2.8348">
        <ele>81</ele>
        <time>2023-08-09T11:12:45.124+00:00</time>
      </trkpt>
      <trkpt lat="48.28491" lon="2.8349">
        <ele>79</ele>
        <time>2023-08-09T11:12:50.102+00:00</time>
      </trkpt>
      <trkpt lat="48.28491" lon="2.83499">
        <ele>79</ele>
        <time>2023-08-09T11:12:55.096+00:00</time>
      </trkpt>
      <trkpt lat="48.28491" lon="2.83506">
        <ele>79</ele>
        <time>2023-08-09T11:12:59.145+00:00</time>
      </trkpt>
      <trkpt lat="48.28492" lon="2.83515">
        <ele>78</ele>
        <time>2023-08-09T11:13:04.138+00:00</time>
      </trkpt>
      <trkpt lat="48.28491" lon="2.83524">
        <ele>78</ele>
        <time>2023-08-09T11:13:08.138+00:00</time>
      </trkpt>
      <trkpt lat="48.28491" lon="2.83534">
        <ele>78</ele>
        <time>2023-08-09T11:13:13.136+00:00</time>
      </trkpt>
      <trkpt lat="48.28492" lon="2.83544">
        <ele>79</ele>
        <time>2023-08-09T11:13:18.132+00:00</time>
      </trkpt>
      <trkpt lat="48.28492" lon="2.8355">
        <ele>79</ele>
        <time>2023-08-09T11:13:22.138+00:00</time>
      </trkpt>
      <trkpt lat="48.28492" lon="2.83561">
        <ele>79</ele>
        <time>2023-08-09T11:13:27.150+00:00</time>
      </trkpt>
      <trkpt lat="48.28493" lon="2.83568">
        <ele>79</ele>
        <time>2023-08-09T11:13:31.166+00:00</time>
      </trkpt>
      <trkpt lat="48.28495" lon="2.83577">
        <ele>79</ele>
        <time>2023-08-09T11:13:36.150+00:00</time>
      </trkpt>
      <trkpt lat="48.28495" lon="2.83584">
        <ele>79</ele>
        <time>2023-08-09T11:13:41.154+00:00</time>
      </trkpt>
      <trkpt lat="48.28495" lon="2.83594">
        <ele>79</ele>
        <time>2023-08-09T11:13:46.131+00:00</time>
      </trkpt>
      <trkpt lat="48.28495" lon="2.83605">
        <ele>82</ele>
        <time>2023-08-09T11:13:50.133+00:00</time>
      </trkpt>
      <trkpt lat="48.28494" lon="2.83618">
        <ele>82</ele>
        <time>2023-08-09T11:13:55.146+00:00</time>
      </trkpt>
      <trkpt lat="48.28495" lon="2.83629">
        <ele>84</ele>
        <time>2023-08-09T11:14:00.137+00:00</time>
      </trkpt>
      <trkpt lat="48.28496" lon="2.83639">
        <ele>84</ele>
        <time>2023-08-09T11:14:05.140+00:00</time>
      </trkpt>
      <trkpt lat="48.28496" lon="2.8365">
        <ele>84</ele>
        <time>2023-08-09T11:14:10.149+00:00</time>
      </trkpt>
      <trkpt lat="48.28496" lon="2.83661">
        <ele>86</ele>
        <time>2023-08-09T11:14:15.130+00:00</time>
      </trkpt>
      <trkpt lat="48.28494" lon="2.83671">
        <ele>86</ele>
        <time>2023-08-09T11:14:20.135+00:00</time>
      </trkpt>
      <trkpt lat="48.28494" lon="2.83681">
        <ele>86</ele>
        <time>2023-08-09T11:14:25.131+00:00</time>
      </trkpt>
      <trkpt lat="48.28494" lon="2.83688">
        <ele>86</ele>
        <time>2023-08-09T11:14:29.146+00:00</time>
      </trkpt>
      <trkpt lat="48.28493" lon="2.83699">
        <ele>86</ele>
        <time>2023-08-09T11:14:34.149+00:00</time>
      </trkpt>
      <trkpt lat="48.28492" lon="2.8371">
        <ele>84</ele>
        <time>2023-08-09T11:14:39.141+00:00</time>
      </trkpt>
      <trkpt lat="48.28493" lon="2.83719">
        <ele>84</ele>
        <time>2023-08-09T11:14:43.163+00:00</time>
      </trkpt>
      <trkpt lat="48.28494" lon="2.83727">
        <ele>84</ele>
        <time>2023-08-09T11:14:47.138+00:00</time>
      </trkpt>
      <trkpt lat="48.28493" lon="2.83738">
        <ele>81</ele>
        <time>2023-08-09T11:14:52.139+00:00</time>
      </trkpt>
      <trkpt lat="48.28493" lon="2.83748">
        <ele>81</ele>
        <time>2023-08-09T11:14:57.151+00:00</time>
      </trkpt>
      <trkpt lat="48.28493" lon="2.83759">
        <ele>81</ele>
        <time>2023-08-09T11:15:02.159+00:00</time>
      </trkpt>
      <trkpt lat="48.28492" lon="2.8377">
        <ele>79</ele>
        <time>2023-08-09T11:15:07.141+00:00</time>
      </trkpt>
      <trkpt lat="48.28492" lon="2.8378">
        <ele>79</ele>
        <time>2023-08-09T11:15:12.132+00:00</time>
      </trkpt>
      <trkpt lat="48.28493" lon="2.83788">
        <ele>79</ele>
        <time>2023-08-09T11:15:16.136+00:00</time>
      </trkpt>
      <trkpt lat="48.28493" lon="2.83798">
        <ele>79</ele>
        <time>2023-08-09T11:15:21.143+00:00</time>
      </trkpt>
      <trkpt lat="48.28493" lon="2.83808">
        <ele>79</ele>
        <time>2023-08-09T11:15:25.157+00:00</time>
      </trkpt>
      <trkpt lat="48.28493" lon="2.83816">
        <ele>79</ele>
        <time>2023-08-09T11:15:30.157+00:00</time>
      </trkpt>
      <trkpt lat="48.28493" lon="2.83827">
        <ele>80</ele>
        <time>2023-08-09T11:15:35.147+00:00</time>
      </trkpt>
      <trkpt lat="48.28493" lon="2.83838">
        <ele>80</ele>
        <time>2023-08-09T11:15:40.134+00:00</time>
      </trkpt>
      <trkpt lat="48.28492" lon="2.83847">
        <ele>80</ele>
        <time>2023-08-09T11:15:45.135+00:00</time>
      </trkpt>
      <trkpt lat="48.28491" lon="2.83858">
        <ele>80</ele>
        <time>2023-08-09T11:15:50.143+00:00</time>
      </trkpt>
      <trkpt lat="48.2849" lon="2.83869">
        <ele>80</ele>
        <time>2023-08-09T11:15:55.163+00:00</time>
      </trkpt>
      <trkpt lat="48.28488" lon="2.8388">
        <ele>81</ele>
        <time>2023-08-09T11:16:00.111+00:00</time>
      </trkpt>
      <trkpt lat="48.28487" lon="2.83887">
        <ele>81</ele>
        <time>2023-08-09T11:16:04.136+00:00</time>
      </trkpt>
      <trkpt lat="48.28486" lon="2.83897">
        <ele>82</ele>
        <time>2023-08-09T11:16:09.119+00:00</time>
      </trkpt>
      <trkpt lat="48.28485" lon="2.83908">
        <ele>83</ele>
        <time>2023-08-09T11:16:14.109+00:00</time>
      </trkpt>
      <trkpt lat="48.28485" lon="2.83915">
        <ele>83</ele>
        <time>2023-08-09T11:16:18.132+00:00</time>
      </trkpt>
      <trkpt lat="48.28485" lon="2.83924">
        <ele>83</ele>
        <time>2023-08-09T11:16:22.134+00:00</time>
      </trkpt>
      <trkpt lat="48.28484" lon="2.83931">
        <ele>83</ele>
        <time>2023-08-09T11:16:26.150+00:00</time>
      </trkpt>
      <trkpt lat="48.28484" lon="2.8394">
        <ele>83</ele>
        <time>2023-08-09T11:16:31.143+00:00</time>
      </trkpt>
      <trkpt lat="48.28483" lon="2.8395">
        <ele>83</ele>
        <time>2023-08-09T11:16:36.144+00:00</time>
      </trkpt>
      <trkpt lat="48.28483" lon="2.8396">
        <ele>83</ele>
        <time>2023-08-09T11:16:41.136+00:00</time>
      </trkpt>
      <trkpt lat="48.28483" lon="2.8397">
        <ele>83</ele>
        <time>2023-08-09T11:16:46.134+00:00</time>
      </trkpt>
      <trkpt lat="48.28482" lon="2.83977">
        <ele>83</ele>
        <time>2023-08-09T11:16:50.133+00:00</time>
      </trkpt>
      <trkpt lat="48.28481" lon="2.83986">
        <ele>83</ele>
        <time>2023-08-09T11:16:55.133+00:00</time>
      </trkpt>
      <trkpt lat="48.28481" lon="2.83993">
        <ele>83</ele>
        <time>2023-08-09T11:16:59.144+00:00</time>
      </trkpt>
      <trkpt lat="48.28481" lon="2.84003">
        <ele>83</ele>
        <time>2023-08-09T11:17:04.132+00:00</time>
      </trkpt>
      <trkpt lat="48.28481" lon="2.84011">
        <ele>83</ele>
        <time>2023-08-09T11:17:08.154+00:00</time>
      </trkpt>
      <trkpt lat="48.28481" lon="2.84021">
        <ele>83</ele>
        <time>2023-08-09T11:17:13.107+00:00</time>
      </trkpt>
      <trkpt lat="48.28481" lon="2.84029">
        <ele>83</ele>
        <time>2023-08-09T11:17:17.139+00:00</time>
      </trkpt>
      <trkpt lat="48.28481" lon="2.8404">
        <ele>83</ele>
        <time>2023-08-09T11:17:22.131+00:00</time>
      </trkpt>
      <trkpt lat="48.28481" lon="2.84049">
        <ele>83</ele>
        <time>2023-08-09T11:17:27.137+00:00</time>
      </trkpt>
      <trkpt lat="48.28482" lon="2.84059">
        <ele>83</ele>
        <time>2023-08-09T11:17:32.136+00:00</time>
      </trkpt>
      <trkpt lat="48.28482" lon="2.84068">
        <ele>83</ele>
        <time>2023-08-09T11:17:37.153+00:00</time>
      </trkpt>
      <trkpt lat="48.28482" lon="2.84078">
        <ele>82</ele>
        <time>2023-08-09T11:17:42.137+00:00</time>
      </trkpt>
      <trkpt lat="48.28483" lon="2.84088">
        <ele>82</ele>
        <time>2023-08-09T11:17:47.149+00:00</time>
      </trkpt>
      <trkpt lat="48.28485" lon="2.84098">
        <ele>82</ele>
        <time>2023-08-09T11:17:52.125+00:00</time>
      </trkpt>
      <trkpt lat="48.28487" lon="2.84107">
        <ele>81</ele>
        <time>2023-08-09T11:17:57.142+00:00</time>
      </trkpt>
      <trkpt lat="48.28489" lon="2.84117">
        <ele>81</ele>
        <time>2023-08-09T11:18:02.139+00:00</time>
      </trkpt>
      <trkpt lat="48.2849" lon="2.84127">
        <ele>81</ele>
        <time>2023-08-09T11:18:07.117+00:00</time>
      </trkpt>
      <trkpt lat="48.28491" lon="2.84135">
        <ele>81</ele>
        <time>2023-08-09T11:18:11.163+00:00</time>
      </trkpt>
      <trkpt lat="48.28493" lon="2.84146">
        <ele>81</ele>
        <time>2023-08-09T11:18:16.135+00:00</time>
      </trkpt>
      <trkpt lat="48.28494" lon="2.84153">
        <ele>81</ele>
        <time>2023-08-09T11:18:20.140+00:00</time>
      </trkpt>
      <trkpt lat="48.28495" lon="2.84163">
        <ele>81</ele>
        <time>2023-08-09T11:18:25.101+00:00</time>
      </trkpt>
      <trkpt lat="48.28496" lon="2.8417">
        <ele>81</ele>
        <time>2023-08-09T11:18:29.112+00:00</time>
      </trkpt>
      <trkpt lat="48.28497" lon="2.8418">
        <ele>81</ele>
        <time>2023-08-09T11:18:34.131+00:00</time>
      </trkpt>
      <trkpt lat="48.28499" lon="2.84189">
        <ele>81</ele>
        <time>2023-08-09T11:18:39.125+00:00</time>
      </trkpt>
      <trkpt lat="48.285" lon="2.84197">
        <ele>81</ele>
        <time>2023-08-09T11:18:43.156+00:00</time>
      </trkpt>
      <trkpt lat="48.28501" lon="2.84205">
        <ele>81</ele>
        <time>2023-08-09T11:18:47.159+00:00</time>
      </trkpt>
      <trkpt lat="48.28502" lon="2.84215">
        <ele>81</ele>
        <time>2023-08-09T11:18:52.141+00:00</time>
      </trkpt>
      <trkpt lat="48.28503" lon="2.84225">
        <ele>81</ele>
        <time>2023-08-09T11:18:57.149+00:00</time>
      </trkpt>
      <trkpt lat="48.28505" lon="2.84235">
        <ele>81</ele>
        <time>2023-08-09T11:19:02.150+00:00</time>
      </trkpt>
      <trkpt lat="48.28506" lon="2.84245">
        <ele>80</ele>
        <time>2023-08-09T11:19:07.135+00:00</time>
      </trkpt>
      <trkpt lat="48.28508" lon="2.84253">
        <ele>80</ele>
        <time>2023-08-09T11:19:11.143+00:00</time>
      </trkpt>
      <trkpt lat="48.28509" lon="2.8426">
        <ele>80</ele>
        <time>2023-08-09T11:19:15.143+00:00</time>
      </trkpt>
      <trkpt lat="48.28509" lon="2.8427">
        <ele>80</ele>
        <time>2023-08-09T11:19:20.134+00:00</time>
      </trkpt>
      <trkpt lat="48.2851" lon="2.84276">
        <ele>80</ele>
        <time>2023-08-09T11:19:25.124+00:00</time>
      </trkpt>
      <trkpt lat="48.2851" lon="2.8428">
        <ele>80</ele>
        <time>2023-08-09T11:19:29.155+00:00</time>
      </trkpt>
      <trkpt lat="48.28511" lon="2.84282">
        <ele>80</ele>
        <time>2023-08-09T11:19:48.153+00:00</time>
      </trkpt>
      <trkpt lat="48.2851" lon="2.84292">
        <ele>80</ele>
        <time>2023-08-09T11:19:53.144+00:00</time>
      </trkpt>
      <trkpt lat="48.2851" lon="2.84302">
        <ele>80</ele>
        <time>2023-08-09T11:19:58.132+00:00</time>
      </trkpt>
      <trkpt lat="48.28509" lon="2.84311">
        <ele>80</ele>
        <time>2023-08-09T11:20:02.126+00:00</time>
      </trkpt>
      <trkpt lat="48.28508" lon="2.84317">
        <ele>80</ele>
        <time>2023-08-09T11:20:06.146+00:00</time>
      </trkpt>
      <trkpt lat="48.28506" lon="2.84328">
        <ele>80</ele>
        <time>2023-08-09T11:20:11.133+00:00</time>
      </trkpt>
      <trkpt lat="48.28505" lon="2.84337">
        <ele>80</ele>
        <time>2023-08-09T11:20:16.150+00:00</time>
      </trkpt>
      <trkpt lat="48.28504" lon="2.84349">
        <ele>81</ele>
        <time>2023-08-09T11:20:21.147+00:00</time>
      </trkpt>
      <trkpt lat="48.28503" lon="2.84357">
        <ele>81</ele>
        <time>2023-08-09T11:20:25.163+00:00</time>
      </trkpt>
      <trkpt lat="48.28502" lon="2.84367">
        <ele>81</ele>
        <time>2023-08-09T11:20:30.147+00:00</time>
      </trkpt>
      <trkpt lat="48.28501" lon="2.84377">
        <ele>82</ele>
        <time>2023-08-09T11:20:35.126+00:00</time>
      </trkpt>
      <trkpt lat="48.28499" lon="2.84385">
        <ele>82</ele>
        <time>2023-08-09T11:20:39.135+00:00</time>
      </trkpt>
      <trkpt lat="48.28498" lon="2.84395">
        <ele>82</ele>
        <time>2023-08-09T11:20:44.148+00:00</time>
      </trkpt>
      <trkpt lat="48.28497" lon="2.84404">
        <ele>83</ele>
        <time>2023-08-09T11:20:49.125+00:00</time>
      </trkpt>
      <trkpt lat="48.28496" lon="2.84413">
        <ele>83</ele>
        <time>2023-08-09T11:20:54.131+00:00</time>
      </trkpt>
      <trkpt lat="48.28496" lon="2.84415">
        <ele>83</ele>
        <time>2023-08-09T11:20:59.132+00:00</time>
      </trkpt>
      <trkpt lat="48.28497" lon="2.84418">
        <ele>83</ele>
        <time>2023-08-09T11:21:04.129+00:00</time>
      </trkpt>
      <trkpt lat="48.28497" lon="2.84422">
        <ele>83</ele>
        <time>2023-08-09T11:21:09.126+00:00</time>
      </trkpt>
      <trkpt lat="48.28497" lon="2.84422">
        <ele>83</ele>
        <time>2023-08-09T11:21:13.143+00:00</time>
      </trkpt>
      <trkpt lat="48.28498" lon="2.84426">
        <ele>83</ele>
        <time>2023-08-09T11:21:18.112+00:00</time>
      </trkpt>
      <trkpt lat="48.285" lon="2.84434">
        <ele>83</ele>
        <time>2023-08-09T11:21:22.138+00:00</time>
      </trkpt>
      <trkpt lat="48.28506" lon="2.84437">
        <ele>83</ele>
        <time>2023-08-09T11:21:27.108+00:00</time>
      </trkpt>
      <trkpt lat="48.28511" lon="2.84436">
        <ele>83</ele>
        <time>2023-08-09T11:21:31.137+00:00</time>
      </trkpt>
      <trkpt lat="48.28517" lon="2.84435">
        <ele>82</ele>
        <time>2023-08-09T11:21:35.150+00:00</time>
      </trkpt>
      <trkpt lat="48.28523" lon="2.84433">
        <ele>82</ele>
        <time>2023-08-09T11:21:40.151+00:00</time>
      </trkpt>
      <trkpt lat="48.2853" lon="2.8443">
        <ele>82</ele>
        <time>2023-08-09T11:21:45.158+00:00</time>
      </trkpt>
      <trkpt lat="48.28536" lon="2.84427">
        <ele>82</ele>
        <time>2023-08-09T11:21:50.140+00:00</time>
      </trkpt>
      <trkpt lat="48.28542" lon="2.84423">
        <ele>81</ele>
        <time>2023-08-09T11:21:55.105+00:00</time>
      </trkpt>
      <trkpt lat="48.28545" lon="2.84421">
        <ele>81</ele>
        <time>2023-08-09T11:22:00.102+00:00</time>
      </trkpt>
      <trkpt lat="48.28548" lon="2.84419">
        <ele>81</ele>
        <time>2023-08-09T11:22:04.117+00:00</time>
      </trkpt>
      <trkpt lat="48.28552" lon="2.84415">
        <ele>81</ele>
        <time>2023-08-09T11:22:08.128+00:00</time>
      </trkpt>
      <trkpt lat="48.28553" lon="2.84408">
        <ele>81</ele>
        <time>2023-08-09T11:22:13.142+00:00</time>
      </trkpt>
      <trkpt lat="48.28558" lon="2.84405">
        <ele>81</ele>
        <time>2023-08-09T11:22:18.135+00:00</time>
      </trkpt>
      <trkpt lat="48.2856" lon="2.84405">
        <ele>81</ele>
        <time>2023-08-09T11:22:23.131+00:00</time>
      </trkpt>
      <trkpt lat="48.28566" lon="2.84407">
        <ele>81</ele>
        <time>2023-08-09T11:22:28.141+00:00</time>
      </trkpt>
      <trkpt lat="48.28572" lon="2.84405">
        <ele>80</ele>
        <time>2023-08-09T11:22:33.102+00:00</time>
      </trkpt>
      <trkpt lat="48.28577" lon="2.84401">
        <ele>80</ele>
        <time>2023-08-09T11:22:37.106+00:00</time>
      </trkpt>
      <trkpt lat="48.28582" lon="2.84398">
        <ele>80</ele>
        <time>2023-08-09T11:22:41.137+00:00</time>
      </trkpt>
      <trkpt lat="48.28587" lon="2.84393">
        <ele>80</ele>
        <time>2023-08-09T11:22:46.136+00:00</time>
      </trkpt>
      <trkpt lat="48.28593" lon="2.84387">
        <ele>80</ele>
        <time>2023-08-09T11:22:51.149+00:00</time>
      </trkpt>
      <trkpt lat="48.286" lon="2.84382">
        <ele>82</ele>
        <time>2023-08-09T11:22:56.137+00:00</time>
      </trkpt>
      <trkpt lat="48.28606" lon="2.84377">
        <ele>82</ele>
        <time>2023-08-09T11:23:01.167+00:00</time>
      </trkpt>
      <trkpt lat="48.28613" lon="2.84372">
        <ele>81</ele>
        <time>2023-08-09T11:23:06.126+00:00</time>
      </trkpt>
      <trkpt lat="48.28619" lon="2.84367">
        <ele>81</ele>
        <time>2023-08-09T11:23:11.151+00:00</time>
      </trkpt>
      <trkpt lat="48.28626" lon="2.84363">
        <ele>82</ele>
        <time>2023-08-09T11:23:16.127+00:00</time>
      </trkpt>
      <trkpt lat="48.28631" lon="2.84359">
        <ele>82</ele>
        <time>2023-08-09T11:23:20.140+00:00</time>
      </trkpt>
      <trkpt lat="48.28637" lon="2.84355">
        <ele>82</ele>
        <time>2023-08-09T11:23:25.109+00:00</time>
      </trkpt>
      <trkpt lat="48.28643" lon="2.84351">
        <ele>82</ele>
        <time>2023-08-09T11:23:30.110+00:00</time>
      </trkpt>
      <trkpt lat="48.28646" lon="2.84349">
        <ele>82</ele>
        <time>2023-08-09T11:23:34.106+00:00</time>
      </trkpt>
      <trkpt lat="48.28653" lon="2.84345">
        <ele>81</ele>
        <time>2023-08-09T11:23:39.120+00:00</time>
      </trkpt>
      <trkpt lat="48.28659" lon="2.84341">
        <ele>80</ele>
        <time>2023-08-09T11:23:44.127+00:00</time>
      </trkpt>
      <trkpt lat="48.28665" lon="2.84337">
        <ele>80</ele>
        <time>2023-08-09T11:23:49.115+00:00</time>
      </trkpt>
      <trkpt lat="48.2867" lon="2.84333">
        <ele>80</ele>
        <time>2023-08-09T11:23:53.134+00:00</time>
      </trkpt>
      <trkpt lat="48.28675" lon="2.84329">
        <ele>80</ele>
        <time>2023-08-09T11:23:57.139+00:00</time>
      </trkpt>
      <trkpt lat="48.28681" lon="2.84326">
        <ele>80</ele>
        <time>2023-08-09T11:24:01.144+00:00</time>
      </trkpt>
      <trkpt lat="48.28687" lon="2.84321">
        <ele>79</ele>
        <time>2023-08-09T11:24:06.115+00:00</time>
      </trkpt>
      <trkpt lat="48.28693" lon="2.84316">
        <ele>81</ele>
        <time>2023-08-09T11:24:11.128+00:00</time>
      </trkpt>
      <trkpt lat="48.28698" lon="2.84313">
        <ele>81</ele>
        <time>2023-08-09T11:24:15.152+00:00</time>
      </trkpt>
      <trkpt lat="48.28704" lon="2.84309">
        <ele>81</ele>
        <time>2023-08-09T11:24:20.123+00:00</time>
      </trkpt>
      <trkpt lat="48.28709" lon="2.84305">
        <ele>79</ele>
        <time>2023-08-09T11:24:24.126+00:00</time>
      </trkpt>
      <trkpt lat="48.28715" lon="2.843">
        <ele>79</ele>
        <time>2023-08-09T11:24:28.139+00:00</time>
      </trkpt>
      <trkpt lat="48.28721" lon="2.84296">
        <ele>79</ele>
        <time>2023-08-09T11:24:33.141+00:00</time>
      </trkpt>
      <trkpt lat="48.28726" lon="2.84292">
        <ele>79</ele>
        <time>2023-08-09T11:24:37.136+00:00</time>
      </trkpt>
      <trkpt lat="48.28731" lon="2.84289">
        <ele>80</ele>
        <time>2023-08-09T11:24:41.156+00:00</time>
      </trkpt>
      <trkpt lat="48.28738" lon="2.84286">
        <ele>79</ele>
        <time>2023-08-09T11:24:46.128+00:00</time>
      </trkpt>
      <trkpt lat="48.28743" lon="2.84283">
        <ele>79</ele>
        <time>2023-08-09T11:24:50.129+00:00</time>
      </trkpt>
      <trkpt lat="48.28748" lon="2.84278">
        <ele>79</ele>
        <time>2023-08-09T11:24:55.154+00:00</time>
      </trkpt>
      <trkpt lat="48.28754" lon="2.84272">
        <ele>79</ele>
        <time>2023-08-09T11:25:00.127+00:00</time>
      </trkpt>
      <trkpt lat="48.28757" lon="2.84268">
        <ele>79</ele>
        <time>2023-08-09T11:25:04.127+00:00</time>
      </trkpt>
      <trkpt lat="48.28763" lon="2.84263">
        <ele>79</ele>
        <time>2023-08-09T11:25:09.128+00:00</time>
      </trkpt>
      <trkpt lat="48.28768" lon="2.84259">
        <ele>78</ele>
        <time>2023-08-09T11:25:13.135+00:00</time>
      </trkpt>
      <trkpt lat="48.28774" lon="2.84255">
        <ele>78</ele>
        <time>2023-08-09T11:25:17.130+00:00</time>
      </trkpt>
      <trkpt lat="48.28778" lon="2.84251">
        <ele>78</ele>
        <time>2023-08-09T11:25:21.162+00:00</time>
      </trkpt>
      <trkpt lat="48.28785" lon="2.84245">
        <ele>78</ele>
        <time>2023-08-09T11:25:26.130+00:00</time>
      </trkpt>
      <trkpt lat="48.2879" lon="2.8424">
        <ele>78</ele>
        <time>2023-08-09T11:25:30.124+00:00</time>
      </trkpt>
      <trkpt lat="48.28796" lon="2.84235">
        <ele>79</ele>
        <time>2023-08-09T11:25:35.135+00:00</time>
      </trkpt>
      <trkpt lat="48.288" lon="2.84231">
        <ele>79</ele>
        <time>2023-08-09T11:25:39.181+00:00</time>
      </trkpt>
      <trkpt lat="48.28806" lon="2.84226">
        <ele>79</ele>
        <time>2023-08-09T11:25:44.129+00:00</time>
      </trkpt>
      <trkpt lat="48.28811" lon="2.8422">
        <ele>79</ele>
        <time>2023-08-09T11:25:49.116+00:00</time>
      </trkpt>
      <trkpt lat="48.28816" lon="2.84215">
        <ele>79</ele>
        <time>2023-08-09T11:25:54.112+00:00</time>
      </trkpt>
      <trkpt lat="48.28821" lon="2.84209">
        <ele>81</ele>
        <time>2023-08-09T11:25:58.129+00:00</time>
      </trkpt>
      <trkpt lat="48.28826" lon="2.84204">
        <ele>81</ele>
        <time>2023-08-09T11:26:03.145+00:00</time>
      </trkpt>
      <trkpt lat="48.2883" lon="2.84199">
        <ele>81</ele>
        <time>2023-08-09T11:26:07.151+00:00</time>
      </trkpt>
      <trkpt lat="48.28834" lon="2.84195">
        <ele>81</ele>
        <time>2023-08-09T11:26:11.147+00:00</time>
      </trkpt>
      <trkpt lat="48.2884" lon="2.8419">
        <ele>81</ele>
        <time>2023-08-09T11:26:16.136+00:00</time>
      </trkpt>
      <trkpt lat="48.28845" lon="2.84185">
        <ele>81</ele>
        <time>2023-08-09T11:26:21.135+00:00</time>
      </trkpt>
      <trkpt lat="48.2885" lon="2.8418">
        <ele>82</ele>
        <time>2023-08-09T11:26:26.132+00:00</time>
      </trkpt>
      <trkpt lat="48.28854" lon="2.84176">
        <ele>82</ele>
        <time>2023-08-09T11:26:31.126+00:00</time>
      </trkpt>
      <trkpt lat="48.28858" lon="2.84171">
        <ele>82</ele>
        <time>2023-08-09T11:26:35.133+00:00</time>
      </trkpt>
      <trkpt lat="48.28862" lon="2.84166">
        <ele>82</ele>
        <time>2023-08-09T11:26:39.146+00:00</time>
      </trkpt>
      <trkpt lat="48.28866" lon="2.84161">
        <ele>82</ele>
        <time>2023-08-09T11:26:44.128+00:00</time>
      </trkpt>
      <trkpt lat="48.28871" lon="2.84154">
        <ele>82</ele>
        <time>2023-08-09T11:26:49.125+00:00</time>
      </trkpt>
      <trkpt lat="48.28875" lon="2.84149">
        <ele>82</ele>
        <time>2023-08-09T11:26:53.141+00:00</time>
      </trkpt>
      <trkpt lat="48.2888" lon="2.84142">
        <ele>82</ele>
        <time>2023-08-09T11:26:58.123+00:00</time>
      </trkpt>
      <trkpt lat="48.28884" lon="2.84137">
        <ele>82</ele>
        <time>2023-08-09T11:27:02.129+00:00</time>
      </trkpt>
      <trkpt lat="48.28888" lon="2.84131">
        <ele>82</ele>
        <time>2023-08-09T11:27:07.105+00:00</time>
      </trkpt>
      <trkpt lat="48.28891" lon="2.84126">
        <ele>82</ele>
        <time>2023-08-09T11:27:11.108+00:00</time>
      </trkpt>
      <trkpt lat="48.28896" lon="2.84121">
        <ele>82</ele>
        <time>2023-08-09T11:27:15.107+00:00</time>
      </trkpt>
      <trkpt lat="48.28899" lon="2.84114">
        <ele>82</ele>
        <time>2023-08-09T11:27:19.157+00:00</time>
      </trkpt>
      <trkpt lat="48.28902" lon="2.84109">
        <ele>82</ele>
        <time>2023-08-09T11:27:24.101+00:00</time>
      </trkpt>
      <trkpt lat="48.28906" lon="2.84105">
        <ele>85</ele>
        <time>2023-08-09T11:27:28.112+00:00</time>
      </trkpt>
      <trkpt lat="48.2891" lon="2.84101">
        <ele>85</ele>
        <time>2023-08-09T11:27:32.121+00:00</time>
      </trkpt>
      <trkpt lat="48.28914" lon="2.84094">
        <ele>85</ele>
        <time>2023-08-09T11:27:37.113+00:00</time>
      </trkpt>
      <trkpt lat="48.28919" lon="2.84089">
        <ele>85</ele>
        <time>2023-08-09T11:27:41.148+00:00</time>
      </trkpt>
      <trkpt lat="48.28924" lon="2.84082">
        <ele>85</ele>
        <time>2023-08-09T11:27:46.122+00:00</time>
      </trkpt>
      <trkpt lat="48.28929" lon="2.84077">
        <ele>85</ele>
        <time>2023-08-09T11:27:50.134+00:00</time>
      </trkpt>
      <trkpt lat="48.28935" lon="2.84073">
        <ele>88</ele>
        <time>2023-08-09T11:27:55.138+00:00</time>
      </trkpt>
      <trkpt lat="48.2894" lon="2.84067">
        <ele>86</ele>
        <time>2023-08-09T11:28:00.130+00:00</time>
      </trkpt>
      <trkpt lat="48.28947" lon="2.8406">
        <ele>86</ele>
        <time>2023-08-09T11:28:05.126+00:00</time>
      </trkpt>
      <trkpt lat="48.28951" lon="2.84053">
        <ele>86</ele>
        <time>2023-08-09T11:28:10.115+00:00</time>
      </trkpt>
      <trkpt lat="48.28955" lon="2.84048">
        <ele>86</ele>
        <time>2023-08-09T11:28:14.112+00:00</time>
      </trkpt>
      <trkpt lat="48.2896" lon="2.84041">
        <ele>87</ele>
        <time>2023-08-09T11:28:19.125+00:00</time>
      </trkpt>
      <trkpt lat="48.28963" lon="2.84034">
        <ele>87</ele>
        <time>2023-08-09T11:28:23.115+00:00</time>
      </trkpt>
      <trkpt lat="48.28967" lon="2.84028">
        <ele>87</ele>
        <time>2023-08-09T11:28:27.160+00:00</time>
      </trkpt>
      <trkpt lat="48.28974" lon="2.8402">
        <ele>87</ele>
        <time>2023-08-09T11:28:32.127+00:00</time>
      </trkpt>
      <trkpt lat="48.28978" lon="2.84012">
        <ele>84</ele>
        <time>2023-08-09T11:28:37.146+00:00</time>
      </trkpt>
      <trkpt lat="48.28983" lon="2.84005">
        <ele>84</ele>
        <time>2023-08-09T11:28:42.121+00:00</time>
      </trkpt>
      <trkpt lat="48.28987" lon="2.83997">
        <ele>87</ele>
        <time>2023-08-09T11:28:47.145+00:00</time>
      </trkpt>
      <trkpt lat="48.28991" lon="2.83989">
        <ele>87</ele>
        <time>2023-08-09T11:28:52.119+00:00</time>
      </trkpt>
      <trkpt lat="48.28996" lon="2.83983">
        <ele>85</ele>
        <time>2023-08-09T11:28:57.136+00:00</time>
      </trkpt>
      <trkpt lat="48.29001" lon="2.83978">
        <ele>85</ele>
        <time>2023-08-09T11:29:01.160+00:00</time>
      </trkpt>
      <trkpt lat="48.29007" lon="2.83973">
        <ele>85</ele>
        <time>2023-08-09T11:29:06.119+00:00</time>
      </trkpt>
      <trkpt lat="48.29011" lon="2.83969">
        <ele>85</ele>
        <time>2023-08-09T11:29:10.129+00:00</time>
      </trkpt>
      <trkpt lat="48.29017" lon="2.83962">
        <ele>87</ele>
        <time>2023-08-09T11:29:15.133+00:00</time>
      </trkpt>
      <trkpt lat="48.29021" lon="2.83955">
        <ele>87</ele>
        <time>2023-08-09T11:29:20.104+00:00</time>
      </trkpt>
      <trkpt lat="48.29025" lon="2.83949">
        <ele>87</ele>
        <time>2023-08-09T11:29:24.110+00:00</time>
      </trkpt>
      <trkpt lat="48.2903" lon="2.83942">
        <ele>87</ele>
        <time>2023-08-09T11:29:29.122+00:00</time>
      </trkpt>
      <trkpt lat="48.29035" lon="2.83938">
        <ele>87</ele>
        <time>2023-08-09T11:29:33.138+00:00</time>
      </trkpt>
      <trkpt lat="48.2904" lon="2.83933">
        <ele>87</ele>
        <time>2023-08-09T11:29:38.133+00:00</time>
      </trkpt>
      <trkpt lat="48.29045" lon="2.83926">
        <ele>91</ele>
        <time>2023-08-09T11:29:43.143+00:00</time>
      </trkpt>
      <trkpt lat="48.29051" lon="2.83921">
        <ele>91</ele>
        <time>2023-08-09T11:29:48.118+00:00</time>
      </trkpt>
      <trkpt lat="48.29056" lon="2.83916">
        <ele>91</ele>
        <time>2023-08-09T11:29:53.128+00:00</time>
      </trkpt>
      <trkpt lat="48.29061" lon="2.8391">
        <ele>91</ele>
        <time>2023-08-09T11:29:58.125+00:00</time>
      </trkpt>
      <trkpt lat="48.29065" lon="2.83905">
        <ele>91</ele>
        <time>2023-08-09T11:30:02.118+00:00</time>
      </trkpt>
      <trkpt lat="48.2907" lon="2.83898">
        <ele>92</ele>
        <time>2023-08-09T11:30:07.145+00:00</time>
      </trkpt>
      <trkpt lat="48.29075" lon="2.83892">
        <ele>92</ele>
        <time>2023-08-09T11:30:12.115+00:00</time>
      </trkpt>
      <trkpt lat="48.2908" lon="2.83886">
        <ele>92</ele>
        <time>2023-08-09T11:30:17.123+00:00</time>
      </trkpt>
      <trkpt lat="48.29084" lon="2.83882">
        <ele>92</ele>
        <time>2023-08-09T11:30:21.156+00:00</time>
      </trkpt>
      <trkpt lat="48.2909" lon="2.83875">
        <ele>90</ele>
        <time>2023-08-09T11:30:26.122+00:00</time>
      </trkpt>
      <trkpt lat="48.29094" lon="2.83868">
        <ele>90</ele>
        <time>2023-08-09T11:30:31.151+00:00</time>
      </trkpt>
      <trkpt lat="48.29101" lon="2.83861">
        <ele>93</ele>
        <time>2023-08-09T11:30:36.116+00:00</time>
      </trkpt>
      <trkpt lat="48.29105" lon="2.83854">
        <ele>93</ele>
        <time>2023-08-09T11:30:40.127+00:00</time>
      </trkpt>
      <trkpt lat="48.29109" lon="2.83847">
        <ele>91</ele>
        <time>2023-08-09T11:30:45.137+00:00</time>
      </trkpt>
      <trkpt lat="48.29114" lon="2.83841">
        <ele>91</ele>
        <time>2023-08-09T11:30:50.122+00:00</time>
      </trkpt>
      <trkpt lat="48.29119" lon="2.83833">
        <ele>91</ele>
        <time>2023-08-09T11:30:55.142+00:00</time>
      </trkpt>
      <trkpt lat="48.29123" lon="2.83826">
        <ele>91</ele>
        <time>2023-08-09T11:31:00.104+00:00</time>
      </trkpt>
      <trkpt lat="48.29129" lon="2.83819">
        <ele>93</ele>
        <time>2023-08-09T11:31:05.150+00:00</time>
      </trkpt>
      <trkpt lat="48.29135" lon="2.83811">
        <ele>93</ele>
        <time>2023-08-09T11:31:10.120+00:00</time>
      </trkpt>
      <trkpt lat="48.29141" lon="2.83802">
        <ele>93</ele>
        <time>2023-08-09T11:31:15.137+00:00</time>
      </trkpt>
      <trkpt lat="48.29145" lon="2.83793">
        <ele>93</ele>
        <time>2023-08-09T11:31:20.127+00:00</time>
      </trkpt>
      <trkpt lat="48.29148" lon="2.83787">
        <ele>91</ele>
        <time>2023-08-09T11:31:24.127+00:00</time>
      </trkpt>
      <trkpt lat="48.29153" lon="2.83781">
        <ele>93</ele>
        <time>2023-08-09T11:31:29.130+00:00</time>
      </trkpt>
      <trkpt lat="48.29159" lon="2.83771">
        <ele>93</ele>
        <time>2023-08-09T11:31:34.125+00:00</time>
      </trkpt>
      <trkpt lat="48.29163" lon="2.83763">
        <ele>92</ele>
        <time>2023-08-09T11:31:39.129+00:00</time>
      </trkpt>
      <trkpt lat="48.29166" lon="2.83756">
        <ele>92</ele>
        <time>2023-08-09T11:31:43.137+00:00</time>
      </trkpt>
      <trkpt lat="48.29171" lon="2.83748">
        <ele>92</ele>
        <time>2023-08-09T11:31:48.117+00:00</time>
      </trkpt>
      <trkpt lat="48.29174" lon="2.83739">
        <ele>92</ele>
        <time>2023-08-09T11:31:53.138+00:00</time>
      </trkpt>
      <trkpt lat="48.29176" lon="2.83734">
        <ele>91</ele>
        <time>2023-08-09T11:31:57.149+00:00</time>
      </trkpt>
      <trkpt lat="48.29181" lon="2.83725">
        <ele>91</ele>
        <time>2023-08-09T11:32:02.129+00:00</time>
      </trkpt>
      <trkpt lat="48.29185" lon="2.83717">
        <ele>93</ele>
        <time>2023-08-09T11:32:07.126+00:00</time>
      </trkpt>
      <trkpt lat="48.29188" lon="2.83711">
        <ele>93</ele>
        <time>2023-08-09T11:32:11.153+00:00</time>
      </trkpt>
      <trkpt lat="48.29192" lon="2.83703">
        <ele>92</ele>
        <time>2023-08-09T11:32:16.138+00:00</time>
      </trkpt>
      <trkpt lat="48.29195" lon="2.83695">
        <ele>92</ele>
        <time>2023-08-09T11:32:21.144+00:00</time>
      </trkpt>
      <trkpt lat="48.29198" lon="2.83686">
        <ele>92</ele>
        <time>2023-08-09T11:32:26.127+00:00</time>
      </trkpt>
      <trkpt lat="48.29201" lon="2.83676">
        <ele>91</ele>
        <time>2023-08-09T11:32:31.144+00:00</time>
      </trkpt>
      <trkpt lat="48.29204" lon="2.83668">
        <ele>91</ele>
        <time>2023-08-09T11:32:35.134+00:00</time>
      </trkpt>
      <trkpt lat="48.29207" lon="2.83658">
        <ele>91</ele>
        <time>2023-08-09T11:32:40.132+00:00</time>
      </trkpt>
      <trkpt lat="48.29209" lon="2.8365">
        <ele>94</ele>
        <time>2023-08-09T11:32:44.129+00:00</time>
      </trkpt>
      <trkpt lat="48.29211" lon="2.83642">
        <ele>94</ele>
        <time>2023-08-09T11:32:48.133+00:00</time>
      </trkpt>
      <trkpt lat="48.29214" lon="2.83632">
        <ele>94</ele>
        <time>2023-08-09T11:32:53.145+00:00</time>
      </trkpt>
      <trkpt lat="48.29217" lon="2.83626">
        <ele>94</ele>
        <time>2023-08-09T11:32:57.146+00:00</time>
      </trkpt>
      <trkpt lat="48.29221" lon="2.83617">
        <ele>93</ele>
        <time>2023-08-09T11:33:02.132+00:00</time>
      </trkpt>
      <trkpt lat="48.29225" lon="2.83609">
        <ele>93</ele>
        <time>2023-08-09T11:33:07.140+00:00</time>
      </trkpt>
      <trkpt lat="48.2923" lon="2.836">
        <ele>93</ele>
        <time>2023-08-09T11:33:12.131+00:00</time>
      </trkpt>
      <trkpt lat="48.29235" lon="2.83595">
        <ele>92</ele>
        <time>2023-08-09T11:33:17.147+00:00</time>
      </trkpt>
      <trkpt lat="48.29239" lon="2.83588">
        <ele>94</ele>
        <time>2023-08-09T11:33:22.118+00:00</time>
      </trkpt>
      <trkpt lat="48.29244" lon="2.83578">
        <ele>94</ele>
        <time>2023-08-09T11:33:27.124+00:00</time>
      </trkpt>
      <trkpt lat="48.29248" lon="2.83571">
        <ele>94</ele>
        <time>2023-08-09T11:33:32.150+00:00</time>
      </trkpt>
      <trkpt lat="48.29253" lon="2.83563">
        <ele>93</ele>
        <time>2023-08-09T11:33:37.111+00:00</time>
      </trkpt>
      <trkpt lat="48.29257" lon="2.83558">
        <ele>93</ele>
        <time>2023-08-09T11:33:41.111+00:00</time>
      </trkpt>
      <trkpt lat="48.29262" lon="2.83552">
        <ele>93</ele>
        <time>2023-08-09T11:33:45.150+00:00</time>
      </trkpt>
      <trkpt lat="48.29268" lon="2.83546">
        <ele>95</ele>
        <time>2023-08-09T11:33:50.146+00:00</time>
      </trkpt>
      <trkpt lat="48.29273" lon="2.83539">
        <ele>94</ele>
        <time>2023-08-09T11:33:55.139+00:00</time>
      </trkpt>
      <trkpt lat="48.29277" lon="2.83529">
        <ele>94</ele>
        <time>2023-08-09T11:34:00.111+00:00</time>
      </trkpt>
      <trkpt lat="48.2928" lon="2.83526">
        <ele>94</ele>
        <time>2023-08-09T11:34:04.139+00:00</time>
      </trkpt>
      <trkpt lat="48.29284" lon="2.83516">
        <ele>94</ele>
        <time>2023-08-09T11:34:09.151+00:00</time>
      </trkpt>
      <trkpt lat="48.29287" lon="2.83506">
        <ele>93</ele>
        <time>2023-08-09T11:34:14.120+00:00</time>
      </trkpt>
      <trkpt lat="48.29291" lon="2.835">
        <ele>93</ele>
        <time>2023-08-09T11:34:18.141+00:00</time>
      </trkpt>
      <trkpt lat="48.29296" lon="2.83491">
        <ele>95</ele>
        <time>2023-08-09T11:34:23.146+00:00</time>
      </trkpt>
      <trkpt lat="48.293" lon="2.83482">
        <ele>94</ele>
        <time>2023-08-09T11:34:28.132+00:00</time>
      </trkpt>
      <trkpt lat="48.29302" lon="2.83475">
        <ele>94</ele>
        <time>2023-08-09T11:34:32.146+00:00</time>
      </trkpt>
      <trkpt lat="48.29305" lon="2.83464">
        <ele>94</ele>
        <time>2023-08-09T11:34:37.111+00:00</time>
      </trkpt>
      <trkpt lat="48.29306" lon="2.83458">
        <ele>94</ele>
        <time>2023-08-09T11:34:41.126+00:00</time>
      </trkpt>
      <trkpt lat="48.29307" lon="2.83449">
        <ele>94</ele>
        <time>2023-08-09T11:34:46.144+00:00</time>
      </trkpt>
      <trkpt lat="48.29308" lon="2.83444">
        <ele>94</ele>
        <time>2023-08-09T11:34:51.111+00:00</time>
      </trkpt>
      <trkpt lat="48.29308" lon="2.83437">
        <ele>94</ele>
        <time>2023-08-09T11:34:55.140+00:00</time>
      </trkpt>
      <trkpt lat="48.2931" lon="2.83428">
        <ele>94</ele>
        <time>2023-08-09T11:35:00.119+00:00</time>
      </trkpt>
      <trkpt lat="48.29311" lon="2.83419">
        <ele>94</ele>
        <time>2023-08-09T11:35:04.132+00:00</time>
      </trkpt>
      <trkpt lat="48.29312" lon="2.83408">
        <ele>94</ele>
        <time>2023-08-09T11:35:08.130+00:00</time>
      </trkpt>
      <trkpt lat="48.29311" lon="2.83397">
        <ele>95</ele>
        <time>2023-08-09T11:35:13.104+00:00</time>
      </trkpt>
      <trkpt lat="48.2931" lon="2.8339">
        <ele>95</ele>
        <time>2023-08-09T11:35:17.118+00:00</time>
      </trkpt>
      <trkpt lat="48.2931" lon="2.83382">
        <ele>95</ele>
        <time>2023-08-09T11:35:21.133+00:00</time>
      </trkpt>
      <trkpt lat="48.29311" lon="2.83373">
        <ele>95</ele>
        <time>2023-08-09T11:35:25.137+00:00</time>
      </trkpt>
      <trkpt lat="48.29312" lon="2.83363">
        <ele>95</ele>
        <time>2023-08-09T11:35:29.137+00:00</time>
      </trkpt>
      <trkpt lat="48.29315" lon="2.83353">
        <ele>95</ele>
        <time>2023-08-09T11:35:34.124+00:00</time>
      </trkpt>
      <trkpt lat="48.2932" lon="2.83348">
        <ele>97</ele>
        <time>2023-08-09T11:35:38.121+00:00</time>
      </trkpt>
      <trkpt lat="48.29325" lon="2.83342">
        <ele>95</ele>
        <time>2023-08-09T11:35:43.135+00:00</time>
      </trkpt>
      <trkpt lat="48.29331" lon="2.83339">
        <ele>95</ele>
        <time>2023-08-09T11:35:48.104+00:00</time>
      </trkpt>
      <trkpt lat="48.29335" lon="2.83335">
        <ele>95</ele>
        <time>2023-08-09T11:35:52.118+00:00</time>
      </trkpt>
      <trkpt lat="48.2934" lon="2.83331">
        <ele>95</ele>
        <time>2023-08-09T11:35:57.131+00:00</time>
      </trkpt>
      <trkpt lat="48.29345" lon="2.83327">
        <ele>95</ele>
        <time>2023-08-09T11:36:01.124+00:00</time>
      </trkpt>
      <trkpt lat="48.2935" lon="2.83323">
        <ele>95</ele>
        <time>2023-08-09T11:36:05.138+00:00</time>
      </trkpt>
      <trkpt lat="48.29355" lon="2.83318">
        <ele>93</ele>
        <time>2023-08-09T11:36:10.130+00:00</time>
      </trkpt>
      <trkpt lat="48.29362" lon="2.83313">
        <ele>93</ele>
        <time>2023-08-09T11:36:15.102+00:00</time>
      </trkpt>
      <trkpt lat="48.29369" lon="2.83307">
        <ele>93</ele>
        <time>2023-08-09T11:36:32.087+00:00</time>
      </trkpt>
      <trkpt lat="48.29374" lon="2.83307">
        <ele>93</ele>
        <time>2023-08-09T11:36:36.100+00:00</time>
      </trkpt>
      <trkpt lat="48.29381" lon="2.833">
        <ele>91</ele>
        <time>2023-08-09T11:36:41.093+00:00</time>
      </trkpt>
      <trkpt lat="48.29387" lon="2.83294">
        <ele>91</ele>
        <time>2023-08-09T11:36:46.089+00:00</time>
      </trkpt>
      <trkpt lat="48.29392" lon="2.8329">
        <ele>89</ele>
        <time>2023-08-09T11:36:50.101+00:00</time>
      </trkpt>
      <trkpt lat="48.29398" lon="2.83286">
        <ele>89</ele>
        <time>2023-08-09T11:36:55.095+00:00</time>
      </trkpt>
      <trkpt lat="48.29404" lon="2.83281">
        <ele>87</ele>
        <time>2023-08-09T11:37:00.096+00:00</time>
      </trkpt>
      <trkpt lat="48.29411" lon="2.83274">
        <ele>87</ele>
        <time>2023-08-09T11:37:05.105+00:00</time>
      </trkpt>
      <trkpt lat="48.29418" lon="2.83268">
        <ele>87</ele>
        <time>2023-08-09T11:37:10.090+00:00</time>
      </trkpt>
      <trkpt lat="48.29423" lon="2.83263">
        <ele>86</ele>
        <time>2023-08-09T11:37:14.101+00:00</time>
      </trkpt>
      <trkpt lat="48.29427" lon="2.83257">
        <ele>86</ele>
        <time>2023-08-09T11:37:18.101+00:00</time>
      </trkpt>
      <trkpt lat="48.29433" lon="2.8325">
        <ele>85</ele>
        <time>2023-08-09T11:37:23.093+00:00</time>
      </trkpt>
      <trkpt lat="48.29437" lon="2.83244">
        <ele>85</ele>
        <time>2023-08-09T11:37:27.090+00:00</time>
      </trkpt>
      <trkpt lat="48.29442" lon="2.83236">
        <ele>85</ele>
        <time>2023-08-09T11:37:32.096+00:00</time>
      </trkpt>
      <trkpt lat="48.29446" lon="2.83229">
        <ele>84</ele>
        <time>2023-08-09T11:37:37.109+00:00</time>
      </trkpt>
      <trkpt lat="48.29451" lon="2.83221">
        <ele>84</ele>
        <time>2023-08-09T11:37:42.102+00:00</time>
      </trkpt>
      <trkpt lat="48.29456" lon="2.83213">
        <ele>84</ele>
        <time>2023-08-09T11:37:47.102+00:00</time>
      </trkpt>
      <trkpt lat="48.29461" lon="2.83207">
        <ele>81</ele>
        <time>2023-08-09T11:37:52.096+00:00</time>
      </trkpt>
      <trkpt lat="48.29466" lon="2.832">
        <ele>81</ele>
        <time>2023-08-09T11:37:57.095+00:00</time>
      </trkpt>
      <trkpt lat="48.29471" lon="2.83192">
        <ele>81</ele>
        <time>2023-08-09T11:38:02.105+00:00</time>
      </trkpt>
      <trkpt lat="48.29475" lon="2.83187">
        <ele>81</ele>
        <time>2023-08-09T11:38:06.100+00:00</time>
      </trkpt>
      <trkpt lat="48.29479" lon="2.8318">
        <ele>80</ele>
        <time>2023-08-09T11:38:10.105+00:00</time>
      </trkpt>
      <trkpt lat="48.29484" lon="2.83173">
        <ele>80</ele>
        <time>2023-08-09T11:38:15.104+00:00</time>
      </trkpt>
      <trkpt lat="48.29488" lon="2.83168">
        <ele>80</ele>
        <time>2023-08-09T11:38:19.100+00:00</time>
      </trkpt>
      <trkpt lat="48.29493" lon="2.8316">
        <ele>80</ele>
        <time>2023-08-09T11:38:24.103+00:00</time>
      </trkpt>
      <trkpt lat="48.29496" lon="2.83157">
        <ele>80</ele>
        <time>2023-08-09T11:38:43.101+00:00</time>
      </trkpt>
      <trkpt lat="48.29501" lon="2.83153">
        <ele>80</ele>
        <time>2023-08-09T11:38:48.095+00:00</time>
      </trkpt>
      <trkpt lat="48.29502" lon="2.83145">
        <ele>80</ele>
        <time>2023-08-09T11:38:53.098+00:00</time>
      </trkpt>
      <trkpt lat="48.29506" lon="2.83141">
        <ele>80</ele>
        <time>2023-08-09T11:38:57.097+00:00</time>
      </trkpt>
      <trkpt lat="48.2951" lon="2.83134">
        <ele>80</ele>
        <time>2023-08-09T11:39:02.107+00:00</time>
      </trkpt>
      <trkpt lat="48.29516" lon="2.83126">
        <ele>80</ele>
        <time>2023-08-09T11:39:07.103+00:00</time>
      </trkpt>
      <trkpt lat="48.29521" lon="2.83119">
        <ele>80</ele>
        <time>2023-08-09T11:39:12.102+00:00</time>
      </trkpt>
      <trkpt lat="48.29525" lon="2.83112">
        <ele>80</ele>
        <time>2023-08-09T11:39:17.102+00:00</time>
      </trkpt>
      <trkpt lat="48.2953" lon="2.83104">
        <ele>80</ele>
        <time>2023-08-09T11:39:22.099+00:00</time>
      </trkpt>
      <trkpt lat="48.29535" lon="2.83096">
        <ele>79</ele>
        <time>2023-08-09T11:39:27.101+00:00</time>
      </trkpt>
      <trkpt lat="48.29539" lon="2.8309">
        <ele>79</ele>
        <time>2023-08-09T11:39:31.105+00:00</time>
      </trkpt>
      <trkpt lat="48.29545" lon="2.83082">
        <ele>79</ele>
        <time>2023-08-09T11:39:36.101+00:00</time>
      </trkpt>
      <trkpt lat="48.29549" lon="2.83074">
        <ele>79</ele>
        <time>2023-08-09T11:39:41.114+00:00</time>
      </trkpt>
      <trkpt lat="48.29554" lon="2.83069">
        <ele>79</ele>
        <time>2023-08-09T11:39:45.098+00:00</time>
      </trkpt>
      <trkpt lat="48.29558" lon="2.83062">
        <ele>79</ele>
        <time>2023-08-09T11:39:50.097+00:00</time>
      </trkpt>
      <trkpt lat="48.29562" lon="2.83056">
        <ele>79</ele>
        <time>2023-08-09T11:39:54.101+00:00</time>
      </trkpt>
      <trkpt lat="48.29567" lon="2.83049">
        <ele>79</ele>
        <time>2023-08-09T11:39:59.099+00:00</time>
      </trkpt>
      <trkpt lat="48.29571" lon="2.83043">
        <ele>81</ele>
        <time>2023-08-09T11:40:03.106+00:00</time>
      </trkpt>
      <trkpt lat="48.29575" lon="2.83035">
        <ele>81</ele>
        <time>2023-08-09T11:40:08.097+00:00</time>
      </trkpt>
      <trkpt lat="48.2958" lon="2.83028">
        <ele>81</ele>
        <time>2023-08-09T11:40:13.094+00:00</time>
      </trkpt>
      <trkpt lat="48.29584" lon="2.83023">
        <ele>81</ele>
        <time>2023-08-09T11:40:17.101+00:00</time>
      </trkpt>
      <trkpt lat="48.29589" lon="2.83015">
        <ele>81</ele>
        <time>2023-08-09T11:40:22.102+00:00</time>
      </trkpt>
      <trkpt lat="48.29592" lon="2.8301">
        <ele>81</ele>
        <time>2023-08-09T11:40:26.112+00:00</time>
      </trkpt>
      <trkpt lat="48.29597" lon="2.83002">
        <ele>81</ele>
        <time>2023-08-09T11:40:31.105+00:00</time>
      </trkpt>
      <trkpt lat="48.29601" lon="2.82996">
        <ele>81</ele>
        <time>2023-08-09T11:40:35.093+00:00</time>
      </trkpt>
      <trkpt lat="48.29605" lon="2.82989">
        <ele>81</ele>
        <time>2023-08-09T11:40:39.102+00:00</time>
      </trkpt>
      <trkpt lat="48.2961" lon="2.82981">
        <ele>80</ele>
        <time>2023-08-09T11:40:44.102+00:00</time>
      </trkpt>
      <trkpt lat="48.29615" lon="2.82974">
        <ele>80</ele>
        <time>2023-08-09T11:40:49.104+00:00</time>
      </trkpt>
      <trkpt lat="48.2962" lon="2.82967">
        <ele>80</ele>
        <time>2023-08-09T11:40:54.133+00:00</time>
      </trkpt>
      <trkpt lat="48.29626" lon="2.8296">
        <ele>81</ele>
        <time>2023-08-09T11:40:59.122+00:00</time>
      </trkpt>
      <trkpt lat="48.2963" lon="2.82953">
        <ele>80</ele>
        <time>2023-08-09T11:41:03.131+00:00</time>
      </trkpt>
      <trkpt lat="48.29634" lon="2.82948">
        <ele>80</ele>
        <time>2023-08-09T11:41:07.136+00:00</time>
      </trkpt>
      <trkpt lat="48.29638" lon="2.82943">
        <ele>80</ele>
        <time>2023-08-09T11:41:11.144+00:00</time>
      </trkpt>
      <trkpt lat="48.29643" lon="2.82935">
        <ele>80</ele>
        <time>2023-08-09T11:41:16.109+00:00</time>
      </trkpt>
      <trkpt lat="48.29648" lon="2.82928">
        <ele>79</ele>
        <time>2023-08-09T11:41:21.123+00:00</time>
      </trkpt>
      <trkpt lat="48.29653" lon="2.82923">
        <ele>80</ele>
        <time>2023-08-09T11:41:25.114+00:00</time>
      </trkpt>
      <trkpt lat="48.29658" lon="2.82916">
        <ele>80</ele>
        <time>2023-08-09T11:41:30.117+00:00</time>
      </trkpt>
      <trkpt lat="48.29664" lon="2.82911">
        <ele>80</ele>
        <time>2023-08-09T11:41:35.130+00:00</time>
      </trkpt>
      <trkpt lat="48.2967" lon="2.82905">
        <ele>80</ele>
        <time>2023-08-09T11:41:40.106+00:00</time>
      </trkpt>
      <trkpt lat="48.29675" lon="2.82901">
        <ele>79</ele>
        <time>2023-08-09T11:41:44.133+00:00</time>
      </trkpt>
      <trkpt lat="48.2968" lon="2.82898">
        <ele>79</ele>
        <time>2023-08-09T11:41:48.138+00:00</time>
      </trkpt>
      <trkpt lat="48.29687" lon="2.82895">
        <ele>81</ele>
        <time>2023-08-09T11:41:53.122+00:00</time>
      </trkpt>
      <trkpt lat="48.29692" lon="2.82893">
        <ele>81</ele>
        <time>2023-08-09T11:41:57.147+00:00</time>
      </trkpt>
      <trkpt lat="48.29699" lon="2.8289">
        <ele>81</ele>
        <time>2023-08-09T11:42:02.147+00:00</time>
      </trkpt>
      <trkpt lat="48.29705" lon="2.82887">
        <ele>81</ele>
        <time>2023-08-09T11:42:06.140+00:00</time>
      </trkpt>
      <trkpt lat="48.29712" lon="2.82883">
        <ele>81</ele>
        <time>2023-08-09T11:42:11.116+00:00</time>
      </trkpt>
      <trkpt lat="48.29718" lon="2.8288">
        <ele>81</ele>
        <time>2023-08-09T11:42:15.129+00:00</time>
      </trkpt>
      <trkpt lat="48.29725" lon="2.82877">
        <ele>81</ele>
        <time>2023-08-09T11:42:20.163+00:00</time>
      </trkpt>
      <trkpt lat="48.29731" lon="2.82875">
        <ele>81</ele>
        <time>2023-08-09T11:42:25.119+00:00</time>
      </trkpt>
      <trkpt lat="48.29736" lon="2.82873">
        <ele>81</ele>
        <time>2023-08-09T11:42:29.155+00:00</time>
      </trkpt>
      <trkpt lat="48.29743" lon="2.8287">
        <ele>81</ele>
        <time>2023-08-09T11:42:34.145+00:00</time>
      </trkpt>
      <trkpt lat="48.29751" lon="2.82867">
        <ele>81</ele>
        <time>2023-08-09T11:42:39.151+00:00</time>
      </trkpt>
      <trkpt lat="48.29758" lon="2.82864">
        <ele>81</ele>
        <time>2023-08-09T11:42:44.146+00:00</time>
      </trkpt>
      <trkpt lat="48.29763" lon="2.82861">
        <ele>81</ele>
        <time>2023-08-09T11:42:48.157+00:00</time>
      </trkpt>
      <trkpt lat="48.2977" lon="2.82859">
        <ele>82</ele>
        <time>2023-08-09T11:42:53.150+00:00</time>
      </trkpt>
      <trkpt lat="48.29776" lon="2.82857">
        <ele>82</ele>
        <time>2023-08-09T11:42:58.116+00:00</time>
      </trkpt>
      <trkpt lat="48.29781" lon="2.82855">
        <ele>82</ele>
        <time>2023-08-09T11:43:02.137+00:00</time>
      </trkpt>
      <trkpt lat="48.29787" lon="2.82853">
        <ele>82</ele>
        <time>2023-08-09T11:43:06.161+00:00</time>
      </trkpt>
      <trkpt lat="48.29792" lon="2.82852">
        <ele>82</ele>
        <time>2023-08-09T11:43:11.154+00:00</time>
      </trkpt>
      <trkpt lat="48.29797" lon="2.82852">
        <ele>82</ele>
        <time>2023-08-09T11:43:16.147+00:00</time>
      </trkpt>
      <trkpt lat="48.29798" lon="2.82852">
        <ele>82</ele>
        <time>2023-08-09T11:43:21.110+00:00</time>
      </trkpt>
      <trkpt lat="48.29797" lon="2.8285">
        <ele>82</ele>
        <time>2023-08-09T11:43:25.093+00:00</time>
      </trkpt>
      <trkpt lat="48.29796" lon="2.82849">
        <ele>82</ele>
        <time>2023-08-09T11:43:30.091+00:00</time>
      </trkpt>
      <trkpt lat="48.29796" lon="2.82856">
        <ele>82</ele>
        <time>2023-08-09T11:43:34.131+00:00</time>
      </trkpt>
      <trkpt lat="48.29798" lon="2.82864">
        <ele>82</ele>
        <time>2023-08-09T11:43:38.116+00:00</time>
      </trkpt>
      <trkpt lat="48.29801" lon="2.8287">
        <ele>82</ele>
        <time>2023-08-09T11:43:42.127+00:00</time>
      </trkpt>
      <trkpt lat="48.29804" lon="2.82879">
        <ele>83</ele>
        <time>2023-08-09T11:43:47.134+00:00</time>
      </trkpt>
      <trkpt lat="48.29806" lon="2.82888">
        <ele>83</ele>
        <time>2023-08-09T11:43:51.126+00:00</time>
      </trkpt>
      <trkpt lat="48.29809" lon="2.82898">
        <ele>83</ele>
        <time>2023-08-09T11:43:56.108+00:00</time>
      </trkpt>
      <trkpt lat="48.29812" lon="2.82906">
        <ele>84</ele>
        <time>2023-08-09T11:44:00.116+00:00</time>
      </trkpt>
      <trkpt lat="48.29817" lon="2.82915">
        <ele>84</ele>
        <time>2023-08-09T11:44:05.103+00:00</time>
      </trkpt>
      <trkpt lat="48.29819" lon="2.8292">
        <ele>84</ele>
        <time>2023-08-09T11:44:09.142+00:00</time>
      </trkpt>
      <trkpt lat="48.29823" lon="2.82929">
        <ele>83</ele>
        <time>2023-08-09T11:44:14.129+00:00</time>
      </trkpt>
      <trkpt lat="48.29828" lon="2.82938">
        <ele>84</ele>
        <time>2023-08-09T11:44:19.123+00:00</time>
      </trkpt>
      <trkpt lat="48.29831" lon="2.82944">
        <ele>84</ele>
        <time>2023-08-09T11:44:23.136+00:00</time>
      </trkpt>
      <trkpt lat="48.29836" lon="2.82951">
        <ele>84</ele>
        <time>2023-08-09T11:44:28.098+00:00</time>
      </trkpt>
      <trkpt lat="48.29841" lon="2.82953">
        <ele>84</ele>
        <time>2023-08-09T11:44:32.093+00:00</time>
      </trkpt>
      <trkpt lat="48.29846" lon="2.82951">
        <ele>84</ele>
        <time>2023-08-09T11:44:37.093+00:00</time>
      </trkpt>
      <trkpt lat="48.2985" lon="2.82951">
        <ele>82</ele>
        <time>2023-08-09T11:44:41.098+00:00</time>
      </trkpt>
      <trkpt lat="48.29855" lon="2.82945">
        <ele>82</ele>
        <time>2023-08-09T11:44:46.098+00:00</time>
      </trkpt>
      <trkpt lat="48.29859" lon="2.82938">
        <ele>82</ele>
        <time>2023-08-09T11:44:51.096+00:00</time>
      </trkpt>
      <trkpt lat="48.29864" lon="2.82931">
        <ele>82</ele>
        <time>2023-08-09T11:44:56.093+00:00</time>
      </trkpt>
      <trkpt lat="48.29868" lon="2.82924">
        <ele>81</ele>
        <time>2023-08-09T11:45:00.108+00:00</time>
      </trkpt>
      <trkpt lat="48.29872" lon="2.82917">
        <ele>81</ele>
        <time>2023-08-09T11:45:05.099+00:00</time>
      </trkpt>
      <trkpt lat="48.29876" lon="2.8291">
        <ele>79</ele>
        <time>2023-08-09T11:45:09.100+00:00</time>
      </trkpt>
      <trkpt lat="48.2988" lon="2.82902">
        <ele>79</ele>
        <time>2023-08-09T11:45:14.106+00:00</time>
      </trkpt>
      <trkpt lat="48.29883" lon="2.82894">
        <ele>79</ele>
        <time>2023-08-09T11:45:18.094+00:00</time>
      </trkpt>
      <trkpt lat="48.29887" lon="2.82886">
        <ele>79</ele>
        <time>2023-08-09T11:45:23.099+00:00</time>
      </trkpt>
      <trkpt lat="48.2989" lon="2.82879">
        <ele>79</ele>
        <time>2023-08-09T11:45:27.102+00:00</time>
      </trkpt>
      <trkpt lat="48.29892" lon="2.82872">
        <ele>79</ele>
        <time>2023-08-09T11:45:31.106+00:00</time>
      </trkpt>
      <trkpt lat="48.29897" lon="2.82864">
        <ele>79</ele>
        <time>2023-08-09T11:45:36.101+00:00</time>
      </trkpt>
      <trkpt lat="48.29902" lon="2.82857">
        <ele>79</ele>
        <time>2023-08-09T11:45:41.103+00:00</time>
      </trkpt>
      <trkpt lat="48.29906" lon="2.82849">
        <ele>77</ele>
        <time>2023-08-09T11:45:46.092+00:00</time>
      </trkpt>
      <trkpt lat="48.29909" lon="2.82841">
        <ele>77</ele>
        <time>2023-08-09T11:45:51.101+00:00</time>
      </trkpt>
      <trkpt lat="48.29911" lon="2.82837">
        <ele>77</ele>
        <time>2023-08-09T11:45:56.098+00:00</time>
      </trkpt>
      <trkpt lat="48.29915" lon="2.82829">
        <ele>77</ele>
        <time>2023-08-09T11:46:01.094+00:00</time>
      </trkpt>
      <trkpt lat="48.29918" lon="2.82821">
        <ele>77</ele>
        <time>2023-08-09T11:46:05.102+00:00</time>
      </trkpt>
      <trkpt lat="48.29922" lon="2.82813">
        <ele>77</ele>
        <time>2023-08-09T11:46:10.102+00:00</time>
      </trkpt>
      <trkpt lat="48.29925" lon="2.82806">
        <ele>77</ele>
        <time>2023-08-09T11:46:14.101+00:00</time>
      </trkpt>
      <trkpt lat="48.29929" lon="2.82797">
        <ele>77</ele>
        <time>2023-08-09T11:46:19.097+00:00</time>
      </trkpt>
      <trkpt lat="48.29933" lon="2.82789">
        <ele>76</ele>
        <time>2023-08-09T11:46:24.104+00:00</time>
      </trkpt>
      <trkpt lat="48.29937" lon="2.82782">
        <ele>76</ele>
        <time>2023-08-09T11:46:28.104+00:00</time>
      </trkpt>
      <trkpt lat="48.29941" lon="2.82774">
        <ele>76</ele>
        <time>2023-08-09T11:46:33.100+00:00</time>
      </trkpt>
      <trkpt lat="48.29945" lon="2.82766">
        <ele>76</ele>
        <time>2023-08-09T11:46:37.114+00:00</time>
      </trkpt>
      <trkpt lat="48.29947" lon="2.82759">
        <ele>76</ele>
        <time>2023-08-09T11:46:41.135+00:00</time>
      </trkpt>
      <trkpt lat="48.2995" lon="2.82751">
        <ele>76</ele>
        <time>2023-08-09T11:46:45.110+00:00</time>
      </trkpt>
      <trkpt lat="48.29955" lon="2.82743">
        <ele>76</ele>
        <time>2023-08-09T11:46:50.115+00:00</time>
      </trkpt>
      <trkpt lat="48.29958" lon="2.82737">
        <ele>76</ele>
        <time>2023-08-09T11:46:54.123+00:00</time>
      </trkpt>
      <trkpt lat="48.29962" lon="2.82728">
        <ele>77</ele>
        <time>2023-08-09T11:46:59.112+00:00</time>
      </trkpt>
      <trkpt lat="48.29965" lon="2.82721">
        <ele>77</ele>
        <time>2023-08-09T11:47:03.119+00:00</time>
      </trkpt>
      <trkpt lat="48.29969" lon="2.82712">
        <ele>77</ele>
        <time>2023-08-09T11:47:08.124+00:00</time>
      </trkpt>
      <trkpt lat="48.29973" lon="2.82704">
        <ele>77</ele>
        <time>2023-08-09T11:47:13.109+00:00</time>
      </trkpt>
      <trkpt lat="48.29977" lon="2.82695">
        <ele>77</ele>
        <time>2023-08-09T11:47:18.100+00:00</time>
      </trkpt>
      <trkpt lat="48.2998" lon="2.82688">
        <ele>77</ele>
        <time>2023-08-09T11:47:22.121+00:00</time>
      </trkpt>
      <trkpt lat="48.29983" lon="2.82681">
        <ele>77</ele>
        <time>2023-08-09T11:47:26.144+00:00</time>
      </trkpt>
      <trkpt lat="48.29987" lon="2.82675">
        <ele>76</ele>
        <time>2023-08-09T11:47:30.128+00:00</time>
      </trkpt>
      <trkpt lat="48.29991" lon="2.82667">
        <ele>76</ele>
        <time>2023-08-09T11:47:35.132+00:00</time>
      </trkpt>
      <trkpt lat="48.29994" lon="2.82658">
        <ele>76</ele>
        <time>2023-08-09T11:47:40.127+00:00</time>
      </trkpt>
      <trkpt lat="48.29997" lon="2.82652">
        <ele>75</ele>
        <time>2023-08-09T11:47:44.125+00:00</time>
      </trkpt>
      <trkpt lat="48.30001" lon="2.82646">
        <ele>75</ele>
        <time>2023-08-09T11:47:48.137+00:00</time>
      </trkpt>
      <trkpt lat="48.30005" lon="2.82639">
        <ele>75</ele>
        <time>2023-08-09T11:47:52.630+00:00</time>
      </trkpt>
      <trkpt lat="48.30008" lon="2.8263">
        <ele>75</ele>
        <time>2023-08-09T11:47:57.125+00:00</time>
      </trkpt>
      <trkpt lat="48.30011" lon="2.82623">
        <ele>75</ele>
        <time>2023-08-09T11:48:01.135+00:00</time>
      </trkpt>
      <trkpt lat="48.30015" lon="2.82614">
        <ele>75</ele>
        <time>2023-08-09T11:48:06.151+00:00</time>
      </trkpt>
      <trkpt lat="48.30019" lon="2.82607">
        <ele>75</ele>
        <time>2023-08-09T11:48:10.140+00:00</time>
      </trkpt>
      <trkpt lat="48.30023" lon="2.82599">
        <ele>75</ele>
        <time>2023-08-09T11:48:15.133+00:00</time>
      </trkpt>
      <trkpt lat="48.30026" lon="2.82592">
        <ele>75</ele>
        <time>2023-08-09T11:48:19.140+00:00</time>
      </trkpt>
      <trkpt lat="48.30029" lon="2.82583">
        <ele>75</ele>
        <time>2023-08-09T11:48:24.144+00:00</time>
      </trkpt>
      <trkpt lat="48.30027" lon="2.8258">
        <ele>75</ele>
        <time>2023-08-09T11:48:27.865+00:00</time>
      </trkpt>
      <trkpt lat="48.30025" lon="2.82577">
        <ele>75</ele>
        <time>2023-08-09T11:48:34.092+00:00</time>
      </trkpt>
      <trkpt lat="48.30028" lon="2.82577">
        <ele>75</ele>
        <time>2023-08-09T11:48:39.093+00:00</time>
      </trkpt>
      <trkpt lat="48.30033" lon="2.8257">
        <ele>75</ele>
        <time>2023-08-09T11:48:44.109+00:00</time>
      </trkpt>
      <trkpt lat="48.30038" lon="2.82562">
        <ele>75</ele>
        <time>2023-08-09T11:48:49.105+00:00</time>
      </trkpt>
      <trkpt lat="48.30041" lon="2.82555">
        <ele>75</ele>
        <time>2023-08-09T11:48:53.101+00:00</time>
      </trkpt>
      <trkpt lat="48.30045" lon="2.8255">
        <ele>76</ele>
        <time>2023-08-09T11:48:57.107+00:00</time>
      </trkpt>
      <trkpt lat="48.30049" lon="2.82543">
        <ele>76</ele>
        <time>2023-08-09T11:49:02.104+00:00</time>
      </trkpt>
      <trkpt lat="48.30053" lon="2.82537">
        <ele>76</ele>
        <time>2023-08-09T11:49:06.100+00:00</time>
      </trkpt>
      <trkpt lat="48.30057" lon="2.82529">
        <ele>76</ele>
        <time>2023-08-09T11:49:11.102+00:00</time>
      </trkpt>
      <trkpt lat="48.30061" lon="2.82521">
        <ele>76</ele>
        <time>2023-08-09T11:49:16.100+00:00</time>
      </trkpt>
      <trkpt lat="48.30063" lon="2.82513">
        <ele>76</ele>
        <time>2023-08-09T11:49:21.094+00:00</time>
      </trkpt>
      <trkpt lat="48.30065" lon="2.82506">
        <ele>76</ele>
        <time>2023-08-09T11:49:25.107+00:00</time>
      </trkpt>
      <trkpt lat="48.30066" lon="2.82505">
        <ele>76</ele>
        <time>2023-08-09T11:49:30.103+00:00</time>
      </trkpt>
      <trkpt lat="48.3007" lon="2.82498">
        <ele>78</ele>
        <time>2023-08-09T11:49:35.099+00:00</time>
      </trkpt>
      <trkpt lat="48.30072" lon="2.8249">
        <ele>78</ele>
        <time>2023-08-09T11:49:40.097+00:00</time>
      </trkpt>
      <trkpt lat="48.30073" lon="2.82487">
        <ele>78</ele>
        <time>2023-08-09T11:49:44.114+00:00</time>
      </trkpt>
      <trkpt lat="48.30075" lon="2.82477">
        <ele>78</ele>
        <time>2023-08-09T11:49:49.106+00:00</time>
      </trkpt>
      <trkpt lat="48.30079" lon="2.82467">
        <ele>78</ele>
        <time>2023-08-09T11:49:54.094+00:00</time>
      </trkpt>
      <trkpt lat="48.30078" lon="2.82463">
        <ele>78</ele>
        <time>2023-08-09T11:49:59.093+00:00</time>
      </trkpt>
      <trkpt lat="48.30079" lon="2.82462">
        <ele>78</ele>
        <time>2023-08-09T11:50:03.096+00:00</time>
      </trkpt>
      <trkpt lat="48.30084" lon="2.8246">
        <ele>78</ele>
        <time>2023-08-09T11:50:08.086+00:00</time>
      </trkpt>
      <trkpt lat="48.30089" lon="2.82459">
        <ele>78</ele>
        <time>2023-08-09T11:50:12.098+00:00</time>
      </trkpt>
      <trkpt lat="48.30095" lon="2.82458">
        <ele>77</ele>
        <time>2023-08-09T11:50:17.097+00:00</time>
      </trkpt>
      <trkpt lat="48.30102" lon="2.82458">
        <ele>77</ele>
        <time>2023-08-09T11:50:22.108+00:00</time>
      </trkpt>
      <trkpt lat="48.30105" lon="2.8246">
        <ele>78</ele>
        <time>2023-08-09T11:50:26.097+00:00</time>
      </trkpt>
      <trkpt lat="48.3011" lon="2.82465">
        <ele>78</ele>
        <time>2023-08-09T11:50:31.097+00:00</time>
      </trkpt>
      <trkpt lat="48.30113" lon="2.82472">
        <ele>78</ele>
        <time>2023-08-09T11:50:36.131+00:00</time>
      </trkpt>
      <trkpt lat="48.30118" lon="2.82476">
        <ele>78</ele>
        <time>2023-08-09T11:50:41.090+00:00</time>
      </trkpt>
      <trkpt lat="48.3012" lon="2.82484">
        <ele>78</ele>
        <time>2023-08-09T12:22:53.141+00:00</time>
      </trkpt>
      <trkpt lat="48.30121" lon="2.82484">
        <ele>78</ele>
        <time>2023-08-09T12:22:58.123+00:00</time>
      </trkpt>
      <trkpt lat="48.30117" lon="2.8249">
        <ele>79</ele>
        <time>2023-08-09T12:23:03.145+00:00</time>
      </trkpt>
      <trkpt lat="48.30114" lon="2.82496">
        <ele>79</ele>
        <time>2023-08-09T12:23:08.155+00:00</time>
      </trkpt>
      <trkpt lat="48.30115" lon="2.82503">
        <ele>79</ele>
        <time>2023-08-09T12:23:13.131+00:00</time>
      </trkpt>
      <trkpt lat="48.30119" lon="2.82491">
        <ele>79</ele>
        <time>2023-08-09T12:24:42.134+00:00</time>
      </trkpt>
      <trkpt lat="48.30119" lon="2.82488">
        <ele>79</ele>
        <time>2023-08-09T12:24:47.130+00:00</time>
      </trkpt>
      <trkpt lat="48.30119" lon="2.82487">
        <ele>79</ele>
        <time>2023-08-09T12:24:51.140+00:00</time>
      </trkpt>
      <trkpt lat="48.30119" lon="2.82486">
        <ele>78</ele>
        <time>2023-08-09T12:24:56.136+00:00</time>
      </trkpt>
      <trkpt lat="48.30119" lon="2.82483">
        <ele>78</ele>
        <time>2023-08-09T12:25:01.139+00:00</time>
      </trkpt>
      <trkpt lat="48.30123" lon="2.8248">
        <ele>78</ele>
        <time>2023-08-09T12:27:23.103+00:00</time>
      </trkpt>
      <trkpt lat="48.30124" lon="2.82479">
        <ele>78</ele>
        <time>2023-08-09T12:27:27.126+00:00</time>
      </trkpt>
      <trkpt lat="48.30125" lon="2.82473">
        <ele>78</ele>
        <time>2023-08-09T12:27:31.122+00:00</time>
      </trkpt>
      <trkpt lat="48.30126" lon="2.82466">
        <ele>76</ele>
        <time>2023-08-09T12:27:36.146+00:00</time>
      </trkpt>
      <trkpt lat="48.30126" lon="2.82465">
        <ele>76</ele>
        <time>2023-08-09T12:27:41.125+00:00</time>
      </trkpt>
      <trkpt lat="48.30127" lon="2.82463">
        <ele>76</ele>
        <time>2023-08-09T12:28:33.128+00:00</time>
      </trkpt>
      <trkpt lat="48.3012" lon="2.82465">
        <ele>78</ele>
        <time>2023-08-09T12:28:38.101+00:00</time>
      </trkpt>
      <trkpt lat="48.30115" lon="2.82465">
        <ele>78</ele>
        <time>2023-08-09T12:28:43.122+00:00</time>
      </trkpt>
      <trkpt lat="48.3011" lon="2.82466">
        <ele>78</ele>
        <time>2023-08-09T12:28:47.116+00:00</time>
      </trkpt>
      <trkpt lat="48.30107" lon="2.82465">
        <ele>78</ele>
        <time>2023-08-09T12:28:51.130+00:00</time>
      </trkpt>
      <trkpt lat="48.30101" lon="2.82463">
        <ele>78</ele>
        <time>2023-08-09T12:28:56.132+00:00</time>
      </trkpt>
      <trkpt lat="48.30095" lon="2.82464">
        <ele>78</ele>
        <time>2023-08-09T12:29:01.121+00:00</time>
      </trkpt>
      <trkpt lat="48.30089" lon="2.82465">
        <ele>78</ele>
        <time>2023-08-09T12:29:06.092+00:00</time>
      </trkpt>
      <trkpt lat="48.30088" lon="2.82472">
        <ele>78</ele>
        <time>2023-08-09T12:29:10.102+00:00</time>
      </trkpt>
      <trkpt lat="48.30089" lon="2.82476">
        <ele>78</ele>
        <time>2023-08-09T12:29:15.083+00:00</time>
      </trkpt>
      <trkpt lat="48.30086" lon="2.82472">
        <ele>78</ele>
        <time>2023-08-09T12:29:19.092+00:00</time>
      </trkpt>
      <trkpt lat="48.30081" lon="2.8247">
        <ele>78</ele>
        <time>2023-08-09T12:29:23.089+00:00</time>
      </trkpt>
      <trkpt lat="48.30075" lon="2.82467">
        <ele>78</ele>
        <time>2023-08-09T12:29:27.094+00:00</time>
      </trkpt>
      <trkpt lat="48.30073" lon="2.82466">
        <ele>78</ele>
        <time>2023-08-09T12:29:31.096+00:00</time>
      </trkpt>
      <trkpt lat="48.30068" lon="2.82467">
        <ele>77</ele>
        <time>2023-08-09T12:29:36.103+00:00</time>
      </trkpt>
      <trkpt lat="48.30062" lon="2.82469">
        <ele>77</ele>
        <time>2023-08-09T12:29:40.102+00:00</time>
      </trkpt>
      <trkpt lat="48.30061" lon="2.82469">
        <ele>77</ele>
        <time>2023-08-09T12:29:44.118+00:00</time>
      </trkpt>
      <trkpt lat="48.30062" lon="2.82468">
        <ele>77</ele>
        <time>2023-08-09T12:29:48.109+00:00</time>
      </trkpt>
      <trkpt lat="48.30066" lon="2.82466">
        <ele>77</ele>
        <time>2023-08-09T12:29:53.112+00:00</time>
      </trkpt>
      <trkpt lat="48.30073" lon="2.82463">
        <ele>78</ele>
        <time>2023-08-09T12:29:58.100+00:00</time>
      </trkpt>
      <trkpt lat="48.30077" lon="2.82462">
        <ele>78</ele>
        <time>2023-08-09T12:30:02.108+00:00</time>
      </trkpt>
      <trkpt lat="48.30082" lon="2.82459">
        <ele>78</ele>
        <time>2023-08-09T12:30:07.110+00:00</time>
      </trkpt>
      <trkpt lat="48.30082" lon="2.82452">
        <ele>77</ele>
        <time>2023-08-09T12:30:12.114+00:00</time>
      </trkpt>
      <trkpt lat="48.3008" lon="2.82442">
        <ele>77</ele>
        <time>2023-08-09T12:30:17.136+00:00</time>
      </trkpt>
      <trkpt lat="48.30077" lon="2.82433">
        <ele>77</ele>
        <time>2023-08-09T12:30:22.116+00:00</time>
      </trkpt>
      <trkpt lat="48.30073" lon="2.82429">
        <ele>77</ele>
        <time>2023-08-09T12:30:27.114+00:00</time>
      </trkpt>
      <trkpt lat="48.30072" lon="2.8243">
        <ele>77</ele>
        <time>2023-08-09T12:30:31.118+00:00</time>
      </trkpt>
      <trkpt lat="48.30067" lon="2.82433">
        <ele>77</ele>
        <time>2023-08-09T12:30:36.131+00:00</time>
      </trkpt>
      <trkpt lat="48.30063" lon="2.82438">
        <ele>77</ele>
        <time>2023-08-09T12:30:41.106+00:00</time>
      </trkpt>
      <trkpt lat="48.30066" lon="2.82436">
        <ele>77</ele>
        <time>2023-08-09T12:30:45.111+00:00</time>
      </trkpt>
      <trkpt lat="48.30072" lon="2.82429">
        <ele>77</ele>
        <time>2023-08-09T12:30:50.118+00:00</time>
      </trkpt>
      <trkpt lat="48.30076" lon="2.82422">
        <ele>77</ele>
        <time>2023-08-09T12:30:55.096+00:00</time>
      </trkpt>
      <trkpt lat="48.30076" lon="2.82421">
        <ele>77</ele>
        <time>2023-08-09T12:31:00.097+00:00</time>
      </trkpt>
      <trkpt lat="48.30075" lon="2.82422">
        <ele>77</ele>
        <time>2023-08-09T12:31:05.099+00:00</time>
      </trkpt>
      <trkpt lat="48.30075" lon="2.82422">
        <ele>77</ele>
        <time>2023-08-09T12:31:10.110+00:00</time>
      </trkpt>
      <trkpt lat="48.30075" lon="2.82424">
        <ele>77</ele>
        <time>2023-08-09T12:31:15.115+00:00</time>
      </trkpt>
      <trkpt lat="48.30069" lon="2.82429">
        <ele>77</ele>
        <time>2023-08-09T12:31:20.147+00:00</time>
      </trkpt>
      <trkpt lat="48.30066" lon="2.82426">
        <ele>77</ele>
        <time>2023-08-09T12:31:25.112+00:00</time>
      </trkpt>
      <trkpt lat="48.30064" lon="2.82419">
        <ele>77</ele>
        <time>2023-08-09T12:31:30.142+00:00</time>
      </trkpt>
      <trkpt lat="48.30062" lon="2.82411">
        <ele>77</ele>
        <time>2023-08-09T12:31:35.113+00:00</time>
      </trkpt>
      <trkpt lat="48.30058" lon="2.82404">
        <ele>77</ele>
        <time>2023-08-09T12:31:40.108+00:00</time>
      </trkpt>
      <trkpt lat="48.30056" lon="2.82394">
        <ele>77</ele>
        <time>2023-08-09T12:31:45.122+00:00</time>
      </trkpt>
      <trkpt lat="48.30054" lon="2.82385">
        <ele>77</ele>
        <time>2023-08-09T12:31:50.137+00:00</time>
      </trkpt>
      <trkpt lat="48.30053" lon="2.82376">
        <ele>77</ele>
        <time>2023-08-09T12:31:55.107+00:00</time>
      </trkpt>
      <trkpt lat="48.30051" lon="2.82368">
        <ele>77</ele>
        <time>2023-08-09T12:31:59.116+00:00</time>
      </trkpt>
      <trkpt lat="48.30049" lon="2.82358">
        <ele>77</ele>
        <time>2023-08-09T12:32:04.150+00:00</time>
      </trkpt>
      <trkpt lat="48.30047" lon="2.82351">
        <ele>77</ele>
        <time>2023-08-09T12:32:09.160+00:00</time>
      </trkpt>
      <trkpt lat="48.30045" lon="2.82346">
        <ele>76</ele>
        <time>2023-08-09T12:32:14.142+00:00</time>
      </trkpt>
      <trkpt lat="48.30042" lon="2.82338">
        <ele>76</ele>
        <time>2023-08-09T12:32:19.101+00:00</time>
      </trkpt>
      <trkpt lat="48.30042" lon="2.82332">
        <ele>76</ele>
        <time>2023-08-09T12:32:24.097+00:00</time>
      </trkpt>
      <trkpt lat="48.3004" lon="2.82327">
        <ele>75</ele>
        <time>2023-08-09T12:32:28.095+00:00</time>
      </trkpt>
      <trkpt lat="48.30039" lon="2.82318">
        <ele>75</ele>
        <time>2023-08-09T12:32:33.089+00:00</time>
      </trkpt>
      <trkpt lat="48.30037" lon="2.82312">
        <ele>75</ele>
        <time>2023-08-09T12:32:37.097+00:00</time>
      </trkpt>
      <trkpt lat="48.30036" lon="2.82306">
        <ele>75</ele>
        <time>2023-08-09T12:32:41.099+00:00</time>
      </trkpt>
      <trkpt lat="48.30034" lon="2.82298">
        <ele>75</ele>
        <time>2023-08-09T12:32:46.098+00:00</time>
      </trkpt>
      <trkpt lat="48.30033" lon="2.82289">
        <ele>76</ele>
        <time>2023-08-09T12:32:51.095+00:00</time>
      </trkpt>
      <trkpt lat="48.30031" lon="2.82281">
        <ele>76</ele>
        <time>2023-08-09T12:32:56.106+00:00</time>
      </trkpt>
      <trkpt lat="48.3003" lon="2.82272">
        <ele>76</ele>
        <time>2023-08-09T12:33:01.095+00:00</time>
      </trkpt>
      <trkpt lat="48.30029" lon="2.82265">
        <ele>76</ele>
        <time>2023-08-09T12:33:05.097+00:00</time>
      </trkpt>
      <trkpt lat="48.30027" lon="2.82258">
        <ele>77</ele>
        <time>2023-08-09T12:33:09.100+00:00</time>
      </trkpt>
      <trkpt lat="48.30026" lon="2.82251">
        <ele>77</ele>
        <time>2023-08-09T12:33:14.091+00:00</time>
      </trkpt>
      <trkpt lat="48.30025" lon="2.82243">
        <ele>77</ele>
        <time>2023-08-09T12:33:18.130+00:00</time>
      </trkpt>
      <trkpt lat="48.30024" lon="2.82238">
        <ele>77</ele>
        <time>2023-08-09T12:33:22.130+00:00</time>
      </trkpt>
      <trkpt lat="48.30022" lon="2.82231">
        <ele>76</ele>
        <time>2023-08-09T12:33:27.105+00:00</time>
      </trkpt>
      <trkpt lat="48.30021" lon="2.82225">
        <ele>76</ele>
        <time>2023-08-09T12:33:31.120+00:00</time>
      </trkpt>
      <trkpt lat="48.30019" lon="2.82216">
        <ele>76</ele>
        <time>2023-08-09T12:33:36.107+00:00</time>
      </trkpt>
      <trkpt lat="48.30017" lon="2.82208">
        <ele>76</ele>
        <time>2023-08-09T12:33:40.119+00:00</time>
      </trkpt>
      <trkpt lat="48.30014" lon="2.82202">
        <ele>75</ele>
        <time>2023-08-09T12:33:44.122+00:00</time>
      </trkpt>
      <trkpt lat="48.30011" lon="2.82194">
        <ele>75</ele>
        <time>2023-08-09T12:33:49.114+00:00</time>
      </trkpt>
      <trkpt lat="48.30009" lon="2.82186">
        <ele>75</ele>
        <time>2023-08-09T12:33:53.133+00:00</time>
      </trkpt>
      <trkpt lat="48.30007" lon="2.82178">
        <ele>74</ele>
        <time>2023-08-09T12:33:58.148+00:00</time>
      </trkpt>
      <trkpt lat="48.30006" lon="2.82171">
        <ele>74</ele>
        <time>2023-08-09T12:34:02.126+00:00</time>
      </trkpt>
      <trkpt lat="48.30006" lon="2.82163">
        <ele>74</ele>
        <time>2023-08-09T12:34:07.128+00:00</time>
      </trkpt>
      <trkpt lat="48.30004" lon="2.82153">
        <ele>74</ele>
        <time>2023-08-09T12:34:12.134+00:00</time>
      </trkpt>
      <trkpt lat="48.30003" lon="2.82145">
        <ele>73</ele>
        <time>2023-08-09T12:34:16.123+00:00</time>
      </trkpt>
      <trkpt lat="48.30002" lon="2.82137">
        <ele>73</ele>
        <time>2023-08-09T12:34:21.136+00:00</time>
      </trkpt>
      <trkpt lat="48.3" lon="2.82128">
        <ele>73</ele>
        <time>2023-08-09T12:34:26.128+00:00</time>
      </trkpt>
      <trkpt lat="48.29999" lon="2.82117">
        <ele>73</ele>
        <time>2023-08-09T12:34:31.126+00:00</time>
      </trkpt>
      <trkpt lat="48.29997" lon="2.82109">
        <ele>73</ele>
        <time>2023-08-09T12:34:35.128+00:00</time>
      </trkpt>
      <trkpt lat="48.29995" lon="2.82098">
        <ele>73</ele>
        <time>2023-08-09T12:34:40.129+00:00</time>
      </trkpt>
      <trkpt lat="48.29993" lon="2.8209">
        <ele>72</ele>
        <time>2023-08-09T12:34:44.135+00:00</time>
      </trkpt>
      <trkpt lat="48.29992" lon="2.82084">
        <ele>72</ele>
        <time>2023-08-09T12:34:48.133+00:00</time>
      </trkpt>
      <trkpt lat="48.29991" lon="2.82074">
        <ele>72</ele>
        <time>2023-08-09T12:34:53.136+00:00</time>
      </trkpt>
      <trkpt lat="48.29989" lon="2.82066">
        <ele>72</ele>
        <time>2023-08-09T12:34:57.144+00:00</time>
      </trkpt>
      <trkpt lat="48.29987" lon="2.82056">
        <ele>72</ele>
        <time>2023-08-09T12:35:02.128+00:00</time>
      </trkpt>
      <trkpt lat="48.29985" lon="2.82046">
        <ele>72</ele>
        <time>2023-08-09T12:35:07.134+00:00</time>
      </trkpt>
      <trkpt lat="48.29984" lon="2.82037">
        <ele>72</ele>
        <time>2023-08-09T12:35:12.137+00:00</time>
      </trkpt>
      <trkpt lat="48.29983" lon="2.8203">
        <ele>72</ele>
        <time>2023-08-09T12:35:16.128+00:00</time>
      </trkpt>
      <trkpt lat="48.29981" lon="2.82023">
        <ele>72</ele>
        <time>2023-08-09T12:35:20.126+00:00</time>
      </trkpt>
      <trkpt lat="48.2998" lon="2.82016">
        <ele>72</ele>
        <time>2023-08-09T12:35:24.139+00:00</time>
      </trkpt>
      <trkpt lat="48.29979" lon="2.82008">
        <ele>71</ele>
        <time>2023-08-09T12:35:28.150+00:00</time>
      </trkpt>
      <trkpt lat="48.29978" lon="2.82">
        <ele>71</ele>
        <time>2023-08-09T12:35:33.129+00:00</time>
      </trkpt>
      <trkpt lat="48.29977" lon="2.81993">
        <ele>71</ele>
        <time>2023-08-09T12:35:37.144+00:00</time>
      </trkpt>
      <trkpt lat="48.29975" lon="2.81984">
        <ele>71</ele>
        <time>2023-08-09T12:35:42.116+00:00</time>
      </trkpt>
      <trkpt lat="48.29975" lon="2.81975">
        <ele>71</ele>
        <time>2023-08-09T12:35:47.118+00:00</time>
      </trkpt>
      <trkpt lat="48.29974" lon="2.81969">
        <ele>71</ele>
        <time>2023-08-09T12:35:52.108+00:00</time>
      </trkpt>
      <trkpt lat="48.29974" lon="2.81966">
        <ele>71</ele>
        <time>2023-08-09T12:35:56.135+00:00</time>
      </trkpt>
      <trkpt lat="48.29973" lon="2.81957">
        <ele>71</ele>
        <time>2023-08-09T12:36:01.115+00:00</time>
      </trkpt>
      <trkpt lat="48.29971" lon="2.81951">
        <ele>71</ele>
        <time>2023-08-09T12:36:05.144+00:00</time>
      </trkpt>
      <trkpt lat="48.2997" lon="2.81943">
        <ele>71</ele>
        <time>2023-08-09T12:36:10.118+00:00</time>
      </trkpt>
      <trkpt lat="48.29969" lon="2.81936">
        <ele>71</ele>
        <time>2023-08-09T12:36:14.115+00:00</time>
      </trkpt>
      <trkpt lat="48.29968" lon="2.81929">
        <ele>72</ele>
        <time>2023-08-09T12:36:18.141+00:00</time>
      </trkpt>
      <trkpt lat="48.29967" lon="2.81918">
        <ele>72</ele>
        <time>2023-08-09T12:36:23.132+00:00</time>
      </trkpt>
      <trkpt lat="48.29966" lon="2.81913">
        <ele>72</ele>
        <time>2023-08-09T12:36:28.128+00:00</time>
      </trkpt>
      <trkpt lat="48.29965" lon="2.81904">
        <ele>72</ele>
        <time>2023-08-09T12:36:33.112+00:00</time>
      </trkpt>
      <trkpt lat="48.29964" lon="2.81896">
        <ele>73</ele>
        <time>2023-08-09T12:36:37.134+00:00</time>
      </trkpt>
      <trkpt lat="48.29963" lon="2.81888">
        <ele>73</ele>
        <time>2023-08-09T12:36:41.132+00:00</time>
      </trkpt>
      <trkpt lat="48.29961" lon="2.8188">
        <ele>73</ele>
        <time>2023-08-09T12:36:46.137+00:00</time>
      </trkpt>
      <trkpt lat="48.2996" lon="2.81871">
        <ele>73</ele>
        <time>2023-08-09T12:36:51.134+00:00</time>
      </trkpt>
      <trkpt lat="48.29959" lon="2.81863">
        <ele>73</ele>
        <time>2023-08-09T12:36:56.134+00:00</time>
      </trkpt>
      <trkpt lat="48.29957" lon="2.81854">
        <ele>72</ele>
        <time>2023-08-09T12:37:01.138+00:00</time>
      </trkpt>
      <trkpt lat="48.29956" lon="2.81845">
        <ele>72</ele>
        <time>2023-08-09T12:37:06.135+00:00</time>
      </trkpt>
      <trkpt lat="48.29955" lon="2.81837">
        <ele>72</ele>
        <time>2023-08-09T12:37:11.146+00:00</time>
      </trkpt>
      <trkpt lat="48.29953" lon="2.81828">
        <ele>72</ele>
        <time>2023-08-09T12:37:16.142+00:00</time>
      </trkpt>
      <trkpt lat="48.29952" lon="2.8182">
        <ele>72</ele>
        <time>2023-08-09T12:37:21.144+00:00</time>
      </trkpt>
      <trkpt lat="48.2995" lon="2.81811">
        <ele>73</ele>
        <time>2023-08-09T12:37:26.122+00:00</time>
      </trkpt>
      <trkpt lat="48.29949" lon="2.81805">
        <ele>73</ele>
        <time>2023-08-09T12:37:30.125+00:00</time>
      </trkpt>
      <trkpt lat="48.29948" lon="2.81797">
        <ele>73</ele>
        <time>2023-08-09T12:37:35.125+00:00</time>
      </trkpt>
      <trkpt lat="48.29946" lon="2.81787">
        <ele>73</ele>
        <time>2023-08-09T12:37:40.134+00:00</time>
      </trkpt>
      <trkpt lat="48.29944" lon="2.81778">
        <ele>73</ele>
        <time>2023-08-09T12:37:45.116+00:00</time>
      </trkpt>
      <trkpt lat="48.29943" lon="2.8177">
        <ele>73</ele>
        <time>2023-08-09T12:37:49.142+00:00</time>
      </trkpt>
      <trkpt lat="48.29941" lon="2.81761">
        <ele>74</ele>
        <time>2023-08-09T12:37:54.143+00:00</time>
      </trkpt>
      <trkpt lat="48.2994" lon="2.81753">
        <ele>74</ele>
        <time>2023-08-09T12:37:59.130+00:00</time>
      </trkpt>
      <trkpt lat="48.29939" lon="2.81746">
        <ele>74</ele>
        <time>2023-08-09T12:38:03.132+00:00</time>
      </trkpt>
      <trkpt lat="48.29938" lon="2.81739">
        <ele>74</ele>
        <time>2023-08-09T12:38:07.138+00:00</time>
      </trkpt>
      <trkpt lat="48.29937" lon="2.81731">
        <ele>73</ele>
        <time>2023-08-09T12:38:12.123+00:00</time>
      </trkpt>
      <trkpt lat="48.29936" lon="2.81723">
        <ele>73</ele>
        <time>2023-08-09T12:38:17.117+00:00</time>
      </trkpt>
      <trkpt lat="48.29935" lon="2.81716">
        <ele>73</ele>
        <time>2023-08-09T12:38:21.129+00:00</time>
      </trkpt>
      <trkpt lat="48.29933" lon="2.8171">
        <ele>73</ele>
        <time>2023-08-09T12:38:25.140+00:00</time>
      </trkpt>
      <trkpt lat="48.29932" lon="2.81703">
        <ele>73</ele>
        <time>2023-08-09T12:38:29.135+00:00</time>
      </trkpt>
      <trkpt lat="48.29931" lon="2.81695">
        <ele>73</ele>
        <time>2023-08-09T12:38:34.115+00:00</time>
      </trkpt>
      <trkpt lat="48.2993" lon="2.81689">
        <ele>73</ele>
        <time>2023-08-09T12:38:38.134+00:00</time>
      </trkpt>
      <trkpt lat="48.29928" lon="2.81679">
        <ele>72</ele>
        <time>2023-08-09T12:38:43.120+00:00</time>
      </trkpt>
      <trkpt lat="48.29927" lon="2.8167">
        <ele>72</ele>
        <time>2023-08-09T12:38:48.136+00:00</time>
      </trkpt>
      <trkpt lat="48.29926" lon="2.81661">
        <ele>72</ele>
        <time>2023-08-09T12:38:53.137+00:00</time>
      </trkpt>
      <trkpt lat="48.29924" lon="2.81652">
        <ele>72</ele>
        <time>2023-08-09T12:38:58.133+00:00</time>
      </trkpt>
      <trkpt lat="48.29924" lon="2.81644">
        <ele>72</ele>
        <time>2023-08-09T12:39:02.133+00:00</time>
      </trkpt>
      <trkpt lat="48.29923" lon="2.81638">
        <ele>72</ele>
        <time>2023-08-09T12:39:07.130+00:00</time>
      </trkpt>
      <trkpt lat="48.29921" lon="2.81632">
        <ele>72</ele>
        <time>2023-08-09T12:39:11.140+00:00</time>
      </trkpt>
      <trkpt lat="48.29921" lon="2.81624">
        <ele>73</ele>
        <time>2023-08-09T12:39:16.131+00:00</time>
      </trkpt>
      <trkpt lat="48.29919" lon="2.81617">
        <ele>73</ele>
        <time>2023-08-09T12:39:20.132+00:00</time>
      </trkpt>
      <trkpt lat="48.29918" lon="2.81609">
        <ele>73</ele>
        <time>2023-08-09T12:39:25.143+00:00</time>
      </trkpt>
      <trkpt lat="48.29917" lon="2.81602">
        <ele>73</ele>
        <time>2023-08-09T12:39:30.127+00:00</time>
      </trkpt>
      <trkpt lat="48.29916" lon="2.81594">
        <ele>74</ele>
        <time>2023-08-09T12:39:35.131+00:00</time>
      </trkpt>
      <trkpt lat="48.29916" lon="2.81586">
        <ele>74</ele>
        <time>2023-08-09T12:39:40.141+00:00</time>
      </trkpt>
      <trkpt lat="48.29914" lon="2.8158">
        <ele>74</ele>
        <time>2023-08-09T12:39:44.148+00:00</time>
      </trkpt>
      <trkpt lat="48.29914" lon="2.81575">
        <ele>74</ele>
        <time>2023-08-09T12:39:48.147+00:00</time>
      </trkpt>
      <trkpt lat="48.29913" lon="2.81567">
        <ele>74</ele>
        <time>2023-08-09T12:39:53.119+00:00</time>
      </trkpt>
      <trkpt lat="48.29912" lon="2.81563">
        <ele>74</ele>
        <time>2023-08-09T12:39:57.127+00:00</time>
      </trkpt>
      <trkpt lat="48.29912" lon="2.81558">
        <ele>74</ele>
        <time>2023-08-09T12:40:02.134+00:00</time>
      </trkpt>
      <trkpt lat="48.29911" lon="2.8155">
        <ele>74</ele>
        <time>2023-08-09T12:40:07.119+00:00</time>
      </trkpt>
      <trkpt lat="48.2991" lon="2.81541">
        <ele>75</ele>
        <time>2023-08-09T12:40:12.118+00:00</time>
      </trkpt>
      <trkpt lat="48.29908" lon="2.81532">
        <ele>75</ele>
        <time>2023-08-09T12:40:17.107+00:00</time>
      </trkpt>
      <trkpt lat="48.29906" lon="2.81523">
        <ele>75</ele>
        <time>2023-08-09T12:40:22.132+00:00</time>
      </trkpt>
      <trkpt lat="48.29904" lon="2.81514">
        <ele>75</ele>
        <time>2023-08-09T12:40:27.124+00:00</time>
      </trkpt>
      <trkpt lat="48.29903" lon="2.81508">
        <ele>74</ele>
        <time>2023-08-09T12:40:31.120+00:00</time>
      </trkpt>
      <trkpt lat="48.29902" lon="2.81499">
        <ele>75</ele>
        <time>2023-08-09T12:40:35.129+00:00</time>
      </trkpt>
      <trkpt lat="48.29901" lon="2.8149">
        <ele>75</ele>
        <time>2023-08-09T12:40:40.112+00:00</time>
      </trkpt>
      <trkpt lat="48.299" lon="2.81482">
        <ele>74</ele>
        <time>2023-08-09T12:40:44.140+00:00</time>
      </trkpt>
      <trkpt lat="48.29899" lon="2.81473">
        <ele>74</ele>
        <time>2023-08-09T12:40:48.121+00:00</time>
      </trkpt>
      <trkpt lat="48.299" lon="2.81467">
        <ele>74</ele>
        <time>2023-08-09T12:40:53.123+00:00</time>
      </trkpt>
      <trkpt lat="48.29903" lon="2.81457">
        <ele>71</ele>
        <time>2023-08-09T12:40:58.144+00:00</time>
      </trkpt>
      <trkpt lat="48.29908" lon="2.81451">
        <ele>71</ele>
        <time>2023-08-09T12:41:03.132+00:00</time>
      </trkpt>
      <trkpt lat="48.29913" lon="2.81451">
        <ele>71</ele>
        <time>2023-08-09T12:41:08.098+00:00</time>
      </trkpt>
      <trkpt lat="48.29919" lon="2.81451">
        <ele>71</ele>
        <time>2023-08-09T12:41:13.103+00:00</time>
      </trkpt>
      <trkpt lat="48.29924" lon="2.81451">
        <ele>71</ele>
        <time>2023-08-09T12:41:17.111+00:00</time>
      </trkpt>
      <trkpt lat="48.29929" lon="2.81452">
        <ele>71</ele>
        <time>2023-08-09T12:41:21.101+00:00</time>
      </trkpt>
      <trkpt lat="48.29933" lon="2.81454">
        <ele>68</ele>
        <time>2023-08-09T12:41:25.140+00:00</time>
      </trkpt>
      <trkpt lat="48.29939" lon="2.81454">
        <ele>68</ele>
        <time>2023-08-09T12:41:29.135+00:00</time>
      </trkpt>
      <trkpt lat="48.29944" lon="2.81455">
        <ele>68</ele>
        <time>2023-08-09T12:41:34.107+00:00</time>
      </trkpt>
      <trkpt lat="48.29949" lon="2.81455">
        <ele>68</ele>
        <time>2023-08-09T12:41:58.134+00:00</time>
      </trkpt>
      <trkpt lat="48.29949" lon="2.81455">
        <ele>68</ele>
        <time>2023-08-09T12:42:03.103+00:00</time>
      </trkpt>
      <trkpt lat="48.29951" lon="2.81457">
        <ele>68</ele>
        <time>2023-08-09T12:42:08.096+00:00</time>
      </trkpt>
      <trkpt lat="48.29955" lon="2.81458">
        <ele>68</ele>
        <time>2023-08-09T12:42:12.122+00:00</time>
      </trkpt>
      <trkpt lat="48.29961" lon="2.81459">
        <ele>69</ele>
        <time>2023-08-09T12:42:17.133+00:00</time>
      </trkpt>
      <trkpt lat="48.29965" lon="2.81459">
        <ele>69</ele>
        <time>2023-08-09T12:42:21.131+00:00</time>
      </trkpt>
      <trkpt lat="48.29971" lon="2.8146">
        <ele>69</ele>
        <time>2023-08-09T12:42:26.124+00:00</time>
      </trkpt>
      <trkpt lat="48.29976" lon="2.8146">
        <ele>69</ele>
        <time>2023-08-09T12:42:30.132+00:00</time>
      </trkpt>
      <trkpt lat="48.29983" lon="2.81462">
        <ele>69</ele>
        <time>2023-08-09T12:42:35.123+00:00</time>
      </trkpt>
      <trkpt lat="48.29988" lon="2.81464">
        <ele>68</ele>
        <time>2023-08-09T12:42:39.135+00:00</time>
      </trkpt>
      <trkpt lat="48.29995" lon="2.81466">
        <ele>68</ele>
        <time>2023-08-09T12:42:44.148+00:00</time>
      </trkpt>
      <trkpt lat="48.30002" lon="2.81467">
        <ele>68</ele>
        <time>2023-08-09T12:42:49.133+00:00</time>
      </trkpt>
      <trkpt lat="48.30008" lon="2.81468">
        <ele>68</ele>
        <time>2023-08-09T12:42:54.132+00:00</time>
      </trkpt>
      <trkpt lat="48.30014" lon="2.81469">
        <ele>68</ele>
        <time>2023-08-09T12:42:58.135+00:00</time>
      </trkpt>
      <trkpt lat="48.30019" lon="2.8147">
        <ele>67</ele>
        <time>2023-08-09T12:43:02.149+00:00</time>
      </trkpt>
      <trkpt lat="48.30025" lon="2.81472">
        <ele>67</ele>
        <time>2023-08-09T12:43:07.138+00:00</time>
      </trkpt>
      <trkpt lat="48.30032" lon="2.81473">
        <ele>67</ele>
        <time>2023-08-09T12:43:12.120+00:00</time>
      </trkpt>
      <trkpt lat="48.30038" lon="2.81474">
        <ele>67</ele>
        <time>2023-08-09T12:43:17.129+00:00</time>
      </trkpt>
      <trkpt lat="48.30045" lon="2.81475">
        <ele>66</ele>
        <time>2023-08-09T12:43:22.140+00:00</time>
      </trkpt>
      <trkpt lat="48.30051" lon="2.81476">
        <ele>66</ele>
        <time>2023-08-09T12:43:26.131+00:00</time>
      </trkpt>
      <trkpt lat="48.30057" lon="2.81477">
        <ele>66</ele>
        <time>2023-08-09T12:43:31.148+00:00</time>
      </trkpt>
      <trkpt lat="48.30063" lon="2.81479">
        <ele>66</ele>
        <time>2023-08-09T12:43:36.127+00:00</time>
      </trkpt>
      <trkpt lat="48.30068" lon="2.81479">
        <ele>66</ele>
        <time>2023-08-09T12:43:40.149+00:00</time>
      </trkpt>
      <trkpt lat="48.30073" lon="2.8148">
        <ele>66</ele>
        <time>2023-08-09T12:43:44.143+00:00</time>
      </trkpt>
      <trkpt lat="48.30079" lon="2.81481">
        <ele>66</ele>
        <time>2023-08-09T12:43:49.145+00:00</time>
      </trkpt>
      <trkpt lat="48.30086" lon="2.81482">
        <ele>66</ele>
        <time>2023-08-09T12:43:54.137+00:00</time>
      </trkpt>
      <trkpt lat="48.30091" lon="2.81483">
        <ele>66</ele>
        <time>2023-08-09T12:43:59.156+00:00</time>
      </trkpt>
      <trkpt lat="48.30098" lon="2.81485">
        <ele>65</ele>
        <time>2023-08-09T12:44:04.152+00:00</time>
      </trkpt>
      <trkpt lat="48.30104" lon="2.81486">
        <ele>65</ele>
        <time>2023-08-09T12:44:09.144+00:00</time>
      </trkpt>
      <trkpt lat="48.30111" lon="2.81487">
        <ele>65</ele>
        <time>2023-08-09T12:44:14.128+00:00</time>
      </trkpt>
      <trkpt lat="48.30115" lon="2.81488">
        <ele>65</ele>
        <time>2023-08-09T12:44:18.133+00:00</time>
      </trkpt>
      <trkpt lat="48.30121" lon="2.81489">
        <ele>65</ele>
        <time>2023-08-09T12:44:23.122+00:00</time>
      </trkpt>
      <trkpt lat="48.30126" lon="2.8149">
        <ele>64</ele>
        <time>2023-08-09T12:44:27.129+00:00</time>
      </trkpt>
      <trkpt lat="48.30132" lon="2.81491">
        <ele>64</ele>
        <time>2023-08-09T12:44:32.123+00:00</time>
      </trkpt>
      <trkpt lat="48.30136" lon="2.81491">
        <ele>64</ele>
        <time>2023-08-09T12:44:36.139+00:00</time>
      </trkpt>
      <trkpt lat="48.30141" lon="2.81489">
        <ele>64</ele>
        <time>2023-08-09T12:44:40.136+00:00</time>
      </trkpt>
      <trkpt lat="48.30145" lon="2.81481">
        <ele>65</ele>
        <time>2023-08-09T12:44:45.135+00:00</time>
      </trkpt>
      <trkpt lat="48.30143" lon="2.81459">
        <ele>65</ele>
        <time>2023-08-09T12:45:31.127+00:00</time>
      </trkpt>
      <trkpt lat="48.30143" lon="2.81459">
        <ele>65</ele>
        <time>2023-08-09T12:45:35.157+00:00</time>
      </trkpt>
      <trkpt lat="48.30143" lon="2.81459">
        <ele>65</ele>
        <time>2023-08-09T12:45:40.128+00:00</time>
      </trkpt>
      <trkpt lat="48.30144" lon="2.81459">
        <ele>65</ele>
        <time>2023-08-09T12:45:45.129+00:00</time>
      </trkpt>
      <trkpt lat="48.30143" lon="2.81451">
        <ele>65</ele>
        <time>2023-08-09T12:45:50.116+00:00</time>
      </trkpt>
      <trkpt lat="48.30144" lon="2.81446">
        <ele>65</ele>
        <time>2023-08-09T12:45:55.094+00:00</time>
      </trkpt>
      <trkpt lat="48.30142" lon="2.81436">
        <ele>65</ele>
        <time>2023-08-09T12:45:59.104+00:00</time>
      </trkpt>
      <trkpt lat="48.30141" lon="2.81429">
        <ele>65</ele>
        <time>2023-08-09T12:46:03.143+00:00</time>
      </trkpt>
      <trkpt lat="48.3014" lon="2.81422">
        <ele>65</ele>
        <time>2023-08-09T12:46:07.140+00:00</time>
      </trkpt>
      <trkpt lat="48.30138" lon="2.81412">
        <ele>65</ele>
        <time>2023-08-09T12:46:12.144+00:00</time>
      </trkpt>
      <trkpt lat="48.30138" lon="2.81404">
        <ele>65</ele>
        <time>2023-08-09T12:46:17.107+00:00</time>
      </trkpt>
      <trkpt lat="48.30136" lon="2.81396">
        <ele>65</ele>
        <time>2023-08-09T12:46:21.142+00:00</time>
      </trkpt>
      <trkpt lat="48.30134" lon="2.81388">
        <ele>65</ele>
        <time>2023-08-09T12:46:26.133+00:00</time>
      </trkpt>
      <trkpt lat="48.30134" lon="2.81381">
        <ele>65</ele>
        <time>2023-08-09T12:46:30.145+00:00</time>
      </trkpt>
      <trkpt lat="48.30132" lon="2.81372">
        <ele>66</ele>
        <time>2023-08-09T12:46:35.130+00:00</time>
      </trkpt>
      <trkpt lat="48.30132" lon="2.81365">
        <ele>66</ele>
        <time>2023-08-09T12:46:39.169+00:00</time>
      </trkpt>
      <trkpt lat="48.3013" lon="2.81356">
        <ele>66</ele>
        <time>2023-08-09T12:46:44.128+00:00</time>
      </trkpt>
      <trkpt lat="48.30129" lon="2.81347">
        <ele>66</ele>
        <time>2023-08-09T12:46:49.135+00:00</time>
      </trkpt>
      <trkpt lat="48.30128" lon="2.81339">
        <ele>66</ele>
        <time>2023-08-09T12:46:54.128+00:00</time>
      </trkpt>
      <trkpt lat="48.30127" lon="2.81332">
        <ele>66</ele>
        <time>2023-08-09T12:46:58.150+00:00</time>
      </trkpt>
      <trkpt lat="48.30126" lon="2.81323">
        <ele>66</ele>
        <time>2023-08-09T12:47:03.150+00:00</time>
      </trkpt>
      <trkpt lat="48.30125" lon="2.81314">
        <ele>66</ele>
        <time>2023-08-09T12:47:08.150+00:00</time>
      </trkpt>
      <trkpt lat="48.30124" lon="2.81304">
        <ele>66</ele>
        <time>2023-08-09T12:47:13.148+00:00</time>
      </trkpt>
      <trkpt lat="48.30123" lon="2.81295">
        <ele>66</ele>
        <time>2023-08-09T12:47:18.147+00:00</time>
      </trkpt>
      <trkpt lat="48.30121" lon="2.81285">
        <ele>66</ele>
        <time>2023-08-09T12:47:23.120+00:00</time>
      </trkpt>
      <trkpt lat="48.30121" lon="2.81278">
        <ele>66</ele>
        <time>2023-08-09T12:47:27.139+00:00</time>
      </trkpt>
      <trkpt lat="48.3012" lon="2.81271">
        <ele>66</ele>
        <time>2023-08-09T12:47:31.145+00:00</time>
      </trkpt>
      <trkpt lat="48.30119" lon="2.81261">
        <ele>66</ele>
        <time>2023-08-09T12:47:36.139+00:00</time>
      </trkpt>
      <trkpt lat="48.30118" lon="2.81252">
        <ele>66</ele>
        <time>2023-08-09T12:47:41.115+00:00</time>
      </trkpt>
      <trkpt lat="48.30117" lon="2.81244">
        <ele>66</ele>
        <time>2023-08-09T12:47:45.138+00:00</time>
      </trkpt>
      <trkpt lat="48.30116" lon="2.81234">
        <ele>67</ele>
        <time>2023-08-09T12:47:50.146+00:00</time>
      </trkpt>
      <trkpt lat="48.30114" lon="2.81224">
        <ele>67</ele>
        <time>2023-08-09T12:47:55.149+00:00</time>
      </trkpt>
      <trkpt lat="48.30113" lon="2.81215">
        <ele>67</ele>
        <time>2023-08-09T12:48:00.124+00:00</time>
      </trkpt>
      <trkpt lat="48.30112" lon="2.81206">
        <ele>66</ele>
        <time>2023-08-09T12:48:05.120+00:00</time>
      </trkpt>
      <trkpt lat="48.30111" lon="2.812">
        <ele>66</ele>
        <time>2023-08-09T12:48:09.129+00:00</time>
      </trkpt>
      <trkpt lat="48.3011" lon="2.81193">
        <ele>66</ele>
        <time>2023-08-09T12:48:13.131+00:00</time>
      </trkpt>
      <trkpt lat="48.30109" lon="2.81185">
        <ele>66</ele>
        <time>2023-08-09T12:48:17.152+00:00</time>
      </trkpt>
      <trkpt lat="48.30108" lon="2.81176">
        <ele>67</ele>
        <time>2023-08-09T12:48:22.159+00:00</time>
      </trkpt>
      <trkpt lat="48.30106" lon="2.81166">
        <ele>67</ele>
        <time>2023-08-09T12:48:27.150+00:00</time>
      </trkpt>
      <trkpt lat="48.30105" lon="2.81157">
        <ele>67</ele>
        <time>2023-08-09T12:48:32.142+00:00</time>
      </trkpt>
      <trkpt lat="48.30104" lon="2.81147">
        <ele>68</ele>
        <time>2023-08-09T12:48:37.149+00:00</time>
      </trkpt>
      <trkpt lat="48.30103" lon="2.81138">
        <ele>68</ele>
        <time>2023-08-09T12:48:42.146+00:00</time>
      </trkpt>
      <trkpt lat="48.30102" lon="2.8113">
        <ele>68</ele>
        <time>2023-08-09T12:48:47.143+00:00</time>
      </trkpt>
      <trkpt lat="48.30101" lon="2.81121">
        <ele>69</ele>
        <time>2023-08-09T12:48:52.133+00:00</time>
      </trkpt>
      <trkpt lat="48.301" lon="2.81114">
        <ele>69</ele>
        <time>2023-08-09T12:48:56.113+00:00</time>
      </trkpt>
      <trkpt lat="48.301" lon="2.81107">
        <ele>69</ele>
        <time>2023-08-09T12:49:00.142+00:00</time>
      </trkpt>
      <trkpt lat="48.30103" lon="2.81103">
        <ele>69</ele>
        <time>2023-08-09T12:49:04.132+00:00</time>
      </trkpt>
      <trkpt lat="48.30109" lon="2.81102">
        <ele>69</ele>
        <time>2023-08-09T12:49:09.135+00:00</time>
      </trkpt>
      <trkpt lat="48.30115" lon="2.81102">
        <ele>69</ele>
        <time>2023-08-09T12:49:14.123+00:00</time>
      </trkpt>
      <trkpt lat="48.30119" lon="2.81102">
        <ele>69</ele>
        <time>2023-08-09T12:49:27.123+00:00</time>
      </trkpt>
      <trkpt lat="48.30122" lon="2.81104">
        <ele>69</ele>
        <time>2023-08-09T12:49:32.136+00:00</time>
      </trkpt>
      <trkpt lat="48.30129" lon="2.81106">
        <ele>68</ele>
        <time>2023-08-09T12:49:37.142+00:00</time>
      </trkpt>
      <trkpt lat="48.30134" lon="2.81107">
        <ele>68</ele>
        <time>2023-08-09T12:49:41.144+00:00</time>
      </trkpt>
      <trkpt lat="48.30139" lon="2.81106">
        <ele>68</ele>
        <time>2023-08-09T12:49:45.156+00:00</time>
      </trkpt>
      <trkpt lat="48.30143" lon="2.81106">
        <ele>68</ele>
        <time>2023-08-09T12:49:49.160+00:00</time>
      </trkpt>
      <trkpt lat="48.30147" lon="2.81107">
        <ele>68</ele>
        <time>2023-08-09T12:49:54.135+00:00</time>
      </trkpt>
      <trkpt lat="48.30148" lon="2.81107">
        <ele>68</ele>
        <time>2023-08-09T12:49:59.138+00:00</time>
      </trkpt>
      <trkpt lat="48.30152" lon="2.81108">
        <ele>68</ele>
        <time>2023-08-09T12:50:03.138+00:00</time>
      </trkpt>
      <trkpt lat="48.30158" lon="2.8111">
        <ele>67</ele>
        <time>2023-08-09T12:50:08.110+00:00</time>
      </trkpt>
      <trkpt lat="48.30165" lon="2.81112">
        <ele>67</ele>
        <time>2023-08-09T12:50:13.100+00:00</time>
      </trkpt>
      <trkpt lat="48.3017" lon="2.81114">
        <ele>67</ele>
        <time>2023-08-09T12:50:17.135+00:00</time>
      </trkpt>
      <trkpt lat="48.30176" lon="2.81116">
        <ele>67</ele>
        <time>2023-08-09T12:50:22.128+00:00</time>
      </trkpt>
      <trkpt lat="48.3018" lon="2.81117">
        <ele>67</ele>
        <time>2023-08-09T12:50:26.142+00:00</time>
      </trkpt>
      <trkpt lat="48.30188" lon="2.81118">
        <ele>67</ele>
        <time>2023-08-09T12:50:31.137+00:00</time>
      </trkpt>
      <trkpt lat="48.30194" lon="2.8112">
        <ele>67</ele>
        <time>2023-08-09T12:50:36.126+00:00</time>
      </trkpt>
      <trkpt lat="48.30199" lon="2.8112">
        <ele>67</ele>
        <time>2023-08-09T12:50:40.139+00:00</time>
      </trkpt>
      <trkpt lat="48.30205" lon="2.81121">
        <ele>67</ele>
        <time>2023-08-09T12:50:45.096+00:00</time>
      </trkpt>
      <trkpt lat="48.3021" lon="2.81122">
        <ele>68</ele>
        <time>2023-08-09T12:50:49.106+00:00</time>
      </trkpt>
      <trkpt lat="48.30214" lon="2.81123">
        <ele>68</ele>
        <time>2023-08-09T12:50:53.142+00:00</time>
      </trkpt>
      <trkpt lat="48.30219" lon="2.81124">
        <ele>68</ele>
        <time>2023-08-09T12:50:58.115+00:00</time>
      </trkpt>
      <trkpt lat="48.30224" lon="2.81125">
        <ele>67</ele>
        <time>2023-08-09T12:51:02.128+00:00</time>
      </trkpt>
      <trkpt lat="48.30229" lon="2.81126">
        <ele>67</ele>
        <time>2023-08-09T12:51:06.137+00:00</time>
      </trkpt>
      <trkpt lat="48.30236" lon="2.81127">
        <ele>67</ele>
        <time>2023-08-09T12:51:11.141+00:00</time>
      </trkpt>
      <trkpt lat="48.3024" lon="2.81129">
        <ele>68</ele>
        <time>2023-08-09T12:51:15.123+00:00</time>
      </trkpt>
      <trkpt lat="48.30241" lon="2.81129">
        <ele>68</ele>
        <time>2023-08-09T12:51:19.148+00:00</time>
      </trkpt>
      <trkpt lat="48.30242" lon="2.8113">
        <ele>68</ele>
        <time>2023-08-09T12:51:23.154+00:00</time>
      </trkpt>
      <trkpt lat="48.30246" lon="2.8113">
        <ele>68</ele>
        <time>2023-08-09T12:51:27.142+00:00</time>
      </trkpt>
      <trkpt lat="48.30252" lon="2.81132">
        <ele>68</ele>
        <time>2023-08-09T12:51:32.113+00:00</time>
      </trkpt>
      <trkpt lat="48.30257" lon="2.81133">
        <ele>68</ele>
        <time>2023-08-09T12:51:36.113+00:00</time>
      </trkpt>
      <trkpt lat="48.30262" lon="2.81134">
        <ele>68</ele>
        <time>2023-08-09T12:51:40.139+00:00</time>
      </trkpt>
      <trkpt lat="48.30268" lon="2.81136">
        <ele>69</ele>
        <time>2023-08-09T12:51:45.141+00:00</time>
      </trkpt>
      <trkpt lat="48.30274" lon="2.81138">
        <ele>69</ele>
        <time>2023-08-09T12:51:50.134+00:00</time>
      </trkpt>
      <trkpt lat="48.3028" lon="2.81139">
        <ele>69</ele>
        <time>2023-08-09T12:51:55.127+00:00</time>
      </trkpt>
      <trkpt lat="48.30285" lon="2.8114">
        <ele>69</ele>
        <time>2023-08-09T12:51:59.137+00:00</time>
      </trkpt>
      <trkpt lat="48.30292" lon="2.81142">
        <ele>71</ele>
        <time>2023-08-09T12:52:04.131+00:00</time>
      </trkpt>
      <trkpt lat="48.30298" lon="2.81143">
        <ele>71</ele>
        <time>2023-08-09T12:52:09.129+00:00</time>
      </trkpt>
      <trkpt lat="48.30304" lon="2.81145">
        <ele>71</ele>
        <time>2023-08-09T12:52:14.107+00:00</time>
      </trkpt>
      <trkpt lat="48.30309" lon="2.81147">
        <ele>71</ele>
        <time>2023-08-09T12:52:18.120+00:00</time>
      </trkpt>
      <trkpt lat="48.30314" lon="2.81147">
        <ele>71</ele>
        <time>2023-08-09T12:52:22.136+00:00</time>
      </trkpt>
      <trkpt lat="48.3032" lon="2.81148">
        <ele>71</ele>
        <time>2023-08-09T12:52:27.129+00:00</time>
      </trkpt>
      <trkpt lat="48.30324" lon="2.81149">
        <ele>71</ele>
        <time>2023-08-09T12:52:31.125+00:00</time>
      </trkpt>
      <trkpt lat="48.3033" lon="2.81151">
        <ele>71</ele>
        <time>2023-08-09T12:52:36.107+00:00</time>
      </trkpt>
      <trkpt lat="48.30335" lon="2.81152">
        <ele>71</ele>
        <time>2023-08-09T12:52:40.139+00:00</time>
      </trkpt>
      <trkpt lat="48.3034" lon="2.81153">
        <ele>71</ele>
        <time>2023-08-09T12:52:44.154+00:00</time>
      </trkpt>
      <trkpt lat="48.30345" lon="2.81154">
        <ele>71</ele>
        <time>2023-08-09T12:52:48.167+00:00</time>
      </trkpt>
      <trkpt lat="48.30352" lon="2.81156">
        <ele>69</ele>
        <time>2023-08-09T12:52:53.130+00:00</time>
      </trkpt>
      <trkpt lat="48.30358" lon="2.81158">
        <ele>69</ele>
        <time>2023-08-09T12:52:58.135+00:00</time>
      </trkpt>
      <trkpt lat="48.30364" lon="2.81159">
        <ele>69</ele>
        <time>2023-08-09T12:53:03.151+00:00</time>
      </trkpt>
      <trkpt lat="48.3037" lon="2.8116">
        <ele>69</ele>
        <time>2023-08-09T12:53:08.133+00:00</time>
      </trkpt>
      <trkpt lat="48.30376" lon="2.81162">
        <ele>67</ele>
        <time>2023-08-09T12:53:13.135+00:00</time>
      </trkpt>
      <trkpt lat="48.30381" lon="2.81163">
        <ele>67</ele>
        <time>2023-08-09T12:53:17.142+00:00</time>
      </trkpt>
      <trkpt lat="48.30388" lon="2.81165">
        <ele>67</ele>
        <time>2023-08-09T12:53:22.118+00:00</time>
      </trkpt>
      <trkpt lat="48.30393" lon="2.81166">
        <ele>67</ele>
        <time>2023-08-09T12:53:26.134+00:00</time>
      </trkpt>
      <trkpt lat="48.30398" lon="2.81167">
        <ele>67</ele>
        <time>2023-08-09T12:53:30.128+00:00</time>
      </trkpt>
      <trkpt lat="48.30404" lon="2.81168">
        <ele>68</ele>
        <time>2023-08-09T12:53:35.136+00:00</time>
      </trkpt>
      <trkpt lat="48.30409" lon="2.8117">
        <ele>68</ele>
        <time>2023-08-09T12:53:39.146+00:00</time>
      </trkpt>
      <trkpt lat="48.30415" lon="2.81171">
        <ele>68</ele>
        <time>2023-08-09T12:53:43.143+00:00</time>
      </trkpt>
      <trkpt lat="48.30421" lon="2.81172">
        <ele>68</ele>
        <time>2023-08-09T12:53:48.111+00:00</time>
      </trkpt>
      <trkpt lat="48.30426" lon="2.81174">
        <ele>68</ele>
        <time>2023-08-09T12:53:52.125+00:00</time>
      </trkpt>
      <trkpt lat="48.30432" lon="2.81175">
        <ele>69</ele>
        <time>2023-08-09T12:53:57.114+00:00</time>
      </trkpt>
      <trkpt lat="48.30437" lon="2.81176">
        <ele>69</ele>
        <time>2023-08-09T12:54:01.140+00:00</time>
      </trkpt>
      <trkpt lat="48.30443" lon="2.81177">
        <ele>69</ele>
        <time>2023-08-09T12:54:06.100+00:00</time>
      </trkpt>
      <trkpt lat="48.30448" lon="2.81178">
        <ele>69</ele>
        <time>2023-08-09T12:54:10.138+00:00</time>
      </trkpt>
      <trkpt lat="48.30453" lon="2.81178">
        <ele>69</ele>
        <time>2023-08-09T12:54:15.139+00:00</time>
      </trkpt>
      <trkpt lat="48.30458" lon="2.81181">
        <ele>69</ele>
        <time>2023-08-09T12:54:20.108+00:00</time>
      </trkpt>
      <trkpt lat="48.30463" lon="2.81181">
        <ele>69</ele>
        <time>2023-08-09T12:54:24.130+00:00</time>
      </trkpt>
      <trkpt lat="48.30467" lon="2.81185">
        <ele>69</ele>
        <time>2023-08-09T12:54:28.140+00:00</time>
      </trkpt>
      <trkpt lat="48.30472" lon="2.8119">
        <ele>69</ele>
        <time>2023-08-09T12:54:33.136+00:00</time>
      </trkpt>
      <trkpt lat="48.30475" lon="2.81196">
        <ele>69</ele>
        <time>2023-08-09T12:54:37.127+00:00</time>
      </trkpt>
      <trkpt lat="48.30479" lon="2.81203">
        <ele>69</ele>
        <time>2023-08-09T12:54:42.136+00:00</time>
      </trkpt>
      <trkpt lat="48.30484" lon="2.81209">
        <ele>67</ele>
        <time>2023-08-09T12:54:46.130+00:00</time>
      </trkpt>
      <trkpt lat="48.30487" lon="2.81215">
        <ele>65</ele>
        <time>2023-08-09T12:54:50.147+00:00</time>
      </trkpt>
      <trkpt lat="48.30491" lon="2.81221">
        <ele>65</ele>
        <time>2023-08-09T12:54:55.123+00:00</time>
      </trkpt>
      <trkpt lat="48.30494" lon="2.81227">
        <ele>65</ele>
        <time>2023-08-09T12:54:59.145+00:00</time>
      </trkpt>
      <trkpt lat="48.30498" lon="2.81234">
        <ele>65</ele>
        <time>2023-08-09T12:55:04.101+00:00</time>
      </trkpt>
      <trkpt lat="48.30502" lon="2.8124">
        <ele>64</ele>
        <time>2023-08-09T12:55:08.134+00:00</time>
      </trkpt>
      <trkpt lat="48.30505" lon="2.81247">
        <ele>64</ele>
        <time>2023-08-09T12:55:13.136+00:00</time>
      </trkpt>
      <trkpt lat="48.30508" lon="2.81252">
        <ele>64</ele>
        <time>2023-08-09T12:55:17.134+00:00</time>
      </trkpt>
      <trkpt lat="48.30513" lon="2.81259">
        <ele>64</ele>
        <time>2023-08-09T12:55:22.126+00:00</time>
      </trkpt>
      <trkpt lat="48.30517" lon="2.81266">
        <ele>63</ele>
        <time>2023-08-09T12:55:27.139+00:00</time>
      </trkpt>
      <trkpt lat="48.30521" lon="2.81273">
        <ele>63</ele>
        <time>2023-08-09T12:55:32.127+00:00</time>
      </trkpt>
      <trkpt lat="48.30524" lon="2.81279">
        <ele>63</ele>
        <time>2023-08-09T12:55:37.098+00:00</time>
      </trkpt>
      <trkpt lat="48.30525" lon="2.81279">
        <ele>63</ele>
        <time>2023-08-09T12:55:41.092+00:00</time>
      </trkpt>
      <trkpt lat="48.30526" lon="2.81278">
        <ele>63</ele>
        <time>2023-08-09T12:55:45.097+00:00</time>
      </trkpt>
      <trkpt lat="48.30528" lon="2.81285">
        <ele>63</ele>
        <time>2023-08-09T12:55:50.094+00:00</time>
      </trkpt>
      <trkpt lat="48.30532" lon="2.81291">
        <ele>63</ele>
        <time>2023-08-09T12:55:54.108+00:00</time>
      </trkpt>
      <trkpt lat="48.30537" lon="2.81293">
        <ele>63</ele>
        <time>2023-08-09T12:55:59.095+00:00</time>
      </trkpt>
      <trkpt lat="48.30543" lon="2.81291">
        <ele>64</ele>
        <time>2023-08-09T12:56:04.098+00:00</time>
      </trkpt>
      <trkpt lat="48.3055" lon="2.81285">
        <ele>64</ele>
        <time>2023-08-09T12:56:09.104+00:00</time>
      </trkpt>
      <trkpt lat="48.30554" lon="2.8128">
        <ele>64</ele>
        <time>2023-08-09T12:56:14.108+00:00</time>
      </trkpt>
      <trkpt lat="48.30558" lon="2.81276">
        <ele>64</ele>
        <time>2023-08-09T12:56:18.103+00:00</time>
      </trkpt>
      <trkpt lat="48.30563" lon="2.81272">
        <ele>64</ele>
        <time>2023-08-09T12:56:23.100+00:00</time>
      </trkpt>
      <trkpt lat="48.30569" lon="2.8127">
        <ele>64</ele>
        <time>2023-08-09T12:56:28.107+00:00</time>
      </trkpt>
      <trkpt lat="48.30572" lon="2.81271">
        <ele>64</ele>
        <time>2023-08-09T12:57:24.103+00:00</time>
      </trkpt>
      <trkpt lat="48.30576" lon="2.81271">
        <ele>64</ele>
        <time>2023-08-09T12:57:28.102+00:00</time>
      </trkpt>
      <trkpt lat="48.30581" lon="2.81273">
        <ele>64</ele>
        <time>2023-08-09T12:57:32.114+00:00</time>
      </trkpt>
      <trkpt lat="48.30585" lon="2.81274">
        <ele>64</ele>
        <time>2023-08-09T12:57:36.114+00:00</time>
      </trkpt>
      <trkpt lat="48.30589" lon="2.81274">
        <ele>64</ele>
        <time>2023-08-09T12:57:40.107+00:00</time>
      </trkpt>
      <trkpt lat="48.30595" lon="2.81277">
        <ele>64</ele>
        <time>2023-08-09T12:57:45.107+00:00</time>
      </trkpt>
      <trkpt lat="48.306" lon="2.81279">
        <ele>64</ele>
        <time>2023-08-09T12:57:49.121+00:00</time>
      </trkpt>
      <trkpt lat="48.30605" lon="2.81281">
        <ele>64</ele>
        <time>2023-08-09T12:57:53.123+00:00</time>
      </trkpt>
      <trkpt lat="48.30609" lon="2.81283">
        <ele>64</ele>
        <time>2023-08-09T12:57:57.145+00:00</time>
      </trkpt>
      <trkpt lat="48.30615" lon="2.81284">
        <ele>64</ele>
        <time>2023-08-09T12:58:02.118+00:00</time>
      </trkpt>
      <trkpt lat="48.3062" lon="2.81286">
        <ele>64</ele>
        <time>2023-08-09T12:58:06.135+00:00</time>
      </trkpt>
      <trkpt lat="48.30627" lon="2.81288">
        <ele>65</ele>
        <time>2023-08-09T12:58:11.136+00:00</time>
      </trkpt>
      <trkpt lat="48.30633" lon="2.81289">
        <ele>65</ele>
        <time>2023-08-09T12:58:16.139+00:00</time>
      </trkpt>
      <trkpt lat="48.30639" lon="2.81289">
        <ele>65</ele>
        <time>2023-08-09T12:58:21.131+00:00</time>
      </trkpt>
      <trkpt lat="48.30646" lon="2.8129">
        <ele>65</ele>
        <time>2023-08-09T12:58:26.143+00:00</time>
      </trkpt>
      <trkpt lat="48.30652" lon="2.8129">
        <ele>65</ele>
        <time>2023-08-09T12:58:31.127+00:00</time>
      </trkpt>
      <trkpt lat="48.30658" lon="2.81289">
        <ele>65</ele>
        <time>2023-08-09T12:58:35.131+00:00</time>
      </trkpt>
      <trkpt lat="48.30664" lon="2.81288">
        <ele>65</ele>
        <time>2023-08-09T12:58:40.139+00:00</time>
      </trkpt>
      <trkpt lat="48.3067" lon="2.81286">
        <ele>65</ele>
        <time>2023-08-09T12:58:45.129+00:00</time>
      </trkpt>
      <trkpt lat="48.30677" lon="2.81284">
        <ele>65</ele>
        <time>2023-08-09T12:58:50.135+00:00</time>
      </trkpt>
      <trkpt lat="48.30684" lon="2.81281">
        <ele>64</ele>
        <time>2023-08-09T12:58:55.118+00:00</time>
      </trkpt>
      <trkpt lat="48.30687" lon="2.81281">
        <ele>64</ele>
        <time>2023-08-09T12:58:59.132+00:00</time>
      </trkpt>
      <trkpt lat="48.30693" lon="2.8128">
        <ele>64</ele>
        <time>2023-08-09T12:59:04.147+00:00</time>
      </trkpt>
      <trkpt lat="48.30699" lon="2.81278">
        <ele>64</ele>
        <time>2023-08-09T12:59:09.124+00:00</time>
      </trkpt>
      <trkpt lat="48.30705" lon="2.81277">
        <ele>64</ele>
        <time>2023-08-09T12:59:13.127+00:00</time>
      </trkpt>
      <trkpt lat="48.3071" lon="2.81276">
        <ele>63</ele>
        <time>2023-08-09T12:59:18.131+00:00</time>
      </trkpt>
      <trkpt lat="48.30717" lon="2.81276">
        <ele>63</ele>
        <time>2023-08-09T12:59:23.134+00:00</time>
      </trkpt>
      <trkpt lat="48.30722" lon="2.81277">
        <ele>63</ele>
        <time>2023-08-09T12:59:28.138+00:00</time>
      </trkpt>
      <trkpt lat="48.30727" lon="2.8128">
        <ele>63</ele>
        <time>2023-08-09T12:59:33.120+00:00</time>
      </trkpt>
      <trkpt lat="48.3073" lon="2.81284">
        <ele>63</ele>
        <time>2023-08-09T12:59:37.145+00:00</time>
      </trkpt>
      <trkpt lat="48.30736" lon="2.81285">
        <ele>63</ele>
        <time>2023-08-09T12:59:42.132+00:00</time>
      </trkpt>
      <trkpt lat="48.30743" lon="2.81285">
        <ele>63</ele>
        <time>2023-08-09T12:59:47.109+00:00</time>
      </trkpt>
      <trkpt lat="48.30748" lon="2.81284">
        <ele>63</ele>
        <time>2023-08-09T12:59:51.110+00:00</time>
      </trkpt>
      <trkpt lat="48.30753" lon="2.81283">
        <ele>63</ele>
        <time>2023-08-09T12:59:55.114+00:00</time>
      </trkpt>
      <trkpt lat="48.30758" lon="2.81282">
        <ele>63</ele>
        <time>2023-08-09T12:59:59.124+00:00</time>
      </trkpt>
      <trkpt lat="48.30764" lon="2.8128">
        <ele>65</ele>
        <time>2023-08-09T13:00:04.108+00:00</time>
      </trkpt>
      <trkpt lat="48.30769" lon="2.81279">
        <ele>65</ele>
        <time>2023-08-09T13:00:08.108+00:00</time>
      </trkpt>
      <trkpt lat="48.30774" lon="2.81278">
        <ele>65</ele>
        <time>2023-08-09T13:00:12.138+00:00</time>
      </trkpt>
      <trkpt lat="48.30781" lon="2.81276">
        <ele>65</ele>
        <time>2023-08-09T13:00:17.109+00:00</time>
      </trkpt>
      <trkpt lat="48.30786" lon="2.81275">
        <ele>65</ele>
        <time>2023-08-09T13:00:21.127+00:00</time>
      </trkpt>
      <trkpt lat="48.30791" lon="2.81274">
        <ele>65</ele>
        <time>2023-08-09T13:00:26.146+00:00</time>
      </trkpt>
      <trkpt lat="48.30798" lon="2.81272">
        <ele>67</ele>
        <time>2023-08-09T13:00:31.110+00:00</time>
      </trkpt>
      <trkpt lat="48.30803" lon="2.8127">
        <ele>67</ele>
        <time>2023-08-09T13:00:35.135+00:00</time>
      </trkpt>
      <trkpt lat="48.3081" lon="2.8127">
        <ele>67</ele>
        <time>2023-08-09T13:00:40.153+00:00</time>
      </trkpt>
      <trkpt lat="48.30815" lon="2.81268">
        <ele>67</ele>
        <time>2023-08-09T13:00:44.136+00:00</time>
      </trkpt>
      <trkpt lat="48.30822" lon="2.81267">
        <ele>68</ele>
        <time>2023-08-09T13:00:49.135+00:00</time>
      </trkpt>
      <trkpt lat="48.30828" lon="2.81265">
        <ele>68</ele>
        <time>2023-08-09T13:00:54.115+00:00</time>
      </trkpt>
      <trkpt lat="48.30833" lon="2.81264">
        <ele>68</ele>
        <time>2023-08-09T13:00:59.120+00:00</time>
      </trkpt>
      <trkpt lat="48.30836" lon="2.81263">
        <ele>68</ele>
        <time>2023-08-09T13:01:04.099+00:00</time>
      </trkpt>
      <trkpt lat="48.3084" lon="2.81262">
        <ele>68</ele>
        <time>2023-08-09T13:01:08.135+00:00</time>
      </trkpt>
      <trkpt lat="48.30847" lon="2.81261">
        <ele>68</ele>
        <time>2023-08-09T13:01:13.137+00:00</time>
      </trkpt>
      <trkpt lat="48.30852" lon="2.81259">
        <ele>69</ele>
        <time>2023-08-09T13:01:17.139+00:00</time>
      </trkpt>
      <trkpt lat="48.30859" lon="2.81256">
        <ele>69</ele>
        <time>2023-08-09T13:01:22.108+00:00</time>
      </trkpt>
      <trkpt lat="48.30864" lon="2.81253">
        <ele>69</ele>
        <time>2023-08-09T13:01:26.152+00:00</time>
      </trkpt>
      <trkpt lat="48.3087" lon="2.8125">
        <ele>69</ele>
        <time>2023-08-09T13:01:31.123+00:00</time>
      </trkpt>
      <trkpt lat="48.30876" lon="2.81249">
        <ele>71</ele>
        <time>2023-08-09T13:01:36.142+00:00</time>
      </trkpt>
      <trkpt lat="48.30883" lon="2.81246">
        <ele>71</ele>
        <time>2023-08-09T13:01:41.103+00:00</time>
      </trkpt>
      <trkpt lat="48.30887" lon="2.81245">
        <ele>71</ele>
        <time>2023-08-09T13:01:45.121+00:00</time>
      </trkpt>
      <trkpt lat="48.30894" lon="2.81242">
        <ele>71</ele>
        <time>2023-08-09T13:01:50.122+00:00</time>
      </trkpt>
      <trkpt lat="48.309" lon="2.8124">
        <ele>71</ele>
        <time>2023-08-09T13:01:55.108+00:00</time>
      </trkpt>
      <trkpt lat="48.30905" lon="2.81239">
        <ele>72</ele>
        <time>2023-08-09T13:01:59.137+00:00</time>
      </trkpt>
      <trkpt lat="48.3091" lon="2.81237">
        <ele>72</ele>
        <time>2023-08-09T13:02:04.126+00:00</time>
      </trkpt>
      <trkpt lat="48.30916" lon="2.81237">
        <ele>72</ele>
        <time>2023-08-09T13:02:08.124+00:00</time>
      </trkpt>
      <trkpt lat="48.30921" lon="2.81235">
        <ele>70</ele>
        <time>2023-08-09T13:02:12.139+00:00</time>
      </trkpt>
      <trkpt lat="48.30928" lon="2.81234">
        <ele>70</ele>
        <time>2023-08-09T13:02:17.138+00:00</time>
      </trkpt>
      <trkpt lat="48.30935" lon="2.81232">
        <ele>71</ele>
        <time>2023-08-09T13:02:22.126+00:00</time>
      </trkpt>
      <trkpt lat="48.30941" lon="2.81231">
        <ele>71</ele>
        <time>2023-08-09T13:02:26.135+00:00</time>
      </trkpt>
      <trkpt lat="48.30947" lon="2.8123">
        <ele>71</ele>
        <time>2023-08-09T13:02:31.142+00:00</time>
      </trkpt>
      <trkpt lat="48.30952" lon="2.81228">
        <ele>71</ele>
        <time>2023-08-09T13:02:35.140+00:00</time>
      </trkpt>
      <trkpt lat="48.30958" lon="2.81227">
        <ele>71</ele>
        <time>2023-08-09T13:02:40.114+00:00</time>
      </trkpt>
      <trkpt lat="48.30964" lon="2.81226">
        <ele>70</ele>
        <time>2023-08-09T13:02:44.121+00:00</time>
      </trkpt>
      <trkpt lat="48.30969" lon="2.81225">
        <ele>70</ele>
        <time>2023-08-09T13:02:48.126+00:00</time>
      </trkpt>
      <trkpt lat="48.30975" lon="2.81222">
        <ele>70</ele>
        <time>2023-08-09T13:02:53.130+00:00</time>
      </trkpt>
      <trkpt lat="48.30981" lon="2.8122">
        <ele>70</ele>
        <time>2023-08-09T13:02:58.122+00:00</time>
      </trkpt>
      <trkpt lat="48.30986" lon="2.81217">
        <ele>68</ele>
        <time>2023-08-09T13:03:03.121+00:00</time>
      </trkpt>
      <trkpt lat="48.30991" lon="2.81214">
        <ele>68</ele>
        <time>2023-08-09T13:03:08.102+00:00</time>
      </trkpt>
      <trkpt lat="48.30994" lon="2.81212">
        <ele>68</ele>
        <time>2023-08-09T13:03:12.122+00:00</time>
      </trkpt>
      <trkpt lat="48.30999" lon="2.81209">
        <ele>68</ele>
        <time>2023-08-09T13:03:16.754+00:00</time>
      </trkpt>
      <trkpt lat="48.31003" lon="2.81205">
        <ele>67</ele>
        <time>2023-08-09T13:03:21.108+00:00</time>
      </trkpt>
      <trkpt lat="48.31008" lon="2.81199">
        <ele>67</ele>
        <time>2023-08-09T13:03:26.106+00:00</time>
      </trkpt>
      <trkpt lat="48.31013" lon="2.81195">
        <ele>67</ele>
        <time>2023-08-09T13:03:30.134+00:00</time>
      </trkpt>
      <trkpt lat="48.31018" lon="2.8119">
        <ele>66</ele>
        <time>2023-08-09T13:03:35.124+00:00</time>
      </trkpt>
      <trkpt lat="48.31023" lon="2.81186">
        <ele>66</ele>
        <time>2023-08-09T13:03:40.119+00:00</time>
      </trkpt>
      <trkpt lat="48.31029" lon="2.81181">
        <ele>66</ele>
        <time>2023-08-09T13:03:44.141+00:00</time>
      </trkpt>
      <trkpt lat="48.31035" lon="2.81177">
        <ele>66</ele>
        <time>2023-08-09T13:03:49.127+00:00</time>
      </trkpt>
      <trkpt lat="48.31037" lon="2.81173">
        <ele>66</ele>
        <time>2023-08-09T13:03:54.101+00:00</time>
      </trkpt>
      <trkpt lat="48.31038" lon="2.81173">
        <ele>66</ele>
        <time>2023-08-09T13:03:58.135+00:00</time>
      </trkpt>
      <trkpt lat="48.31042" lon="2.81168">
        <ele>66</ele>
        <time>2023-08-09T13:04:03.111+00:00</time>
      </trkpt>
      <trkpt lat="48.31048" lon="2.81163">
        <ele>66</ele>
        <time>2023-08-09T13:04:08.093+00:00</time>
      </trkpt>
      <trkpt lat="48.31055" lon="2.81159">
        <ele>66</ele>
        <time>2023-08-09T13:04:22.082+00:00</time>
      </trkpt>
      <trkpt lat="48.31058" lon="2.81157">
        <ele>66</ele>
        <time>2023-08-09T13:04:27.107+00:00</time>
      </trkpt>
      <trkpt lat="48.31063" lon="2.81152">
        <ele>66</ele>
        <time>2023-08-09T13:04:31.106+00:00</time>
      </trkpt>
      <trkpt lat="48.31068" lon="2.81149">
        <ele>66</ele>
        <time>2023-08-09T13:04:35.144+00:00</time>
      </trkpt>
      <trkpt lat="48.31073" lon="2.81145">
        <ele>66</ele>
        <time>2023-08-09T13:04:40.132+00:00</time>
      </trkpt>
      <trkpt lat="48.31079" lon="2.8114">
        <ele>66</ele>
        <time>2023-08-09T13:04:45.045+00:00</time>
      </trkpt>
      <trkpt lat="48.31079" lon="2.81143">
        <ele>66</ele>
        <time>2023-08-09T13:04:50.090+00:00</time>
      </trkpt>
      <trkpt lat="48.31078" lon="2.81152">
        <ele>66</ele>
        <time>2023-08-09T13:04:54.101+00:00</time>
      </trkpt>
      <trkpt lat="48.3108" lon="2.81154">
        <ele>66</ele>
        <time>2023-08-09T13:04:58.112+00:00</time>
      </trkpt>
      <trkpt lat="48.31082" lon="2.81153">
        <ele>66</ele>
        <time>2023-08-09T13:05:03.096+00:00</time>
      </trkpt>
      <trkpt lat="48.31081" lon="2.81151">
        <ele>66</ele>
        <time>2023-08-09T13:05:08.089+00:00</time>
      </trkpt>
      <trkpt lat="48.3108" lon="2.81146">
        <ele>66</ele>
        <time>2023-08-09T13:05:13.096+00:00</time>
      </trkpt>
      <trkpt lat="48.31084" lon="2.8114">
        <ele>66</ele>
        <time>2023-08-09T13:05:17.108+00:00</time>
      </trkpt>
      <trkpt lat="48.31088" lon="2.81137">
        <ele>66</ele>
        <time>2023-08-09T13:05:21.122+00:00</time>
      </trkpt>
      <trkpt lat="48.31094" lon="2.81132">
        <ele>66</ele>
        <time>2023-08-09T13:05:26.102+00:00</time>
      </trkpt>
      <trkpt lat="48.311" lon="2.81128">
        <ele>66</ele>
        <time>2023-08-09T13:05:31.096+00:00</time>
      </trkpt>
      <trkpt lat="48.31104" lon="2.81125">
        <ele>66</ele>
        <time>2023-08-09T13:05:35.097+00:00</time>
      </trkpt>
      <trkpt lat="48.3111" lon="2.81123">
        <ele>66</ele>
        <time>2023-08-09T13:05:40.117+00:00</time>
      </trkpt>
      <trkpt lat="48.31116" lon="2.81118">
        <ele>66</ele>
        <time>2023-08-09T13:05:44.125+00:00</time>
      </trkpt>
      <trkpt lat="48.31121" lon="2.81114">
        <ele>66</ele>
        <time>2023-08-09T13:05:49.111+00:00</time>
      </trkpt>
      <trkpt lat="48.31127" lon="2.81109">
        <ele>67</ele>
        <time>2023-08-09T13:05:54.137+00:00</time>
      </trkpt>
      <trkpt lat="48.31133" lon="2.81106">
        <ele>67</ele>
        <time>2023-08-09T13:05:59.108+00:00</time>
      </trkpt>
      <trkpt lat="48.31139" lon="2.81102">
        <ele>67</ele>
        <time>2023-08-09T13:06:04.121+00:00</time>
      </trkpt>
      <trkpt lat="48.31145" lon="2.81099">
        <ele>67</ele>
        <time>2023-08-09T13:06:09.139+00:00</time>
      </trkpt>
      <trkpt lat="48.31151" lon="2.81094">
        <ele>67</ele>
        <time>2023-08-09T13:06:14.106+00:00</time>
      </trkpt>
      <trkpt lat="48.31157" lon="2.81089">
        <ele>67</ele>
        <time>2023-08-09T13:06:19.123+00:00</time>
      </trkpt>
      <trkpt lat="48.31161" lon="2.81086">
        <ele>67</ele>
        <time>2023-08-09T13:06:23.130+00:00</time>
      </trkpt>
      <trkpt lat="48.31166" lon="2.81083">
        <ele>67</ele>
        <time>2023-08-09T13:06:27.144+00:00</time>
      </trkpt>
      <trkpt lat="48.31172" lon="2.81079">
        <ele>67</ele>
        <time>2023-08-09T13:06:32.157+00:00</time>
      </trkpt>
      <trkpt lat="48.31178" lon="2.81075">
        <ele>67</ele>
        <time>2023-08-09T13:06:37.140+00:00</time>
      </trkpt>
      <trkpt lat="48.31184" lon="2.81071">
        <ele>66</ele>
        <time>2023-08-09T13:06:42.158+00:00</time>
      </trkpt>
      <trkpt lat="48.31189" lon="2.81068">
        <ele>65</ele>
        <time>2023-08-09T13:06:47.136+00:00</time>
      </trkpt>
      <trkpt lat="48.31195" lon="2.81063">
        <ele>65</ele>
        <time>2023-08-09T13:06:52.131+00:00</time>
      </trkpt>
      <trkpt lat="48.312" lon="2.8106">
        <ele>65</ele>
        <time>2023-08-09T13:06:56.144+00:00</time>
      </trkpt>
      <trkpt lat="48.31206" lon="2.81055">
        <ele>65</ele>
        <time>2023-08-09T13:07:01.127+00:00</time>
      </trkpt>
      <trkpt lat="48.31211" lon="2.81051">
        <ele>65</ele>
        <time>2023-08-09T13:07:06.110+00:00</time>
      </trkpt>
      <trkpt lat="48.31215" lon="2.81048">
        <ele>65</ele>
        <time>2023-08-09T13:07:10.130+00:00</time>
      </trkpt>
      <trkpt lat="48.3122" lon="2.81043">
        <ele>65</ele>
        <time>2023-08-09T13:07:15.126+00:00</time>
      </trkpt>
      <trkpt lat="48.31225" lon="2.81039">
        <ele>64</ele>
        <time>2023-08-09T13:07:19.133+00:00</time>
      </trkpt>
      <trkpt lat="48.31229" lon="2.81034">
        <ele>64</ele>
        <time>2023-08-09T13:07:24.146+00:00</time>
      </trkpt>
      <trkpt lat="48.31235" lon="2.8103">
        <ele>64</ele>
        <time>2023-08-09T13:07:29.147+00:00</time>
      </trkpt>
      <trkpt lat="48.31236" lon="2.81031">
        <ele>64</ele>
        <time>2023-08-09T13:07:34.146+00:00</time>
      </trkpt>
      <trkpt lat="48.31235" lon="2.81032">
        <ele>64</ele>
        <time>2023-08-09T13:07:39.103+00:00</time>
      </trkpt>
      <trkpt lat="48.31233" lon="2.8103">
        <ele>64</ele>
        <time>2023-08-09T13:07:43.107+00:00</time>
      </trkpt>
      <trkpt lat="48.31232" lon="2.81024">
        <ele>64</ele>
        <time>2023-08-09T13:07:47.153+00:00</time>
      </trkpt>
      <trkpt lat="48.31234" lon="2.81018">
        <ele>64</ele>
        <time>2023-08-09T13:07:52.130+00:00</time>
      </trkpt>
      <trkpt lat="48.31233" lon="2.81017">
        <ele>64</ele>
        <time>2023-08-09T13:09:13.128+00:00</time>
      </trkpt>
      <trkpt lat="48.31233" lon="2.81018">
        <ele>64</ele>
        <time>2023-08-09T13:09:18.130+00:00</time>
      </trkpt>
      <trkpt lat="48.3123" lon="2.81023">
        <ele>64</ele>
        <time>2023-08-09T13:09:22.129+00:00</time>
      </trkpt>
      <trkpt lat="48.31234" lon="2.8103">
        <ele>64</ele>
        <time>2023-08-09T13:09:27.135+00:00</time>
      </trkpt>
      <trkpt lat="48.3124" lon="2.81037">
        <ele>65</ele>
        <time>2023-08-09T13:09:32.140+00:00</time>
      </trkpt>
      <trkpt lat="48.31243" lon="2.81042">
        <ele>65</ele>
        <time>2023-08-09T13:09:36.140+00:00</time>
      </trkpt>
      <trkpt lat="48.31247" lon="2.8105">
        <ele>65</ele>
        <time>2023-08-09T13:09:41.134+00:00</time>
      </trkpt>
      <trkpt lat="48.31251" lon="2.81059">
        <ele>65</ele>
        <time>2023-08-09T13:09:46.126+00:00</time>
      </trkpt>
      <trkpt lat="48.31254" lon="2.81067">
        <ele>65</ele>
        <time>2023-08-09T13:09:50.137+00:00</time>
      </trkpt>
      <trkpt lat="48.31259" lon="2.81086">
        <ele>65</ele>
        <time>2023-08-09T13:10:07.103+00:00</time>
      </trkpt>
      <trkpt lat="48.31263" lon="2.81091">
        <ele>65</ele>
        <time>2023-08-09T13:10:12.094+00:00</time>
      </trkpt>
      <trkpt lat="48.31264" lon="2.81098">
        <ele>65</ele>
        <time>2023-08-09T13:10:16.104+00:00</time>
      </trkpt>
      <trkpt lat="48.31265" lon="2.81106">
        <ele>64</ele>
        <time>2023-08-09T13:10:21.096+00:00</time>
      </trkpt>
      <trkpt lat="48.31267" lon="2.81113">
        <ele>64</ele>
        <time>2023-08-09T13:10:25.107+00:00</time>
      </trkpt>
      <trkpt lat="48.3127" lon="2.81113">
        <ele>64</ele>
        <time>2023-08-09T13:10:30.097+00:00</time>
      </trkpt>
      <trkpt lat="48.3127" lon="2.81114">
        <ele>64</ele>
        <time>2023-08-09T13:10:35.103+00:00</time>
      </trkpt>
      <trkpt lat="48.31268" lon="2.81108">
        <ele>64</ele>
        <time>2023-08-09T13:10:40.095+00:00</time>
      </trkpt>
      <trkpt lat="48.31271" lon="2.81102">
        <ele>64</ele>
        <time>2023-08-09T13:10:44.096+00:00</time>
      </trkpt>
      <trkpt lat="48.31275" lon="2.81096">
        <ele>64</ele>
        <time>2023-08-09T13:10:49.097+00:00</time>
      </trkpt>
      <trkpt lat="48.31279" lon="2.81093">
        <ele>64</ele>
        <time>2023-08-09T13:10:54.103+00:00</time>
      </trkpt>
      <trkpt lat="48.31283" lon="2.8109">
        <ele>64</ele>
        <time>2023-08-09T13:10:59.091+00:00</time>
      </trkpt>
      <trkpt lat="48.31286" lon="2.81087">
        <ele>64</ele>
        <time>2023-08-09T13:11:03.109+00:00</time>
      </trkpt>
      <trkpt lat="48.31288" lon="2.81084">
        <ele>64</ele>
        <time>2023-08-09T13:11:08.104+00:00</time>
      </trkpt>
      <trkpt lat="48.31288" lon="2.81081">
        <ele>64</ele>
        <time>2023-08-09T13:11:22.106+00:00</time>
      </trkpt>
      <trkpt lat="48.31287" lon="2.81079">
        <ele>64</ele>
        <time>2023-08-09T13:11:26.104+00:00</time>
      </trkpt>
      <trkpt lat="48.31289" lon="2.81078">
        <ele>64</ele>
        <time>2023-08-09T13:11:31.109+00:00</time>
      </trkpt>
      <trkpt lat="48.31293" lon="2.81072">
        <ele>63</ele>
        <time>2023-08-09T13:11:35.100+00:00</time>
      </trkpt>
      <trkpt lat="48.31298" lon="2.81065">
        <ele>64</ele>
        <time>2023-08-09T13:11:40.103+00:00</time>
      </trkpt>
      <trkpt lat="48.31302" lon="2.81059">
        <ele>64</ele>
        <time>2023-08-09T13:11:45.094+00:00</time>
      </trkpt>
      <trkpt lat="48.31305" lon="2.81053">
        <ele>64</ele>
        <time>2023-08-09T13:11:49.095+00:00</time>
      </trkpt>
      <trkpt lat="48.31309" lon="2.81048">
        <ele>64</ele>
        <time>2023-08-09T13:11:53.118+00:00</time>
      </trkpt>
      <trkpt lat="48.31311" lon="2.81042">
        <ele>64</ele>
        <time>2023-08-09T13:11:57.130+00:00</time>
      </trkpt>
      <trkpt lat="48.31314" lon="2.81032">
        <ele>64</ele>
        <time>2023-08-09T13:12:02.131+00:00</time>
      </trkpt>
      <trkpt lat="48.31319" lon="2.81026">
        <ele>64</ele>
        <time>2023-08-09T13:12:07.142+00:00</time>
      </trkpt>
      <trkpt lat="48.31323" lon="2.8102">
        <ele>64</ele>
        <time>2023-08-09T13:12:11.140+00:00</time>
      </trkpt>
      <trkpt lat="48.31326" lon="2.81014">
        <ele>64</ele>
        <time>2023-08-09T13:12:15.132+00:00</time>
      </trkpt>
      <trkpt lat="48.3133" lon="2.81009">
        <ele>65</ele>
        <time>2023-08-09T13:12:20.111+00:00</time>
      </trkpt>
      <trkpt lat="48.31334" lon="2.81005">
        <ele>65</ele>
        <time>2023-08-09T13:12:24.114+00:00</time>
      </trkpt>
      <trkpt lat="48.31338" lon="2.81">
        <ele>65</ele>
        <time>2023-08-09T13:12:28.130+00:00</time>
      </trkpt>
      <trkpt lat="48.31341" lon="2.80993">
        <ele>65</ele>
        <time>2023-08-09T13:12:33.142+00:00</time>
      </trkpt>
      <trkpt lat="48.31346" lon="2.80986">
        <ele>65</ele>
        <time>2023-08-09T13:12:38.123+00:00</time>
      </trkpt>
      <trkpt lat="48.31349" lon="2.80979">
        <ele>64</ele>
        <time>2023-08-09T13:12:42.122+00:00</time>
      </trkpt>
      <trkpt lat="48.31351" lon="2.80972">
        <ele>64</ele>
        <time>2023-08-09T13:12:46.139+00:00</time>
      </trkpt>
      <trkpt lat="48.31353" lon="2.80963">
        <ele>64</ele>
        <time>2023-08-09T13:12:51.126+00:00</time>
      </trkpt>
      <trkpt lat="48.31354" lon="2.80954">
        <ele>64</ele>
        <time>2023-08-09T13:12:55.117+00:00</time>
      </trkpt>
      <trkpt lat="48.31355" lon="2.80947">
        <ele>64</ele>
        <time>2023-08-09T13:12:59.136+00:00</time>
      </trkpt>
      <trkpt lat="48.31356" lon="2.80937">
        <ele>64</ele>
        <time>2023-08-09T13:13:04.122+00:00</time>
      </trkpt>
      <trkpt lat="48.31357" lon="2.8093">
        <ele>63</ele>
        <time>2023-08-09T13:13:08.129+00:00</time>
      </trkpt>
      <trkpt lat="48.31357" lon="2.80921">
        <ele>63</ele>
        <time>2023-08-09T13:13:13.136+00:00</time>
      </trkpt>
      <trkpt lat="48.31358" lon="2.80913">
        <ele>63</ele>
        <time>2023-08-09T13:13:17.131+00:00</time>
      </trkpt>
      <trkpt lat="48.3136" lon="2.80903">
        <ele>63</ele>
        <time>2023-08-09T13:13:22.138+00:00</time>
      </trkpt>
      <trkpt lat="48.31362" lon="2.80894">
        <ele>63</ele>
        <time>2023-08-09T13:13:27.128+00:00</time>
      </trkpt>
      <trkpt lat="48.31364" lon="2.80885">
        <ele>63</ele>
        <time>2023-08-09T13:13:32.137+00:00</time>
      </trkpt>
      <trkpt lat="48.31367" lon="2.80878">
        <ele>63</ele>
        <time>2023-08-09T13:13:36.140+00:00</time>
      </trkpt>
      <trkpt lat="48.31369" lon="2.8087">
        <ele>64</ele>
        <time>2023-08-09T13:13:41.131+00:00</time>
      </trkpt>
      <trkpt lat="48.31372" lon="2.8086">
        <ele>64</ele>
        <time>2023-08-09T13:13:46.136+00:00</time>
      </trkpt>
      <trkpt lat="48.31373" lon="2.80854">
        <ele>64</ele>
        <time>2023-08-09T13:13:50.142+00:00</time>
      </trkpt>
      <trkpt lat="48.31376" lon="2.80846">
        <ele>64</ele>
        <time>2023-08-09T13:13:55.113+00:00</time>
      </trkpt>
      <trkpt lat="48.31377" lon="2.80837">
        <ele>64</ele>
        <time>2023-08-09T13:13:59.142+00:00</time>
      </trkpt>
      <trkpt lat="48.3138" lon="2.80827">
        <ele>64</ele>
        <time>2023-08-09T13:14:04.110+00:00</time>
      </trkpt>
      <trkpt lat="48.31382" lon="2.8082">
        <ele>64</ele>
        <time>2023-08-09T13:14:08.119+00:00</time>
      </trkpt>
      <trkpt lat="48.31384" lon="2.80813">
        <ele>64</ele>
        <time>2023-08-09T13:14:12.148+00:00</time>
      </trkpt>
      <trkpt lat="48.31386" lon="2.80804">
        <ele>64</ele>
        <time>2023-08-09T13:14:17.128+00:00</time>
      </trkpt>
      <trkpt lat="48.31388" lon="2.80796">
        <ele>64</ele>
        <time>2023-08-09T13:14:21.136+00:00</time>
      </trkpt>
      <trkpt lat="48.3139" lon="2.80789">
        <ele>63</ele>
        <time>2023-08-09T13:14:25.138+00:00</time>
      </trkpt>
      <trkpt lat="48.31392" lon="2.80782">
        <ele>63</ele>
        <time>2023-08-09T13:14:29.138+00:00</time>
      </trkpt>
      <trkpt lat="48.31394" lon="2.80773">
        <ele>63</ele>
        <time>2023-08-09T13:14:34.136+00:00</time>
      </trkpt>
      <trkpt lat="48.31396" lon="2.80765">
        <ele>63</ele>
        <time>2023-08-09T13:14:38.137+00:00</time>
      </trkpt>
      <trkpt lat="48.31398" lon="2.80757">
        <ele>63</ele>
        <time>2023-08-09T13:14:42.137+00:00</time>
      </trkpt>
      <trkpt lat="48.31399" lon="2.80749">
        <ele>63</ele>
        <time>2023-08-09T13:14:47.135+00:00</time>
      </trkpt>
      <trkpt lat="48.31401" lon="2.8074">
        <ele>63</ele>
        <time>2023-08-09T13:14:52.140+00:00</time>
      </trkpt>
      <trkpt lat="48.31404" lon="2.80731">
        <ele>61</ele>
        <time>2023-08-09T13:14:57.128+00:00</time>
      </trkpt>
      <trkpt lat="48.31406" lon="2.80722">
        <ele>61</ele>
        <time>2023-08-09T13:15:02.116+00:00</time>
      </trkpt>
      <trkpt lat="48.31408" lon="2.80713">
        <ele>61</ele>
        <time>2023-08-09T13:15:07.134+00:00</time>
      </trkpt>
      <trkpt lat="48.3141" lon="2.80705">
        <ele>62</ele>
        <time>2023-08-09T13:15:12.126+00:00</time>
      </trkpt>
      <trkpt lat="48.31414" lon="2.80696">
        <ele>62</ele>
        <time>2023-08-09T13:15:17.106+00:00</time>
      </trkpt>
      <trkpt lat="48.31416" lon="2.80689">
        <ele>62</ele>
        <time>2023-08-09T13:15:21.131+00:00</time>
      </trkpt>
      <trkpt lat="48.3142" lon="2.80679">
        <ele>61</ele>
        <time>2023-08-09T13:15:26.116+00:00</time>
      </trkpt>
      <trkpt lat="48.31423" lon="2.80672">
        <ele>61</ele>
        <time>2023-08-09T13:15:30.128+00:00</time>
      </trkpt>
      <trkpt lat="48.31426" lon="2.80666">
        <ele>61</ele>
        <time>2023-08-09T13:15:34.142+00:00</time>
      </trkpt>
      <trkpt lat="48.31431" lon="2.80658">
        <ele>61</ele>
        <time>2023-08-09T13:15:39.148+00:00</time>
      </trkpt>
      <trkpt lat="48.31435" lon="2.80649">
        <ele>62</ele>
        <time>2023-08-09T13:15:44.129+00:00</time>
      </trkpt>
      <trkpt lat="48.31438" lon="2.80643">
        <ele>62</ele>
        <time>2023-08-09T13:15:48.137+00:00</time>
      </trkpt>
      <trkpt lat="48.31441" lon="2.80634">
        <ele>62</ele>
        <time>2023-08-09T13:15:53.113+00:00</time>
      </trkpt>
      <trkpt lat="48.31445" lon="2.80629">
        <ele>62</ele>
        <time>2023-08-09T13:15:57.124+00:00</time>
      </trkpt>
      <trkpt lat="48.31449" lon="2.80624">
        <ele>62</ele>
        <time>2023-08-09T13:16:02.123+00:00</time>
      </trkpt>
      <trkpt lat="48.31452" lon="2.80617">
        <ele>62</ele>
        <time>2023-08-09T13:16:06.127+00:00</time>
      </trkpt>
      <trkpt lat="48.31455" lon="2.80612">
        <ele>62</ele>
        <time>2023-08-09T13:16:10.230+00:00</time>
      </trkpt>
      <trkpt lat="48.3146" lon="2.80605">
        <ele>63</ele>
        <time>2023-08-09T13:16:15.133+00:00</time>
      </trkpt>
      <trkpt lat="48.31464" lon="2.80599">
        <ele>63</ele>
        <time>2023-08-09T13:16:19.139+00:00</time>
      </trkpt>
      <trkpt lat="48.31469" lon="2.80593">
        <ele>64</ele>
        <time>2023-08-09T13:16:24.118+00:00</time>
      </trkpt>
      <trkpt lat="48.31473" lon="2.80589">
        <ele>64</ele>
        <time>2023-08-09T13:16:28.141+00:00</time>
      </trkpt>
      <trkpt lat="48.31479" lon="2.80585">
        <ele>64</ele>
        <time>2023-08-09T13:16:33.114+00:00</time>
      </trkpt>
      <trkpt lat="48.31483" lon="2.80582">
        <ele>64</ele>
        <time>2023-08-09T13:16:37.120+00:00</time>
      </trkpt>
      <trkpt lat="48.31487" lon="2.80579">
        <ele>65</ele>
        <time>2023-08-09T13:16:41.148+00:00</time>
      </trkpt>
      <trkpt lat="48.31493" lon="2.80574">
        <ele>65</ele>
        <time>2023-08-09T13:16:46.150+00:00</time>
      </trkpt>
      <trkpt lat="48.31505" lon="2.80566">
        <ele>65</ele>
        <time>2023-08-09T13:17:04.109+00:00</time>
      </trkpt>
      <trkpt lat="48.31507" lon="2.80564">
        <ele>65</ele>
        <time>2023-08-09T13:17:08.124+00:00</time>
      </trkpt>
      <trkpt lat="48.31512" lon="2.8056">
        <ele>65</ele>
        <time>2023-08-09T13:17:12.132+00:00</time>
      </trkpt>
      <trkpt lat="48.31517" lon="2.80554">
        <ele>67</ele>
        <time>2023-08-09T13:17:17.110+00:00</time>
      </trkpt>
      <trkpt lat="48.3152" lon="2.8055">
        <ele>67</ele>
        <time>2023-08-09T13:17:21.115+00:00</time>
      </trkpt>
      <trkpt lat="48.31524" lon="2.80546">
        <ele>67</ele>
        <time>2023-08-09T13:17:25.134+00:00</time>
      </trkpt>
      <trkpt lat="48.31531" lon="2.80541">
        <ele>65</ele>
        <time>2023-08-09T13:17:30.105+00:00</time>
      </trkpt>
      <trkpt lat="48.31535" lon="2.80536">
        <ele>65</ele>
        <time>2023-08-09T13:17:34.129+00:00</time>
      </trkpt>
      <trkpt lat="48.3154" lon="2.80529">
        <ele>65</ele>
        <time>2023-08-09T13:17:38.132+00:00</time>
      </trkpt>
      <trkpt lat="48.31545" lon="2.80522">
        <ele>66</ele>
        <time>2023-08-09T13:17:43.124+00:00</time>
      </trkpt>
      <trkpt lat="48.31549" lon="2.80516">
        <ele>66</ele>
        <time>2023-08-09T13:17:47.130+00:00</time>
      </trkpt>
      <trkpt lat="48.31555" lon="2.80509">
        <ele>63</ele>
        <time>2023-08-09T13:17:52.126+00:00</time>
      </trkpt>
      <trkpt lat="48.3156" lon="2.80509">
        <ele>63</ele>
        <time>2023-08-09T13:17:57.141+00:00</time>
      </trkpt>
      <trkpt lat="48.31566" lon="2.80514">
        <ele>63</ele>
        <time>2023-08-09T13:18:02.137+00:00</time>
      </trkpt>
      <trkpt lat="48.3157" lon="2.80519">
        <ele>66</ele>
        <time>2023-08-09T13:18:06.137+00:00</time>
      </trkpt>
      <trkpt lat="48.31575" lon="2.80524">
        <ele>66</ele>
        <time>2023-08-09T13:18:11.119+00:00</time>
      </trkpt>
      <trkpt lat="48.31581" lon="2.80528">
        <ele>66</ele>
        <time>2023-08-09T13:18:16.109+00:00</time>
      </trkpt>
      <trkpt lat="48.31581" lon="2.80528">
        <ele>66</ele>
        <time>2023-08-09T13:18:24.106+00:00</time>
      </trkpt>
      <trkpt lat="48.31581" lon="2.80529">
        <ele>66</ele>
        <time>2023-08-09T13:18:28.126+00:00</time>
      </trkpt>
      <trkpt lat="48.31584" lon="2.80531">
        <ele>66</ele>
        <time>2023-08-09T13:18:33.134+00:00</time>
      </trkpt>
      <trkpt lat="48.31585" lon="2.80523">
        <ele>66</ele>
        <time>2023-08-09T13:18:38.127+00:00</time>
      </trkpt>
      <trkpt lat="48.31589" lon="2.80515">
        <ele>66</ele>
        <time>2023-08-09T13:18:43.144+00:00</time>
      </trkpt>
      <trkpt lat="48.31586" lon="2.8052">
        <ele>66</ele>
        <time>2023-08-09T13:18:48.109+00:00</time>
      </trkpt>
      <trkpt lat="48.31585" lon="2.8053">
        <ele>66</ele>
        <time>2023-08-09T13:18:52.135+00:00</time>
      </trkpt>
      <trkpt lat="48.3159" lon="2.80537">
        <ele>66</ele>
        <time>2023-08-09T13:18:57.146+00:00</time>
      </trkpt>
      <trkpt lat="48.31594" lon="2.80539">
        <ele>66</ele>
        <time>2023-08-09T13:19:02.110+00:00</time>
      </trkpt>
      <trkpt lat="48.31597" lon="2.8054">
        <ele>66</ele>
        <time>2023-08-09T13:19:15.123+00:00</time>
      </trkpt>
      <trkpt lat="48.3159" lon="2.80537">
        <ele>66</ele>
        <time>2023-08-09T13:19:20.148+00:00</time>
      </trkpt>
      <trkpt lat="48.31586" lon="2.80529">
        <ele>66</ele>
        <time>2023-08-09T13:19:25.123+00:00</time>
      </trkpt>
      <trkpt lat="48.31587" lon="2.80522">
        <ele>66</ele>
        <time>2023-08-09T13:19:29.115+00:00</time>
      </trkpt>
      <trkpt lat="48.3159" lon="2.80515">
        <ele>66</ele>
        <time>2023-08-09T13:19:33.122+00:00</time>
      </trkpt>
      <trkpt lat="48.31594" lon="2.80508">
        <ele>65</ele>
        <time>2023-08-09T13:19:37.141+00:00</time>
      </trkpt>
      <trkpt lat="48.31599" lon="2.80503">
        <ele>66</ele>
        <time>2023-08-09T13:19:42.123+00:00</time>
      </trkpt>
      <trkpt lat="48.31604" lon="2.80496">
        <ele>66</ele>
        <time>2023-08-09T13:19:47.134+00:00</time>
      </trkpt>
      <trkpt lat="48.31609" lon="2.8049">
        <ele>66</ele>
        <time>2023-08-09T13:19:52.109+00:00</time>
      </trkpt>
      <trkpt lat="48.31613" lon="2.80484">
        <ele>65</ele>
        <time>2023-08-09T13:19:56.125+00:00</time>
      </trkpt>
      <trkpt lat="48.31617" lon="2.80477">
        <ele>65</ele>
        <time>2023-08-09T13:20:00.122+00:00</time>
      </trkpt>
      <trkpt lat="48.3162" lon="2.80471">
        <ele>65</ele>
        <time>2023-08-09T13:20:04.130+00:00</time>
      </trkpt>
      <trkpt lat="48.31623" lon="2.80462">
        <ele>65</ele>
        <time>2023-08-09T13:20:09.125+00:00</time>
      </trkpt>
      <trkpt lat="48.31626" lon="2.80452">
        <ele>63</ele>
        <time>2023-08-09T13:20:14.105+00:00</time>
      </trkpt>
      <trkpt lat="48.31628" lon="2.80443">
        <ele>63</ele>
        <time>2023-08-09T13:20:19.104+00:00</time>
      </trkpt>
      <trkpt lat="48.3163" lon="2.80435">
        <ele>63</ele>
        <time>2023-08-09T13:20:23.132+00:00</time>
      </trkpt>
      <trkpt lat="48.31633" lon="2.80426">
        <ele>62</ele>
        <time>2023-08-09T13:20:28.126+00:00</time>
      </trkpt>
      <trkpt lat="48.31635" lon="2.80418">
        <ele>62</ele>
        <time>2023-08-09T13:20:32.131+00:00</time>
      </trkpt>
      <trkpt lat="48.31637" lon="2.80408">
        <ele>62</ele>
        <time>2023-08-09T13:20:37.119+00:00</time>
      </trkpt>
      <trkpt lat="48.31639" lon="2.804">
        <ele>63</ele>
        <time>2023-08-09T13:20:41.130+00:00</time>
      </trkpt>
      <trkpt lat="48.31641" lon="2.80393">
        <ele>63</ele>
        <time>2023-08-09T13:20:45.135+00:00</time>
      </trkpt>
      <trkpt lat="48.31643" lon="2.80385">
        <ele>63</ele>
        <time>2023-08-09T13:20:49.140+00:00</time>
      </trkpt>
      <trkpt lat="48.31646" lon="2.80377">
        <ele>63</ele>
        <time>2023-08-09T13:20:53.150+00:00</time>
      </trkpt>
      <trkpt lat="48.31649" lon="2.80368">
        <ele>64</ele>
        <time>2023-08-09T13:20:58.140+00:00</time>
      </trkpt>
      <trkpt lat="48.31651" lon="2.80359">
        <ele>64</ele>
        <time>2023-08-09T13:21:03.132+00:00</time>
      </trkpt>
      <trkpt lat="48.31653" lon="2.80349">
        <ele>64</ele>
        <time>2023-08-09T13:21:08.130+00:00</time>
      </trkpt>
      <trkpt lat="48.31652" lon="2.8034">
        <ele>65</ele>
        <time>2023-08-09T13:21:13.117+00:00</time>
      </trkpt>
      <trkpt lat="48.31651" lon="2.80334">
        <ele>65</ele>
        <time>2023-08-09T13:21:17.137+00:00</time>
      </trkpt>
      <trkpt lat="48.31647" lon="2.80328">
        <ele>65</ele>
        <time>2023-08-09T13:21:21.136+00:00</time>
      </trkpt>
      <trkpt lat="48.31642" lon="2.8032">
        <ele>65</ele>
        <time>2023-08-09T13:21:26.127+00:00</time>
      </trkpt>
      <trkpt lat="48.31638" lon="2.80315">
        <ele>66</ele>
        <time>2023-08-09T13:21:30.132+00:00</time>
      </trkpt>
      <trkpt lat="48.31635" lon="2.80308">
        <ele>66</ele>
        <time>2023-08-09T13:21:35.125+00:00</time>
      </trkpt>
      <trkpt lat="48.31635" lon="2.803">
        <ele>66</ele>
        <time>2023-08-09T13:21:39.125+00:00</time>
      </trkpt>
      <trkpt lat="48.31635" lon="2.80291">
        <ele>65</ele>
        <time>2023-08-09T13:21:43.130+00:00</time>
      </trkpt>
      <trkpt lat="48.31637" lon="2.80282">
        <ele>65</ele>
        <time>2023-08-09T13:21:48.130+00:00</time>
      </trkpt>
      <trkpt lat="48.31639" lon="2.80273">
        <ele>65</ele>
        <time>2023-08-09T13:21:52.139+00:00</time>
      </trkpt>
      <trkpt lat="48.31641" lon="2.80263">
        <ele>64</ele>
        <time>2023-08-09T13:21:57.125+00:00</time>
      </trkpt>
      <trkpt lat="48.31642" lon="2.80254">
        <ele>64</ele>
        <time>2023-08-09T13:22:02.125+00:00</time>
      </trkpt>
      <trkpt lat="48.31644" lon="2.80244">
        <ele>64</ele>
        <time>2023-08-09T13:22:07.129+00:00</time>
      </trkpt>
      <trkpt lat="48.31646" lon="2.80233">
        <ele>62</ele>
        <time>2023-08-09T13:22:12.120+00:00</time>
      </trkpt>
      <trkpt lat="48.31647" lon="2.80224">
        <ele>62</ele>
        <time>2023-08-09T13:22:17.124+00:00</time>
      </trkpt>
      <trkpt lat="48.31649" lon="2.80213">
        <ele>62</ele>
        <time>2023-08-09T13:22:22.131+00:00</time>
      </trkpt>
      <trkpt lat="48.31649" lon="2.80207">
        <ele>61</ele>
        <time>2023-08-09T13:22:27.118+00:00</time>
      </trkpt>
      <trkpt lat="48.3165" lon="2.802">
        <ele>61</ele>
        <time>2023-08-09T13:22:31.137+00:00</time>
      </trkpt>
      <trkpt lat="48.3165" lon="2.8019">
        <ele>61</ele>
        <time>2023-08-09T13:22:36.092+00:00</time>
      </trkpt>
      <trkpt lat="48.31651" lon="2.80183">
        <ele>61</ele>
        <time>2023-08-09T13:22:40.106+00:00</time>
      </trkpt>
      <trkpt lat="48.31651" lon="2.8018">
        <ele>60</ele>
        <time>2023-08-09T13:22:44.098+00:00</time>
      </trkpt>
      <trkpt lat="48.31653" lon="2.80174">
        <ele>60</ele>
        <time>2023-08-09T13:22:49.088+00:00</time>
      </trkpt>
      <trkpt lat="48.31654" lon="2.80167">
        <ele>62</ele>
        <time>2023-08-09T13:22:54.101+00:00</time>
      </trkpt>
      <trkpt lat="48.31655" lon="2.80158">
        <ele>62</ele>
        <time>2023-08-09T13:23:07.103+00:00</time>
      </trkpt>
      <trkpt lat="48.31656" lon="2.80153">
        <ele>62</ele>
        <time>2023-08-09T13:23:12.102+00:00</time>
      </trkpt>
      <trkpt lat="48.31659" lon="2.80147">
        <ele>62</ele>
        <time>2023-08-09T13:23:17.090+00:00</time>
      </trkpt>
      <trkpt lat="48.3166" lon="2.80141">
        <ele>62</ele>
        <time>2023-08-09T13:23:21.103+00:00</time>
      </trkpt>
      <trkpt lat="48.31663" lon="2.80134">
        <ele>62</ele>
        <time>2023-08-09T13:23:26.109+00:00</time>
      </trkpt>
      <trkpt lat="48.31665" lon="2.80127">
        <ele>62</ele>
        <time>2023-08-09T13:23:30.107+00:00</time>
      </trkpt>
      <trkpt lat="48.31668" lon="2.80118">
        <ele>62</ele>
        <time>2023-08-09T13:23:35.100+00:00</time>
      </trkpt>
      <trkpt lat="48.31667" lon="2.80116">
        <ele>62</ele>
        <time>2023-08-09T13:23:40.090+00:00</time>
      </trkpt>
      <trkpt lat="48.31669" lon="2.80114">
        <ele>62</ele>
        <time>2023-08-09T13:23:45.105+00:00</time>
      </trkpt>
      <trkpt lat="48.31673" lon="2.80108">
        <ele>62</ele>
        <time>2023-08-09T13:23:50.109+00:00</time>
      </trkpt>
      <trkpt lat="48.31675" lon="2.80099">
        <ele>62</ele>
        <time>2023-08-09T13:23:55.111+00:00</time>
      </trkpt>
      <trkpt lat="48.31678" lon="2.80091">
        <ele>61</ele>
        <time>2023-08-09T13:24:00.099+00:00</time>
      </trkpt>
      <trkpt lat="48.3168" lon="2.80084">
        <ele>61</ele>
        <time>2023-08-09T13:24:04.106+00:00</time>
      </trkpt>
      <trkpt lat="48.31682" lon="2.80078">
        <ele>63</ele>
        <time>2023-08-09T13:24:17.113+00:00</time>
      </trkpt>
      <trkpt lat="48.31683" lon="2.80072">
        <ele>63</ele>
        <time>2023-08-09T13:24:22.102+00:00</time>
      </trkpt>
      <trkpt lat="48.31686" lon="2.80063">
        <ele>63</ele>
        <time>2023-08-09T13:24:27.100+00:00</time>
      </trkpt>
      <trkpt lat="48.31686" lon="2.80056">
        <ele>63</ele>
        <time>2023-08-09T13:24:31.098+00:00</time>
      </trkpt>
      <trkpt lat="48.31688" lon="2.8005">
        <ele>63</ele>
        <time>2023-08-09T13:24:36.097+00:00</time>
      </trkpt>
      <trkpt lat="48.31689" lon="2.80043">
        <ele>63</ele>
        <time>2023-08-09T13:24:40.098+00:00</time>
      </trkpt>
      <trkpt lat="48.3169" lon="2.80036">
        <ele>63</ele>
        <time>2023-08-09T13:24:44.101+00:00</time>
      </trkpt>
      <trkpt lat="48.31689" lon="2.80029">
        <ele>63</ele>
        <time>2023-08-09T13:24:49.101+00:00</time>
      </trkpt>
      <trkpt lat="48.31688" lon="2.80027">
        <ele>63</ele>
        <time>2023-08-09T13:24:54.091+00:00</time>
      </trkpt>
      <trkpt lat="48.3169" lon="2.80027">
        <ele>63</ele>
        <time>2023-08-09T13:25:03.098+00:00</time>
      </trkpt>
      <trkpt lat="48.31691" lon="2.80026">
        <ele>63</ele>
        <time>2023-08-09T13:25:08.092+00:00</time>
      </trkpt>
      <trkpt lat="48.31691" lon="2.8002">
        <ele>63</ele>
        <time>2023-08-09T13:25:12.102+00:00</time>
      </trkpt>
      <trkpt lat="48.3169" lon="2.80013">
        <ele>62</ele>
        <time>2023-08-09T13:25:16.101+00:00</time>
      </trkpt>
      <trkpt lat="48.3169" lon="2.80004">
        <ele>62</ele>
        <time>2023-08-09T13:25:21.101+00:00</time>
      </trkpt>
      <trkpt lat="48.31691" lon="2.79996">
        <ele>62</ele>
        <time>2023-08-09T13:25:26.103+00:00</time>
      </trkpt>
      <trkpt lat="48.31691" lon="2.79987">
        <ele>62</ele>
        <time>2023-08-09T13:25:31.102+00:00</time>
      </trkpt>
      <trkpt lat="48.31691" lon="2.79983">
        <ele>63</ele>
        <time>2023-08-09T13:25:36.109+00:00</time>
      </trkpt>
      <trkpt lat="48.31691" lon="2.79982">
        <ele>63</ele>
        <time>2023-08-09T13:25:41.098+00:00</time>
      </trkpt>
      <trkpt lat="48.31692" lon="2.79981">
        <ele>63</ele>
        <time>2023-08-09T13:25:46.136+00:00</time>
      </trkpt>
      <trkpt lat="48.31692" lon="2.79976">
        <ele>63</ele>
        <time>2023-08-09T13:25:51.128+00:00</time>
      </trkpt>
      <trkpt lat="48.31692" lon="2.79967">
        <ele>63</ele>
        <time>2023-08-09T13:25:56.113+00:00</time>
      </trkpt>
      <trkpt lat="48.31692" lon="2.79959">
        <ele>63</ele>
        <time>2023-08-09T13:26:00.127+00:00</time>
      </trkpt>
      <trkpt lat="48.31694" lon="2.79948">
        <ele>63</ele>
        <time>2023-08-09T13:26:05.133+00:00</time>
      </trkpt>
      <trkpt lat="48.31695" lon="2.79939">
        <ele>63</ele>
        <time>2023-08-09T13:26:10.118+00:00</time>
      </trkpt>
      <trkpt lat="48.31696" lon="2.79931">
        <ele>63</ele>
        <time>2023-08-09T13:26:14.116+00:00</time>
      </trkpt>
      <trkpt lat="48.31693" lon="2.79925">
        <ele>64</ele>
        <time>2023-08-09T13:26:19.096+00:00</time>
      </trkpt>
      <trkpt lat="48.31692" lon="2.7993">
        <ele>64</ele>
        <time>2023-08-09T13:26:34.099+00:00</time>
      </trkpt>
      <trkpt lat="48.31696" lon="2.79924">
        <ele>64</ele>
        <time>2023-08-09T13:26:38.102+00:00</time>
      </trkpt>
      <trkpt lat="48.31698" lon="2.79922">
        <ele>64</ele>
        <time>2023-08-09T13:26:43.105+00:00</time>
      </trkpt>
      <trkpt lat="48.31698" lon="2.79913">
        <ele>64</ele>
        <time>2023-08-09T13:26:48.106+00:00</time>
      </trkpt>
      <trkpt lat="48.31698" lon="2.79905">
        <ele>64</ele>
        <time>2023-08-09T13:26:52.098+00:00</time>
      </trkpt>
      <trkpt lat="48.31698" lon="2.79898">
        <ele>65</ele>
        <time>2023-08-09T13:26:56.102+00:00</time>
      </trkpt>
      <trkpt lat="48.31698" lon="2.79889">
        <ele>65</ele>
        <time>2023-08-09T13:27:01.123+00:00</time>
      </trkpt>
      <trkpt lat="48.31699" lon="2.79881">
        <ele>65</ele>
        <time>2023-08-09T13:27:06.121+00:00</time>
      </trkpt>
      <trkpt lat="48.31699" lon="2.79873">
        <ele>65</ele>
        <time>2023-08-09T13:27:10.141+00:00</time>
      </trkpt>
      <trkpt lat="48.317" lon="2.79863">
        <ele>65</ele>
        <time>2023-08-09T13:27:15.122+00:00</time>
      </trkpt>
      <trkpt lat="48.317" lon="2.79853">
        <ele>65</ele>
        <time>2023-08-09T13:27:20.109+00:00</time>
      </trkpt>
      <trkpt lat="48.31701" lon="2.79842">
        <ele>64</ele>
        <time>2023-08-09T13:27:25.107+00:00</time>
      </trkpt>
      <trkpt lat="48.31702" lon="2.79834">
        <ele>64</ele>
        <time>2023-08-09T13:27:29.119+00:00</time>
      </trkpt>
      <trkpt lat="48.31703" lon="2.79827">
        <ele>64</ele>
        <time>2023-08-09T13:27:33.125+00:00</time>
      </trkpt>
      <trkpt lat="48.31703" lon="2.79818">
        <ele>64</ele>
        <time>2023-08-09T13:27:37.126+00:00</time>
      </trkpt>
      <trkpt lat="48.31702" lon="2.7981">
        <ele>64</ele>
        <time>2023-08-09T13:27:41.124+00:00</time>
      </trkpt>
      <trkpt lat="48.31703" lon="2.79801">
        <ele>64</ele>
        <time>2023-08-09T13:27:46.130+00:00</time>
      </trkpt>
      <trkpt lat="48.31704" lon="2.79791">
        <ele>63</ele>
        <time>2023-08-09T13:27:51.146+00:00</time>
      </trkpt>
      <trkpt lat="48.31705" lon="2.79782">
        <ele>63</ele>
        <time>2023-08-09T13:27:56.125+00:00</time>
      </trkpt>
      <trkpt lat="48.31704" lon="2.79772">
        <ele>63</ele>
        <time>2023-08-09T13:28:01.122+00:00</time>
      </trkpt>
      <trkpt lat="48.31705" lon="2.79763">
        <ele>62</ele>
        <time>2023-08-09T13:28:06.135+00:00</time>
      </trkpt>
      <trkpt lat="48.31705" lon="2.79753">
        <ele>62</ele>
        <time>2023-08-09T13:28:11.131+00:00</time>
      </trkpt>
      <trkpt lat="48.31706" lon="2.79745">
        <ele>62</ele>
        <time>2023-08-09T13:28:16.126+00:00</time>
      </trkpt>
      <trkpt lat="48.31706" lon="2.79737">
        <ele>62</ele>
        <time>2023-08-09T13:28:20.128+00:00</time>
      </trkpt>
      <trkpt lat="48.31707" lon="2.79728">
        <ele>62</ele>
        <time>2023-08-09T13:28:25.135+00:00</time>
      </trkpt>
      <trkpt lat="48.31707" lon="2.7972">
        <ele>62</ele>
        <time>2023-08-09T13:28:30.120+00:00</time>
      </trkpt>
      <trkpt lat="48.31708" lon="2.79712">
        <ele>62</ele>
        <time>2023-08-09T13:28:34.117+00:00</time>
      </trkpt>
      <trkpt lat="48.31707" lon="2.79703">
        <ele>61</ele>
        <time>2023-08-09T13:28:39.127+00:00</time>
      </trkpt>
      <trkpt lat="48.31708" lon="2.79693">
        <ele>61</ele>
        <time>2023-08-09T13:28:44.129+00:00</time>
      </trkpt>
      <trkpt lat="48.31709" lon="2.79686">
        <ele>63</ele>
        <time>2023-08-09T13:28:48.135+00:00</time>
      </trkpt>
      <trkpt lat="48.31709" lon="2.7968">
        <ele>63</ele>
        <time>2023-08-09T13:28:53.114+00:00</time>
      </trkpt>
      <trkpt lat="48.3171" lon="2.79674">
        <ele>63</ele>
        <time>2023-08-09T13:28:57.127+00:00</time>
      </trkpt>
      <trkpt lat="48.3171" lon="2.79666">
        <ele>63</ele>
        <time>2023-08-09T13:29:02.115+00:00</time>
      </trkpt>
      <trkpt lat="48.31709" lon="2.79657">
        <ele>63</ele>
        <time>2023-08-09T13:29:07.129+00:00</time>
      </trkpt>
      <trkpt lat="48.3171" lon="2.79648">
        <ele>62</ele>
        <time>2023-08-09T13:29:12.134+00:00</time>
      </trkpt>
      <trkpt lat="48.31711" lon="2.79639">
        <ele>62</ele>
        <time>2023-08-09T13:29:17.146+00:00</time>
      </trkpt>
      <trkpt lat="48.31712" lon="2.79631">
        <ele>62</ele>
        <time>2023-08-09T13:29:22.100+00:00</time>
      </trkpt>
      <trkpt lat="48.31712" lon="2.79625">
        <ele>62</ele>
        <time>2023-08-09T13:29:26.114+00:00</time>
      </trkpt>
      <trkpt lat="48.31712" lon="2.79617">
        <ele>62</ele>
        <time>2023-08-09T13:29:31.121+00:00</time>
      </trkpt>
      <trkpt lat="48.31713" lon="2.79611">
        <ele>62</ele>
        <time>2023-08-09T13:29:35.127+00:00</time>
      </trkpt>
      <trkpt lat="48.31715" lon="2.79605">
        <ele>62</ele>
        <time>2023-08-09T13:29:39.117+00:00</time>
      </trkpt>
      <trkpt lat="48.31716" lon="2.79595">
        <ele>63</ele>
        <time>2023-08-09T13:29:44.117+00:00</time>
      </trkpt>
      <trkpt lat="48.31716" lon="2.79585">
        <ele>63</ele>
        <time>2023-08-09T13:29:49.108+00:00</time>
      </trkpt>
      <trkpt lat="48.31717" lon="2.79577">
        <ele>63</ele>
        <time>2023-08-09T13:29:53.126+00:00</time>
      </trkpt>
      <trkpt lat="48.31719" lon="2.79568">
        <ele>64</ele>
        <time>2023-08-09T13:29:58.106+00:00</time>
      </trkpt>
      <trkpt lat="48.3172" lon="2.79562">
        <ele>64</ele>
        <time>2023-08-09T13:30:02.130+00:00</time>
      </trkpt>
      <trkpt lat="48.31722" lon="2.79553">
        <ele>64</ele>
        <time>2023-08-09T13:30:07.118+00:00</time>
      </trkpt>
      <trkpt lat="48.31724" lon="2.79545">
        <ele>64</ele>
        <time>2023-08-09T13:30:12.123+00:00</time>
      </trkpt>
      <trkpt lat="48.31726" lon="2.79536">
        <ele>64</ele>
        <time>2023-08-09T13:30:17.114+00:00</time>
      </trkpt>
      <trkpt lat="48.31726" lon="2.79524">
        <ele>64</ele>
        <time>2023-08-09T13:30:22.132+00:00</time>
      </trkpt>
      <trkpt lat="48.31723" lon="2.79515">
        <ele>64</ele>
        <time>2023-08-09T13:30:27.109+00:00</time>
      </trkpt>
      <trkpt lat="48.31715" lon="2.79511">
        <ele>64</ele>
        <time>2023-08-09T13:30:32.109+00:00</time>
      </trkpt>
      <trkpt lat="48.31709" lon="2.79509">
        <ele>64</ele>
        <time>2023-08-09T13:30:36.139+00:00</time>
      </trkpt>
      <trkpt lat="48.31703" lon="2.79508">
        <ele>64</ele>
        <time>2023-08-09T13:30:41.107+00:00</time>
      </trkpt>
      <trkpt lat="48.31698" lon="2.79507">
        <ele>64</ele>
        <time>2023-08-09T13:30:45.116+00:00</time>
      </trkpt>
      <trkpt lat="48.31694" lon="2.79505">
        <ele>64</ele>
        <time>2023-08-09T13:30:49.118+00:00</time>
      </trkpt>
      <trkpt lat="48.3169" lon="2.79505">
        <ele>64</ele>
        <time>2023-08-09T13:30:53.145+00:00</time>
      </trkpt>
      <trkpt lat="48.31683" lon="2.79504">
        <ele>64</ele>
        <time>2023-08-09T13:30:58.122+00:00</time>
      </trkpt>
      <trkpt lat="48.31679" lon="2.79503">
        <ele>63</ele>
        <time>2023-08-09T13:31:02.132+00:00</time>
      </trkpt>
      <trkpt lat="48.31673" lon="2.79501">
        <ele>63</ele>
        <time>2023-08-09T13:31:06.122+00:00</time>
      </trkpt>
      <trkpt lat="48.31668" lon="2.795">
        <ele>63</ele>
        <time>2023-08-09T13:31:10.129+00:00</time>
      </trkpt>
      <trkpt lat="48.31663" lon="2.795">
        <ele>63</ele>
        <time>2023-08-09T13:31:14.124+00:00</time>
      </trkpt>
      <trkpt lat="48.31656" lon="2.79498">
        <ele>63</ele>
        <time>2023-08-09T13:31:19.144+00:00</time>
      </trkpt>
      <trkpt lat="48.31649" lon="2.79497">
        <ele>63</ele>
        <time>2023-08-09T13:31:24.111+00:00</time>
      </trkpt>
      <trkpt lat="48.31645" lon="2.79496">
        <ele>63</ele>
        <time>2023-08-09T13:31:28.132+00:00</time>
      </trkpt>
      <trkpt lat="48.31645" lon="2.79496">
        <ele>63</ele>
        <time>2023-08-09T13:31:33.137+00:00</time>
      </trkpt>
      <trkpt lat="48.31643" lon="2.79496">
        <ele>63</ele>
        <time>2023-08-09T13:31:38.121+00:00</time>
      </trkpt>
      <trkpt lat="48.31641" lon="2.79501">
        <ele>63</ele>
        <time>2023-08-09T13:31:43.131+00:00</time>
      </trkpt>
      <trkpt lat="48.31639" lon="2.79507">
        <ele>63</ele>
        <time>2023-08-09T13:31:48.090+00:00</time>
      </trkpt>
      <trkpt lat="48.31637" lon="2.79511">
        <ele>63</ele>
        <time>2023-08-09T13:32:10.111+00:00</time>
      </trkpt>
      <trkpt lat="48.31639" lon="2.79504">
        <ele>63</ele>
        <time>2023-08-09T13:32:14.104+00:00</time>
      </trkpt>
      <trkpt lat="48.31639" lon="2.79496">
        <ele>63</ele>
        <time>2023-08-09T13:32:18.096+00:00</time>
      </trkpt>
      <trkpt lat="48.31633" lon="2.79493">
        <ele>63</ele>
        <time>2023-08-09T13:32:23.108+00:00</time>
      </trkpt>
      <trkpt lat="48.31628" lon="2.79493">
        <ele>63</ele>
        <time>2023-08-09T13:32:27.098+00:00</time>
      </trkpt>
      <trkpt lat="48.31622" lon="2.7949">
        <ele>63</ele>
        <time>2023-08-09T13:32:32.120+00:00</time>
      </trkpt>
      <trkpt lat="48.31618" lon="2.79489">
        <ele>63</ele>
        <time>2023-08-09T13:32:36.101+00:00</time>
      </trkpt>
      <trkpt lat="48.31611" lon="2.79489">
        <ele>63</ele>
        <time>2023-08-09T13:32:41.114+00:00</time>
      </trkpt>
      <trkpt lat="48.31606" lon="2.79489">
        <ele>63</ele>
        <time>2023-08-09T13:32:45.138+00:00</time>
      </trkpt>
      <trkpt lat="48.31602" lon="2.79486">
        <ele>63</ele>
        <time>2023-08-09T13:32:49.130+00:00</time>
      </trkpt>
      <trkpt lat="48.31595" lon="2.79485">
        <ele>64</ele>
        <time>2023-08-09T13:32:54.129+00:00</time>
      </trkpt>
      <trkpt lat="48.31588" lon="2.79483">
        <ele>64</ele>
        <time>2023-08-09T13:32:59.134+00:00</time>
      </trkpt>
      <trkpt lat="48.31585" lon="2.79482">
        <ele>64</ele>
        <time>2023-08-09T13:33:04.121+00:00</time>
      </trkpt>
      <trkpt lat="48.31587" lon="2.79481">
        <ele>64</ele>
        <time>2023-08-09T13:33:08.140+00:00</time>
      </trkpt>
      <trkpt lat="48.31589" lon="2.79479">
        <ele>64</ele>
        <time>2023-08-09T13:33:13.125+00:00</time>
      </trkpt>
      <trkpt lat="48.31592" lon="2.79475">
        <ele>64</ele>
        <time>2023-08-09T13:33:17.133+00:00</time>
      </trkpt>
      <trkpt lat="48.31597" lon="2.79471">
        <ele>64</ele>
        <time>2023-08-09T13:33:21.152+00:00</time>
      </trkpt>
      <trkpt lat="48.31601" lon="2.79467">
        <ele>63</ele>
        <time>2023-08-09T13:33:25.132+00:00</time>
      </trkpt>
      <trkpt lat="48.31605" lon="2.79461">
        <ele>63</ele>
        <time>2023-08-09T13:33:30.136+00:00</time>
      </trkpt>
      <trkpt lat="48.31609" lon="2.79456">
        <ele>64</ele>
        <time>2023-08-09T13:33:35.111+00:00</time>
      </trkpt>
      <trkpt lat="48.31612" lon="2.79453">
        <ele>64</ele>
        <time>2023-08-09T13:33:39.136+00:00</time>
      </trkpt>
      <trkpt lat="48.31616" lon="2.79446">
        <ele>64</ele>
        <time>2023-08-09T13:33:44.113+00:00</time>
      </trkpt>
      <trkpt lat="48.3162" lon="2.7944">
        <ele>64</ele>
        <time>2023-08-09T13:33:48.130+00:00</time>
      </trkpt>
      <trkpt lat="48.31623" lon="2.79434">
        <ele>64</ele>
        <time>2023-08-09T13:33:52.116+00:00</time>
      </trkpt>
      <trkpt lat="48.31627" lon="2.79425">
        <ele>63</ele>
        <time>2023-08-09T13:33:57.126+00:00</time>
      </trkpt>
      <trkpt lat="48.3163" lon="2.7942">
        <ele>63</ele>
        <time>2023-08-09T13:34:01.133+00:00</time>
      </trkpt>
      <trkpt lat="48.31633" lon="2.79413">
        <ele>63</ele>
        <time>2023-08-09T13:34:06.138+00:00</time>
      </trkpt>
      <trkpt lat="48.31637" lon="2.79405">
        <ele>63</ele>
        <time>2023-08-09T13:34:11.134+00:00</time>
      </trkpt>
      <trkpt lat="48.31639" lon="2.79395">
        <ele>65</ele>
        <time>2023-08-09T13:34:16.133+00:00</time>
      </trkpt>
      <trkpt lat="48.3164" lon="2.79389">
        <ele>65</ele>
        <time>2023-08-09T13:34:20.122+00:00</time>
      </trkpt>
      <trkpt lat="48.31641" lon="2.79379">
        <ele>65</ele>
        <time>2023-08-09T13:34:25.141+00:00</time>
      </trkpt>
      <trkpt lat="48.31642" lon="2.7937">
        <ele>65</ele>
        <time>2023-08-09T13:34:30.130+00:00</time>
      </trkpt>
      <trkpt lat="48.31641" lon="2.79362">
        <ele>65</ele>
        <time>2023-08-09T13:34:35.135+00:00</time>
      </trkpt>
      <trkpt lat="48.31637" lon="2.79354">
        <ele>65</ele>
        <time>2023-08-09T13:34:40.134+00:00</time>
      </trkpt>
      <trkpt lat="48.31632" lon="2.79351">
        <ele>65</ele>
        <time>2023-08-09T13:34:44.137+00:00</time>
      </trkpt>
      <trkpt lat="48.31626" lon="2.79348">
        <ele>65</ele>
        <time>2023-08-09T13:34:49.130+00:00</time>
      </trkpt>
      <trkpt lat="48.31621" lon="2.79348">
        <ele>64</ele>
        <time>2023-08-09T13:34:54.133+00:00</time>
      </trkpt>
      <trkpt lat="48.31618" lon="2.79347">
        <ele>65</ele>
        <time>2023-08-09T13:34:59.109+00:00</time>
      </trkpt>
      <trkpt lat="48.31618" lon="2.79347">
        <ele>64</ele>
        <time>2023-08-09T13:35:04.132+00:00</time>
      </trkpt>
      <trkpt lat="48.31617" lon="2.79347">
        <ele>65</ele>
        <time>2023-08-09T13:35:09.146+00:00</time>
      </trkpt>
      <trkpt lat="48.31613" lon="2.79347">
        <ele>65</ele>
        <time>2023-08-09T13:35:14.106+00:00</time>
      </trkpt>
      <trkpt lat="48.31609" lon="2.79346">
        <ele>65</ele>
        <time>2023-08-09T13:35:18.139+00:00</time>
      </trkpt>
      <trkpt lat="48.31604" lon="2.79346">
        <ele>65</ele>
        <time>2023-08-09T13:35:23.113+00:00</time>
      </trkpt>
      <trkpt lat="48.31599" lon="2.79345">
        <ele>65</ele>
        <time>2023-08-09T13:35:27.126+00:00</time>
      </trkpt>
      <trkpt lat="48.31595" lon="2.79343">
        <ele>66</ele>
        <time>2023-08-09T13:35:31.124+00:00</time>
      </trkpt>
      <trkpt lat="48.3159" lon="2.79342">
        <ele>66</ele>
        <time>2023-08-09T13:35:35.131+00:00</time>
      </trkpt>
      <trkpt lat="48.31587" lon="2.79341">
        <ele>66</ele>
        <time>2023-08-09T13:35:39.155+00:00</time>
      </trkpt>
      <trkpt lat="48.31582" lon="2.79337">
        <ele>66</ele>
        <time>2023-08-09T13:35:44.131+00:00</time>
      </trkpt>
      <trkpt lat="48.31582" lon="2.79333">
        <ele>66</ele>
        <time>2023-08-09T13:35:49.136+00:00</time>
      </trkpt>
      <trkpt lat="48.31583" lon="2.79326">
        <ele>66</ele>
        <time>2023-08-09T13:35:53.119+00:00</time>
      </trkpt>
      <trkpt lat="48.31584" lon="2.79317">
        <ele>68</ele>
        <time>2023-08-09T13:35:58.126+00:00</time>
      </trkpt>
      <trkpt lat="48.31584" lon="2.79308">
        <ele>68</ele>
        <time>2023-08-09T13:36:03.129+00:00</time>
      </trkpt>
      <trkpt lat="48.31584" lon="2.793">
        <ele>68</ele>
        <time>2023-08-09T13:36:08.146+00:00</time>
      </trkpt>
      <trkpt lat="48.31583" lon="2.79295">
        <ele>68</ele>
        <time>2023-08-09T13:36:13.150+00:00</time>
      </trkpt>
      <trkpt lat="48.31585" lon="2.79281">
        <ele>68</ele>
        <time>2023-08-09T13:36:23.128+00:00</time>
      </trkpt>
      <trkpt lat="48.31586" lon="2.7928">
        <ele>68</ele>
        <time>2023-08-09T13:36:27.132+00:00</time>
      </trkpt>
      <trkpt lat="48.31586" lon="2.7928">
        <ele>68</ele>
        <time>2023-08-09T13:36:31.140+00:00</time>
      </trkpt>
      <trkpt lat="48.31586" lon="2.79278">
        <ele>68</ele>
        <time>2023-08-09T13:36:36.130+00:00</time>
      </trkpt>
      <trkpt lat="48.31587" lon="2.7927">
        <ele>68</ele>
        <time>2023-08-09T13:36:40.138+00:00</time>
      </trkpt>
      <trkpt lat="48.31589" lon="2.79259">
        <ele>67</ele>
        <time>2023-08-09T13:36:45.114+00:00</time>
      </trkpt>
      <trkpt lat="48.31589" lon="2.79258">
        <ele>67</ele>
        <time>2023-08-09T13:36:49.137+00:00</time>
      </trkpt>
      <trkpt lat="48.31588" lon="2.79249">
        <ele>67</ele>
        <time>2023-08-09T13:36:54.128+00:00</time>
      </trkpt>
      <trkpt lat="48.31587" lon="2.7924">
        <ele>67</ele>
        <time>2023-08-09T13:36:59.127+00:00</time>
      </trkpt>
      <trkpt lat="48.31587" lon="2.79232">
        <ele>66</ele>
        <time>2023-08-09T13:37:04.147+00:00</time>
      </trkpt>
      <trkpt lat="48.31589" lon="2.7922">
        <ele>66</ele>
        <time>2023-08-09T13:37:09.111+00:00</time>
      </trkpt>
      <trkpt lat="48.31587" lon="2.79211">
        <ele>66</ele>
        <time>2023-08-09T13:37:13.130+00:00</time>
      </trkpt>
      <trkpt lat="48.31587" lon="2.79202">
        <ele>66</ele>
        <time>2023-08-09T13:37:17.118+00:00</time>
      </trkpt>
      <trkpt lat="48.31587" lon="2.79191">
        <ele>66</ele>
        <time>2023-08-09T13:37:22.113+00:00</time>
      </trkpt>
      <trkpt lat="48.31587" lon="2.79183">
        <ele>66</ele>
        <time>2023-08-09T13:37:26.109+00:00</time>
      </trkpt>
      <trkpt lat="48.31587" lon="2.79174">
        <ele>65</ele>
        <time>2023-08-09T13:37:30.121+00:00</time>
      </trkpt>
      <trkpt lat="48.31587" lon="2.79165">
        <ele>65</ele>
        <time>2023-08-09T13:37:35.118+00:00</time>
      </trkpt>
      <trkpt lat="48.31589" lon="2.79154">
        <ele>65</ele>
        <time>2023-08-09T13:37:40.128+00:00</time>
      </trkpt>
      <trkpt lat="48.3159" lon="2.79146">
        <ele>63</ele>
        <time>2023-08-09T13:37:44.133+00:00</time>
      </trkpt>
      <trkpt lat="48.31592" lon="2.79138">
        <ele>63</ele>
        <time>2023-08-09T13:37:48.136+00:00</time>
      </trkpt>
      <trkpt lat="48.31595" lon="2.79129">
        <ele>63</ele>
        <time>2023-08-09T13:37:53.128+00:00</time>
      </trkpt>
      <trkpt lat="48.31598" lon="2.7912">
        <ele>62</ele>
        <time>2023-08-09T13:37:58.136+00:00</time>
      </trkpt>
      <trkpt lat="48.31601" lon="2.79112">
        <ele>62</ele>
        <time>2023-08-09T13:38:03.131+00:00</time>
      </trkpt>
      <trkpt lat="48.31605" lon="2.79103">
        <ele>62</ele>
        <time>2023-08-09T13:38:08.135+00:00</time>
      </trkpt>
      <trkpt lat="48.31608" lon="2.79094">
        <ele>61</ele>
        <time>2023-08-09T13:38:13.128+00:00</time>
      </trkpt>
      <trkpt lat="48.31613" lon="2.79085">
        <ele>61</ele>
        <time>2023-08-09T13:38:18.146+00:00</time>
      </trkpt>
      <trkpt lat="48.31616" lon="2.79075">
        <ele>61</ele>
        <time>2023-08-09T13:38:23.131+00:00</time>
      </trkpt>
      <trkpt lat="48.31619" lon="2.79067">
        <ele>61</ele>
        <time>2023-08-09T13:38:28.113+00:00</time>
      </trkpt>
      <trkpt lat="48.31622" lon="2.79058">
        <ele>61</ele>
        <time>2023-08-09T13:38:33.150+00:00</time>
      </trkpt>
      <trkpt lat="48.31625" lon="2.7905">
        <ele>61</ele>
        <time>2023-08-09T13:38:38.106+00:00</time>
      </trkpt>
      <trkpt lat="48.31627" lon="2.79044">
        <ele>64</ele>
        <time>2023-08-09T13:38:42.123+00:00</time>
      </trkpt>
      <trkpt lat="48.3163" lon="2.79035">
        <ele>62</ele>
        <time>2023-08-09T13:38:47.134+00:00</time>
      </trkpt>
      <trkpt lat="48.31633" lon="2.79028">
        <ele>62</ele>
        <time>2023-08-09T13:38:52.126+00:00</time>
      </trkpt>
      <trkpt lat="48.31637" lon="2.79019">
        <ele>62</ele>
        <time>2023-08-09T13:38:57.110+00:00</time>
      </trkpt>
      <trkpt lat="48.3164" lon="2.79013">
        <ele>62</ele>
        <time>2023-08-09T13:39:01.106+00:00</time>
      </trkpt>
      <trkpt lat="48.31642" lon="2.79008">
        <ele>62</ele>
        <time>2023-08-09T13:39:05.129+00:00</time>
      </trkpt>
      <trkpt lat="48.31642" lon="2.79007">
        <ele>62</ele>
        <time>2023-08-09T13:39:10.125+00:00</time>
      </trkpt>
      <trkpt lat="48.31643" lon="2.79007">
        <ele>62</ele>
        <time>2023-08-09T13:39:15.121+00:00</time>
      </trkpt>
      <trkpt lat="48.31646" lon="2.79003">
        <ele>62</ele>
        <time>2023-08-09T13:39:19.128+00:00</time>
      </trkpt>
      <trkpt lat="48.31648" lon="2.79">
        <ele>62</ele>
        <time>2023-08-09T13:39:24.121+00:00</time>
      </trkpt>
      <trkpt lat="48.31648" lon="2.79001">
        <ele>62</ele>
        <time>2023-08-09T13:39:29.112+00:00</time>
      </trkpt>
      <trkpt lat="48.31654" lon="2.79002">
        <ele>61</ele>
        <time>2023-08-09T13:39:33.129+00:00</time>
      </trkpt>
      <trkpt lat="48.3166" lon="2.79004">
        <ele>61</ele>
        <time>2023-08-09T13:39:38.132+00:00</time>
      </trkpt>
      <trkpt lat="48.31665" lon="2.79007">
        <ele>61</ele>
        <time>2023-08-09T13:39:42.135+00:00</time>
      </trkpt>
      <trkpt lat="48.31672" lon="2.7901">
        <ele>61</ele>
        <time>2023-08-09T13:39:47.142+00:00</time>
      </trkpt>
      <trkpt lat="48.31676" lon="2.79013">
        <ele>61</ele>
        <time>2023-08-09T13:39:51.137+00:00</time>
      </trkpt>
      <trkpt lat="48.31682" lon="2.79017">
        <ele>62</ele>
        <time>2023-08-09T13:39:56.124+00:00</time>
      </trkpt>
      <trkpt lat="48.31688" lon="2.79022">
        <ele>62</ele>
        <time>2023-08-09T13:40:01.134+00:00</time>
      </trkpt>
      <trkpt lat="48.31696" lon="2.79027">
        <ele>62</ele>
        <time>2023-08-09T13:40:06.140+00:00</time>
      </trkpt>
      <trkpt lat="48.31702" lon="2.79032">
        <ele>62</ele>
        <time>2023-08-09T13:40:11.140+00:00</time>
      </trkpt>
      <trkpt lat="48.31702" lon="2.79033">
        <ele>62</ele>
        <time>2023-08-09T13:40:16.097+00:00</time>
      </trkpt>
      <trkpt lat="48.31701" lon="2.79032">
        <ele>62</ele>
        <time>2023-08-09T13:40:21.104+00:00</time>
      </trkpt>
      <trkpt lat="48.31706" lon="2.79034">
        <ele>62</ele>
        <time>2023-08-09T13:40:26.099+00:00</time>
      </trkpt>
      <trkpt lat="48.3171" lon="2.79037">
        <ele>62</ele>
        <time>2023-08-09T13:40:31.094+00:00</time>
      </trkpt>
      <trkpt lat="48.31716" lon="2.7904">
        <ele>62</ele>
        <time>2023-08-09T13:40:35.112+00:00</time>
      </trkpt>
      <trkpt lat="48.31722" lon="2.79043">
        <ele>63</ele>
        <time>2023-08-09T13:40:40.107+00:00</time>
      </trkpt>
      <trkpt lat="48.31728" lon="2.79047">
        <ele>63</ele>
        <time>2023-08-09T13:40:45.100+00:00</time>
      </trkpt>
      <trkpt lat="48.31734" lon="2.79051">
        <ele>63</ele>
        <time>2023-08-09T13:40:50.103+00:00</time>
      </trkpt>
      <trkpt lat="48.31739" lon="2.79056">
        <ele>63</ele>
        <time>2023-08-09T13:40:54.110+00:00</time>
      </trkpt>
      <trkpt lat="48.31745" lon="2.7906">
        <ele>63</ele>
        <time>2023-08-09T13:40:59.108+00:00</time>
      </trkpt>
      <trkpt lat="48.3175" lon="2.79062">
        <ele>63</ele>
        <time>2023-08-09T13:41:03.096+00:00</time>
      </trkpt>
      <trkpt lat="48.31758" lon="2.79065">
        <ele>63</ele>
        <time>2023-08-09T13:41:08.092+00:00</time>
      </trkpt>
      <trkpt lat="48.31763" lon="2.79066">
        <ele>63</ele>
        <time>2023-08-09T13:41:12.114+00:00</time>
      </trkpt>
      <trkpt lat="48.31769" lon="2.79069">
        <ele>63</ele>
        <time>2023-08-09T13:41:16.136+00:00</time>
      </trkpt>
      <trkpt lat="48.31774" lon="2.79072">
        <ele>63</ele>
        <time>2023-08-09T13:41:20.140+00:00</time>
      </trkpt>
      <trkpt lat="48.31775" lon="2.79074">
        <ele>63</ele>
        <time>2023-08-09T13:41:24.133+00:00</time>
      </trkpt>
      <trkpt lat="48.31779" lon="2.79077">
        <ele>63</ele>
        <time>2023-08-09T13:41:29.135+00:00</time>
      </trkpt>
      <trkpt lat="48.31789" lon="2.79085">
        <ele>63</ele>
        <time>2023-08-09T13:42:15.105+00:00</time>
      </trkpt>
      <trkpt lat="48.31791" lon="2.79085">
        <ele>63</ele>
        <time>2023-08-09T13:42:20.117+00:00</time>
      </trkpt>
      <trkpt lat="48.31797" lon="2.79087">
        <ele>65</ele>
        <time>2023-08-09T13:42:24.134+00:00</time>
      </trkpt>
      <trkpt lat="48.31802" lon="2.79089">
        <ele>65</ele>
        <time>2023-08-09T13:42:29.133+00:00</time>
      </trkpt>
      <trkpt lat="48.31805" lon="2.79092">
        <ele>65</ele>
        <time>2023-08-09T13:42:33.142+00:00</time>
      </trkpt>
      <trkpt lat="48.3181" lon="2.79097">
        <ele>65</ele>
        <time>2023-08-09T13:42:38.131+00:00</time>
      </trkpt>
      <trkpt lat="48.31815" lon="2.79098">
        <ele>65</ele>
        <time>2023-08-09T13:42:42.136+00:00</time>
      </trkpt>
      <trkpt lat="48.31821" lon="2.791">
        <ele>68</ele>
        <time>2023-08-09T13:42:46.145+00:00</time>
      </trkpt>
      <trkpt lat="48.31826" lon="2.79103">
        <ele>68</ele>
        <time>2023-08-09T13:42:50.146+00:00</time>
      </trkpt>
      <trkpt lat="48.31833" lon="2.79105">
        <ele>68</ele>
        <time>2023-08-09T13:42:55.108+00:00</time>
      </trkpt>
      <trkpt lat="48.31837" lon="2.79109">
        <ele>68</ele>
        <time>2023-08-09T13:42:59.110+00:00</time>
      </trkpt>
      <trkpt lat="48.31842" lon="2.79111">
        <ele>68</ele>
        <time>2023-08-09T13:43:03.138+00:00</time>
      </trkpt>
      <trkpt lat="48.31849" lon="2.79114">
        <ele>67</ele>
        <time>2023-08-09T13:43:08.108+00:00</time>
      </trkpt>
      <trkpt lat="48.31853" lon="2.79117">
        <ele>67</ele>
        <time>2023-08-09T13:43:12.137+00:00</time>
      </trkpt>
      <trkpt lat="48.31858" lon="2.7912">
        <ele>67</ele>
        <time>2023-08-09T13:43:16.133+00:00</time>
      </trkpt>
      <trkpt lat="48.31862" lon="2.79123">
        <ele>67</ele>
        <time>2023-08-09T13:43:20.134+00:00</time>
      </trkpt>
      <trkpt lat="48.31866" lon="2.79125">
        <ele>68</ele>
        <time>2023-08-09T13:43:24.130+00:00</time>
      </trkpt>
      <trkpt lat="48.31873" lon="2.79128">
        <ele>68</ele>
        <time>2023-08-09T13:43:29.137+00:00</time>
      </trkpt>
      <trkpt lat="48.31877" lon="2.7913">
        <ele>66</ele>
        <time>2023-08-09T13:43:34.141+00:00</time>
      </trkpt>
      <trkpt lat="48.3188" lon="2.79128">
        <ele>66</ele>
        <time>2023-08-09T13:43:39.133+00:00</time>
      </trkpt>
      <trkpt lat="48.31886" lon="2.79126">
        <ele>66</ele>
        <time>2023-08-09T13:43:44.140+00:00</time>
      </trkpt>
      <trkpt lat="48.31889" lon="2.79127">
        <ele>66</ele>
        <time>2023-08-09T13:43:57.118+00:00</time>
      </trkpt>
      <trkpt lat="48.31892" lon="2.79129">
        <ele>66</ele>
        <time>2023-08-09T13:44:02.121+00:00</time>
      </trkpt>
      <trkpt lat="48.31898" lon="2.79132">
        <ele>66</ele>
        <time>2023-08-09T13:44:07.128+00:00</time>
      </trkpt>
      <trkpt lat="48.31902" lon="2.79134">
        <ele>66</ele>
        <time>2023-08-09T13:44:12.102+00:00</time>
      </trkpt>
      <trkpt lat="48.31902" lon="2.79135">
        <ele>66</ele>
        <time>2023-08-09T13:44:16.102+00:00</time>
      </trkpt>
      <trkpt lat="48.31911" lon="2.79132">
        <ele>64</ele>
        <time>2023-08-09T13:44:38.090+00:00</time>
      </trkpt>
      <trkpt lat="48.31914" lon="2.79139">
        <ele>64</ele>
        <time>2023-08-09T13:44:43.106+00:00</time>
      </trkpt>
      <trkpt lat="48.31916" lon="2.79145">
        <ele>64</ele>
        <time>2023-08-09T13:44:47.115+00:00</time>
      </trkpt>
      <trkpt lat="48.31916" lon="2.79146">
        <ele>64</ele>
        <time>2023-08-09T13:44:52.146+00:00</time>
      </trkpt>
      <trkpt lat="48.31918" lon="2.79148">
        <ele>64</ele>
        <time>2023-08-09T13:44:57.117+00:00</time>
      </trkpt>
      <trkpt lat="48.31922" lon="2.7915">
        <ele>64</ele>
        <time>2023-08-09T13:45:01.112+00:00</time>
      </trkpt>
      <trkpt lat="48.31924" lon="2.79151">
        <ele>64</ele>
        <time>2023-08-09T13:45:05.124+00:00</time>
      </trkpt>
      <trkpt lat="48.31929" lon="2.79154">
        <ele>63</ele>
        <time>2023-08-09T13:45:10.101+00:00</time>
      </trkpt>
      <trkpt lat="48.31935" lon="2.79156">
        <ele>63</ele>
        <time>2023-08-09T13:45:14.109+00:00</time>
      </trkpt>
      <trkpt lat="48.31949" lon="2.79158">
        <ele>63</ele>
        <time>2023-08-09T13:45:33.101+00:00</time>
      </trkpt>
      <trkpt lat="48.31951" lon="2.79164">
        <ele>63</ele>
        <time>2023-08-09T13:45:37.117+00:00</time>
      </trkpt>
      <trkpt lat="48.31955" lon="2.79167">
        <ele>63</ele>
        <time>2023-08-09T13:45:41.099+00:00</time>
      </trkpt>
      <trkpt lat="48.3196" lon="2.79172">
        <ele>64</ele>
        <time>2023-08-09T13:45:46.103+00:00</time>
      </trkpt>
      <trkpt lat="48.31965" lon="2.79176">
        <ele>64</ele>
        <time>2023-08-09T13:45:50.098+00:00</time>
      </trkpt>
      <trkpt lat="48.31971" lon="2.7918">
        <ele>64</ele>
        <time>2023-08-09T13:45:55.104+00:00</time>
      </trkpt>
      <trkpt lat="48.31975" lon="2.79183">
        <ele>64</ele>
        <time>2023-08-09T13:45:59.107+00:00</time>
      </trkpt>
      <trkpt lat="48.31979" lon="2.79186">
        <ele>64</ele>
        <time>2023-08-09T13:46:03.132+00:00</time>
      </trkpt>
      <trkpt lat="48.31985" lon="2.7919">
        <ele>64</ele>
        <time>2023-08-09T13:46:08.135+00:00</time>
      </trkpt>
      <trkpt lat="48.31991" lon="2.79195">
        <ele>66</ele>
        <time>2023-08-09T13:46:13.106+00:00</time>
      </trkpt>
      <trkpt lat="48.31995" lon="2.79198">
        <ele>66</ele>
        <time>2023-08-09T13:46:17.130+00:00</time>
      </trkpt>
      <trkpt lat="48.32001" lon="2.792">
        <ele>66</ele>
        <time>2023-08-09T13:46:21.153+00:00</time>
      </trkpt>
      <trkpt lat="48.32005" lon="2.79203">
        <ele>66</ele>
        <time>2023-08-09T13:46:25.141+00:00</time>
      </trkpt>
      <trkpt lat="48.3201" lon="2.79206">
        <ele>66</ele>
        <time>2023-08-09T13:46:30.132+00:00</time>
      </trkpt>
      <trkpt lat="48.32013" lon="2.79209">
        <ele>67</ele>
        <time>2023-08-09T13:46:34.150+00:00</time>
      </trkpt>
      <trkpt lat="48.32017" lon="2.79212">
        <ele>69</ele>
        <time>2023-08-09T13:46:38.155+00:00</time>
      </trkpt>
      <trkpt lat="48.32023" lon="2.79215">
        <ele>69</ele>
        <time>2023-08-09T13:46:43.148+00:00</time>
      </trkpt>
      <trkpt lat="48.32027" lon="2.79217">
        <ele>69</ele>
        <time>2023-08-09T13:46:48.152+00:00</time>
      </trkpt>
      <trkpt lat="48.32032" lon="2.79221">
        <ele>69</ele>
        <time>2023-08-09T13:46:52.146+00:00</time>
      </trkpt>
      <trkpt lat="48.32036" lon="2.79225">
        <ele>69</ele>
        <time>2023-08-09T13:46:57.136+00:00</time>
      </trkpt>
      <trkpt lat="48.3204" lon="2.79229">
        <ele>69</ele>
        <time>2023-08-09T13:47:02.143+00:00</time>
      </trkpt>
      <trkpt lat="48.32045" lon="2.79233">
        <ele>75</ele>
        <time>2023-08-09T13:47:07.132+00:00</time>
      </trkpt>
      <trkpt lat="48.32048" lon="2.79236">
        <ele>75</ele>
        <time>2023-08-09T13:47:11.149+00:00</time>
      </trkpt>
      <trkpt lat="48.32053" lon="2.7924">
        <ele>75</ele>
        <time>2023-08-09T13:47:16.126+00:00</time>
      </trkpt>
      <trkpt lat="48.32059" lon="2.79243">
        <ele>75</ele>
        <time>2023-08-09T13:47:21.128+00:00</time>
      </trkpt>
      <trkpt lat="48.32062" lon="2.79245">
        <ele>75</ele>
        <time>2023-08-09T13:47:25.127+00:00</time>
      </trkpt>
      <trkpt lat="48.32067" lon="2.79248">
        <ele>75</ele>
        <time>2023-08-09T13:47:29.137+00:00</time>
      </trkpt>
      <trkpt lat="48.32072" lon="2.79252">
        <ele>79</ele>
        <time>2023-08-09T13:47:34.139+00:00</time>
      </trkpt>
      <trkpt lat="48.32076" lon="2.79255">
        <ele>79</ele>
        <time>2023-08-09T13:47:38.130+00:00</time>
      </trkpt>
      <trkpt lat="48.3208" lon="2.79259">
        <ele>79</ele>
        <time>2023-08-09T13:47:43.138+00:00</time>
      </trkpt>
      <trkpt lat="48.32086" lon="2.79262">
        <ele>79</ele>
        <time>2023-08-09T13:47:48.136+00:00</time>
      </trkpt>
      <trkpt lat="48.32091" lon="2.79265">
        <ele>80</ele>
        <time>2023-08-09T13:47:53.126+00:00</time>
      </trkpt>
      <trkpt lat="48.32094" lon="2.79267">
        <ele>80</ele>
        <time>2023-08-09T13:47:57.137+00:00</time>
      </trkpt>
      <trkpt lat="48.32099" lon="2.7927">
        <ele>84</ele>
        <time>2023-08-09T13:48:01.136+00:00</time>
      </trkpt>
      <trkpt lat="48.32104" lon="2.79272">
        <ele>84</ele>
        <time>2023-08-09T13:48:06.157+00:00</time>
      </trkpt>
      <trkpt lat="48.32109" lon="2.79274">
        <ele>84</ele>
        <time>2023-08-09T13:48:11.139+00:00</time>
      </trkpt>
      <trkpt lat="48.32113" lon="2.79275">
        <ele>84</ele>
        <time>2023-08-09T13:48:16.138+00:00</time>
      </trkpt>
      <trkpt lat="48.32118" lon="2.7928">
        <ele>84</ele>
        <time>2023-08-09T13:48:21.158+00:00</time>
      </trkpt>
      <trkpt lat="48.32124" lon="2.79284">
        <ele>84</ele>
        <time>2023-08-09T13:48:26.132+00:00</time>
      </trkpt>
      <trkpt lat="48.32131" lon="2.79287">
        <ele>85</ele>
        <time>2023-08-09T13:48:31.136+00:00</time>
      </trkpt>
      <trkpt lat="48.32137" lon="2.79291">
        <ele>85</ele>
        <time>2023-08-09T13:48:36.126+00:00</time>
      </trkpt>
      <trkpt lat="48.32143" lon="2.79294">
        <ele>87</ele>
        <time>2023-08-09T13:48:41.125+00:00</time>
      </trkpt>
      <trkpt lat="48.32148" lon="2.79296">
        <ele>87</ele>
        <time>2023-08-09T13:48:45.127+00:00</time>
      </trkpt>
      <trkpt lat="48.32152" lon="2.79298">
        <ele>87</ele>
        <time>2023-08-09T13:48:49.144+00:00</time>
      </trkpt>
      <trkpt lat="48.32158" lon="2.793">
        <ele>87</ele>
        <time>2023-08-09T13:48:54.140+00:00</time>
      </trkpt>
      <trkpt lat="48.32162" lon="2.79302">
        <ele>87</ele>
        <time>2023-08-09T13:48:59.103+00:00</time>
      </trkpt>
      <trkpt lat="48.32165" lon="2.79304">
        <ele>87</ele>
        <time>2023-08-09T13:49:03.127+00:00</time>
      </trkpt>
      <trkpt lat="48.32171" lon="2.79308">
        <ele>87</ele>
        <time>2023-08-09T13:49:08.109+00:00</time>
      </trkpt>
      <trkpt lat="48.32175" lon="2.7931">
        <ele>87</ele>
        <time>2023-08-09T13:49:12.130+00:00</time>
      </trkpt>
      <trkpt lat="48.32182" lon="2.79313">
        <ele>87</ele>
        <time>2023-08-09T13:49:17.142+00:00</time>
      </trkpt>
      <trkpt lat="48.32186" lon="2.79314">
        <ele>87</ele>
        <time>2023-08-09T13:49:21.129+00:00</time>
      </trkpt>
      <trkpt lat="48.32193" lon="2.79316">
        <ele>87</ele>
        <time>2023-08-09T13:49:26.138+00:00</time>
      </trkpt>
      <trkpt lat="48.32198" lon="2.79318">
        <ele>87</ele>
        <time>2023-08-09T13:49:30.150+00:00</time>
      </trkpt>
      <trkpt lat="48.32203" lon="2.7932">
        <ele>87</ele>
        <time>2023-08-09T13:49:34.156+00:00</time>
      </trkpt>
      <trkpt lat="48.3221" lon="2.7932">
        <ele>86</ele>
        <time>2023-08-09T13:49:39.145+00:00</time>
      </trkpt>
      <trkpt lat="48.32217" lon="2.7932">
        <ele>86</ele>
        <time>2023-08-09T13:49:44.118+00:00</time>
      </trkpt>
      <trkpt lat="48.32223" lon="2.7932">
        <ele>86</ele>
        <time>2023-08-09T13:49:48.136+00:00</time>
      </trkpt>
      <trkpt lat="48.32228" lon="2.79321">
        <ele>86</ele>
        <time>2023-08-09T13:49:52.138+00:00</time>
      </trkpt>
      <trkpt lat="48.32233" lon="2.79321">
        <ele>86</ele>
        <time>2023-08-09T13:49:56.149+00:00</time>
      </trkpt>
      <trkpt lat="48.32239" lon="2.79322">
        <ele>87</ele>
        <time>2023-08-09T13:50:01.133+00:00</time>
      </trkpt>
      <trkpt lat="48.32244" lon="2.79322">
        <ele>87</ele>
        <time>2023-08-09T13:50:05.148+00:00</time>
      </trkpt>
      <trkpt lat="48.3225" lon="2.79323">
        <ele>87</ele>
        <time>2023-08-09T13:50:10.139+00:00</time>
      </trkpt>
      <trkpt lat="48.32256" lon="2.79324">
        <ele>87</ele>
        <time>2023-08-09T13:50:15.131+00:00</time>
      </trkpt>
      <trkpt lat="48.32262" lon="2.79323">
        <ele>87</ele>
        <time>2023-08-09T13:50:20.126+00:00</time>
      </trkpt>
      <trkpt lat="48.32269" lon="2.79324">
        <ele>87</ele>
        <time>2023-08-09T13:50:25.089+00:00</time>
      </trkpt>
      <trkpt lat="48.32273" lon="2.79325">
        <ele>87</ele>
        <time>2023-08-09T13:50:29.103+00:00</time>
      </trkpt>
      <trkpt lat="48.32278" lon="2.79325">
        <ele>87</ele>
        <time>2023-08-09T13:50:33.103+00:00</time>
      </trkpt>
      <trkpt lat="48.32284" lon="2.79325">
        <ele>87</ele>
        <time>2023-08-09T13:50:37.114+00:00</time>
      </trkpt>
      <trkpt lat="48.32289" lon="2.79325">
        <ele>87</ele>
        <time>2023-08-09T13:50:41.123+00:00</time>
      </trkpt>
      <trkpt lat="48.32295" lon="2.79326">
        <ele>87</ele>
        <time>2023-08-09T13:50:45.117+00:00</time>
      </trkpt>
      <trkpt lat="48.32301" lon="2.79326">
        <ele>87</ele>
        <time>2023-08-09T13:50:50.128+00:00</time>
      </trkpt>
      <trkpt lat="48.32309" lon="2.79327">
        <ele>87</ele>
        <time>2023-08-09T13:50:55.121+00:00</time>
      </trkpt>
      <trkpt lat="48.32314" lon="2.79327">
        <ele>87</ele>
        <time>2023-08-09T13:50:59.124+00:00</time>
      </trkpt>
      <trkpt lat="48.32319" lon="2.79327">
        <ele>87</ele>
        <time>2023-08-09T13:51:03.117+00:00</time>
      </trkpt>
      <trkpt lat="48.32326" lon="2.79327">
        <ele>87</ele>
        <time>2023-08-09T13:51:08.113+00:00</time>
      </trkpt>
      <trkpt lat="48.32332" lon="2.79327">
        <ele>87</ele>
        <time>2023-08-09T13:51:13.103+00:00</time>
      </trkpt>
      <trkpt lat="48.32338" lon="2.79328">
        <ele>87</ele>
        <time>2023-08-09T13:51:17.115+00:00</time>
      </trkpt>
      <trkpt lat="48.32345" lon="2.79328">
        <ele>87</ele>
        <time>2023-08-09T13:51:22.104+00:00</time>
      </trkpt>
      <trkpt lat="48.3235" lon="2.79328">
        <ele>87</ele>
        <time>2023-08-09T13:51:26.100+00:00</time>
      </trkpt>
      <trkpt lat="48.32355" lon="2.79328">
        <ele>87</ele>
        <time>2023-08-09T13:51:30.109+00:00</time>
      </trkpt>
      <trkpt lat="48.32361" lon="2.79329">
        <ele>87</ele>
        <time>2023-08-09T13:51:35.102+00:00</time>
      </trkpt>
      <trkpt lat="48.32365" lon="2.79329">
        <ele>87</ele>
        <time>2023-08-09T13:51:39.112+00:00</time>
      </trkpt>
      <trkpt lat="48.32371" lon="2.79331">
        <ele>87</ele>
        <time>2023-08-09T13:51:43.134+00:00</time>
      </trkpt>
      <trkpt lat="48.32377" lon="2.79333">
        <ele>87</ele>
        <time>2023-08-09T13:51:48.120+00:00</time>
      </trkpt>
      <trkpt lat="48.32382" lon="2.79334">
        <ele>87</ele>
        <time>2023-08-09T13:51:52.144+00:00</time>
      </trkpt>
      <trkpt lat="48.32388" lon="2.79336">
        <ele>87</ele>
        <time>2023-08-09T13:51:57.141+00:00</time>
      </trkpt>
      <trkpt lat="48.32394" lon="2.79338">
        <ele>87</ele>
        <time>2023-08-09T13:52:02.133+00:00</time>
      </trkpt>
      <trkpt lat="48.324" lon="2.7934">
        <ele>87</ele>
        <time>2023-08-09T13:52:07.121+00:00</time>
      </trkpt>
      <trkpt lat="48.32406" lon="2.79343">
        <ele>89</ele>
        <time>2023-08-09T13:52:12.129+00:00</time>
      </trkpt>
      <trkpt lat="48.32412" lon="2.79346">
        <ele>89</ele>
        <time>2023-08-09T13:52:17.125+00:00</time>
      </trkpt>
      <trkpt lat="48.32418" lon="2.79348">
        <ele>89</ele>
        <time>2023-08-09T13:52:22.139+00:00</time>
      </trkpt>
      <trkpt lat="48.32424" lon="2.79352">
        <ele>89</ele>
        <time>2023-08-09T13:52:27.143+00:00</time>
      </trkpt>
      <trkpt lat="48.3243" lon="2.79355">
        <ele>89</ele>
        <time>2023-08-09T13:52:32.144+00:00</time>
      </trkpt>
      <trkpt lat="48.32436" lon="2.79358">
        <ele>90</ele>
        <time>2023-08-09T13:52:37.145+00:00</time>
      </trkpt>
      <trkpt lat="48.32441" lon="2.79361">
        <ele>90</ele>
        <time>2023-08-09T13:52:42.141+00:00</time>
      </trkpt>
      <trkpt lat="48.32446" lon="2.79364">
        <ele>90</ele>
        <time>2023-08-09T13:52:46.133+00:00</time>
      </trkpt>
      <trkpt lat="48.32452" lon="2.79368">
        <ele>90</ele>
        <time>2023-08-09T13:52:51.136+00:00</time>
      </trkpt>
      <trkpt lat="48.32458" lon="2.79371">
        <ele>90</ele>
        <time>2023-08-09T13:52:56.137+00:00</time>
      </trkpt>
      <trkpt lat="48.32465" lon="2.79374">
        <ele>90</ele>
        <time>2023-08-09T13:53:01.131+00:00</time>
      </trkpt>
      <trkpt lat="48.32471" lon="2.79378">
        <ele>90</ele>
        <time>2023-08-09T13:53:06.131+00:00</time>
      </trkpt>
      <trkpt lat="48.32477" lon="2.7938">
        <ele>90</ele>
        <time>2023-08-09T13:53:11.122+00:00</time>
      </trkpt>
      <trkpt lat="48.32482" lon="2.79383">
        <ele>90</ele>
        <time>2023-08-09T13:53:15.127+00:00</time>
      </trkpt>
      <trkpt lat="48.32486" lon="2.79386">
        <ele>91</ele>
        <time>2023-08-09T13:53:19.117+00:00</time>
      </trkpt>
      <trkpt lat="48.32492" lon="2.7939">
        <ele>91</ele>
        <time>2023-08-09T13:53:24.111+00:00</time>
      </trkpt>
      <trkpt lat="48.32498" lon="2.79394">
        <ele>91</ele>
        <time>2023-08-09T13:53:29.118+00:00</time>
      </trkpt>
      <trkpt lat="48.32503" lon="2.79398">
        <ele>91</ele>
        <time>2023-08-09T13:53:34.121+00:00</time>
      </trkpt>
      <trkpt lat="48.32509" lon="2.79402">
        <ele>91</ele>
        <time>2023-08-09T13:53:39.113+00:00</time>
      </trkpt>
      <trkpt lat="48.32515" lon="2.79405">
        <ele>90</ele>
        <time>2023-08-09T13:53:44.099+00:00</time>
      </trkpt>
      <trkpt lat="48.32519" lon="2.79408">
        <ele>90</ele>
        <time>2023-08-09T13:53:48.117+00:00</time>
      </trkpt>
      <trkpt lat="48.32524" lon="2.7941">
        <ele>90</ele>
        <time>2023-08-09T13:53:52.124+00:00</time>
      </trkpt>
      <trkpt lat="48.3253" lon="2.79415">
        <ele>90</ele>
        <time>2023-08-09T13:53:57.111+00:00</time>
      </trkpt>
      <trkpt lat="48.32535" lon="2.79418">
        <ele>90</ele>
        <time>2023-08-09T13:54:01.112+00:00</time>
      </trkpt>
      <trkpt lat="48.3254" lon="2.79421">
        <ele>90</ele>
        <time>2023-08-09T13:54:05.116+00:00</time>
      </trkpt>
      <trkpt lat="48.32546" lon="2.79425">
        <ele>90</ele>
        <time>2023-08-09T13:54:10.109+00:00</time>
      </trkpt>
      <trkpt lat="48.32551" lon="2.79427">
        <ele>90</ele>
        <time>2023-08-09T13:54:14.117+00:00</time>
      </trkpt>
      <trkpt lat="48.32556" lon="2.7943">
        <ele>90</ele>
        <time>2023-08-09T13:54:19.100+00:00</time>
      </trkpt>
      <trkpt lat="48.32561" lon="2.79434">
        <ele>89</ele>
        <time>2023-08-09T13:54:23.116+00:00</time>
      </trkpt>
      <trkpt lat="48.32567" lon="2.79438">
        <ele>89</ele>
        <time>2023-08-09T13:54:28.099+00:00</time>
      </trkpt>
      <trkpt lat="48.32571" lon="2.7944">
        <ele>89</ele>
        <time>2023-08-09T13:54:32.101+00:00</time>
      </trkpt>
      <trkpt lat="48.32576" lon="2.79444">
        <ele>89</ele>
        <time>2023-08-09T13:54:36.102+00:00</time>
      </trkpt>
      <trkpt lat="48.32581" lon="2.79447">
        <ele>89</ele>
        <time>2023-08-09T13:54:40.116+00:00</time>
      </trkpt>
      <trkpt lat="48.32587" lon="2.79451">
        <ele>89</ele>
        <time>2023-08-09T13:54:45.102+00:00</time>
      </trkpt>
      <trkpt lat="48.32592" lon="2.79454">
        <ele>89</ele>
        <time>2023-08-09T13:54:49.113+00:00</time>
      </trkpt>
      <trkpt lat="48.32598" lon="2.79458">
        <ele>89</ele>
        <time>2023-08-09T13:54:54.112+00:00</time>
      </trkpt>
      <trkpt lat="48.32605" lon="2.79461">
        <ele>89</ele>
        <time>2023-08-09T13:54:59.092+00:00</time>
      </trkpt>
      <trkpt lat="48.32611" lon="2.79466">
        <ele>89</ele>
        <time>2023-08-09T13:55:04.129+00:00</time>
      </trkpt>
      <trkpt lat="48.32616" lon="2.79469">
        <ele>89</ele>
        <time>2023-08-09T13:55:08.115+00:00</time>
      </trkpt>
      <trkpt lat="48.3262" lon="2.79472">
        <ele>89</ele>
        <time>2023-08-09T13:55:12.145+00:00</time>
      </trkpt>
      <trkpt lat="48.32626" lon="2.79476">
        <ele>89</ele>
        <time>2023-08-09T13:55:17.108+00:00</time>
      </trkpt>
      <trkpt lat="48.32631" lon="2.79481">
        <ele>89</ele>
        <time>2023-08-09T13:55:22.104+00:00</time>
      </trkpt>
      <trkpt lat="48.32637" lon="2.79485">
        <ele>89</ele>
        <time>2023-08-09T13:55:26.120+00:00</time>
      </trkpt>
      <trkpt lat="48.32642" lon="2.79488">
        <ele>89</ele>
        <time>2023-08-09T13:55:31.100+00:00</time>
      </trkpt>
      <trkpt lat="48.32647" lon="2.79491">
        <ele>89</ele>
        <time>2023-08-09T13:55:35.102+00:00</time>
      </trkpt>
      <trkpt lat="48.32652" lon="2.79494">
        <ele>89</ele>
        <time>2023-08-09T13:55:39.105+00:00</time>
      </trkpt>
      <trkpt lat="48.32656" lon="2.79498">
        <ele>89</ele>
        <time>2023-08-09T13:55:44.134+00:00</time>
      </trkpt>
      <trkpt lat="48.32661" lon="2.79502">
        <ele>89</ele>
        <time>2023-08-09T13:55:48.154+00:00</time>
      </trkpt>
      <trkpt lat="48.32665" lon="2.79505">
        <ele>89</ele>
        <time>2023-08-09T13:55:52.148+00:00</time>
      </trkpt>
      <trkpt lat="48.3267" lon="2.79509">
        <ele>89</ele>
        <time>2023-08-09T13:55:57.104+00:00</time>
      </trkpt>
      <trkpt lat="48.32675" lon="2.79513">
        <ele>89</ele>
        <time>2023-08-09T13:56:01.127+00:00</time>
      </trkpt>
      <trkpt lat="48.32681" lon="2.79518">
        <ele>89</ele>
        <time>2023-08-09T13:56:06.142+00:00</time>
      </trkpt>
      <trkpt lat="48.32687" lon="2.79523">
        <ele>89</ele>
        <time>2023-08-09T13:56:11.145+00:00</time>
      </trkpt>
      <trkpt lat="48.32692" lon="2.79528">
        <ele>89</ele>
        <time>2023-08-09T13:56:16.132+00:00</time>
      </trkpt>
      <trkpt lat="48.32698" lon="2.79532">
        <ele>89</ele>
        <time>2023-08-09T13:56:21.141+00:00</time>
      </trkpt>
      <trkpt lat="48.32703" lon="2.79537">
        <ele>89</ele>
        <time>2023-08-09T13:56:26.128+00:00</time>
      </trkpt>
      <trkpt lat="48.32709" lon="2.79542">
        <ele>88</ele>
        <time>2023-08-09T13:56:31.134+00:00</time>
      </trkpt>
      <trkpt lat="48.32714" lon="2.79548">
        <ele>88</ele>
        <time>2023-08-09T13:56:36.146+00:00</time>
      </trkpt>
      <trkpt lat="48.32719" lon="2.79554">
        <ele>88</ele>
        <time>2023-08-09T13:56:41.117+00:00</time>
      </trkpt>
      <trkpt lat="48.32723" lon="2.79559">
        <ele>88</ele>
        <time>2023-08-09T13:56:45.133+00:00</time>
      </trkpt>
      <trkpt lat="48.32729" lon="2.79565">
        <ele>88</ele>
        <time>2023-08-09T13:56:50.136+00:00</time>
      </trkpt>
      <trkpt lat="48.32734" lon="2.79569">
        <ele>88</ele>
        <time>2023-08-09T13:56:55.122+00:00</time>
      </trkpt>
      <trkpt lat="48.3274" lon="2.79566">
        <ele>87</ele>
        <time>2023-08-09T13:57:00.132+00:00</time>
      </trkpt>
      <trkpt lat="48.3274" lon="2.79558">
        <ele>87</ele>
        <time>2023-08-09T13:57:04.137+00:00</time>
      </trkpt>
      <trkpt lat="48.3274" lon="2.7955">
        <ele>87</ele>
        <time>2023-08-09T13:57:08.153+00:00</time>
      </trkpt>
      <trkpt lat="48.32738" lon="2.79542">
        <ele>88</ele>
        <time>2023-08-09T13:57:13.114+00:00</time>
      </trkpt>
      <trkpt lat="48.32737" lon="2.79534">
        <ele>88</ele>
        <time>2023-08-09T13:57:17.125+00:00</time>
      </trkpt>
      <trkpt lat="48.32735" lon="2.79528">
        <ele>89</ele>
        <time>2023-08-09T13:57:21.141+00:00</time>
      </trkpt>
      <trkpt lat="48.32734" lon="2.79521">
        <ele>89</ele>
        <time>2023-08-09T13:57:25.148+00:00</time>
      </trkpt>
      <trkpt lat="48.32733" lon="2.79514">
        <ele>89</ele>
        <time>2023-08-09T13:57:29.147+00:00</time>
      </trkpt>
      <trkpt lat="48.32731" lon="2.79504">
        <ele>89</ele>
        <time>2023-08-09T13:57:34.147+00:00</time>
      </trkpt>
      <trkpt lat="48.32729" lon="2.79496">
        <ele>89</ele>
        <time>2023-08-09T13:57:38.135+00:00</time>
      </trkpt>
      <trkpt lat="48.32727" lon="2.79488">
        <ele>89</ele>
        <time>2023-08-09T13:57:43.137+00:00</time>
      </trkpt>
      <trkpt lat="48.32726" lon="2.79481">
        <ele>89</ele>
        <time>2023-08-09T13:57:47.160+00:00</time>
      </trkpt>
      <trkpt lat="48.32725" lon="2.79472">
        <ele>89</ele>
        <time>2023-08-09T13:57:52.097+00:00</time>
      </trkpt>
      <trkpt lat="48.32723" lon="2.79465">
        <ele>89</ele>
        <time>2023-08-09T13:57:56.104+00:00</time>
      </trkpt>
      <trkpt lat="48.32722" lon="2.79461">
        <ele>89</ele>
        <time>2023-08-09T13:58:00.107+00:00</time>
      </trkpt>
      <trkpt lat="48.32723" lon="2.79463">
        <ele>89</ele>
        <time>2023-08-09T13:58:05.117+00:00</time>
      </trkpt>
      <trkpt lat="48.32723" lon="2.7947">
        <ele>89</ele>
        <time>2023-08-09T13:58:09.141+00:00</time>
      </trkpt>
      <trkpt lat="48.32724" lon="2.79479">
        <ele>89</ele>
        <time>2023-08-09T13:58:13.157+00:00</time>
      </trkpt>
      <trkpt lat="48.32726" lon="2.79488">
        <ele>89</ele>
        <time>2023-08-09T13:58:18.135+00:00</time>
      </trkpt>
      <trkpt lat="48.32728" lon="2.79497">
        <ele>89</ele>
        <time>2023-08-09T13:58:23.139+00:00</time>
      </trkpt>
      <trkpt lat="48.32729" lon="2.79505">
        <ele>89</ele>
        <time>2023-08-09T13:58:27.145+00:00</time>
      </trkpt>
      <trkpt lat="48.3273" lon="2.79515">
        <ele>89</ele>
        <time>2023-08-09T13:58:32.150+00:00</time>
      </trkpt>
      <trkpt lat="48.32732" lon="2.79525">
        <ele>89</ele>
        <time>2023-08-09T13:58:37.111+00:00</time>
      </trkpt>
      <trkpt lat="48.32734" lon="2.79532">
        <ele>89</ele>
        <time>2023-08-09T13:58:41.136+00:00</time>
      </trkpt>
      <trkpt lat="48.32736" lon="2.79539">
        <ele>89</ele>
        <time>2023-08-09T13:58:45.139+00:00</time>
      </trkpt>
      <trkpt lat="48.32737" lon="2.79548">
        <ele>87</ele>
        <time>2023-08-09T13:58:50.134+00:00</time>
      </trkpt>
      <trkpt lat="48.32738" lon="2.79558">
        <ele>87</ele>
        <time>2023-08-09T13:58:55.155+00:00</time>
      </trkpt>
      <trkpt lat="48.32739" lon="2.79567">
        <ele>87</ele>
        <time>2023-08-09T13:59:00.111+00:00</time>
      </trkpt>
      <trkpt lat="48.32741" lon="2.79574">
        <ele>86</ele>
        <time>2023-08-09T13:59:04.142+00:00</time>
      </trkpt>
      <trkpt lat="48.32744" lon="2.79583">
        <ele>86</ele>
        <time>2023-08-09T13:59:09.124+00:00</time>
      </trkpt>
      <trkpt lat="48.32748" lon="2.79589">
        <ele>86</ele>
        <time>2023-08-09T13:59:14.109+00:00</time>
      </trkpt>
      <trkpt lat="48.32753" lon="2.79589">
        <ele>86</ele>
        <time>2023-08-09T13:59:18.134+00:00</time>
      </trkpt>
      <trkpt lat="48.32752" lon="2.79588">
        <ele>86</ele>
        <time>2023-08-09T13:59:23.134+00:00</time>
      </trkpt>
      <trkpt lat="48.32755" lon="2.79587">
        <ele>86</ele>
        <time>2023-08-09T13:59:28.107+00:00</time>
      </trkpt>
      <trkpt lat="48.3276" lon="2.79584">
        <ele>86</ele>
        <time>2023-08-09T13:59:32.151+00:00</time>
      </trkpt>
      <trkpt lat="48.32765" lon="2.79579">
        <ele>86</ele>
        <time>2023-08-09T13:59:37.125+00:00</time>
      </trkpt>
      <trkpt lat="48.3277" lon="2.79575">
        <ele>86</ele>
        <time>2023-08-09T13:59:41.125+00:00</time>
      </trkpt>
      <trkpt lat="48.32775" lon="2.79569">
        <ele>86</ele>
        <time>2023-08-09T13:59:46.137+00:00</time>
      </trkpt>
      <trkpt lat="48.32781" lon="2.79564">
        <ele>86</ele>
        <time>2023-08-09T13:59:51.108+00:00</time>
      </trkpt>
      <trkpt lat="48.32785" lon="2.79559">
        <ele>86</ele>
        <time>2023-08-09T13:59:55.116+00:00</time>
      </trkpt>
      <trkpt lat="48.32789" lon="2.79555">
        <ele>86</ele>
        <time>2023-08-09T13:59:59.119+00:00</time>
      </trkpt>
      <trkpt lat="48.32793" lon="2.79551">
        <ele>86</ele>
        <time>2023-08-09T14:00:04.109+00:00</time>
      </trkpt>
      <trkpt lat="48.32797" lon="2.79547">
        <ele>86</ele>
        <time>2023-08-09T14:00:09.104+00:00</time>
      </trkpt>
      <trkpt lat="48.328" lon="2.79542">
        <ele>86</ele>
        <time>2023-08-09T14:00:13.109+00:00</time>
      </trkpt>
      <trkpt lat="48.32805" lon="2.79538">
        <ele>86</ele>
        <time>2023-08-09T14:00:17.125+00:00</time>
      </trkpt>
      <trkpt lat="48.32809" lon="2.79534">
        <ele>86</ele>
        <time>2023-08-09T14:00:21.137+00:00</time>
      </trkpt>
      <trkpt lat="48.32814" lon="2.79528">
        <ele>86</ele>
        <time>2023-08-09T14:00:26.125+00:00</time>
      </trkpt>
      <trkpt lat="48.32818" lon="2.79523">
        <ele>86</ele>
        <time>2023-08-09T14:00:30.135+00:00</time>
      </trkpt>
      <trkpt lat="48.32824" lon="2.79517">
        <ele>87</ele>
        <time>2023-08-09T14:00:35.133+00:00</time>
      </trkpt>
      <trkpt lat="48.3283" lon="2.79511">
        <ele>86</ele>
        <time>2023-08-09T14:00:40.132+00:00</time>
      </trkpt>
      <trkpt lat="48.32835" lon="2.79505">
        <ele>86</ele>
        <time>2023-08-09T14:00:45.134+00:00</time>
      </trkpt>
      <trkpt lat="48.3284" lon="2.79499">
        <ele>86</ele>
        <time>2023-08-09T14:00:50.117+00:00</time>
      </trkpt>
      <trkpt lat="48.32844" lon="2.79494">
        <ele>86</ele>
        <time>2023-08-09T14:00:54.135+00:00</time>
      </trkpt>
      <trkpt lat="48.32847" lon="2.79489">
        <ele>86</ele>
        <time>2023-08-09T14:00:58.133+00:00</time>
      </trkpt>
      <trkpt lat="48.32851" lon="2.79483">
        <ele>87</ele>
        <time>2023-08-09T14:01:03.119+00:00</time>
      </trkpt>
      <trkpt lat="48.32855" lon="2.79479">
        <ele>87</ele>
        <time>2023-08-09T14:01:07.140+00:00</time>
      </trkpt>
      <trkpt lat="48.3286" lon="2.79472">
        <ele>87</ele>
        <time>2023-08-09T14:01:12.131+00:00</time>
      </trkpt>
      <trkpt lat="48.32865" lon="2.79467">
        <ele>87</ele>
        <time>2023-08-09T14:01:17.131+00:00</time>
      </trkpt>
      <trkpt lat="48.32869" lon="2.79463">
        <ele>87</ele>
        <time>2023-08-09T14:01:21.123+00:00</time>
      </trkpt>
      <trkpt lat="48.32875" lon="2.79456">
        <ele>88</ele>
        <time>2023-08-09T14:01:26.132+00:00</time>
      </trkpt>
      <trkpt lat="48.32878" lon="2.79451">
        <ele>89</ele>
        <time>2023-08-09T14:01:30.125+00:00</time>
      </trkpt>
      <trkpt lat="48.32881" lon="2.79446">
        <ele>89</ele>
        <time>2023-08-09T14:01:34.131+00:00</time>
      </trkpt>
      <trkpt lat="48.32886" lon="2.7944">
        <ele>89</ele>
        <time>2023-08-09T14:01:38.144+00:00</time>
      </trkpt>
      <trkpt lat="48.32889" lon="2.79435">
        <ele>89</ele>
        <time>2023-08-09T14:01:42.142+00:00</time>
      </trkpt>
      <trkpt lat="48.32895" lon="2.79429">
        <ele>89</ele>
        <time>2023-08-09T14:01:47.122+00:00</time>
      </trkpt>
      <trkpt lat="48.32899" lon="2.79424">
        <ele>89</ele>
        <time>2023-08-09T14:01:51.149+00:00</time>
      </trkpt>
      <trkpt lat="48.32904" lon="2.79419">
        <ele>91</ele>
        <time>2023-08-09T14:01:56.114+00:00</time>
      </trkpt>
      <trkpt lat="48.3291" lon="2.79413">
        <ele>91</ele>
        <time>2023-08-09T14:02:01.110+00:00</time>
      </trkpt>
      <trkpt lat="48.32915" lon="2.79408">
        <ele>91</ele>
        <time>2023-08-09T14:02:06.124+00:00</time>
      </trkpt>
      <trkpt lat="48.3292" lon="2.79402">
        <ele>91</ele>
        <time>2023-08-09T14:02:11.138+00:00</time>
      </trkpt>
      <trkpt lat="48.32925" lon="2.79397">
        <ele>91</ele>
        <time>2023-08-09T14:02:16.147+00:00</time>
      </trkpt>
      <trkpt lat="48.3293" lon="2.79393">
        <ele>91</ele>
        <time>2023-08-09T14:02:20.130+00:00</time>
      </trkpt>
      <trkpt lat="48.32935" lon="2.79388">
        <ele>91</ele>
        <time>2023-08-09T14:02:25.142+00:00</time>
      </trkpt>
      <trkpt lat="48.32942" lon="2.79383">
        <ele>91</ele>
        <time>2023-08-09T14:02:30.131+00:00</time>
      </trkpt>
      <trkpt lat="48.32947" lon="2.79378">
        <ele>91</ele>
        <time>2023-08-09T14:02:35.119+00:00</time>
      </trkpt>
      <trkpt lat="48.32951" lon="2.79373">
        <ele>91</ele>
        <time>2023-08-09T14:02:39.157+00:00</time>
      </trkpt>
      <trkpt lat="48.32956" lon="2.79368">
        <ele>91</ele>
        <time>2023-08-09T14:02:44.134+00:00</time>
      </trkpt>
      <trkpt lat="48.3296" lon="2.79363">
        <ele>90</ele>
        <time>2023-08-09T14:02:48.137+00:00</time>
      </trkpt>
      <trkpt lat="48.32965" lon="2.79358">
        <ele>90</ele>
        <time>2023-08-09T14:02:53.136+00:00</time>
      </trkpt>
      <trkpt lat="48.3297" lon="2.79353">
        <ele>90</ele>
        <time>2023-08-09T14:02:58.136+00:00</time>
      </trkpt>
      <trkpt lat="48.32975" lon="2.79349">
        <ele>90</ele>
        <time>2023-08-09T14:03:02.134+00:00</time>
      </trkpt>
      <trkpt lat="48.3298" lon="2.79343">
        <ele>90</ele>
        <time>2023-08-09T14:03:07.127+00:00</time>
      </trkpt>
      <trkpt lat="48.32984" lon="2.79338">
        <ele>90</ele>
        <time>2023-08-09T14:03:11.124+00:00</time>
      </trkpt>
      <trkpt lat="48.32988" lon="2.79335">
        <ele>90</ele>
        <time>2023-08-09T14:03:15.130+00:00</time>
      </trkpt>
      <trkpt lat="48.32992" lon="2.79331">
        <ele>90</ele>
        <time>2023-08-09T14:03:19.129+00:00</time>
      </trkpt>
      <trkpt lat="48.32996" lon="2.79327">
        <ele>90</ele>
        <time>2023-08-09T14:03:23.140+00:00</time>
      </trkpt>
      <trkpt lat="48.33001" lon="2.79322">
        <ele>90</ele>
        <time>2023-08-09T14:03:27.150+00:00</time>
      </trkpt>
      <trkpt lat="48.33006" lon="2.79316">
        <ele>90</ele>
        <time>2023-08-09T14:03:32.128+00:00</time>
      </trkpt>
      <trkpt lat="48.33011" lon="2.7931">
        <ele>90</ele>
        <time>2023-08-09T14:03:37.126+00:00</time>
      </trkpt>
      <trkpt lat="48.33016" lon="2.79305">
        <ele>93</ele>
        <time>2023-08-09T14:03:42.101+00:00</time>
      </trkpt>
      <trkpt lat="48.3302" lon="2.79299">
        <ele>93</ele>
        <time>2023-08-09T14:03:46.131+00:00</time>
      </trkpt>
      <trkpt lat="48.33026" lon="2.79293">
        <ele>93</ele>
        <time>2023-08-09T14:03:51.110+00:00</time>
      </trkpt>
      <trkpt lat="48.3303" lon="2.7929">
        <ele>92</ele>
        <time>2023-08-09T14:03:55.118+00:00</time>
      </trkpt>
      <trkpt lat="48.33034" lon="2.79286">
        <ele>92</ele>
        <time>2023-08-09T14:03:59.124+00:00</time>
      </trkpt>
      <trkpt lat="48.3304" lon="2.79281">
        <ele>92</ele>
        <time>2023-08-09T14:04:04.133+00:00</time>
      </trkpt>
      <trkpt lat="48.33045" lon="2.79275">
        <ele>94</ele>
        <time>2023-08-09T14:04:09.118+00:00</time>
      </trkpt>
      <trkpt lat="48.33049" lon="2.7927">
        <ele>94</ele>
        <time>2023-08-09T14:04:13.138+00:00</time>
      </trkpt>
      <trkpt lat="48.33053" lon="2.79265">
        <ele>94</ele>
        <time>2023-08-09T14:04:17.113+00:00</time>
      </trkpt>
      <trkpt lat="48.3306" lon="2.79259">
        <ele>93</ele>
        <time>2023-08-09T14:04:22.130+00:00</time>
      </trkpt>
      <trkpt lat="48.33064" lon="2.79254">
        <ele>93</ele>
        <time>2023-08-09T14:04:27.122+00:00</time>
      </trkpt>
      <trkpt lat="48.33069" lon="2.7925">
        <ele>93</ele>
        <time>2023-08-09T14:04:31.138+00:00</time>
      </trkpt>
      <trkpt lat="48.33073" lon="2.79248">
        <ele>95</ele>
        <time>2023-08-09T14:04:35.143+00:00</time>
      </trkpt>
      <trkpt lat="48.33079" lon="2.79242">
        <ele>95</ele>
        <time>2023-08-09T14:04:40.115+00:00</time>
      </trkpt>
      <trkpt lat="48.33085" lon="2.79237">
        <ele>95</ele>
        <time>2023-08-09T14:04:45.099+00:00</time>
      </trkpt>
      <trkpt lat="48.33089" lon="2.79231">
        <ele>92</ele>
        <time>2023-08-09T14:04:49.098+00:00</time>
      </trkpt>
      <trkpt lat="48.33094" lon="2.79224">
        <ele>92</ele>
        <time>2023-08-09T14:04:54.144+00:00</time>
      </trkpt>
      <trkpt lat="48.331" lon="2.79219">
        <ele>95</ele>
        <time>2023-08-09T14:04:59.107+00:00</time>
      </trkpt>
      <trkpt lat="48.33105" lon="2.79213">
        <ele>95</ele>
        <time>2023-08-09T14:05:03.142+00:00</time>
      </trkpt>
      <trkpt lat="48.33109" lon="2.79207">
        <ele>93</ele>
        <time>2023-08-09T14:05:07.131+00:00</time>
      </trkpt>
      <trkpt lat="48.33114" lon="2.79201">
        <ele>93</ele>
        <time>2023-08-09T14:05:12.121+00:00</time>
      </trkpt>
      <trkpt lat="48.33118" lon="2.79197">
        <ele>93</ele>
        <time>2023-08-09T14:05:16.125+00:00</time>
      </trkpt>
      <trkpt lat="48.33122" lon="2.79193">
        <ele>93</ele>
        <time>2023-08-09T14:05:20.131+00:00</time>
      </trkpt>
      <trkpt lat="48.33128" lon="2.79188">
        <ele>93</ele>
        <time>2023-08-09T14:05:25.136+00:00</time>
      </trkpt>
      <trkpt lat="48.33134" lon="2.79182">
        <ele>93</ele>
        <time>2023-08-09T14:05:30.133+00:00</time>
      </trkpt>
      <trkpt lat="48.3314" lon="2.79178">
        <ele>92</ele>
        <time>2023-08-09T14:05:35.140+00:00</time>
      </trkpt>
      <trkpt lat="48.33146" lon="2.79174">
        <ele>92</ele>
        <time>2023-08-09T14:05:40.096+00:00</time>
      </trkpt>
      <trkpt lat="48.3315" lon="2.7917">
        <ele>92</ele>
        <time>2023-08-09T14:05:44.122+00:00</time>
      </trkpt>
      <trkpt lat="48.33156" lon="2.79167">
        <ele>88</ele>
        <time>2023-08-09T14:05:49.131+00:00</time>
      </trkpt>
      <trkpt lat="48.33161" lon="2.79161">
        <ele>88</ele>
        <time>2023-08-09T14:05:53.139+00:00</time>
      </trkpt>
      <trkpt lat="48.33167" lon="2.79156">
        <ele>88</ele>
        <time>2023-08-09T14:05:58.126+00:00</time>
      </trkpt>
      <trkpt lat="48.33173" lon="2.7915">
        <ele>87</ele>
        <time>2023-08-09T14:06:03.123+00:00</time>
      </trkpt>
      <trkpt lat="48.33178" lon="2.79145">
        <ele>87</ele>
        <time>2023-08-09T14:06:07.127+00:00</time>
      </trkpt>
      <trkpt lat="48.33183" lon="2.79141">
        <ele>83</ele>
        <time>2023-08-09T14:06:12.127+00:00</time>
      </trkpt>
      <trkpt lat="48.33189" lon="2.79136">
        <ele>83</ele>
        <time>2023-08-09T14:06:17.112+00:00</time>
      </trkpt>
      <trkpt lat="48.33193" lon="2.79133">
        <ele>83</ele>
        <time>2023-08-09T14:06:21.139+00:00</time>
      </trkpt>
      <trkpt lat="48.33199" lon="2.79128">
        <ele>83</ele>
        <time>2023-08-09T14:06:26.125+00:00</time>
      </trkpt>
      <trkpt lat="48.33205" lon="2.79124">
        <ele>84</ele>
        <time>2023-08-09T14:06:31.135+00:00</time>
      </trkpt>
      <trkpt lat="48.3321" lon="2.79119">
        <ele>83</ele>
        <time>2023-08-09T14:06:36.127+00:00</time>
      </trkpt>
      <trkpt lat="48.33215" lon="2.79115">
        <ele>83</ele>
        <time>2023-08-09T14:06:40.137+00:00</time>
      </trkpt>
      <trkpt lat="48.3322" lon="2.79111">
        <ele>83</ele>
        <time>2023-08-09T14:06:44.128+00:00</time>
      </trkpt>
      <trkpt lat="48.33226" lon="2.79105">
        <ele>83</ele>
        <time>2023-08-09T14:06:49.117+00:00</time>
      </trkpt>
      <trkpt lat="48.33231" lon="2.79101">
        <ele>83</ele>
        <time>2023-08-09T14:06:53.136+00:00</time>
      </trkpt>
      <trkpt lat="48.33235" lon="2.79095">
        <ele>83</ele>
        <time>2023-08-09T14:06:58.141+00:00</time>
      </trkpt>
      <trkpt lat="48.33241" lon="2.79089">
        <ele>80</ele>
        <time>2023-08-09T14:07:03.155+00:00</time>
      </trkpt>
      <trkpt lat="48.33245" lon="2.79084">
        <ele>80</ele>
        <time>2023-08-09T14:07:07.156+00:00</time>
      </trkpt>
      <trkpt lat="48.3325" lon="2.79078">
        <ele>80</ele>
        <time>2023-08-09T14:07:12.146+00:00</time>
      </trkpt>
      <trkpt lat="48.33254" lon="2.79073">
        <ele>80</ele>
        <time>2023-08-09T14:07:16.147+00:00</time>
      </trkpt>
      <trkpt lat="48.33259" lon="2.79066">
        <ele>79</ele>
        <time>2023-08-09T14:07:21.130+00:00</time>
      </trkpt>
      <trkpt lat="48.33263" lon="2.79061">
        <ele>79</ele>
        <time>2023-08-09T14:07:25.139+00:00</time>
      </trkpt>
      <trkpt lat="48.33268" lon="2.79054">
        <ele>77</ele>
        <time>2023-08-09T14:07:30.127+00:00</time>
      </trkpt>
      <trkpt lat="48.33272" lon="2.79049">
        <ele>77</ele>
        <time>2023-08-09T14:07:34.125+00:00</time>
      </trkpt>
      <trkpt lat="48.33277" lon="2.79043">
        <ele>77</ele>
        <time>2023-08-09T14:07:39.135+00:00</time>
      </trkpt>
      <trkpt lat="48.33282" lon="2.79037">
        <ele>76</ele>
        <time>2023-08-09T14:07:44.130+00:00</time>
      </trkpt>
      <trkpt lat="48.33287" lon="2.79033">
        <ele>76</ele>
        <time>2023-08-09T14:07:48.142+00:00</time>
      </trkpt>
      <trkpt lat="48.33293" lon="2.79028">
        <ele>73</ele>
        <time>2023-08-09T14:07:53.146+00:00</time>
      </trkpt>
      <trkpt lat="48.33297" lon="2.79024">
        <ele>73</ele>
        <time>2023-08-09T14:07:57.161+00:00</time>
      </trkpt>
      <trkpt lat="48.33303" lon="2.79019">
        <ele>73</ele>
        <time>2023-08-09T14:08:02.117+00:00</time>
      </trkpt>
      <trkpt lat="48.33307" lon="2.79013">
        <ele>72</ele>
        <time>2023-08-09T14:08:06.128+00:00</time>
      </trkpt>
      <trkpt lat="48.33311" lon="2.79006">
        <ele>72</ele>
        <time>2023-08-09T14:08:11.111+00:00</time>
      </trkpt>
      <trkpt lat="48.33314" lon="2.79">
        <ele>72</ele>
        <time>2023-08-09T14:08:15.160+00:00</time>
      </trkpt>
      <trkpt lat="48.33316" lon="2.78992">
        <ele>72</ele>
        <time>2023-08-09T14:08:20.120+00:00</time>
      </trkpt>
      <trkpt lat="48.33319" lon="2.78983">
        <ele>71</ele>
        <time>2023-08-09T14:08:24.136+00:00</time>
      </trkpt>
      <trkpt lat="48.3332" lon="2.78974">
        <ele>66</ele>
        <time>2023-08-09T14:08:28.631+00:00</time>
      </trkpt>
      <trkpt lat="48.33322" lon="2.78966">
        <ele>66</ele>
        <time>2023-08-09T14:08:33.113+00:00</time>
      </trkpt>
      <trkpt lat="48.33324" lon="2.78958">
        <ele>66</ele>
        <time>2023-08-09T14:08:37.138+00:00</time>
      </trkpt>
      <trkpt lat="48.33325" lon="2.78957">
        <ele>66</ele>
        <time>2023-08-09T14:08:42.106+00:00</time>
      </trkpt>
      <trkpt lat="48.33331" lon="2.7896">
        <ele>66</ele>
        <time>2023-08-09T14:09:00.123+00:00</time>
      </trkpt>
      <trkpt lat="48.33332" lon="2.78952">
        <ele>66</ele>
        <time>2023-08-09T14:09:05.126+00:00</time>
      </trkpt>
      <trkpt lat="48.33334" lon="2.78943">
        <ele>66</ele>
        <time>2023-08-09T14:09:10.131+00:00</time>
      </trkpt>
      <trkpt lat="48.33336" lon="2.78935">
        <ele>66</ele>
        <time>2023-08-09T14:09:15.132+00:00</time>
      </trkpt>
      <trkpt lat="48.33338" lon="2.78926">
        <ele>65</ele>
        <time>2023-08-09T14:09:20.121+00:00</time>
      </trkpt>
      <trkpt lat="48.33341" lon="2.78918">
        <ele>65</ele>
        <time>2023-08-09T14:09:25.130+00:00</time>
      </trkpt>
      <trkpt lat="48.33344" lon="2.78911">
        <ele>65</ele>
        <time>2023-08-09T14:09:30.126+00:00</time>
      </trkpt>
      <trkpt lat="48.3335" lon="2.78905">
        <ele>61</ele>
        <time>2023-08-09T14:09:35.153+00:00</time>
      </trkpt>
      <trkpt lat="48.33355" lon="2.78898">
        <ele>61</ele>
        <time>2023-08-09T14:09:40.118+00:00</time>
      </trkpt>
      <trkpt lat="48.33359" lon="2.78893">
        <ele>61</ele>
        <time>2023-08-09T14:09:44.122+00:00</time>
      </trkpt>
      <trkpt lat="48.33364" lon="2.78887">
        <ele>61</ele>
        <time>2023-08-09T14:09:49.106+00:00</time>
      </trkpt>
      <trkpt lat="48.33367" lon="2.78883">
        <ele>61</ele>
        <time>2023-08-09T14:09:54.095+00:00</time>
      </trkpt>
      <trkpt lat="48.33368" lon="2.78882">
        <ele>61</ele>
        <time>2023-08-09T14:09:59.127+00:00</time>
      </trkpt>
      <trkpt lat="48.33372" lon="2.78877">
        <ele>61</ele>
        <time>2023-08-09T14:10:03.133+00:00</time>
      </trkpt>
      <trkpt lat="48.33376" lon="2.78871">
        <ele>58</ele>
        <time>2023-08-09T14:10:07.149+00:00</time>
      </trkpt>
      <trkpt lat="48.3338" lon="2.78865">
        <ele>58</ele>
        <time>2023-08-09T14:10:11.140+00:00</time>
      </trkpt>
      <trkpt lat="48.33383" lon="2.78857">
        <ele>58</ele>
        <time>2023-08-09T14:10:16.119+00:00</time>
      </trkpt>
      <trkpt lat="48.33387" lon="2.7885">
        <ele>58</ele>
        <time>2023-08-09T14:10:20.112+00:00</time>
      </trkpt>
      <trkpt lat="48.3339" lon="2.78845">
        <ele>58</ele>
        <time>2023-08-09T14:10:24.130+00:00</time>
      </trkpt>
      <trkpt lat="48.33395" lon="2.7884">
        <ele>58</ele>
        <time>2023-08-09T14:10:29.113+00:00</time>
      </trkpt>
      <trkpt lat="48.33398" lon="2.78833">
        <ele>58</ele>
        <time>2023-08-09T14:10:33.144+00:00</time>
      </trkpt>
      <trkpt lat="48.33397" lon="2.78825">
        <ele>58</ele>
        <time>2023-08-09T14:10:37.135+00:00</time>
      </trkpt>
      <trkpt lat="48.33399" lon="2.78816">
        <ele>58</ele>
        <time>2023-08-09T14:10:42.118+00:00</time>
      </trkpt>
      <trkpt lat="48.33399" lon="2.78808">
        <ele>58</ele>
        <time>2023-08-09T14:10:46.114+00:00</time>
      </trkpt>
      <trkpt lat="48.33399" lon="2.78801">
        <ele>58</ele>
        <time>2023-08-09T14:10:50.116+00:00</time>
      </trkpt>
      <trkpt lat="48.33401" lon="2.78793">
        <ele>58</ele>
        <time>2023-08-09T14:10:55.123+00:00</time>
      </trkpt>
      <trkpt lat="48.33403" lon="2.78784">
        <ele>57</ele>
        <time>2023-08-09T14:11:00.114+00:00</time>
      </trkpt>
      <trkpt lat="48.33405" lon="2.78776">
        <ele>57</ele>
        <time>2023-08-09T14:11:05.128+00:00</time>
      </trkpt>
      <trkpt lat="48.33407" lon="2.78767">
        <ele>57</ele>
        <time>2023-08-09T14:11:09.905+00:00</time>
      </trkpt>
      <trkpt lat="48.3341" lon="2.78757">
        <ele>57</ele>
        <time>2023-08-09T14:11:14.114+00:00</time>
      </trkpt>
      <trkpt lat="48.33412" lon="2.78748">
        <ele>57</ele>
        <time>2023-08-09T14:11:19.012+00:00</time>
      </trkpt>
      <trkpt lat="48.33414" lon="2.78737">
        <ele>57</ele>
        <time>2023-08-09T14:11:24.113+00:00</time>
      </trkpt>
      <trkpt lat="48.33415" lon="2.78729">
        <ele>57</ele>
        <time>2023-08-09T14:11:28.111+00:00</time>
      </trkpt>
      <trkpt lat="48.33417" lon="2.78722">
        <ele>57</ele>
        <time>2023-08-09T14:11:32.111+00:00</time>
      </trkpt>
      <trkpt lat="48.33419" lon="2.78714">
        <ele>57</ele>
        <time>2023-08-09T14:11:36.125+00:00</time>
      </trkpt>
      <trkpt lat="48.33421" lon="2.78705">
        <ele>57</ele>
        <time>2023-08-09T14:11:41.133+00:00</time>
      </trkpt>
      <trkpt lat="48.33424" lon="2.78696">
        <ele>57</ele>
        <time>2023-08-09T14:11:46.117+00:00</time>
      </trkpt>
      <trkpt lat="48.33426" lon="2.78687">
        <ele>57</ele>
        <time>2023-08-09T14:11:50.116+00:00</time>
      </trkpt>
      <trkpt lat="48.3343" lon="2.78678">
        <ele>55</ele>
        <time>2023-08-09T14:11:55.126+00:00</time>
      </trkpt>
      <trkpt lat="48.33432" lon="2.7867">
        <ele>54</ele>
        <time>2023-08-09T14:11:59.136+00:00</time>
      </trkpt>
      <trkpt lat="48.33435" lon="2.78662">
        <ele>54</ele>
        <time>2023-08-09T14:12:04.118+00:00</time>
      </trkpt>
      <trkpt lat="48.33442" lon="2.78649">
        <ele>53</ele>
        <time>2023-08-09T14:12:48.108+00:00</time>
      </trkpt>
      <trkpt lat="48.33444" lon="2.7865">
        <ele>53</ele>
        <time>2023-08-09T14:12:52.127+00:00</time>
      </trkpt>
      <trkpt lat="48.33449" lon="2.78647">
        <ele>53</ele>
        <time>2023-08-09T14:12:56.127+00:00</time>
      </trkpt>
      <trkpt lat="48.33455" lon="2.7864">
        <ele>53</ele>
        <time>2023-08-09T14:13:01.141+00:00</time>
      </trkpt>
      <trkpt lat="48.33457" lon="2.78631">
        <ele>53</ele>
        <time>2023-08-09T14:13:06.116+00:00</time>
      </trkpt>
      <trkpt lat="48.33457" lon="2.78621">
        <ele>53</ele>
        <time>2023-08-09T14:13:11.136+00:00</time>
      </trkpt>
      <trkpt lat="48.33456" lon="2.78612">
        <ele>53</ele>
        <time>2023-08-09T14:13:15.137+00:00</time>
      </trkpt>
      <trkpt lat="48.33454" lon="2.78603">
        <ele>53</ele>
        <time>2023-08-09T14:13:20.123+00:00</time>
      </trkpt>
      <trkpt lat="48.33449" lon="2.78594">
        <ele>53</ele>
        <time>2023-08-09T14:13:25.113+00:00</time>
      </trkpt>
      <trkpt lat="48.33446" lon="2.78587">
        <ele>53</ele>
        <time>2023-08-09T14:13:29.142+00:00</time>
      </trkpt>
      <trkpt lat="48.33444" lon="2.78579">
        <ele>53</ele>
        <time>2023-08-09T14:13:34.110+00:00</time>
      </trkpt>
      <trkpt lat="48.33443" lon="2.78571">
        <ele>53</ele>
        <time>2023-08-09T14:13:38.126+00:00</time>
      </trkpt>
      <trkpt lat="48.33443" lon="2.78561">
        <ele>53</ele>
        <time>2023-08-09T14:13:43.130+00:00</time>
      </trkpt>
      <trkpt lat="48.33442" lon="2.78554">
        <ele>53</ele>
        <time>2023-08-09T14:13:47.137+00:00</time>
      </trkpt>
      <trkpt lat="48.33442" lon="2.78547">
        <ele>53</ele>
        <time>2023-08-09T14:13:51.156+00:00</time>
      </trkpt>
      <trkpt lat="48.33441" lon="2.78537">
        <ele>53</ele>
        <time>2023-08-09T14:13:56.111+00:00</time>
      </trkpt>
      <trkpt lat="48.3344" lon="2.78528">
        <ele>53</ele>
        <time>2023-08-09T14:14:01.097+00:00</time>
      </trkpt>
      <trkpt lat="48.33435" lon="2.78516">
        <ele>53</ele>
        <time>2023-08-09T14:14:05.088+00:00</time>
      </trkpt>
      <trkpt lat="48.33438" lon="2.78507">
        <ele>52</ele>
        <time>2023-08-09T14:14:10.091+00:00</time>
      </trkpt>
      <trkpt lat="48.33437" lon="2.78498">
        <ele>52</ele>
        <time>2023-08-09T14:14:14.109+00:00</time>
      </trkpt>
      <trkpt lat="48.33435" lon="2.7849">
        <ele>52</ele>
        <time>2023-08-09T14:14:19.099+00:00</time>
      </trkpt>
      <trkpt lat="48.33432" lon="2.78482">
        <ele>52</ele>
        <time>2023-08-09T14:14:24.086+00:00</time>
      </trkpt>
      <trkpt lat="48.33432" lon="2.78478">
        <ele>52</ele>
        <time>2023-08-09T14:14:29.086+00:00</time>
      </trkpt>
      <trkpt lat="48.33432" lon="2.78473">
        <ele>52</ele>
        <time>2023-08-09T14:14:34.091+00:00</time>
      </trkpt>
      <trkpt lat="48.33431" lon="2.7847">
        <ele>53</ele>
        <time>2023-08-09T14:14:38.113+00:00</time>
      </trkpt>
      <trkpt lat="48.3343" lon="2.78467">
        <ele>53</ele>
        <time>2023-08-09T14:14:42.121+00:00</time>
      </trkpt>
      <trkpt lat="48.33423" lon="2.78471">
        <ele>53</ele>
        <time>2023-08-09T14:14:47.126+00:00</time>
      </trkpt>
      <trkpt lat="48.33418" lon="2.78472">
        <ele>53</ele>
        <time>2023-08-09T14:14:52.137+00:00</time>
      </trkpt>
      <trkpt lat="48.33412" lon="2.78474">
        <ele>53</ele>
        <time>2023-08-09T14:14:57.141+00:00</time>
      </trkpt>
      <trkpt lat="48.33407" lon="2.78471">
        <ele>53</ele>
        <time>2023-08-09T14:15:02.119+00:00</time>
      </trkpt>
      <trkpt lat="48.33408" lon="2.7847">
        <ele>53</ele>
        <time>2023-08-09T14:15:11.103+00:00</time>
      </trkpt>
      <trkpt lat="48.33407" lon="2.78469">
        <ele>53</ele>
        <time>2023-08-09T14:15:15.123+00:00</time>
      </trkpt>
      <trkpt lat="48.3341" lon="2.78469">
        <ele>53</ele>
        <time>2023-08-09T14:15:20.109+00:00</time>
      </trkpt>
      <trkpt lat="48.33416" lon="2.78472">
        <ele>53</ele>
        <time>2023-08-09T14:15:24.121+00:00</time>
      </trkpt>
      <trkpt lat="48.33423" lon="2.7847">
        <ele>53</ele>
        <time>2023-08-09T14:15:29.141+00:00</time>
      </trkpt>
      <trkpt lat="48.33427" lon="2.78463">
        <ele>53</ele>
        <time>2023-08-09T14:15:33.131+00:00</time>
      </trkpt>
      <trkpt lat="48.33432" lon="2.78463">
        <ele>52</ele>
        <time>2023-08-09T14:15:38.128+00:00</time>
      </trkpt>
      <trkpt lat="48.33434" lon="2.78462">
        <ele>52</ele>
        <time>2023-08-09T14:15:43.139+00:00</time>
      </trkpt>
      <trkpt lat="48.33439" lon="2.78462">
        <ele>52</ele>
        <time>2023-08-09T14:15:48.102+00:00</time>
      </trkpt>
      <trkpt lat="48.33445" lon="2.78461">
        <ele>52</ele>
        <time>2023-08-09T14:15:52.125+00:00</time>
      </trkpt>
      <trkpt lat="48.33453" lon="2.78457">
        <ele>53</ele>
        <time>2023-08-09T14:15:57.112+00:00</time>
      </trkpt>
      <trkpt lat="48.33455" lon="2.78456">
        <ele>53</ele>
        <time>2023-08-09T14:15:58.101+00:00</time>
      </trkpt>
      <trkpt lat="48.33464" lon="2.7845">
        <ele>52</ele>
        <time>2023-08-09T14:16:05.992+00:00</time>
      </trkpt>
      <trkpt lat="48.3347" lon="2.78448">
        <ele>52</ele>
        <time>2023-08-09T14:16:10.090+00:00</time>
      </trkpt>
      <trkpt lat="48.33475" lon="2.78443">
        <ele>52</ele>
        <time>2023-08-09T14:16:15.092+00:00</time>
      </trkpt>
      <trkpt lat="48.3348" lon="2.78439">
        <ele>52</ele>
        <time>2023-08-09T14:16:20.100+00:00</time>
      </trkpt>
      <trkpt lat="48.33481" lon="2.78438">
        <ele>52</ele>
        <time>2023-08-09T14:16:25.109+00:00</time>
      </trkpt>
      <trkpt lat="48.33483" lon="2.78426">
        <ele>52</ele>
        <time>2023-08-09T14:17:07.102+00:00</time>
      </trkpt>
      <trkpt lat="48.33485" lon="2.78421">
        <ele>52</ele>
        <time>2023-08-09T14:17:12.144+00:00</time>
      </trkpt>
      <trkpt lat="48.33485" lon="2.78416">
        <ele>52</ele>
        <time>2023-08-09T14:17:16.150+00:00</time>
      </trkpt>
      <trkpt lat="48.33488" lon="2.78411">
        <ele>52</ele>
        <time>2023-08-09T14:17:21.095+00:00</time>
      </trkpt>
      <trkpt lat="48.33488" lon="2.78409">
        <ele>52</ele>
        <time>2023-08-09T14:17:25.082+00:00</time>
      </trkpt>
      <trkpt lat="48.33487" lon="2.784">
        <ele>52</ele>
        <time>2023-08-09T14:17:30.093+00:00</time>
      </trkpt>
      <trkpt lat="48.33492" lon="2.78395">
        <ele>52</ele>
        <time>2023-08-09T14:17:34.103+00:00</time>
      </trkpt>
      <trkpt lat="48.33492" lon="2.78393">
        <ele>52</ele>
        <time>2023-08-09T14:17:39.101+00:00</time>
      </trkpt>
      <trkpt lat="48.3349" lon="2.78385">
        <ele>52</ele>
        <time>2023-08-09T14:17:43.114+00:00</time>
      </trkpt>
      <trkpt lat="48.33487" lon="2.78373">
        <ele>54</ele>
        <time>2023-08-09T14:17:48.101+00:00</time>
      </trkpt>
      <trkpt lat="48.33485" lon="2.78364">
        <ele>53</ele>
        <time>2023-08-09T14:17:53.093+00:00</time>
      </trkpt>
      <trkpt lat="48.33482" lon="2.78354">
        <ele>53</ele>
        <time>2023-08-09T14:17:58.108+00:00</time>
      </trkpt>
      <trkpt lat="48.33478" lon="2.78349">
        <ele>53</ele>
        <time>2023-08-09T14:18:02.097+00:00</time>
      </trkpt>
      <trkpt lat="48.33477" lon="2.78342">
        <ele>53</ele>
        <time>2023-08-09T14:18:06.655+00:00</time>
      </trkpt>
      <trkpt lat="48.33476" lon="2.78335">
        <ele>53</ele>
        <time>2023-08-09T14:18:11.107+00:00</time>
      </trkpt>
      <trkpt lat="48.33474" lon="2.78328">
        <ele>53</ele>
        <time>2023-08-09T14:18:15.131+00:00</time>
      </trkpt>
      <trkpt lat="48.3347" lon="2.78319">
        <ele>52</ele>
        <time>2023-08-09T14:18:20.108+00:00</time>
      </trkpt>
      <trkpt lat="48.33469" lon="2.78311">
        <ele>52</ele>
        <time>2023-08-09T14:18:25.136+00:00</time>
      </trkpt>
      <trkpt lat="48.33466" lon="2.78304">
        <ele>52</ele>
        <time>2023-08-09T14:18:30.121+00:00</time>
      </trkpt>
      <trkpt lat="48.33464" lon="2.78296">
        <ele>52</ele>
        <time>2023-08-09T14:18:34.127+00:00</time>
      </trkpt>
      <trkpt lat="48.33462" lon="2.78289">
        <ele>51</ele>
        <time>2023-08-09T14:18:38.138+00:00</time>
      </trkpt>
      <trkpt lat="48.33461" lon="2.78278">
        <ele>51</ele>
        <time>2023-08-09T14:18:53.091+00:00</time>
      </trkpt>
      <trkpt lat="48.33457" lon="2.78273">
        <ele>50</ele>
        <time>2023-08-09T14:18:58.110+00:00</time>
      </trkpt>
      <trkpt lat="48.33455" lon="2.78262">
        <ele>50</ele>
        <time>2023-08-09T14:19:03.091+00:00</time>
      </trkpt>
      <trkpt lat="48.33453" lon="2.78253">
        <ele>50</ele>
        <time>2023-08-09T14:19:08.125+00:00</time>
      </trkpt>
      <trkpt lat="48.3345" lon="2.78243">
        <ele>50</ele>
        <time>2023-08-09T14:19:13.109+00:00</time>
      </trkpt>
      <trkpt lat="48.33448" lon="2.78235">
        <ele>51</ele>
        <time>2023-08-09T14:19:17.125+00:00</time>
      </trkpt>
      <trkpt lat="48.33446" lon="2.78228">
        <ele>51</ele>
        <time>2023-08-09T14:19:21.142+00:00</time>
      </trkpt>
      <trkpt lat="48.33444" lon="2.78219">
        <ele>51</ele>
        <time>2023-08-09T14:19:26.099+00:00</time>
      </trkpt>
      <trkpt lat="48.33442" lon="2.78211">
        <ele>51</ele>
        <time>2023-08-09T14:19:30.133+00:00</time>
      </trkpt>
      <trkpt lat="48.3344" lon="2.78201">
        <ele>51</ele>
        <time>2023-08-09T14:19:35.112+00:00</time>
      </trkpt>
      <trkpt lat="48.33437" lon="2.78193">
        <ele>51</ele>
        <time>2023-08-09T14:19:39.104+00:00</time>
      </trkpt>
      <trkpt lat="48.33434" lon="2.78186">
        <ele>51</ele>
        <time>2023-08-09T14:19:44.101+00:00</time>
      </trkpt>
      <trkpt lat="48.33433" lon="2.78178">
        <ele>51</ele>
        <time>2023-08-09T14:19:48.125+00:00</time>
      </trkpt>
      <trkpt lat="48.3343" lon="2.7817">
        <ele>51</ele>
        <time>2023-08-09T14:19:53.108+00:00</time>
      </trkpt>
      <trkpt lat="48.33428" lon="2.78162">
        <ele>51</ele>
        <time>2023-08-09T14:19:57.147+00:00</time>
      </trkpt>
      <trkpt lat="48.33427" lon="2.78155">
        <ele>51</ele>
        <time>2023-08-09T14:20:01.131+00:00</time>
      </trkpt>
      <trkpt lat="48.33426" lon="2.78149">
        <ele>51</ele>
        <time>2023-08-09T14:20:05.149+00:00</time>
      </trkpt>
      <trkpt lat="48.33422" lon="2.78141">
        <ele>51</ele>
        <time>2023-08-09T14:20:14.111+00:00</time>
      </trkpt>
      <trkpt lat="48.33422" lon="2.78141">
        <ele>51</ele>
        <time>2023-08-09T14:20:19.109+00:00</time>
      </trkpt>
      <trkpt lat="48.33422" lon="2.78141">
        <ele>51</ele>
        <time>2023-08-09T14:20:23.143+00:00</time>
      </trkpt>
      <trkpt lat="48.33422" lon="2.78141">
        <ele>51</ele>
        <time>2023-08-09T14:20:27.140+00:00</time>
      </trkpt>
      <trkpt lat="48.33418" lon="2.78134">
        <ele>51</ele>
        <time>2023-08-09T14:20:32.147+00:00</time>
      </trkpt>
      <trkpt lat="48.33416" lon="2.78129">
        <ele>51</ele>
        <time>2023-08-09T14:20:37.126+00:00</time>
      </trkpt>
      <trkpt lat="48.33414" lon="2.78125">
        <ele>51</ele>
        <time>2023-08-09T14:20:42.131+00:00</time>
      </trkpt>
      <trkpt lat="48.33412" lon="2.78118">
        <ele>51</ele>
        <time>2023-08-09T14:20:47.105+00:00</time>
      </trkpt>
      <trkpt lat="48.3341" lon="2.7811">
        <ele>51</ele>
        <time>2023-08-09T14:20:51.116+00:00</time>
      </trkpt>
      <trkpt lat="48.33405" lon="2.78105">
        <ele>51</ele>
        <time>2023-08-09T14:20:55.140+00:00</time>
      </trkpt>
      <trkpt lat="48.33402" lon="2.78097">
        <ele>52</ele>
        <time>2023-08-09T14:21:00.119+00:00</time>
      </trkpt>
      <trkpt lat="48.334" lon="2.78087">
        <ele>52</ele>
        <time>2023-08-09T14:21:05.114+00:00</time>
      </trkpt>
      <trkpt lat="48.33397" lon="2.78079">
        <ele>52</ele>
        <time>2023-08-09T14:21:10.104+00:00</time>
      </trkpt>
      <trkpt lat="48.33394" lon="2.78071">
        <ele>52</ele>
        <time>2023-08-09T14:21:14.113+00:00</time>
      </trkpt>
      <trkpt lat="48.33391" lon="2.78066">
        <ele>53</ele>
        <time>2023-08-09T14:21:18.128+00:00</time>
      </trkpt>
      <trkpt lat="48.3339" lon="2.78058">
        <ele>53</ele>
        <time>2023-08-09T14:21:22.119+00:00</time>
      </trkpt>
      <trkpt lat="48.33388" lon="2.78048">
        <ele>53</ele>
        <time>2023-08-09T14:21:27.112+00:00</time>
      </trkpt>
      <trkpt lat="48.33386" lon="2.78045">
        <ele>53</ele>
        <time>2023-08-09T14:22:00.130+00:00</time>
      </trkpt>
      <trkpt lat="48.33386" lon="2.78047">
        <ele>53</ele>
        <time>2023-08-09T14:22:05.104+00:00</time>
      </trkpt>
      <trkpt lat="48.33386" lon="2.78047">
        <ele>53</ele>
        <time>2023-08-09T14:22:09.135+00:00</time>
      </trkpt>
      <trkpt lat="48.33386" lon="2.78055">
        <ele>53</ele>
        <time>2023-08-09T14:22:14.138+00:00</time>
      </trkpt>
      <trkpt lat="48.3338" lon="2.78059">
        <ele>53</ele>
        <time>2023-08-09T14:22:19.126+00:00</time>
      </trkpt>
      <trkpt lat="48.33373" lon="2.7806">
        <ele>53</ele>
        <time>2023-08-09T14:22:24.134+00:00</time>
      </trkpt>
      <trkpt lat="48.33367" lon="2.78061">
        <ele>53</ele>
        <time>2023-08-09T14:22:29.111+00:00</time>
      </trkpt>
      <trkpt lat="48.33363" lon="2.78063">
        <ele>53</ele>
        <time>2023-08-09T14:22:33.013+00:00</time>
      </trkpt>
      <trkpt lat="48.33362" lon="2.78064">
        <ele>53</ele>
        <time>2023-08-09T14:22:38.014+00:00</time>
      </trkpt>
      <trkpt lat="48.33362" lon="2.78064">
        <ele>53</ele>
        <time>2023-08-09T14:22:55.137+00:00</time>
      </trkpt>
      <trkpt lat="48.33356" lon="2.78066">
        <ele>53</ele>
        <time>2023-08-09T14:23:00.131+00:00</time>
      </trkpt>
      <trkpt lat="48.3335" lon="2.78068">
        <ele>53</ele>
        <time>2023-08-09T14:23:04.138+00:00</time>
      </trkpt>
      <trkpt lat="48.33343" lon="2.7807">
        <ele>53</ele>
        <time>2023-08-09T14:23:09.124+00:00</time>
      </trkpt>
      <trkpt lat="48.33337" lon="2.78071">
        <ele>53</ele>
        <time>2023-08-09T14:23:14.108+00:00</time>
      </trkpt>
      <trkpt lat="48.33331" lon="2.78072">
        <ele>53</ele>
        <time>2023-08-09T14:23:18.104+00:00</time>
      </trkpt>
      <trkpt lat="48.33325" lon="2.78073">
        <ele>53</ele>
        <time>2023-08-09T14:23:22.130+00:00</time>
      </trkpt>
      <trkpt lat="48.33319" lon="2.78076">
        <ele>55</ele>
        <time>2023-08-09T14:23:27.149+00:00</time>
      </trkpt>
      <trkpt lat="48.33313" lon="2.78079">
        <ele>55</ele>
        <time>2023-08-09T14:23:32.144+00:00</time>
      </trkpt>
      <trkpt lat="48.33306" lon="2.78079">
        <ele>55</ele>
        <time>2023-08-09T14:23:37.127+00:00</time>
      </trkpt>
      <trkpt lat="48.33305" lon="2.7807">
        <ele>55</ele>
        <time>2023-08-09T14:23:42.128+00:00</time>
      </trkpt>
      <trkpt lat="48.33303" lon="2.78059">
        <ele>55</ele>
        <time>2023-08-09T14:23:47.123+00:00</time>
      </trkpt>
      <trkpt lat="48.33302" lon="2.78052">
        <ele>55</ele>
        <time>2023-08-09T14:23:51.135+00:00</time>
      </trkpt>
      <trkpt lat="48.333" lon="2.78041">
        <ele>54</ele>
        <time>2023-08-09T14:23:56.113+00:00</time>
      </trkpt>
      <trkpt lat="48.33299" lon="2.78032">
        <ele>54</ele>
        <time>2023-08-09T14:24:01.116+00:00</time>
      </trkpt>
      <trkpt lat="48.33298" lon="2.78024">
        <ele>54</ele>
        <time>2023-08-09T14:24:05.152+00:00</time>
      </trkpt>
      <trkpt lat="48.33296" lon="2.78014">
        <ele>54</ele>
        <time>2023-08-09T14:24:10.119+00:00</time>
      </trkpt>
      <trkpt lat="48.33294" lon="2.78004">
        <ele>54</ele>
        <time>2023-08-09T14:24:15.129+00:00</time>
      </trkpt>
      <trkpt lat="48.3329" lon="2.77996">
        <ele>54</ele>
        <time>2023-08-09T14:24:20.102+00:00</time>
      </trkpt>
      <trkpt lat="48.33286" lon="2.77989">
        <ele>54</ele>
        <time>2023-08-09T14:24:24.139+00:00</time>
      </trkpt>
      <trkpt lat="48.33283" lon="2.77983">
        <ele>54</ele>
        <time>2023-08-09T14:24:28.635+00:00</time>
      </trkpt>
      <trkpt lat="48.33274" lon="2.77976">
        <ele>54</ele>
        <time>2023-08-09T14:28:01.158+00:00</time>
      </trkpt>
      <trkpt lat="48.33274" lon="2.77974">
        <ele>54</ele>
        <time>2023-08-09T14:28:06.132+00:00</time>
      </trkpt>
      <trkpt lat="48.33274" lon="2.77975">
        <ele>54</ele>
        <time>2023-08-09T14:28:10.139+00:00</time>
      </trkpt>
      <trkpt lat="48.33274" lon="2.77971">
        <ele>54</ele>
        <time>2023-08-09T14:28:15.116+00:00</time>
      </trkpt>
      <trkpt lat="48.33274" lon="2.77962">
        <ele>54</ele>
        <time>2023-08-09T14:28:20.126+00:00</time>
      </trkpt>
      <trkpt lat="48.3327" lon="2.77954">
        <ele>53</ele>
        <time>2023-08-09T14:28:25.104+00:00</time>
      </trkpt>
      <trkpt lat="48.33268" lon="2.7795">
        <ele>53</ele>
        <time>2023-08-09T14:28:29.102+00:00</time>
      </trkpt>
      <trkpt lat="48.33265" lon="2.77943">
        <ele>53</ele>
        <time>2023-08-09T14:28:34.114+00:00</time>
      </trkpt>
      <trkpt lat="48.33262" lon="2.77937">
        <ele>53</ele>
        <time>2023-08-09T14:28:39.100+00:00</time>
      </trkpt>
      <trkpt lat="48.33258" lon="2.77936">
        <ele>53</ele>
        <time>2023-08-09T14:28:44.118+00:00</time>
      </trkpt>
      <trkpt lat="48.33252" lon="2.7794">
        <ele>53</ele>
        <time>2023-08-09T14:28:49.099+00:00</time>
      </trkpt>
      <trkpt lat="48.33248" lon="2.77942">
        <ele>53</ele>
        <time>2023-08-09T14:28:53.128+00:00</time>
      </trkpt>
      <trkpt lat="48.33243" lon="2.77944">
        <ele>53</ele>
        <time>2023-08-09T14:28:57.152+00:00</time>
      </trkpt>
      <trkpt lat="48.33237" lon="2.77947">
        <ele>53</ele>
        <time>2023-08-09T14:29:02.140+00:00</time>
      </trkpt>
      <trkpt lat="48.33231" lon="2.77951">
        <ele>52</ele>
        <time>2023-08-09T14:29:07.138+00:00</time>
      </trkpt>
      <trkpt lat="48.33225" lon="2.77955">
        <ele>52</ele>
        <time>2023-08-09T14:29:12.137+00:00</time>
      </trkpt>
      <trkpt lat="48.3322" lon="2.77958">
        <ele>52</ele>
        <time>2023-08-09T14:29:16.138+00:00</time>
      </trkpt>
      <trkpt lat="48.33215" lon="2.77962">
        <ele>52</ele>
        <time>2023-08-09T14:29:20.134+00:00</time>
      </trkpt>
      <trkpt lat="48.33209" lon="2.77966">
        <ele>52</ele>
        <time>2023-08-09T14:29:25.134+00:00</time>
      </trkpt>
      <trkpt lat="48.33202" lon="2.77971">
        <ele>52</ele>
        <time>2023-08-09T14:29:30.139+00:00</time>
      </trkpt>
      <trkpt lat="48.33197" lon="2.77974">
        <ele>52</ele>
        <time>2023-08-09T14:29:35.128+00:00</time>
      </trkpt>
      <trkpt lat="48.33194" lon="2.77976">
        <ele>52</ele>
        <time>2023-08-09T14:29:40.098+00:00</time>
      </trkpt>
      <trkpt lat="48.33193" lon="2.77975">
        <ele>52</ele>
        <time>2023-08-09T14:29:44.140+00:00</time>
      </trkpt>
      <trkpt lat="48.33195" lon="2.77972">
        <ele>52</ele>
        <time>2023-08-09T14:29:49.124+00:00</time>
      </trkpt>
      <trkpt lat="48.33191" lon="2.77965">
        <ele>52</ele>
        <time>2023-08-09T14:29:54.128+00:00</time>
      </trkpt>
      <trkpt lat="48.33188" lon="2.77958">
        <ele>51</ele>
        <time>2023-08-09T14:29:58.157+00:00</time>
      </trkpt>
      <trkpt lat="48.33185" lon="2.77948">
        <ele>51</ele>
        <time>2023-08-09T14:30:03.139+00:00</time>
      </trkpt>
      <trkpt lat="48.33183" lon="2.77939">
        <ele>51</ele>
        <time>2023-08-09T14:30:08.135+00:00</time>
      </trkpt>
      <trkpt lat="48.33181" lon="2.77931">
        <ele>51</ele>
        <time>2023-08-09T14:30:12.144+00:00</time>
      </trkpt>
      <trkpt lat="48.33179" lon="2.77923">
        <ele>51</ele>
        <time>2023-08-09T14:30:17.141+00:00</time>
      </trkpt>
      <trkpt lat="48.33177" lon="2.77915">
        <ele>51</ele>
        <time>2023-08-09T14:30:21.150+00:00</time>
      </trkpt>
      <trkpt lat="48.33174" lon="2.77907">
        <ele>51</ele>
        <time>2023-08-09T14:30:26.123+00:00</time>
      </trkpt>
      <trkpt lat="48.33172" lon="2.779">
        <ele>51</ele>
        <time>2023-08-09T14:30:30.145+00:00</time>
      </trkpt>
      <trkpt lat="48.33168" lon="2.77892">
        <ele>51</ele>
        <time>2023-08-09T14:30:35.156+00:00</time>
      </trkpt>
      <trkpt lat="48.33165" lon="2.77884">
        <ele>51</ele>
        <time>2023-08-09T14:30:40.130+00:00</time>
      </trkpt>
      <trkpt lat="48.33162" lon="2.77875">
        <ele>51</ele>
        <time>2023-08-09T14:30:45.146+00:00</time>
      </trkpt>
      <trkpt lat="48.33159" lon="2.77868">
        <ele>52</ele>
        <time>2023-08-09T14:30:50.141+00:00</time>
      </trkpt>
      <trkpt lat="48.33157" lon="2.77862">
        <ele>52</ele>
        <time>2023-08-09T14:30:54.133+00:00</time>
      </trkpt>
      <trkpt lat="48.33157" lon="2.77855">
        <ele>52</ele>
        <time>2023-08-09T14:30:58.132+00:00</time>
      </trkpt>
      <trkpt lat="48.33155" lon="2.77847">
        <ele>55</ele>
        <time>2023-08-09T14:31:03.119+00:00</time>
      </trkpt>
      <trkpt lat="48.33153" lon="2.77842">
        <ele>55</ele>
        <time>2023-08-09T14:31:07.150+00:00</time>
      </trkpt>
      <trkpt lat="48.33149" lon="2.77837">
        <ele>55</ele>
        <time>2023-08-09T14:31:12.124+00:00</time>
      </trkpt>
    </trkseg>
  </trk>
</gpx>